<?xml version="1.0" encoding="UTF-8" standalone="no" ?>
<gpx xmlns="http://www.topografix.com/GPX/1/1" xmlns:xsi="http://www.w3.org/2001/XMLSchema-instance" xsi:schemaLocation="http://www.topografix.com/GPX/1/1 http://www.topografix.com/GPX/1/1/gpx.xsd" version="1.1" creator="VisuGPX - https://www.visugpx.com">
  <metadata>
    <name>Canal du Midi : Argeliers - Poilhes</name>
    <desc><![CDATA[Canal du Midi : Argeliers - Poilhes]]></desc>
  </metadata>
  <trk>
    <name><![CDATA[? - Poilhes]]></name>
    <desc><![CDATA[]]></desc>
    <trkseg>
      <trkpt lat="43.31463" lon="2.95616">
        <ele>36.6</ele>
        <time>2015-08-03T13:02:46.995Z</time>
      </trkpt>
      <trkpt lat="43.31462" lon="2.95604">
        <ele>37.5</ele>
        <time>2015-08-03T13:03:10.009Z</time>
      </trkpt>
      <trkpt lat="43.3146" lon="2.95604">
        <ele>37.3</ele>
        <time>2015-08-03T13:03:10.960Z</time>
      </trkpt>
      <trkpt lat="43.31457" lon="2.95615">
        <ele>36.3</ele>
        <time>2015-08-03T13:03:19.007Z</time>
      </trkpt>
      <trkpt lat="43.31457" lon="2.95617">
        <ele>36.2</ele>
        <time>2015-08-03T13:03:19.962Z</time>
      </trkpt>
      <trkpt lat="43.31458" lon="2.95629">
        <ele>36.2</ele>
        <time>2015-08-03T13:03:26.012Z</time>
      </trkpt>
      <trkpt lat="43.31457" lon="2.9563">
        <ele>36.2</ele>
        <time>2015-08-03T13:03:26.960Z</time>
      </trkpt>
      <trkpt lat="43.31456" lon="2.95641">
        <ele>36.6</ele>
        <time>2015-08-03T13:03:34.045Z</time>
      </trkpt>
      <trkpt lat="43.31456" lon="2.95643">
        <ele>36.8</ele>
        <time>2015-08-03T13:03:34.962Z</time>
      </trkpt>
      <trkpt lat="43.31454" lon="2.95654">
        <ele>36.8</ele>
        <time>2015-08-03T13:03:41.017Z</time>
      </trkpt>
      <trkpt lat="43.31454" lon="2.95656">
        <ele>36.8</ele>
        <time>2015-08-03T13:03:41.984Z</time>
      </trkpt>
      <trkpt lat="43.31453" lon="2.95667">
        <ele>37</ele>
        <time>2015-08-03T13:03:47.007Z</time>
      </trkpt>
      <trkpt lat="43.31454" lon="2.95669">
        <ele>36.9</ele>
        <time>2015-08-03T13:03:47.983Z</time>
      </trkpt>
      <trkpt lat="43.31454" lon="2.9568">
        <ele>37.4</ele>
        <time>2015-08-03T13:03:54.011Z</time>
      </trkpt>
      <trkpt lat="43.31454" lon="2.95681">
        <ele>37.6</ele>
        <time>2015-08-03T13:03:54.964Z</time>
      </trkpt>
      <trkpt lat="43.31451" lon="2.95691">
        <ele>38.4</ele>
        <time>2015-08-03T13:04:01.027Z</time>
      </trkpt>
      <trkpt lat="43.3145" lon="2.95692">
        <ele>38.6</ele>
        <time>2015-08-03T13:04:01.983Z</time>
      </trkpt>
      <trkpt lat="43.31442" lon="2.95693">
        <ele>39.2</ele>
        <time>2015-08-03T13:04:08.038Z</time>
      </trkpt>
      <trkpt lat="43.3144" lon="2.95693">
        <ele>39.4</ele>
        <time>2015-08-03T13:04:08.972Z</time>
      </trkpt>
      <trkpt lat="43.31433" lon="2.95698">
        <ele>40.4</ele>
        <time>2015-08-03T13:04:16.039Z</time>
      </trkpt>
      <trkpt lat="43.31431" lon="2.95699">
        <ele>40.7</ele>
        <time>2015-08-03T13:04:16.968Z</time>
      </trkpt>
      <trkpt lat="43.31422" lon="2.95699">
        <ele>41.3</ele>
        <time>2015-08-03T13:04:20.998Z</time>
      </trkpt>
      <trkpt lat="43.3142" lon="2.95698">
        <ele>41.8</ele>
        <time>2015-08-03T13:04:21.959Z</time>
      </trkpt>
      <trkpt lat="43.31411" lon="2.95698">
        <ele>41.5</ele>
        <time>2015-08-03T13:04:30.024Z</time>
      </trkpt>
      <trkpt lat="43.31411" lon="2.95698">
        <ele>41.2</ele>
        <time>2015-08-03T13:04:30.962Z</time>
      </trkpt>
      <trkpt lat="43.31412" lon="2.9571">
        <ele>34.8</ele>
        <time>2015-08-03T13:05:12.035Z</time>
      </trkpt>
      <trkpt lat="43.31411" lon="2.95713">
        <ele>34.7</ele>
        <time>2015-08-03T13:05:12.971Z</time>
      </trkpt>
      <trkpt lat="43.31409" lon="2.95722">
        <ele>34.3</ele>
        <time>2015-08-03T13:05:14.995Z</time>
      </trkpt>
      <trkpt lat="43.31408" lon="2.95727">
        <ele>33.9</ele>
        <time>2015-08-03T13:05:15.961Z</time>
      </trkpt>
      <trkpt lat="43.31406" lon="2.95739">
        <ele>33.3</ele>
        <time>2015-08-03T13:05:18.013Z</time>
      </trkpt>
      <trkpt lat="43.31404" lon="2.95744">
        <ele>32.9</ele>
        <time>2015-08-03T13:05:18.962Z</time>
      </trkpt>
      <trkpt lat="43.31402" lon="2.95754">
        <ele>32.7</ele>
        <time>2015-08-03T13:05:21.019Z</time>
      </trkpt>
      <trkpt lat="43.31401" lon="2.95758">
        <ele>32.3</ele>
        <time>2015-08-03T13:05:21.983Z</time>
      </trkpt>
      <trkpt lat="43.31399" lon="2.95767">
        <ele>32.2</ele>
        <time>2015-08-03T13:05:24.049Z</time>
      </trkpt>
      <trkpt lat="43.31397" lon="2.95771">
        <ele>32</ele>
        <time>2015-08-03T13:05:24.959Z</time>
      </trkpt>
      <trkpt lat="43.31395" lon="2.95778">
        <ele>31.7</ele>
        <time>2015-08-03T13:05:26.996Z</time>
      </trkpt>
      <trkpt lat="43.31394" lon="2.95782">
        <ele>31.7</ele>
        <time>2015-08-03T13:05:27.969Z</time>
      </trkpt>
      <trkpt lat="43.31391" lon="2.95791">
        <ele>31.4</ele>
        <time>2015-08-03T13:05:30.001Z</time>
      </trkpt>
      <trkpt lat="43.31389" lon="2.95796">
        <ele>31.2</ele>
        <time>2015-08-03T13:05:30.958Z</time>
      </trkpt>
      <trkpt lat="43.31387" lon="2.95804">
        <ele>30.3</ele>
        <time>2015-08-03T13:05:32.998Z</time>
      </trkpt>
      <trkpt lat="43.31385" lon="2.95808">
        <ele>30.5</ele>
        <time>2015-08-03T13:05:33.958Z</time>
      </trkpt>
      <trkpt lat="43.31382" lon="2.95819">
        <ele>29.2</ele>
        <time>2015-08-03T13:05:37.005Z</time>
      </trkpt>
      <trkpt lat="43.31381" lon="2.95822">
        <ele>29.1</ele>
        <time>2015-08-03T13:05:37.967Z</time>
      </trkpt>
      <trkpt lat="43.31378" lon="2.9583">
        <ele>28.2</ele>
        <time>2015-08-03T13:05:40.010Z</time>
      </trkpt>
      <trkpt lat="43.31377" lon="2.95834">
        <ele>28</ele>
        <time>2015-08-03T13:05:40.959Z</time>
      </trkpt>
      <trkpt lat="43.31374" lon="2.95842">
        <ele>27.5</ele>
        <time>2015-08-03T13:05:43.067Z</time>
      </trkpt>
      <trkpt lat="43.31373" lon="2.95846">
        <ele>27.3</ele>
        <time>2015-08-03T13:05:43.961Z</time>
      </trkpt>
      <trkpt lat="43.31371" lon="2.95857">
        <ele>26.1</ele>
        <time>2015-08-03T13:05:47.006Z</time>
      </trkpt>
      <trkpt lat="43.3137" lon="2.95861">
        <ele>25.8</ele>
        <time>2015-08-03T13:05:47.971Z</time>
      </trkpt>
      <trkpt lat="43.31367" lon="2.95872">
        <ele>25.9</ele>
        <time>2015-08-03T13:05:51.041Z</time>
      </trkpt>
      <trkpt lat="43.31367" lon="2.95876">
        <ele>26.1</ele>
        <time>2015-08-03T13:05:51.962Z</time>
      </trkpt>
      <trkpt lat="43.31364" lon="2.95885">
        <ele>26.6</ele>
        <time>2015-08-03T13:05:55.008Z</time>
      </trkpt>
      <trkpt lat="43.31363" lon="2.9589">
        <ele>26.5</ele>
        <time>2015-08-03T13:05:55.963Z</time>
      </trkpt>
      <trkpt lat="43.31361" lon="2.95898">
        <ele>26.7</ele>
        <time>2015-08-03T13:05:58.014Z</time>
      </trkpt>
      <trkpt lat="43.3136" lon="2.95902">
        <ele>27.2</ele>
        <time>2015-08-03T13:05:58.959Z</time>
      </trkpt>
      <trkpt lat="43.31359" lon="2.95911">
        <ele>27</ele>
        <time>2015-08-03T13:06:01.027Z</time>
      </trkpt>
      <trkpt lat="43.31358" lon="2.95915">
        <ele>27</ele>
        <time>2015-08-03T13:06:01.983Z</time>
      </trkpt>
      <trkpt lat="43.31357" lon="2.95924">
        <ele>27.2</ele>
        <time>2015-08-03T13:06:04.031Z</time>
      </trkpt>
      <trkpt lat="43.31356" lon="2.95928">
        <ele>27.1</ele>
        <time>2015-08-03T13:06:04.960Z</time>
      </trkpt>
      <trkpt lat="43.31355" lon="2.95936">
        <ele>27.3</ele>
        <time>2015-08-03T13:06:07.008Z</time>
      </trkpt>
      <trkpt lat="43.31355" lon="2.95941">
        <ele>27.1</ele>
        <time>2015-08-03T13:06:07.963Z</time>
      </trkpt>
      <trkpt lat="43.31354" lon="2.9595">
        <ele>27.1</ele>
        <time>2015-08-03T13:06:10.004Z</time>
      </trkpt>
      <trkpt lat="43.31354" lon="2.95954">
        <ele>27.5</ele>
        <time>2015-08-03T13:06:10.961Z</time>
      </trkpt>
      <trkpt lat="43.31353" lon="2.95962">
        <ele>27.5</ele>
        <time>2015-08-03T13:06:13.014Z</time>
      </trkpt>
      <trkpt lat="43.31353" lon="2.95966">
        <ele>27.7</ele>
        <time>2015-08-03T13:06:13.963Z</time>
      </trkpt>
      <trkpt lat="43.31352" lon="2.95975">
        <ele>27.5</ele>
        <time>2015-08-03T13:06:16.037Z</time>
      </trkpt>
      <trkpt lat="43.31352" lon="2.95979">
        <ele>26.8</ele>
        <time>2015-08-03T13:06:16.989Z</time>
      </trkpt>
      <trkpt lat="43.31352" lon="2.95989">
        <ele>26.6</ele>
        <time>2015-08-03T13:06:19.007Z</time>
      </trkpt>
      <trkpt lat="43.31351" lon="2.95993">
        <ele>26.8</ele>
        <time>2015-08-03T13:06:19.964Z</time>
      </trkpt>
      <trkpt lat="43.31351" lon="2.96003">
        <ele>26.8</ele>
        <time>2015-08-03T13:06:21.999Z</time>
      </trkpt>
      <trkpt lat="43.3135" lon="2.96007">
        <ele>26.7</ele>
        <time>2015-08-03T13:06:22.958Z</time>
      </trkpt>
      <trkpt lat="43.31349" lon="2.96017">
        <ele>26.6</ele>
        <time>2015-08-03T13:06:24.999Z</time>
      </trkpt>
      <trkpt lat="43.31349" lon="2.96022">
        <ele>26.7</ele>
        <time>2015-08-03T13:06:25.959Z</time>
      </trkpt>
      <trkpt lat="43.31349" lon="2.96031">
        <ele>26.2</ele>
        <time>2015-08-03T13:06:28.043Z</time>
      </trkpt>
      <trkpt lat="43.31349" lon="2.96036">
        <ele>26.1</ele>
        <time>2015-08-03T13:06:28.956Z</time>
      </trkpt>
      <trkpt lat="43.31348" lon="2.96045">
        <ele>25.8</ele>
        <time>2015-08-03T13:06:31.007Z</time>
      </trkpt>
      <trkpt lat="43.31348" lon="2.9605">
        <ele>25.6</ele>
        <time>2015-08-03T13:06:31.960Z</time>
      </trkpt>
      <trkpt lat="43.31347" lon="2.9606">
        <ele>25.3</ele>
        <time>2015-08-03T13:06:34.077Z</time>
      </trkpt>
      <trkpt lat="43.31347" lon="2.96064">
        <ele>25.1</ele>
        <time>2015-08-03T13:06:35.343Z</time>
      </trkpt>
      <trkpt lat="43.31349" lon="2.96076">
        <ele>23.8</ele>
        <time>2015-08-03T13:06:38.006Z</time>
      </trkpt>
      <trkpt lat="43.31349" lon="2.9608">
        <ele>23.1</ele>
        <time>2015-08-03T13:06:38.962Z</time>
      </trkpt>
      <trkpt lat="43.31348" lon="2.96092">
        <ele>22.2</ele>
        <time>2015-08-03T13:06:42.037Z</time>
      </trkpt>
      <trkpt lat="43.31348" lon="2.96096">
        <ele>21.9</ele>
        <time>2015-08-03T13:06:42.972Z</time>
      </trkpt>
      <trkpt lat="43.31348" lon="2.96105">
        <ele>21</ele>
        <time>2015-08-03T13:06:44.994Z</time>
      </trkpt>
      <trkpt lat="43.31348" lon="2.9611">
        <ele>20.7</ele>
        <time>2015-08-03T13:06:45.958Z</time>
      </trkpt>
      <trkpt lat="43.31347" lon="2.9612">
        <ele>20.7</ele>
        <time>2015-08-03T13:06:48.001Z</time>
      </trkpt>
      <trkpt lat="43.31347" lon="2.96124">
        <ele>20.8</ele>
        <time>2015-08-03T13:06:48.958Z</time>
      </trkpt>
      <trkpt lat="43.31346" lon="2.96133">
        <ele>21</ele>
        <time>2015-08-03T13:06:51.007Z</time>
      </trkpt>
      <trkpt lat="43.31346" lon="2.96138">
        <ele>21.1</ele>
        <time>2015-08-03T13:06:51.969Z</time>
      </trkpt>
      <trkpt lat="43.31345" lon="2.96148">
        <ele>21</ele>
        <time>2015-08-03T13:06:54.028Z</time>
      </trkpt>
      <trkpt lat="43.31345" lon="2.96153">
        <ele>20.8</ele>
        <time>2015-08-03T13:06:54.958Z</time>
      </trkpt>
      <trkpt lat="43.31344" lon="2.96163">
        <ele>20.8</ele>
        <time>2015-08-03T13:06:56.993Z</time>
      </trkpt>
      <trkpt lat="43.31345" lon="2.96168">
        <ele>20.8</ele>
        <time>2015-08-03T13:06:57.959Z</time>
      </trkpt>
      <trkpt lat="43.31345" lon="2.96176">
        <ele>20.6</ele>
        <time>2015-08-03T13:07:00.005Z</time>
      </trkpt>
      <trkpt lat="43.31346" lon="2.9618">
        <ele>20.3</ele>
        <time>2015-08-03T13:07:00.958Z</time>
      </trkpt>
      <trkpt lat="43.31346" lon="2.96189">
        <ele>20</ele>
        <time>2015-08-03T13:07:03.030Z</time>
      </trkpt>
      <trkpt lat="43.31345" lon="2.96193">
        <ele>20</ele>
        <time>2015-08-03T13:07:03.988Z</time>
      </trkpt>
      <trkpt lat="43.31345" lon="2.96203">
        <ele>20.1</ele>
        <time>2015-08-03T13:07:06.007Z</time>
      </trkpt>
      <trkpt lat="43.31345" lon="2.96208">
        <ele>20.2</ele>
        <time>2015-08-03T13:07:06.962Z</time>
      </trkpt>
      <trkpt lat="43.31345" lon="2.96218">
        <ele>20.6</ele>
        <time>2015-08-03T13:07:09.005Z</time>
      </trkpt>
      <trkpt lat="43.31344" lon="2.96223">
        <ele>20.8</ele>
        <time>2015-08-03T13:07:09.958Z</time>
      </trkpt>
      <trkpt lat="43.31346" lon="2.96232">
        <ele>20.6</ele>
        <time>2015-08-03T13:07:12.038Z</time>
      </trkpt>
      <trkpt lat="43.31346" lon="2.96236">
        <ele>20.4</ele>
        <time>2015-08-03T13:07:12.972Z</time>
      </trkpt>
      <trkpt lat="43.31347" lon="2.96246">
        <ele>20.6</ele>
        <time>2015-08-03T13:07:15.006Z</time>
      </trkpt>
      <trkpt lat="43.31348" lon="2.9625">
        <ele>20.9</ele>
        <time>2015-08-03T13:07:15.963Z</time>
      </trkpt>
      <trkpt lat="43.31348" lon="2.96259">
        <ele>21.1</ele>
        <time>2015-08-03T13:07:18.002Z</time>
      </trkpt>
      <trkpt lat="43.31348" lon="2.96264">
        <ele>21</ele>
        <time>2015-08-03T13:07:18.957Z</time>
      </trkpt>
      <trkpt lat="43.31349" lon="2.96275">
        <ele>20.9</ele>
        <time>2015-08-03T13:07:21.333Z</time>
      </trkpt>
      <trkpt lat="43.31349" lon="2.9628">
        <ele>20.7</ele>
        <time>2015-08-03T13:07:21.955Z</time>
      </trkpt>
      <trkpt lat="43.3135" lon="2.96289">
        <ele>20.6</ele>
        <time>2015-08-03T13:07:24.093Z</time>
      </trkpt>
      <trkpt lat="43.31351" lon="2.96293">
        <ele>20.7</ele>
        <time>2015-08-03T13:07:24.972Z</time>
      </trkpt>
      <trkpt lat="43.31352" lon="2.96303">
        <ele>21.6</ele>
        <time>2015-08-03T13:07:28.039Z</time>
      </trkpt>
      <trkpt lat="43.31352" lon="2.96306">
        <ele>21.8</ele>
        <time>2015-08-03T13:07:28.959Z</time>
      </trkpt>
      <trkpt lat="43.31353" lon="2.96316">
        <ele>22.6</ele>
        <time>2015-08-03T13:07:32.059Z</time>
      </trkpt>
      <trkpt lat="43.31354" lon="2.9632">
        <ele>23.4</ele>
        <time>2015-08-03T13:07:32.958Z</time>
      </trkpt>
      <trkpt lat="43.31355" lon="2.96331">
        <ele>25</ele>
        <time>2015-08-03T13:07:37.010Z</time>
      </trkpt>
      <trkpt lat="43.31356" lon="2.96334">
        <ele>25.1</ele>
        <time>2015-08-03T13:07:37.965Z</time>
      </trkpt>
      <trkpt lat="43.31358" lon="2.96343">
        <ele>26.2</ele>
        <time>2015-08-03T13:07:41.038Z</time>
      </trkpt>
      <trkpt lat="43.31358" lon="2.96346">
        <ele>27</ele>
        <time>2015-08-03T13:07:41.961Z</time>
      </trkpt>
      <trkpt lat="43.31359" lon="2.96356">
        <ele>28.4</ele>
        <time>2015-08-03T13:07:44.998Z</time>
      </trkpt>
      <trkpt lat="43.3136" lon="2.96359">
        <ele>28.7</ele>
        <time>2015-08-03T13:07:45.959Z</time>
      </trkpt>
      <trkpt lat="43.31361" lon="2.96368">
        <ele>30</ele>
        <time>2015-08-03T13:07:49.005Z</time>
      </trkpt>
      <trkpt lat="43.31362" lon="2.96372">
        <ele>31.2</ele>
        <time>2015-08-03T13:07:49.967Z</time>
      </trkpt>
      <trkpt lat="43.31365" lon="2.96383">
        <ele>32.7</ele>
        <time>2015-08-03T13:07:53.015Z</time>
      </trkpt>
      <trkpt lat="43.31366" lon="2.96387">
        <ele>33.3</ele>
        <time>2015-08-03T13:07:54.008Z</time>
      </trkpt>
      <trkpt lat="43.31369" lon="2.96394">
        <ele>34.4</ele>
        <time>2015-08-03T13:07:56.015Z</time>
      </trkpt>
      <trkpt lat="43.3137" lon="2.96398">
        <ele>35.2</ele>
        <time>2015-08-03T13:07:56.962Z</time>
      </trkpt>
      <trkpt lat="43.31372" lon="2.96409">
        <ele>36.1</ele>
        <time>2015-08-03T13:08:00.024Z</time>
      </trkpt>
      <trkpt lat="43.31373" lon="2.96412">
        <ele>36.8</ele>
        <time>2015-08-03T13:08:00.971Z</time>
      </trkpt>
      <trkpt lat="43.31375" lon="2.96419">
        <ele>38.2</ele>
        <time>2015-08-03T13:08:03.018Z</time>
      </trkpt>
      <trkpt lat="43.31377" lon="2.96424">
        <ele>38.5</ele>
        <time>2015-08-03T13:08:03.958Z</time>
      </trkpt>
      <trkpt lat="43.31382" lon="2.96431">
        <ele>39.2</ele>
        <time>2015-08-03T13:08:06.009Z</time>
      </trkpt>
      <trkpt lat="43.31384" lon="2.96435">
        <ele>39.7</ele>
        <time>2015-08-03T13:08:06.964Z</time>
      </trkpt>
      <trkpt lat="43.31388" lon="2.96445">
        <ele>40.7</ele>
        <time>2015-08-03T13:08:10.005Z</time>
      </trkpt>
      <trkpt lat="43.31389" lon="2.96447">
        <ele>40.9</ele>
        <time>2015-08-03T13:08:10.959Z</time>
      </trkpt>
      <trkpt lat="43.31394" lon="2.96457">
        <ele>42.6</ele>
        <time>2015-08-03T13:08:14.076Z</time>
      </trkpt>
      <trkpt lat="43.31395" lon="2.96461">
        <ele>43.4</ele>
        <time>2015-08-03T13:08:14.969Z</time>
      </trkpt>
      <trkpt lat="43.31399" lon="2.96471">
        <ele>45.4</ele>
        <time>2015-08-03T13:08:17.998Z</time>
      </trkpt>
      <trkpt lat="43.314" lon="2.96474">
        <ele>46.1</ele>
        <time>2015-08-03T13:08:18.959Z</time>
      </trkpt>
      <trkpt lat="43.31405" lon="2.96484">
        <ele>46.2</ele>
        <time>2015-08-03T13:08:22.121Z</time>
      </trkpt>
      <trkpt lat="43.31408" lon="2.96488">
        <ele>45.5</ele>
        <time>2015-08-03T13:08:22.961Z</time>
      </trkpt>
      <trkpt lat="43.31413" lon="2.96496">
        <ele>45.2</ele>
        <time>2015-08-03T13:08:25.002Z</time>
      </trkpt>
      <trkpt lat="43.31416" lon="2.965">
        <ele>44.6</ele>
        <time>2015-08-03T13:08:25.964Z</time>
      </trkpt>
      <trkpt lat="43.3142" lon="2.96506">
        <ele>44.1</ele>
        <time>2015-08-03T13:08:27.009Z</time>
      </trkpt>
      <trkpt lat="43.31423" lon="2.96512">
        <ele>43.6</ele>
        <time>2015-08-03T13:08:27.961Z</time>
      </trkpt>
      <trkpt lat="43.31427" lon="2.96517">
        <ele>43.3</ele>
        <time>2015-08-03T13:08:29.024Z</time>
      </trkpt>
      <trkpt lat="43.3143" lon="2.96522">
        <ele>42.7</ele>
        <time>2015-08-03T13:08:29.981Z</time>
      </trkpt>
      <trkpt lat="43.31434" lon="2.96529">
        <ele>42.4</ele>
        <time>2015-08-03T13:08:32.049Z</time>
      </trkpt>
      <trkpt lat="43.31437" lon="2.96532">
        <ele>41.8</ele>
        <time>2015-08-03T13:08:32.960Z</time>
      </trkpt>
      <trkpt lat="43.31442" lon="2.96539">
        <ele>39.9</ele>
        <time>2015-08-03T13:08:34.998Z</time>
      </trkpt>
      <trkpt lat="43.31444" lon="2.96543">
        <ele>39.7</ele>
        <time>2015-08-03T13:08:35.959Z</time>
      </trkpt>
      <trkpt lat="43.31448" lon="2.9655">
        <ele>39.3</ele>
        <time>2015-08-03T13:08:38.007Z</time>
      </trkpt>
      <trkpt lat="43.3145" lon="2.96553">
        <ele>38.9</ele>
        <time>2015-08-03T13:08:38.968Z</time>
      </trkpt>
      <trkpt lat="43.31453" lon="2.9656">
        <ele>38.6</ele>
        <time>2015-08-03T13:08:41.030Z</time>
      </trkpt>
      <trkpt lat="43.31456" lon="2.96563">
        <ele>38.4</ele>
        <time>2015-08-03T13:08:41.984Z</time>
      </trkpt>
      <trkpt lat="43.31461" lon="2.96572">
        <ele>39.3</ele>
        <time>2015-08-03T13:08:45.000Z</time>
      </trkpt>
      <trkpt lat="43.31462" lon="2.96575">
        <ele>38.9</ele>
        <time>2015-08-03T13:08:45.958Z</time>
      </trkpt>
      <trkpt lat="43.31467" lon="2.96584">
        <ele>40.1</ele>
        <time>2015-08-03T13:08:48.999Z</time>
      </trkpt>
      <trkpt lat="43.31468" lon="2.96586">
        <ele>40.3</ele>
        <time>2015-08-03T13:08:49.957Z</time>
      </trkpt>
      <trkpt lat="43.31473" lon="2.96595">
        <ele>41.3</ele>
        <time>2015-08-03T13:08:54.026Z</time>
      </trkpt>
      <trkpt lat="43.31475" lon="2.96597">
        <ele>41.6</ele>
        <time>2015-08-03T13:08:54.960Z</time>
      </trkpt>
      <trkpt lat="43.31479" lon="2.96607">
        <ele>42.4</ele>
        <time>2015-08-03T13:08:58.010Z</time>
      </trkpt>
      <trkpt lat="43.31481" lon="2.96611">
        <ele>42.4</ele>
        <time>2015-08-03T13:08:58.959Z</time>
      </trkpt>
      <trkpt lat="43.31483" lon="2.96618">
        <ele>43.3</ele>
        <time>2015-08-03T13:09:01.026Z</time>
      </trkpt>
      <trkpt lat="43.31486" lon="2.96622">
        <ele>43.4</ele>
        <time>2015-08-03T13:09:02.002Z</time>
      </trkpt>
      <trkpt lat="43.31491" lon="2.96631">
        <ele>45.1</ele>
        <time>2015-08-03T13:09:05.002Z</time>
      </trkpt>
      <trkpt lat="43.31493" lon="2.96635">
        <ele>45.7</ele>
        <time>2015-08-03T13:09:05.977Z</time>
      </trkpt>
      <trkpt lat="43.31498" lon="2.96642">
        <ele>46.5</ele>
        <time>2015-08-03T13:09:07.995Z</time>
      </trkpt>
      <trkpt lat="43.31501" lon="2.96647">
        <ele>46.2</ele>
        <time>2015-08-03T13:09:08.957Z</time>
      </trkpt>
      <trkpt lat="43.31507" lon="2.96655">
        <ele>44.5</ele>
        <time>2015-08-03T13:09:10.991Z</time>
      </trkpt>
      <trkpt lat="43.3151" lon="2.9666">
        <ele>43.3</ele>
        <time>2015-08-03T13:09:11.959Z</time>
      </trkpt>
      <trkpt lat="43.31516" lon="2.96666">
        <ele>42.4</ele>
        <time>2015-08-03T13:09:14.263Z</time>
      </trkpt>
      <trkpt lat="43.31518" lon="2.96669">
        <ele>42.3</ele>
        <time>2015-08-03T13:09:14.960Z</time>
      </trkpt>
      <trkpt lat="43.31521" lon="2.96674">
        <ele>41.8</ele>
        <time>2015-08-03T13:09:16.011Z</time>
      </trkpt>
      <trkpt lat="43.31525" lon="2.96678">
        <ele>41.1</ele>
        <time>2015-08-03T13:09:16.960Z</time>
      </trkpt>
      <trkpt lat="43.31531" lon="2.96685">
        <ele>40.7</ele>
        <time>2015-08-03T13:09:19.006Z</time>
      </trkpt>
      <trkpt lat="43.31534" lon="2.96688">
        <ele>40.7</ele>
        <time>2015-08-03T13:09:19.970Z</time>
      </trkpt>
      <trkpt lat="43.3154" lon="2.96696">
        <ele>40.9</ele>
        <time>2015-08-03T13:09:22.007Z</time>
      </trkpt>
      <trkpt lat="43.31543" lon="2.96699">
        <ele>40.5</ele>
        <time>2015-08-03T13:09:22.958Z</time>
      </trkpt>
      <trkpt lat="43.31549" lon="2.96705">
        <ele>40.4</ele>
        <time>2015-08-03T13:09:25.345Z</time>
      </trkpt>
      <trkpt lat="43.31551" lon="2.96708">
        <ele>39.7</ele>
        <time>2015-08-03T13:09:25.965Z</time>
      </trkpt>
      <trkpt lat="43.31556" lon="2.96714">
        <ele>40.2</ele>
        <time>2015-08-03T13:09:28.038Z</time>
      </trkpt>
      <trkpt lat="43.31558" lon="2.96717">
        <ele>40.9</ele>
        <time>2015-08-03T13:09:28.969Z</time>
      </trkpt>
      <trkpt lat="43.31563" lon="2.96723">
        <ele>41.6</ele>
        <time>2015-08-03T13:09:31.336Z</time>
      </trkpt>
      <trkpt lat="43.31565" lon="2.96725">
        <ele>41.6</ele>
        <time>2015-08-03T13:09:31.964Z</time>
      </trkpt>
      <trkpt lat="43.3157" lon="2.96731">
        <ele>41.8</ele>
        <time>2015-08-03T13:09:34.011Z</time>
      </trkpt>
      <trkpt lat="43.31572" lon="2.96733">
        <ele>41.7</ele>
        <time>2015-08-03T13:09:34.969Z</time>
      </trkpt>
      <trkpt lat="43.31579" lon="2.96741">
        <ele>42</ele>
        <time>2015-08-03T13:09:38.008Z</time>
      </trkpt>
      <trkpt lat="43.31581" lon="2.96744">
        <ele>42.2</ele>
        <time>2015-08-03T13:09:38.960Z</time>
      </trkpt>
      <trkpt lat="43.31586" lon="2.9675">
        <ele>42.9</ele>
        <time>2015-08-03T13:09:41.003Z</time>
      </trkpt>
      <trkpt lat="43.31588" lon="2.96753">
        <ele>43</ele>
        <time>2015-08-03T13:09:41.983Z</time>
      </trkpt>
      <trkpt lat="43.31593" lon="2.96761">
        <ele>45.5</ele>
        <time>2015-08-03T13:09:45.006Z</time>
      </trkpt>
      <trkpt lat="43.31596" lon="2.96764">
        <ele>45.6</ele>
        <time>2015-08-03T13:09:45.956Z</time>
      </trkpt>
      <trkpt lat="43.31601" lon="2.96771">
        <ele>46.7</ele>
        <time>2015-08-03T13:09:49.004Z</time>
      </trkpt>
      <trkpt lat="43.31603" lon="2.96774">
        <ele>47.1</ele>
        <time>2015-08-03T13:09:49.961Z</time>
      </trkpt>
      <trkpt lat="43.31609" lon="2.96782">
        <ele>48.1</ele>
        <time>2015-08-03T13:09:53.008Z</time>
      </trkpt>
      <trkpt lat="43.31612" lon="2.96785">
        <ele>47.9</ele>
        <time>2015-08-03T13:09:53.970Z</time>
      </trkpt>
      <trkpt lat="43.31616" lon="2.96791">
        <ele>48.1</ele>
        <time>2015-08-03T13:09:56.009Z</time>
      </trkpt>
      <trkpt lat="43.31618" lon="2.96793">
        <ele>48.2</ele>
        <time>2015-08-03T13:09:56.961Z</time>
      </trkpt>
      <trkpt lat="43.31623" lon="2.96798">
        <ele>48.4</ele>
        <time>2015-08-03T13:09:59.009Z</time>
      </trkpt>
      <trkpt lat="43.31626" lon="2.96801">
        <ele>48.2</ele>
        <time>2015-08-03T13:09:59.986Z</time>
      </trkpt>
      <trkpt lat="43.31631" lon="2.96808">
        <ele>46.7</ele>
        <time>2015-08-03T13:10:02.010Z</time>
      </trkpt>
      <trkpt lat="43.31633" lon="2.96811">
        <ele>46.6</ele>
        <time>2015-08-03T13:10:02.965Z</time>
      </trkpt>
      <trkpt lat="43.31639" lon="2.96817">
        <ele>45.2</ele>
        <time>2015-08-03T13:10:05.005Z</time>
      </trkpt>
      <trkpt lat="43.31641" lon="2.96821">
        <ele>44.6</ele>
        <time>2015-08-03T13:10:05.958Z</time>
      </trkpt>
      <trkpt lat="43.31646" lon="2.96827">
        <ele>44.2</ele>
        <time>2015-08-03T13:10:08.039Z</time>
      </trkpt>
      <trkpt lat="43.31648" lon="2.9683">
        <ele>43.9</ele>
        <time>2015-08-03T13:10:08.969Z</time>
      </trkpt>
      <trkpt lat="43.31653" lon="2.96836">
        <ele>43.6</ele>
        <time>2015-08-03T13:10:11.041Z</time>
      </trkpt>
      <trkpt lat="43.31655" lon="2.9684">
        <ele>43.3</ele>
        <time>2015-08-03T13:10:11.961Z</time>
      </trkpt>
      <trkpt lat="43.3166" lon="2.96847">
        <ele>42.6</ele>
        <time>2015-08-03T13:10:14.005Z</time>
      </trkpt>
      <trkpt lat="43.31662" lon="2.96851">
        <ele>42.3</ele>
        <time>2015-08-03T13:10:14.962Z</time>
      </trkpt>
      <trkpt lat="43.31667" lon="2.96857">
        <ele>40.5</ele>
        <time>2015-08-03T13:10:17.002Z</time>
      </trkpt>
      <trkpt lat="43.31669" lon="2.9686">
        <ele>40.2</ele>
        <time>2015-08-03T13:10:17.967Z</time>
      </trkpt>
      <trkpt lat="43.31675" lon="2.96868">
        <ele>38.8</ele>
        <time>2015-08-03T13:10:20.007Z</time>
      </trkpt>
      <trkpt lat="43.31678" lon="2.96872">
        <ele>37.7</ele>
        <time>2015-08-03T13:10:20.961Z</time>
      </trkpt>
      <trkpt lat="43.31683" lon="2.96879">
        <ele>37</ele>
        <time>2015-08-03T13:10:23.363Z</time>
      </trkpt>
      <trkpt lat="43.31685" lon="2.96882">
        <ele>36.4</ele>
        <time>2015-08-03T13:10:23.959Z</time>
      </trkpt>
      <trkpt lat="43.3169" lon="2.9689">
        <ele>36.4</ele>
        <time>2015-08-03T13:10:26.037Z</time>
      </trkpt>
      <trkpt lat="43.31692" lon="2.96894">
        <ele>36.6</ele>
        <time>2015-08-03T13:10:26.985Z</time>
      </trkpt>
      <trkpt lat="43.31696" lon="2.969">
        <ele>36.2</ele>
        <time>2015-08-03T13:10:29.000Z</time>
      </trkpt>
      <trkpt lat="43.31698" lon="2.96904">
        <ele>35.8</ele>
        <time>2015-08-03T13:10:29.959Z</time>
      </trkpt>
      <trkpt lat="43.31703" lon="2.96911">
        <ele>35.6</ele>
        <time>2015-08-03T13:10:32.003Z</time>
      </trkpt>
      <trkpt lat="43.31705" lon="2.96915">
        <ele>35.4</ele>
        <time>2015-08-03T13:10:32.956Z</time>
      </trkpt>
      <trkpt lat="43.3171" lon="2.96923">
        <ele>35.4</ele>
        <time>2015-08-03T13:10:35.026Z</time>
      </trkpt>
      <trkpt lat="43.31713" lon="2.96927">
        <ele>35.3</ele>
        <time>2015-08-03T13:10:35.971Z</time>
      </trkpt>
      <trkpt lat="43.31717" lon="2.96935">
        <ele>33.5</ele>
        <time>2015-08-03T13:10:38.008Z</time>
      </trkpt>
      <trkpt lat="43.31719" lon="2.96938">
        <ele>33.5</ele>
        <time>2015-08-03T13:10:38.956Z</time>
      </trkpt>
      <trkpt lat="43.31722" lon="2.96945">
        <ele>32.5</ele>
        <time>2015-08-03T13:10:41.003Z</time>
      </trkpt>
      <trkpt lat="43.31724" lon="2.96949">
        <ele>32.7</ele>
        <time>2015-08-03T13:10:41.991Z</time>
      </trkpt>
      <trkpt lat="43.31728" lon="2.96959">
        <ele>31.2</ele>
        <time>2015-08-03T13:10:44.998Z</time>
      </trkpt>
      <trkpt lat="43.3173" lon="2.96962">
        <ele>31.4</ele>
        <time>2015-08-03T13:10:45.957Z</time>
      </trkpt>
      <trkpt lat="43.31734" lon="2.96972">
        <ele>31.3</ele>
        <time>2015-08-03T13:10:49.016Z</time>
      </trkpt>
      <trkpt lat="43.31736" lon="2.96975">
        <ele>31</ele>
        <time>2015-08-03T13:10:49.963Z</time>
      </trkpt>
      <trkpt lat="43.31741" lon="2.96983">
        <ele>30.6</ele>
        <time>2015-08-03T13:10:54.023Z</time>
      </trkpt>
      <trkpt lat="43.31742" lon="2.96986">
        <ele>30.7</ele>
        <time>2015-08-03T13:10:54.973Z</time>
      </trkpt>
      <trkpt lat="43.31746" lon="2.96994">
        <ele>30.7</ele>
        <time>2015-08-03T13:10:58.005Z</time>
      </trkpt>
      <trkpt lat="43.31746" lon="2.96997">
        <ele>31</ele>
        <time>2015-08-03T13:10:59.227Z</time>
      </trkpt>
      <trkpt lat="43.31747" lon="2.97006">
        <ele>33</ele>
        <time>2015-08-03T13:11:02.014Z</time>
      </trkpt>
      <trkpt lat="43.31749" lon="2.9701">
        <ele>33.5</ele>
        <time>2015-08-03T13:11:02.959Z</time>
      </trkpt>
      <trkpt lat="43.31753" lon="2.9702">
        <ele>37.1</ele>
        <time>2015-08-03T13:11:06.009Z</time>
      </trkpt>
      <trkpt lat="43.31755" lon="2.97023">
        <ele>37.7</ele>
        <time>2015-08-03T13:11:06.966Z</time>
      </trkpt>
      <trkpt lat="43.31759" lon="2.9703">
        <ele>38.9</ele>
        <time>2015-08-03T13:11:08.994Z</time>
      </trkpt>
      <trkpt lat="43.31761" lon="2.97034">
        <ele>38.7</ele>
        <time>2015-08-03T13:11:09.956Z</time>
      </trkpt>
      <trkpt lat="43.31765" lon="2.97042">
        <ele>37.6</ele>
        <time>2015-08-03T13:11:11.994Z</time>
      </trkpt>
      <trkpt lat="43.31768" lon="2.97047">
        <ele>37.1</ele>
        <time>2015-08-03T13:11:12.958Z</time>
      </trkpt>
      <trkpt lat="43.31771" lon="2.97053">
        <ele>36.4</ele>
        <time>2015-08-03T13:11:14.075Z</time>
      </trkpt>
      <trkpt lat="43.31773" lon="2.97059">
        <ele>35.6</ele>
        <time>2015-08-03T13:11:14.969Z</time>
      </trkpt>
      <trkpt lat="43.31776" lon="2.97065">
        <ele>34.8</ele>
        <time>2015-08-03T13:11:16.041Z</time>
      </trkpt>
      <trkpt lat="43.31778" lon="2.97073">
        <ele>33.7</ele>
        <time>2015-08-03T13:11:16.970Z</time>
      </trkpt>
      <trkpt lat="43.31781" lon="2.97084">
        <ele>32.7</ele>
        <time>2015-08-03T13:11:19.003Z</time>
      </trkpt>
      <trkpt lat="43.31782" lon="2.9709">
        <ele>32.7</ele>
        <time>2015-08-03T13:11:19.962Z</time>
      </trkpt>
      <trkpt lat="43.31783" lon="2.97099">
        <ele>30.7</ele>
        <time>2015-08-03T13:11:22.025Z</time>
      </trkpt>
      <trkpt lat="43.31784" lon="2.97103">
        <ele>30.4</ele>
        <time>2015-08-03T13:11:22.955Z</time>
      </trkpt>
      <trkpt lat="43.31786" lon="2.97114">
        <ele>28.1</ele>
        <time>2015-08-03T13:11:25.001Z</time>
      </trkpt>
      <trkpt lat="43.31788" lon="2.97119">
        <ele>27.5</ele>
        <time>2015-08-03T13:11:25.970Z</time>
      </trkpt>
      <trkpt lat="43.31789" lon="2.9713">
        <ele>25.7</ele>
        <time>2015-08-03T13:11:28.058Z</time>
      </trkpt>
      <trkpt lat="43.3179" lon="2.97135">
        <ele>25.2</ele>
        <time>2015-08-03T13:11:28.959Z</time>
      </trkpt>
      <trkpt lat="43.31792" lon="2.97144">
        <ele>24.7</ele>
        <time>2015-08-03T13:11:31.002Z</time>
      </trkpt>
      <trkpt lat="43.31791" lon="2.9715">
        <ele>26.2</ele>
        <time>2015-08-03T13:11:31.964Z</time>
      </trkpt>
      <trkpt lat="43.31791" lon="2.97161">
        <ele>26.4</ele>
        <time>2015-08-03T13:11:35.029Z</time>
      </trkpt>
      <trkpt lat="43.31791" lon="2.97165">
        <ele>26.5</ele>
        <time>2015-08-03T13:11:35.983Z</time>
      </trkpt>
      <trkpt lat="43.31789" lon="2.97175">
        <ele>27.3</ele>
        <time>2015-08-03T13:11:38.009Z</time>
      </trkpt>
      <trkpt lat="43.31789" lon="2.9718">
        <ele>27.2</ele>
        <time>2015-08-03T13:11:38.960Z</time>
      </trkpt>
      <trkpt lat="43.31787" lon="2.9719">
        <ele>26.9</ele>
        <time>2015-08-03T13:11:41.004Z</time>
      </trkpt>
      <trkpt lat="43.31787" lon="2.97194">
        <ele>26.5</ele>
        <time>2015-08-03T13:11:41.964Z</time>
      </trkpt>
      <trkpt lat="43.31786" lon="2.97204">
        <ele>25.9</ele>
        <time>2015-08-03T13:11:44.105Z</time>
      </trkpt>
      <trkpt lat="43.31784" lon="2.97209">
        <ele>25.8</ele>
        <time>2015-08-03T13:11:44.958Z</time>
      </trkpt>
      <trkpt lat="43.31782" lon="2.97221">
        <ele>24.9</ele>
        <time>2015-08-03T13:11:47.002Z</time>
      </trkpt>
      <trkpt lat="43.31782" lon="2.97226">
        <ele>24.8</ele>
        <time>2015-08-03T13:11:47.962Z</time>
      </trkpt>
      <trkpt lat="43.3178" lon="2.97236">
        <ele>24.3</ele>
        <time>2015-08-03T13:11:50.008Z</time>
      </trkpt>
      <trkpt lat="43.31779" lon="2.97241">
        <ele>23.9</ele>
        <time>2015-08-03T13:11:50.969Z</time>
      </trkpt>
      <trkpt lat="43.31776" lon="2.97253">
        <ele>24.1</ele>
        <time>2015-08-03T13:11:53.003Z</time>
      </trkpt>
      <trkpt lat="43.31774" lon="2.97258">
        <ele>24.5</ele>
        <time>2015-08-03T13:11:53.958Z</time>
      </trkpt>
      <trkpt lat="43.31771" lon="2.97268">
        <ele>25.2</ele>
        <time>2015-08-03T13:11:55.998Z</time>
      </trkpt>
      <trkpt lat="43.31769" lon="2.97272">
        <ele>26.2</ele>
        <time>2015-08-03T13:11:56.955Z</time>
      </trkpt>
      <trkpt lat="43.31765" lon="2.97281">
        <ele>26.7</ele>
        <time>2015-08-03T13:11:59.003Z</time>
      </trkpt>
      <trkpt lat="43.31763" lon="2.97285">
        <ele>27.1</ele>
        <time>2015-08-03T13:11:59.966Z</time>
      </trkpt>
      <trkpt lat="43.31759" lon="2.97293">
        <ele>28.1</ele>
        <time>2015-08-03T13:12:02.015Z</time>
      </trkpt>
      <trkpt lat="43.31756" lon="2.97298">
        <ele>28.3</ele>
        <time>2015-08-03T13:12:02.970Z</time>
      </trkpt>
      <trkpt lat="43.31752" lon="2.97306">
        <ele>29.3</ele>
        <time>2015-08-03T13:12:04.998Z</time>
      </trkpt>
      <trkpt lat="43.3175" lon="2.9731">
        <ele>29.7</ele>
        <time>2015-08-03T13:12:05.963Z</time>
      </trkpt>
      <trkpt lat="43.31747" lon="2.97319">
        <ele>30.2</ele>
        <time>2015-08-03T13:12:08.000Z</time>
      </trkpt>
      <trkpt lat="43.31745" lon="2.97324">
        <ele>30.2</ele>
        <time>2015-08-03T13:12:08.962Z</time>
      </trkpt>
      <trkpt lat="43.31743" lon="2.97332">
        <ele>30</ele>
        <time>2015-08-03T13:12:11.026Z</time>
      </trkpt>
      <trkpt lat="43.31741" lon="2.97335">
        <ele>30.3</ele>
        <time>2015-08-03T13:12:12.368Z</time>
      </trkpt>
      <trkpt lat="43.31736" lon="2.97346">
        <ele>30.2</ele>
        <time>2015-08-03T13:12:14.997Z</time>
      </trkpt>
      <trkpt lat="43.31735" lon="2.97349">
        <ele>30.1</ele>
        <time>2015-08-03T13:12:15.964Z</time>
      </trkpt>
      <trkpt lat="43.3173" lon="2.97359">
        <ele>30.9</ele>
        <time>2015-08-03T13:12:19.029Z</time>
      </trkpt>
      <trkpt lat="43.31728" lon="2.97362">
        <ele>30.9</ele>
        <time>2015-08-03T13:12:19.982Z</time>
      </trkpt>
      <trkpt lat="43.31724" lon="2.97371">
        <ele>31.1</ele>
        <time>2015-08-03T13:12:23.015Z</time>
      </trkpt>
      <trkpt lat="43.31722" lon="2.97374">
        <ele>31.6</ele>
        <time>2015-08-03T13:12:23.958Z</time>
      </trkpt>
      <trkpt lat="43.31717" lon="2.97384">
        <ele>31.8</ele>
        <time>2015-08-03T13:12:27.064Z</time>
      </trkpt>
      <trkpt lat="43.31716" lon="2.97387">
        <ele>31.8</ele>
        <time>2015-08-03T13:12:28.002Z</time>
      </trkpt>
      <trkpt lat="43.3171" lon="2.97396">
        <ele>32.1</ele>
        <time>2015-08-03T13:12:31.001Z</time>
      </trkpt>
      <trkpt lat="43.31708" lon="2.97399">
        <ele>32</ele>
        <time>2015-08-03T13:12:31.959Z</time>
      </trkpt>
      <trkpt lat="43.31705" lon="2.97406">
        <ele>31.6</ele>
        <time>2015-08-03T13:12:34.017Z</time>
      </trkpt>
      <trkpt lat="43.31702" lon="2.9741">
        <ele>31.5</ele>
        <time>2015-08-03T13:12:34.969Z</time>
      </trkpt>
      <trkpt lat="43.31698" lon="2.9742">
        <ele>31.4</ele>
        <time>2015-08-03T13:12:38.005Z</time>
      </trkpt>
      <trkpt lat="43.31697" lon="2.97423">
        <ele>31.3</ele>
        <time>2015-08-03T13:12:38.962Z</time>
      </trkpt>
      <trkpt lat="43.31693" lon="2.97431">
        <ele>30.7</ele>
        <time>2015-08-03T13:12:42.009Z</time>
      </trkpt>
      <trkpt lat="43.31692" lon="2.97434">
        <ele>30.4</ele>
        <time>2015-08-03T13:12:42.958Z</time>
      </trkpt>
      <trkpt lat="43.31689" lon="2.97445">
        <ele>30.3</ele>
        <time>2015-08-03T13:12:46.000Z</time>
      </trkpt>
      <trkpt lat="43.31688" lon="2.97448">
        <ele>30</ele>
        <time>2015-08-03T13:12:46.961Z</time>
      </trkpt>
      <trkpt lat="43.31686" lon="2.97456">
        <ele>29.5</ele>
        <time>2015-08-03T13:12:49.023Z</time>
      </trkpt>
      <trkpt lat="43.31685" lon="2.9746">
        <ele>29.2</ele>
        <time>2015-08-03T13:12:49.956Z</time>
      </trkpt>
      <trkpt lat="43.31682" lon="2.97472">
        <ele>28.8</ele>
        <time>2015-08-03T13:12:52.998Z</time>
      </trkpt>
      <trkpt lat="43.31681" lon="2.97476">
        <ele>28.8</ele>
        <time>2015-08-03T13:12:53.958Z</time>
      </trkpt>
      <trkpt lat="43.3168" lon="2.97485">
        <ele>28.6</ele>
        <time>2015-08-03T13:12:56.048Z</time>
      </trkpt>
      <trkpt lat="43.31679" lon="2.97489">
        <ele>28.4</ele>
        <time>2015-08-03T13:12:57.153Z</time>
      </trkpt>
      <trkpt lat="43.31678" lon="2.975">
        <ele>27.8</ele>
        <time>2015-08-03T13:13:00.017Z</time>
      </trkpt>
      <trkpt lat="43.31678" lon="2.97504">
        <ele>27.7</ele>
        <time>2015-08-03T13:13:00.959Z</time>
      </trkpt>
      <trkpt lat="43.31677" lon="2.97513">
        <ele>27.6</ele>
        <time>2015-08-03T13:13:03.011Z</time>
      </trkpt>
      <trkpt lat="43.31677" lon="2.97517">
        <ele>27.2</ele>
        <time>2015-08-03T13:13:03.961Z</time>
      </trkpt>
      <trkpt lat="43.31676" lon="2.97526">
        <ele>26.6</ele>
        <time>2015-08-03T13:13:06.012Z</time>
      </trkpt>
      <trkpt lat="43.31676" lon="2.97529">
        <ele>26.2</ele>
        <time>2015-08-03T13:13:06.971Z</time>
      </trkpt>
      <trkpt lat="43.31675" lon="2.97538">
        <ele>25.8</ele>
        <time>2015-08-03T13:13:09.001Z</time>
      </trkpt>
      <trkpt lat="43.31674" lon="2.97542">
        <ele>25.7</ele>
        <time>2015-08-03T13:13:09.969Z</time>
      </trkpt>
      <trkpt lat="43.31673" lon="2.97551">
        <ele>25</ele>
        <time>2015-08-03T13:13:11.998Z</time>
      </trkpt>
      <trkpt lat="43.31672" lon="2.97554">
        <ele>24.7</ele>
        <time>2015-08-03T13:13:12.958Z</time>
      </trkpt>
      <trkpt lat="43.31672" lon="2.97565">
        <ele>23.9</ele>
        <time>2015-08-03T13:13:16.066Z</time>
      </trkpt>
      <trkpt lat="43.31671" lon="2.97569">
        <ele>23.6</ele>
        <time>2015-08-03T13:13:16.956Z</time>
      </trkpt>
      <trkpt lat="43.31672" lon="2.9758">
        <ele>23.2</ele>
        <time>2015-08-03T13:13:19.997Z</time>
      </trkpt>
      <trkpt lat="43.31672" lon="2.97584">
        <ele>23</ele>
        <time>2015-08-03T13:13:20.958Z</time>
      </trkpt>
      <trkpt lat="43.31671" lon="2.97592">
        <ele>22.4</ele>
        <time>2015-08-03T13:13:23.352Z</time>
      </trkpt>
      <trkpt lat="43.3167" lon="2.97597">
        <ele>22.7</ele>
        <time>2015-08-03T13:13:23.965Z</time>
      </trkpt>
      <trkpt lat="43.31669" lon="2.97607">
        <ele>22.5</ele>
        <time>2015-08-03T13:13:27.003Z</time>
      </trkpt>
      <trkpt lat="43.31668" lon="2.9761">
        <ele>22.5</ele>
        <time>2015-08-03T13:13:27.957Z</time>
      </trkpt>
      <trkpt lat="43.31666" lon="2.9762">
        <ele>23.4</ele>
        <time>2015-08-03T13:13:31.050Z</time>
      </trkpt>
      <trkpt lat="43.31666" lon="2.97623">
        <ele>23.7</ele>
        <time>2015-08-03T13:13:31.960Z</time>
      </trkpt>
      <trkpt lat="43.31665" lon="2.97634">
        <ele>24.3</ele>
        <time>2015-08-03T13:13:36.353Z</time>
      </trkpt>
      <trkpt lat="43.31665" lon="2.97637">
        <ele>24.7</ele>
        <time>2015-08-03T13:13:36.963Z</time>
      </trkpt>
      <trkpt lat="43.31662" lon="2.97648">
        <ele>26.2</ele>
        <time>2015-08-03T13:13:41.044Z</time>
      </trkpt>
      <trkpt lat="43.31661" lon="2.9765">
        <ele>26.6</ele>
        <time>2015-08-03T13:13:41.996Z</time>
      </trkpt>
      <trkpt lat="43.31662" lon="2.97662">
        <ele>29</ele>
        <time>2015-08-03T13:13:50.996Z</time>
      </trkpt>
      <trkpt lat="43.31663" lon="2.97662">
        <ele>29</ele>
        <time>2015-08-03T13:13:51.960Z</time>
      </trkpt>
      <trkpt lat="43.31668" lon="2.97671">
        <ele>27.2</ele>
        <time>2015-08-03T13:14:05.000Z</time>
      </trkpt>
      <trkpt lat="43.31668" lon="2.97673">
        <ele>27.3</ele>
        <time>2015-08-03T13:14:05.960Z</time>
      </trkpt>
      <trkpt lat="43.31668" lon="2.97673">
        <ele>27.3</ele>
        <time>2015-08-03T13:14:06.004Z</time>
      </trkpt>
      <trkpt lat="43.31669" lon="2.97673">
        <ele>27.6</ele>
        <time>2015-08-03T13:14:06.972Z</time>
      </trkpt>
      <trkpt lat="43.31669" lon="2.97674">
        <ele>28</ele>
        <time>2015-08-03T13:14:22.392Z</time>
      </trkpt>
      <trkpt lat="43.31669" lon="2.97678">
        <ele>27.4</ele>
        <time>2015-08-03T13:14:22.967Z</time>
      </trkpt>
      <trkpt lat="43.31671" lon="2.97688">
        <ele>27.4</ele>
        <time>2015-08-03T13:14:27.997Z</time>
      </trkpt>
      <trkpt lat="43.31673" lon="2.97691">
        <ele>27.5</ele>
        <time>2015-08-03T13:14:28.980Z</time>
      </trkpt>
      <trkpt lat="43.31675" lon="2.97699">
        <ele>27.7</ele>
        <time>2015-08-03T13:14:32.002Z</time>
      </trkpt>
      <trkpt lat="43.31676" lon="2.97702">
        <ele>27.6</ele>
        <time>2015-08-03T13:14:32.964Z</time>
      </trkpt>
      <trkpt lat="43.3168" lon="2.97713">
        <ele>27.3</ele>
        <time>2015-08-03T13:14:36.042Z</time>
      </trkpt>
      <trkpt lat="43.31682" lon="2.97716">
        <ele>27.1</ele>
        <time>2015-08-03T13:14:36.985Z</time>
      </trkpt>
      <trkpt lat="43.31684" lon="2.97727">
        <ele>26.9</ele>
        <time>2015-08-03T13:14:40.020Z</time>
      </trkpt>
      <trkpt lat="43.31685" lon="2.9773">
        <ele>26.9</ele>
        <time>2015-08-03T13:14:40.981Z</time>
      </trkpt>
      <trkpt lat="43.3169" lon="2.97737">
        <ele>27.3</ele>
        <time>2015-08-03T13:14:44.001Z</time>
      </trkpt>
      <trkpt lat="43.3169" lon="2.9774">
        <ele>27.4</ele>
        <time>2015-08-03T13:14:44.964Z</time>
      </trkpt>
      <trkpt lat="43.31693" lon="2.97751">
        <ele>27.2</ele>
        <time>2015-08-03T13:14:49.035Z</time>
      </trkpt>
      <trkpt lat="43.31695" lon="2.97754">
        <ele>27.3</ele>
        <time>2015-08-03T13:14:49.956Z</time>
      </trkpt>
      <trkpt lat="43.317" lon="2.97763">
        <ele>27.1</ele>
        <time>2015-08-03T13:14:53.010Z</time>
      </trkpt>
      <trkpt lat="43.31704" lon="2.97766">
        <ele>26.8</ele>
        <time>2015-08-03T13:14:53.957Z</time>
      </trkpt>
      <trkpt lat="43.31708" lon="2.97777">
        <ele>26.7</ele>
        <time>2015-08-03T13:14:57.009Z</time>
      </trkpt>
      <trkpt lat="43.31708" lon="2.97781">
        <ele>26.7</ele>
        <time>2015-08-03T13:14:57.959Z</time>
      </trkpt>
      <trkpt lat="43.31709" lon="2.97792">
        <ele>26.7</ele>
        <time>2015-08-03T13:15:01.024Z</time>
      </trkpt>
      <trkpt lat="43.31711" lon="2.97795">
        <ele>26.8</ele>
        <time>2015-08-03T13:15:01.959Z</time>
      </trkpt>
      <trkpt lat="43.31714" lon="2.97805">
        <ele>26.4</ele>
        <time>2015-08-03T13:15:05.006Z</time>
      </trkpt>
      <trkpt lat="43.31715" lon="2.97808">
        <ele>26.3</ele>
        <time>2015-08-03T13:15:05.959Z</time>
      </trkpt>
      <trkpt lat="43.31718" lon="2.97819">
        <ele>26.7</ele>
        <time>2015-08-03T13:15:09.022Z</time>
      </trkpt>
      <trkpt lat="43.31719" lon="2.97823">
        <ele>26.9</ele>
        <time>2015-08-03T13:15:09.957Z</time>
      </trkpt>
      <trkpt lat="43.31721" lon="2.97833">
        <ele>27.3</ele>
        <time>2015-08-03T13:15:13.018Z</time>
      </trkpt>
      <trkpt lat="43.31722" lon="2.97835">
        <ele>27.6</ele>
        <time>2015-08-03T13:15:13.958Z</time>
      </trkpt>
      <trkpt lat="43.31727" lon="2.97843">
        <ele>28</ele>
        <time>2015-08-03T13:15:17.006Z</time>
      </trkpt>
      <trkpt lat="43.31728" lon="2.97846">
        <ele>28.1</ele>
        <time>2015-08-03T13:15:17.959Z</time>
      </trkpt>
      <trkpt lat="43.31731" lon="2.97856">
        <ele>28</ele>
        <time>2015-08-03T13:15:21.009Z</time>
      </trkpt>
      <trkpt lat="43.31731" lon="2.9786">
        <ele>28</ele>
        <time>2015-08-03T13:15:21.969Z</time>
      </trkpt>
      <trkpt lat="43.31733" lon="2.97871">
        <ele>28.1</ele>
        <time>2015-08-03T13:15:25.016Z</time>
      </trkpt>
      <trkpt lat="43.31734" lon="2.97875">
        <ele>28.1</ele>
        <time>2015-08-03T13:15:25.959Z</time>
      </trkpt>
      <trkpt lat="43.31737" lon="2.97884">
        <ele>28</ele>
        <time>2015-08-03T13:15:28.998Z</time>
      </trkpt>
      <trkpt lat="43.31737" lon="2.97886">
        <ele>28.1</ele>
        <time>2015-08-03T13:15:29.957Z</time>
      </trkpt>
      <trkpt lat="43.31738" lon="2.97897">
        <ele>28</ele>
        <time>2015-08-03T13:15:33.999Z</time>
      </trkpt>
      <trkpt lat="43.31738" lon="2.97901">
        <ele>28</ele>
        <time>2015-08-03T13:15:34.983Z</time>
      </trkpt>
      <trkpt lat="43.31739" lon="2.97911">
        <ele>28.3</ele>
        <time>2015-08-03T13:15:38.000Z</time>
      </trkpt>
      <trkpt lat="43.3174" lon="2.97913">
        <ele>28.1</ele>
        <time>2015-08-03T13:15:38.961Z</time>
      </trkpt>
      <trkpt lat="43.31743" lon="2.97924">
        <ele>28.2</ele>
        <time>2015-08-03T13:15:43.026Z</time>
      </trkpt>
      <trkpt lat="43.31744" lon="2.97926">
        <ele>28.5</ele>
        <time>2015-08-03T13:15:43.958Z</time>
      </trkpt>
      <trkpt lat="43.31749" lon="2.97934">
        <ele>27.6</ele>
        <time>2015-08-03T13:15:47.997Z</time>
      </trkpt>
      <trkpt lat="43.31751" lon="2.97937">
        <ele>27.7</ele>
        <time>2015-08-03T13:15:49.018Z</time>
      </trkpt>
      <trkpt lat="43.31752" lon="2.97946">
        <ele>27.2</ele>
        <time>2015-08-03T13:15:51.999Z</time>
      </trkpt>
      <trkpt lat="43.31752" lon="2.9795">
        <ele>27.3</ele>
        <time>2015-08-03T13:15:52.959Z</time>
      </trkpt>
      <trkpt lat="43.31753" lon="2.97962">
        <ele>27.5</ele>
        <time>2015-08-03T13:15:56.000Z</time>
      </trkpt>
      <trkpt lat="43.31754" lon="2.97966">
        <ele>27.7</ele>
        <time>2015-08-03T13:15:56.966Z</time>
      </trkpt>
      <trkpt lat="43.31755" lon="2.97977">
        <ele>27.8</ele>
        <time>2015-08-03T13:16:00.031Z</time>
      </trkpt>
      <trkpt lat="43.31755" lon="2.97981">
        <ele>27.7</ele>
        <time>2015-08-03T13:16:00.968Z</time>
      </trkpt>
      <trkpt lat="43.31757" lon="2.97989">
        <ele>27.9</ele>
        <time>2015-08-03T13:16:03.055Z</time>
      </trkpt>
      <trkpt lat="43.31758" lon="2.97993">
        <ele>27.9</ele>
        <time>2015-08-03T13:16:03.999Z</time>
      </trkpt>
      <trkpt lat="43.31761" lon="2.98004">
        <ele>28</ele>
        <time>2015-08-03T13:16:07.000Z</time>
      </trkpt>
      <trkpt lat="43.31761" lon="2.98007">
        <ele>28.2</ele>
        <time>2015-08-03T13:16:07.959Z</time>
      </trkpt>
      <trkpt lat="43.31763" lon="2.98018">
        <ele>28.4</ele>
        <time>2015-08-03T13:16:11.044Z</time>
      </trkpt>
      <trkpt lat="43.31763" lon="2.98022">
        <ele>28.5</ele>
        <time>2015-08-03T13:16:11.959Z</time>
      </trkpt>
      <trkpt lat="43.31766" lon="2.98032">
        <ele>29</ele>
        <time>2015-08-03T13:16:15.010Z</time>
      </trkpt>
      <trkpt lat="43.31769" lon="2.98035">
        <ele>29.1</ele>
        <time>2015-08-03T13:16:15.955Z</time>
      </trkpt>
      <trkpt lat="43.31773" lon="2.98044">
        <ele>28.9</ele>
        <time>2015-08-03T13:16:19.009Z</time>
      </trkpt>
      <trkpt lat="43.31773" lon="2.98048">
        <ele>29.1</ele>
        <time>2015-08-03T13:16:19.961Z</time>
      </trkpt>
      <trkpt lat="43.31775" lon="2.98056">
        <ele>29</ele>
        <time>2015-08-03T13:16:22.000Z</time>
      </trkpt>
      <trkpt lat="43.31776" lon="2.9806">
        <ele>28.9</ele>
        <time>2015-08-03T13:16:22.955Z</time>
      </trkpt>
      <trkpt lat="43.31778" lon="2.98068">
        <ele>29.3</ele>
        <time>2015-08-03T13:16:25.011Z</time>
      </trkpt>
      <trkpt lat="43.31779" lon="2.98072">
        <ele>29.1</ele>
        <time>2015-08-03T13:16:25.957Z</time>
      </trkpt>
      <trkpt lat="43.31782" lon="2.98082">
        <ele>28.9</ele>
        <time>2015-08-03T13:16:29.008Z</time>
      </trkpt>
      <trkpt lat="43.31783" lon="2.98086">
        <ele>28.9</ele>
        <time>2015-08-03T13:16:29.957Z</time>
      </trkpt>
      <trkpt lat="43.31786" lon="2.98095">
        <ele>29.1</ele>
        <time>2015-08-03T13:16:33.163Z</time>
      </trkpt>
      <trkpt lat="43.31787" lon="2.98098">
        <ele>29</ele>
        <time>2015-08-03T13:16:33.957Z</time>
      </trkpt>
      <trkpt lat="43.31789" lon="2.98108">
        <ele>28.8</ele>
        <time>2015-08-03T13:16:37.038Z</time>
      </trkpt>
      <trkpt lat="43.31788" lon="2.9811">
        <ele>28.8</ele>
        <time>2015-08-03T13:16:38.030Z</time>
      </trkpt>
      <trkpt lat="43.31791" lon="2.9811">
        <ele>28.3</ele>
        <time>2015-08-03T13:18:07.996Z</time>
      </trkpt>
      <trkpt lat="43.318" lon="2.9811">
        <ele>28.2</ele>
        <time>2015-08-03T13:18:08.955Z</time>
      </trkpt>
      <trkpt lat="43.318" lon="2.9811">
        <ele>28.2</ele>
        <time>2015-08-03T13:18:09.001Z</time>
      </trkpt>
      <trkpt lat="43.318" lon="2.9811">
        <ele>28.2</ele>
        <time>2015-08-03T13:20:24.050Z</time>
      </trkpt>
      <trkpt lat="43.31799" lon="2.98113">
        <ele>24.1</ele>
        <time>2015-08-03T13:20:24.984Z</time>
      </trkpt>
      <trkpt lat="43.31802" lon="2.98124">
        <ele>24.2</ele>
        <time>2015-08-03T13:20:30.000Z</time>
      </trkpt>
      <trkpt lat="43.31803" lon="2.98127">
        <ele>24.3</ele>
        <time>2015-08-03T13:20:30.970Z</time>
      </trkpt>
      <trkpt lat="43.31806" lon="2.98138">
        <ele>24.5</ele>
        <time>2015-08-03T13:20:33.994Z</time>
      </trkpt>
      <trkpt lat="43.31807" lon="2.98142">
        <ele>24.7</ele>
        <time>2015-08-03T13:20:34.957Z</time>
      </trkpt>
      <trkpt lat="43.31809" lon="2.9815">
        <ele>25.2</ele>
        <time>2015-08-03T13:20:36.999Z</time>
      </trkpt>
      <trkpt lat="43.3181" lon="2.98155">
        <ele>25.4</ele>
        <time>2015-08-03T13:20:37.963Z</time>
      </trkpt>
      <trkpt lat="43.31812" lon="2.98164">
        <ele>25.6</ele>
        <time>2015-08-03T13:20:40.002Z</time>
      </trkpt>
      <trkpt lat="43.31812" lon="2.98168">
        <ele>25.8</ele>
        <time>2015-08-03T13:20:40.958Z</time>
      </trkpt>
      <trkpt lat="43.31815" lon="2.98178">
        <ele>25.8</ele>
        <time>2015-08-03T13:20:43.015Z</time>
      </trkpt>
      <trkpt lat="43.31816" lon="2.98182">
        <ele>25.8</ele>
        <time>2015-08-03T13:20:43.969Z</time>
      </trkpt>
      <trkpt lat="43.31818" lon="2.98192">
        <ele>25.7</ele>
        <time>2015-08-03T13:20:46.002Z</time>
      </trkpt>
      <trkpt lat="43.31818" lon="2.98197">
        <ele>25.5</ele>
        <time>2015-08-03T13:20:46.958Z</time>
      </trkpt>
      <trkpt lat="43.31821" lon="2.98207">
        <ele>25.2</ele>
        <time>2015-08-03T13:20:49.003Z</time>
      </trkpt>
      <trkpt lat="43.31823" lon="2.98211">
        <ele>25.4</ele>
        <time>2015-08-03T13:20:49.971Z</time>
      </trkpt>
      <trkpt lat="43.31824" lon="2.98222">
        <ele>25.2</ele>
        <time>2015-08-03T13:20:52.013Z</time>
      </trkpt>
      <trkpt lat="43.31825" lon="2.98227">
        <ele>24.9</ele>
        <time>2015-08-03T13:20:52.960Z</time>
      </trkpt>
      <trkpt lat="43.31827" lon="2.98238">
        <ele>24.5</ele>
        <time>2015-08-03T13:20:55.011Z</time>
      </trkpt>
      <trkpt lat="43.31828" lon="2.98243">
        <ele>24.2</ele>
        <time>2015-08-03T13:20:55.971Z</time>
      </trkpt>
      <trkpt lat="43.3183" lon="2.98254">
        <ele>24.1</ele>
        <time>2015-08-03T13:20:58.001Z</time>
      </trkpt>
      <trkpt lat="43.3183" lon="2.9826">
        <ele>24</ele>
        <time>2015-08-03T13:20:58.967Z</time>
      </trkpt>
      <trkpt lat="43.31831" lon="2.98271">
        <ele>23.4</ele>
        <time>2015-08-03T13:21:01.001Z</time>
      </trkpt>
      <trkpt lat="43.31831" lon="2.98277">
        <ele>23.2</ele>
        <time>2015-08-03T13:21:01.970Z</time>
      </trkpt>
      <trkpt lat="43.31831" lon="2.98288">
        <ele>23.1</ele>
        <time>2015-08-03T13:21:04.013Z</time>
      </trkpt>
      <trkpt lat="43.31831" lon="2.98294">
        <ele>23.1</ele>
        <time>2015-08-03T13:21:04.960Z</time>
      </trkpt>
      <trkpt lat="43.31832" lon="2.98306">
        <ele>22.8</ele>
        <time>2015-08-03T13:21:07.019Z</time>
      </trkpt>
      <trkpt lat="43.31832" lon="2.98312">
        <ele>22.8</ele>
        <time>2015-08-03T13:21:07.970Z</time>
      </trkpt>
      <trkpt lat="43.31832" lon="2.98319">
        <ele>23</ele>
        <time>2015-08-03T13:21:09.008Z</time>
      </trkpt>
      <trkpt lat="43.31833" lon="2.98325">
        <ele>23.9</ele>
        <time>2015-08-03T13:21:09.959Z</time>
      </trkpt>
      <trkpt lat="43.31832" lon="2.98331">
        <ele>23.7</ele>
        <time>2015-08-03T13:21:11.008Z</time>
      </trkpt>
      <trkpt lat="43.31832" lon="2.98338">
        <ele>23.8</ele>
        <time>2015-08-03T13:21:11.961Z</time>
      </trkpt>
      <trkpt lat="43.31832" lon="2.98344">
        <ele>24.1</ele>
        <time>2015-08-03T13:21:13.182Z</time>
      </trkpt>
      <trkpt lat="43.31834" lon="2.9835">
        <ele>24.3</ele>
        <time>2015-08-03T13:21:13.960Z</time>
      </trkpt>
      <trkpt lat="43.31834" lon="2.98356">
        <ele>24.3</ele>
        <time>2015-08-03T13:21:15.023Z</time>
      </trkpt>
      <trkpt lat="43.31835" lon="2.98363">
        <ele>24.6</ele>
        <time>2015-08-03T13:21:15.959Z</time>
      </trkpt>
      <trkpt lat="43.31835" lon="2.98369">
        <ele>25.1</ele>
        <time>2015-08-03T13:21:17.022Z</time>
      </trkpt>
      <trkpt lat="43.31836" lon="2.98375">
        <ele>25.3</ele>
        <time>2015-08-03T13:21:17.963Z</time>
      </trkpt>
      <trkpt lat="43.31837" lon="2.98387">
        <ele>26</ele>
        <time>2015-08-03T13:21:20.038Z</time>
      </trkpt>
      <trkpt lat="43.31837" lon="2.98393">
        <ele>25.7</ele>
        <time>2015-08-03T13:21:20.983Z</time>
      </trkpt>
      <trkpt lat="43.31838" lon="2.98405">
        <ele>25.9</ele>
        <time>2015-08-03T13:21:23.011Z</time>
      </trkpt>
      <trkpt lat="43.31839" lon="2.98412">
        <ele>26.3</ele>
        <time>2015-08-03T13:21:23.960Z</time>
      </trkpt>
      <trkpt lat="43.31839" lon="2.98418">
        <ele>26.3</ele>
        <time>2015-08-03T13:21:25.346Z</time>
      </trkpt>
      <trkpt lat="43.31839" lon="2.98424">
        <ele>26.5</ele>
        <time>2015-08-03T13:21:25.962Z</time>
      </trkpt>
      <trkpt lat="43.3184" lon="2.98436">
        <ele>26.3</ele>
        <time>2015-08-03T13:21:28.023Z</time>
      </trkpt>
      <trkpt lat="43.3184" lon="2.98443">
        <ele>26.5</ele>
        <time>2015-08-03T13:21:28.997Z</time>
      </trkpt>
      <trkpt lat="43.31841" lon="2.98449">
        <ele>26.8</ele>
        <time>2015-08-03T13:21:29.998Z</time>
      </trkpt>
      <trkpt lat="43.31841" lon="2.98455">
        <ele>26.8</ele>
        <time>2015-08-03T13:21:30.965Z</time>
      </trkpt>
      <trkpt lat="43.31841" lon="2.98462">
        <ele>27</ele>
        <time>2015-08-03T13:21:32.008Z</time>
      </trkpt>
      <trkpt lat="43.31841" lon="2.98468">
        <ele>27</ele>
        <time>2015-08-03T13:21:32.966Z</time>
      </trkpt>
      <trkpt lat="43.31842" lon="2.98475">
        <ele>27</ele>
        <time>2015-08-03T13:21:34.027Z</time>
      </trkpt>
      <trkpt lat="43.31842" lon="2.98481">
        <ele>26.7</ele>
        <time>2015-08-03T13:21:34.959Z</time>
      </trkpt>
      <trkpt lat="43.31842" lon="2.98488">
        <ele>26.9</ele>
        <time>2015-08-03T13:21:36.012Z</time>
      </trkpt>
      <trkpt lat="43.31842" lon="2.98494">
        <ele>27</ele>
        <time>2015-08-03T13:21:36.966Z</time>
      </trkpt>
      <trkpt lat="43.31842" lon="2.98501">
        <ele>27</ele>
        <time>2015-08-03T13:21:38.000Z</time>
      </trkpt>
      <trkpt lat="43.31842" lon="2.98508">
        <ele>26.9</ele>
        <time>2015-08-03T13:21:38.958Z</time>
      </trkpt>
      <trkpt lat="43.31843" lon="2.98515">
        <ele>26.8</ele>
        <time>2015-08-03T13:21:39.999Z</time>
      </trkpt>
      <trkpt lat="43.31843" lon="2.98522">
        <ele>26.6</ele>
        <time>2015-08-03T13:21:40.957Z</time>
      </trkpt>
      <trkpt lat="43.31843" lon="2.98529">
        <ele>27.2</ele>
        <time>2015-08-03T13:21:42.287Z</time>
      </trkpt>
      <trkpt lat="43.31843" lon="2.98536">
        <ele>27.1</ele>
        <time>2015-08-03T13:21:42.970Z</time>
      </trkpt>
      <trkpt lat="43.31843" lon="2.98543">
        <ele>27.1</ele>
        <time>2015-08-03T13:21:44.006Z</time>
      </trkpt>
      <trkpt lat="43.31843" lon="2.9855">
        <ele>27.4</ele>
        <time>2015-08-03T13:21:44.969Z</time>
      </trkpt>
      <trkpt lat="43.31844" lon="2.98556">
        <ele>27.1</ele>
        <time>2015-08-03T13:21:46.002Z</time>
      </trkpt>
      <trkpt lat="43.31844" lon="2.98564">
        <ele>27.1</ele>
        <time>2015-08-03T13:21:46.960Z</time>
      </trkpt>
      <trkpt lat="43.31845" lon="2.9857">
        <ele>27.2</ele>
        <time>2015-08-03T13:21:48.048Z</time>
      </trkpt>
      <trkpt lat="43.31845" lon="2.98578">
        <ele>27.3</ele>
        <time>2015-08-03T13:21:48.984Z</time>
      </trkpt>
      <trkpt lat="43.31845" lon="2.98584">
        <ele>27.2</ele>
        <time>2015-08-03T13:21:50.001Z</time>
      </trkpt>
      <trkpt lat="43.31846" lon="2.98592">
        <ele>27.1</ele>
        <time>2015-08-03T13:21:50.957Z</time>
      </trkpt>
      <trkpt lat="43.31847" lon="2.98598">
        <ele>27.1</ele>
        <time>2015-08-03T13:21:52.007Z</time>
      </trkpt>
      <trkpt lat="43.31848" lon="2.98605">
        <ele>27.1</ele>
        <time>2015-08-03T13:21:52.956Z</time>
      </trkpt>
      <trkpt lat="43.31848" lon="2.98612">
        <ele>27</ele>
        <time>2015-08-03T13:21:54.006Z</time>
      </trkpt>
      <trkpt lat="43.31849" lon="2.98619">
        <ele>26.8</ele>
        <time>2015-08-03T13:21:54.984Z</time>
      </trkpt>
      <trkpt lat="43.3185" lon="2.98626">
        <ele>26.5</ele>
        <time>2015-08-03T13:21:56.001Z</time>
      </trkpt>
      <trkpt lat="43.3185" lon="2.98633">
        <ele>26.8</ele>
        <time>2015-08-03T13:21:56.963Z</time>
      </trkpt>
      <trkpt lat="43.31851" lon="2.98639">
        <ele>26.8</ele>
        <time>2015-08-03T13:21:57.998Z</time>
      </trkpt>
      <trkpt lat="43.31851" lon="2.98646">
        <ele>27</ele>
        <time>2015-08-03T13:21:58.962Z</time>
      </trkpt>
      <trkpt lat="43.31852" lon="2.98653">
        <ele>27.7</ele>
        <time>2015-08-03T13:22:00.002Z</time>
      </trkpt>
      <trkpt lat="43.31853" lon="2.9866">
        <ele>27.7</ele>
        <time>2015-08-03T13:22:00.966Z</time>
      </trkpt>
      <trkpt lat="43.31853" lon="2.98667">
        <ele>28</ele>
        <time>2015-08-03T13:22:02.043Z</time>
      </trkpt>
      <trkpt lat="43.31854" lon="2.98673">
        <ele>27.9</ele>
        <time>2015-08-03T13:22:02.959Z</time>
      </trkpt>
      <trkpt lat="43.31855" lon="2.9868">
        <ele>28.5</ele>
        <time>2015-08-03T13:22:04.017Z</time>
      </trkpt>
      <trkpt lat="43.31856" lon="2.98687">
        <ele>28.4</ele>
        <time>2015-08-03T13:22:04.961Z</time>
      </trkpt>
      <trkpt lat="43.31857" lon="2.98693">
        <ele>28.9</ele>
        <time>2015-08-03T13:22:06.008Z</time>
      </trkpt>
      <trkpt lat="43.31858" lon="2.987">
        <ele>29.5</ele>
        <time>2015-08-03T13:22:06.965Z</time>
      </trkpt>
      <trkpt lat="43.31859" lon="2.98706">
        <ele>29.5</ele>
        <time>2015-08-03T13:22:07.998Z</time>
      </trkpt>
      <trkpt lat="43.3186" lon="2.98712">
        <ele>29.8</ele>
        <time>2015-08-03T13:22:08.960Z</time>
      </trkpt>
      <trkpt lat="43.31861" lon="2.98719">
        <ele>29.7</ele>
        <time>2015-08-03T13:22:10.022Z</time>
      </trkpt>
      <trkpt lat="43.31862" lon="2.98725">
        <ele>29.7</ele>
        <time>2015-08-03T13:22:10.981Z</time>
      </trkpt>
      <trkpt lat="43.31863" lon="2.98731">
        <ele>29.9</ele>
        <time>2015-08-03T13:22:12.005Z</time>
      </trkpt>
      <trkpt lat="43.31864" lon="2.98738">
        <ele>29.4</ele>
        <time>2015-08-03T13:22:12.965Z</time>
      </trkpt>
      <trkpt lat="43.31865" lon="2.98744">
        <ele>29.3</ele>
        <time>2015-08-03T13:22:14.002Z</time>
      </trkpt>
      <trkpt lat="43.31866" lon="2.9875">
        <ele>29.3</ele>
        <time>2015-08-03T13:22:14.958Z</time>
      </trkpt>
      <trkpt lat="43.31866" lon="2.98757">
        <ele>29.3</ele>
        <time>2015-08-03T13:22:15.999Z</time>
      </trkpt>
      <trkpt lat="43.31868" lon="2.98763">
        <ele>29.5</ele>
        <time>2015-08-03T13:22:16.956Z</time>
      </trkpt>
      <trkpt lat="43.31869" lon="2.98769">
        <ele>29.6</ele>
        <time>2015-08-03T13:22:18.033Z</time>
      </trkpt>
      <trkpt lat="43.3187" lon="2.98776">
        <ele>29.5</ele>
        <time>2015-08-03T13:22:18.987Z</time>
      </trkpt>
      <trkpt lat="43.31871" lon="2.98782">
        <ele>29.9</ele>
        <time>2015-08-03T13:22:20.001Z</time>
      </trkpt>
      <trkpt lat="43.31872" lon="2.98788">
        <ele>29.9</ele>
        <time>2015-08-03T13:22:20.966Z</time>
      </trkpt>
      <trkpt lat="43.31874" lon="2.98795">
        <ele>29.9</ele>
        <time>2015-08-03T13:22:22.163Z</time>
      </trkpt>
      <trkpt lat="43.31875" lon="2.98801">
        <ele>29.8</ele>
        <time>2015-08-03T13:22:22.956Z</time>
      </trkpt>
      <trkpt lat="43.31878" lon="2.98807">
        <ele>29.8</ele>
        <time>2015-08-03T13:22:24.008Z</time>
      </trkpt>
      <trkpt lat="43.31879" lon="2.98813">
        <ele>29.6</ele>
        <time>2015-08-03T13:22:24.968Z</time>
      </trkpt>
      <trkpt lat="43.31881" lon="2.98819">
        <ele>29.6</ele>
        <time>2015-08-03T13:22:26.026Z</time>
      </trkpt>
      <trkpt lat="43.31884" lon="2.98825">
        <ele>29.7</ele>
        <time>2015-08-03T13:22:26.983Z</time>
      </trkpt>
      <trkpt lat="43.31886" lon="2.98831">
        <ele>29.5</ele>
        <time>2015-08-03T13:22:27.999Z</time>
      </trkpt>
      <trkpt lat="43.31888" lon="2.98837">
        <ele>29.4</ele>
        <time>2015-08-03T13:22:28.958Z</time>
      </trkpt>
      <trkpt lat="43.3189" lon="2.98843">
        <ele>29.4</ele>
        <time>2015-08-03T13:22:30.337Z</time>
      </trkpt>
      <trkpt lat="43.31892" lon="2.98849">
        <ele>29.1</ele>
        <time>2015-08-03T13:22:30.961Z</time>
      </trkpt>
      <trkpt lat="43.31896" lon="2.98859">
        <ele>28.7</ele>
        <time>2015-08-03T13:22:33.007Z</time>
      </trkpt>
      <trkpt lat="43.31898" lon="2.98865">
        <ele>28.6</ele>
        <time>2015-08-03T13:22:33.959Z</time>
      </trkpt>
      <trkpt lat="43.31902" lon="2.98874">
        <ele>28.7</ele>
        <time>2015-08-03T13:22:35.999Z</time>
      </trkpt>
      <trkpt lat="43.31903" lon="2.98877">
        <ele>28.8</ele>
        <time>2015-08-03T13:22:36.974Z</time>
      </trkpt>
      <trkpt lat="43.31907" lon="2.98884">
        <ele>27.6</ele>
        <time>2015-08-03T13:22:40.338Z</time>
      </trkpt>
      <trkpt lat="43.31908" lon="2.98887">
        <ele>27.4</ele>
        <time>2015-08-03T13:22:40.969Z</time>
      </trkpt>
      <trkpt lat="43.31912" lon="2.98895">
        <ele>27.2</ele>
        <time>2015-08-03T13:22:43.003Z</time>
      </trkpt>
      <trkpt lat="43.31914" lon="2.98899">
        <ele>27.1</ele>
        <time>2015-08-03T13:22:43.960Z</time>
      </trkpt>
      <trkpt lat="43.31917" lon="2.98907">
        <ele>26.9</ele>
        <time>2015-08-03T13:22:46.003Z</time>
      </trkpt>
      <trkpt lat="43.31919" lon="2.9891">
        <ele>26.8</ele>
        <time>2015-08-03T13:22:46.958Z</time>
      </trkpt>
      <trkpt lat="43.31924" lon="2.98917">
        <ele>26.7</ele>
        <time>2015-08-03T13:22:50.003Z</time>
      </trkpt>
      <trkpt lat="43.31925" lon="2.9892">
        <ele>26.8</ele>
        <time>2015-08-03T13:22:50.962Z</time>
      </trkpt>
      <trkpt lat="43.31931" lon="2.98928">
        <ele>26.9</ele>
        <time>2015-08-03T13:22:54.058Z</time>
      </trkpt>
      <trkpt lat="43.31932" lon="2.9893">
        <ele>26.8</ele>
        <time>2015-08-03T13:22:54.972Z</time>
      </trkpt>
      <trkpt lat="43.31937" lon="2.98936">
        <ele>26.5</ele>
        <time>2015-08-03T13:22:57.001Z</time>
      </trkpt>
      <trkpt lat="43.3194" lon="2.98939">
        <ele>26.4</ele>
        <time>2015-08-03T13:22:57.959Z</time>
      </trkpt>
      <trkpt lat="43.31944" lon="2.98947">
        <ele>26</ele>
        <time>2015-08-03T13:22:59.998Z</time>
      </trkpt>
      <trkpt lat="43.31947" lon="2.9895">
        <ele>25.9</ele>
        <time>2015-08-03T13:23:00.965Z</time>
      </trkpt>
      <trkpt lat="43.31952" lon="2.98958">
        <ele>25.6</ele>
        <time>2015-08-03T13:23:04.058Z</time>
      </trkpt>
      <trkpt lat="43.31953" lon="2.98959">
        <ele>25.5</ele>
        <time>2015-08-03T13:23:04.983Z</time>
      </trkpt>
      <trkpt lat="43.31954" lon="2.9896">
        <ele>25.5</ele>
        <time>2015-08-03T13:23:33.009Z</time>
      </trkpt>
      <trkpt lat="43.31963" lon="2.98963">
        <ele>25.2</ele>
        <time>2015-08-03T13:23:33.960Z</time>
      </trkpt>
      <trkpt lat="43.31963" lon="2.98963">
        <ele>25.2</ele>
        <time>2015-08-03T13:23:34.034Z</time>
      </trkpt>
      <trkpt lat="43.31971" lon="2.98969">
        <ele>23</ele>
        <time>2015-08-03T13:24:24.012Z</time>
      </trkpt>
      <trkpt lat="43.31975" lon="2.98968">
        <ele>24.1</ele>
        <time>2015-08-03T13:24:24.961Z</time>
      </trkpt>
      <trkpt lat="43.3198" lon="2.98978">
        <ele>25.5</ele>
        <time>2015-08-03T13:25:00.085Z</time>
      </trkpt>
      <trkpt lat="43.3198" lon="2.9898">
        <ele>25.5</ele>
        <time>2015-08-03T13:25:00.972Z</time>
      </trkpt>
      <trkpt lat="43.31984" lon="2.9899">
        <ele>25.8</ele>
        <time>2015-08-03T13:25:07.022Z</time>
      </trkpt>
      <trkpt lat="43.31985" lon="2.98991">
        <ele>25.7</ele>
        <time>2015-08-03T13:25:07.983Z</time>
      </trkpt>
      <trkpt lat="43.3199" lon="2.98999">
        <ele>26.1</ele>
        <time>2015-08-03T13:25:11.009Z</time>
      </trkpt>
      <trkpt lat="43.31991" lon="2.99001">
        <ele>26.4</ele>
        <time>2015-08-03T13:25:11.963Z</time>
      </trkpt>
      <trkpt lat="43.31996" lon="2.9901">
        <ele>27.9</ele>
        <time>2015-08-03T13:25:17.024Z</time>
      </trkpt>
      <trkpt lat="43.31998" lon="2.99013">
        <ele>28</ele>
        <time>2015-08-03T13:25:17.981Z</time>
      </trkpt>
      <trkpt lat="43.32004" lon="2.99021">
        <ele>29.1</ele>
        <time>2015-08-03T13:25:22.016Z</time>
      </trkpt>
      <trkpt lat="43.32005" lon="2.99024">
        <ele>29.4</ele>
        <time>2015-08-03T13:25:22.960Z</time>
      </trkpt>
      <trkpt lat="43.32011" lon="2.99032">
        <ele>30.2</ele>
        <time>2015-08-03T13:25:26.032Z</time>
      </trkpt>
      <trkpt lat="43.32013" lon="2.99034">
        <ele>30.5</ele>
        <time>2015-08-03T13:25:26.968Z</time>
      </trkpt>
      <trkpt lat="43.3202" lon="2.99042">
        <ele>32</ele>
        <time>2015-08-03T13:25:30.017Z</time>
      </trkpt>
      <trkpt lat="43.32022" lon="2.99044">
        <ele>32.4</ele>
        <time>2015-08-03T13:25:30.962Z</time>
      </trkpt>
      <trkpt lat="43.32028" lon="2.99052">
        <ele>34.2</ele>
        <time>2015-08-03T13:25:34.072Z</time>
      </trkpt>
      <trkpt lat="43.32031" lon="2.99054">
        <ele>34.8</ele>
        <time>2015-08-03T13:25:34.969Z</time>
      </trkpt>
      <trkpt lat="43.32036" lon="2.99059">
        <ele>35.8</ele>
        <time>2015-08-03T13:25:37.010Z</time>
      </trkpt>
      <trkpt lat="43.32039" lon="2.99061">
        <ele>36.4</ele>
        <time>2015-08-03T13:25:37.961Z</time>
      </trkpt>
      <trkpt lat="43.32046" lon="2.99069">
        <ele>38</ele>
        <time>2015-08-03T13:25:41.008Z</time>
      </trkpt>
      <trkpt lat="43.32048" lon="2.99071">
        <ele>38.3</ele>
        <time>2015-08-03T13:25:41.969Z</time>
      </trkpt>
      <trkpt lat="43.32053" lon="2.99078">
        <ele>39.2</ele>
        <time>2015-08-03T13:25:44.998Z</time>
      </trkpt>
      <trkpt lat="43.32055" lon="2.99081">
        <ele>39.7</ele>
        <time>2015-08-03T13:25:45.971Z</time>
      </trkpt>
      <trkpt lat="43.32061" lon="2.99087">
        <ele>40.9</ele>
        <time>2015-08-03T13:25:49.047Z</time>
      </trkpt>
      <trkpt lat="43.32063" lon="2.99089">
        <ele>41.6</ele>
        <time>2015-08-03T13:25:49.959Z</time>
      </trkpt>
      <trkpt lat="43.32069" lon="2.99096">
        <ele>41.9</ele>
        <time>2015-08-03T13:25:53.008Z</time>
      </trkpt>
      <trkpt lat="43.32072" lon="2.99098">
        <ele>42.5</ele>
        <time>2015-08-03T13:25:53.958Z</time>
      </trkpt>
      <trkpt lat="43.32079" lon="2.99103">
        <ele>42.7</ele>
        <time>2015-08-03T13:25:57.022Z</time>
      </trkpt>
      <trkpt lat="43.32081" lon="2.99104">
        <ele>42.9</ele>
        <time>2015-08-03T13:25:57.985Z</time>
      </trkpt>
      <trkpt lat="43.32087" lon="2.99108">
        <ele>42.9</ele>
        <time>2015-08-03T13:26:01.007Z</time>
      </trkpt>
      <trkpt lat="43.3209" lon="2.99109">
        <ele>43.1</ele>
        <time>2015-08-03T13:26:01.966Z</time>
      </trkpt>
      <trkpt lat="43.32097" lon="2.99114">
        <ele>44.3</ele>
        <time>2015-08-03T13:26:05.042Z</time>
      </trkpt>
      <trkpt lat="43.32099" lon="2.99115">
        <ele>44.6</ele>
        <time>2015-08-03T13:26:05.990Z</time>
      </trkpt>
      <trkpt lat="43.32105" lon="2.99118">
        <ele>46.2</ele>
        <time>2015-08-03T13:26:08.016Z</time>
      </trkpt>
      <trkpt lat="43.32108" lon="2.9912">
        <ele>46.9</ele>
        <time>2015-08-03T13:26:08.960Z</time>
      </trkpt>
      <trkpt lat="43.32115" lon="2.99121">
        <ele>47.5</ele>
        <time>2015-08-03T13:26:11.007Z</time>
      </trkpt>
      <trkpt lat="43.32118" lon="2.99122">
        <ele>48</ele>
        <time>2015-08-03T13:26:11.968Z</time>
      </trkpt>
      <trkpt lat="43.32127" lon="2.99124">
        <ele>48.5</ele>
        <time>2015-08-03T13:26:14.016Z</time>
      </trkpt>
      <trkpt lat="43.32131" lon="2.99124">
        <ele>48.9</ele>
        <time>2015-08-03T13:26:14.959Z</time>
      </trkpt>
      <trkpt lat="43.3214" lon="2.99125">
        <ele>49.3</ele>
        <time>2015-08-03T13:26:17.007Z</time>
      </trkpt>
      <trkpt lat="43.32144" lon="2.99125">
        <ele>49.5</ele>
        <time>2015-08-03T13:26:17.961Z</time>
      </trkpt>
      <trkpt lat="43.32151" lon="2.99125">
        <ele>48.1</ele>
        <time>2015-08-03T13:26:20.039Z</time>
      </trkpt>
      <trkpt lat="43.32154" lon="2.99124">
        <ele>48.4</ele>
        <time>2015-08-03T13:26:20.969Z</time>
      </trkpt>
      <trkpt lat="43.32161" lon="2.99123">
        <ele>47.8</ele>
        <time>2015-08-03T13:26:23.010Z</time>
      </trkpt>
      <trkpt lat="43.32164" lon="2.99122">
        <ele>47.4</ele>
        <time>2015-08-03T13:26:23.962Z</time>
      </trkpt>
      <trkpt lat="43.3217" lon="2.99121">
        <ele>47.1</ele>
        <time>2015-08-03T13:26:26.013Z</time>
      </trkpt>
      <trkpt lat="43.32173" lon="2.9912">
        <ele>47</ele>
        <time>2015-08-03T13:26:26.969Z</time>
      </trkpt>
      <trkpt lat="43.32179" lon="2.99118">
        <ele>46.6</ele>
        <time>2015-08-03T13:26:29.011Z</time>
      </trkpt>
      <trkpt lat="43.32182" lon="2.99117">
        <ele>46.3</ele>
        <time>2015-08-03T13:26:29.957Z</time>
      </trkpt>
      <trkpt lat="43.32189" lon="2.99111">
        <ele>45.4</ele>
        <time>2015-08-03T13:26:33.011Z</time>
      </trkpt>
      <trkpt lat="43.32192" lon="2.99109">
        <ele>45.1</ele>
        <time>2015-08-03T13:26:33.957Z</time>
      </trkpt>
      <trkpt lat="43.32198" lon="2.99103">
        <ele>44.5</ele>
        <time>2015-08-03T13:26:37.026Z</time>
      </trkpt>
      <trkpt lat="43.322" lon="2.99101">
        <ele>44.3</ele>
        <time>2015-08-03T13:26:37.985Z</time>
      </trkpt>
      <trkpt lat="43.32206" lon="2.99096">
        <ele>43.3</ele>
        <time>2015-08-03T13:26:41.010Z</time>
      </trkpt>
      <trkpt lat="43.32209" lon="2.99094">
        <ele>42.5</ele>
        <time>2015-08-03T13:26:41.959Z</time>
      </trkpt>
      <trkpt lat="43.32215" lon="2.99088">
        <ele>41.7</ele>
        <time>2015-08-03T13:26:44.421Z</time>
      </trkpt>
      <trkpt lat="43.32218" lon="2.99084">
        <ele>39.9</ele>
        <time>2015-08-03T13:26:44.962Z</time>
      </trkpt>
      <trkpt lat="43.32223" lon="2.99079">
        <ele>38.7</ele>
        <time>2015-08-03T13:26:47.017Z</time>
      </trkpt>
      <trkpt lat="43.32226" lon="2.99076">
        <ele>38.3</ele>
        <time>2015-08-03T13:26:47.967Z</time>
      </trkpt>
      <trkpt lat="43.32231" lon="2.9907">
        <ele>37.6</ele>
        <time>2015-08-03T13:26:50.261Z</time>
      </trkpt>
      <trkpt lat="43.32232" lon="2.99067">
        <ele>37.5</ele>
        <time>2015-08-03T13:26:50.958Z</time>
      </trkpt>
      <trkpt lat="43.32237" lon="2.99061">
        <ele>36.7</ele>
        <time>2015-08-03T13:26:53.010Z</time>
      </trkpt>
      <trkpt lat="43.32239" lon="2.99057">
        <ele>36</ele>
        <time>2015-08-03T13:26:53.966Z</time>
      </trkpt>
      <trkpt lat="43.32243" lon="2.99051">
        <ele>35.8</ele>
        <time>2015-08-03T13:26:56.013Z</time>
      </trkpt>
      <trkpt lat="43.32244" lon="2.99048">
        <ele>35.2</ele>
        <time>2015-08-03T13:26:56.969Z</time>
      </trkpt>
      <trkpt lat="43.32247" lon="2.99041">
        <ele>35</ele>
        <time>2015-08-03T13:26:59.013Z</time>
      </trkpt>
      <trkpt lat="43.32249" lon="2.99037">
        <ele>34.9</ele>
        <time>2015-08-03T13:26:59.963Z</time>
      </trkpt>
      <trkpt lat="43.32252" lon="2.99029">
        <ele>34.7</ele>
        <time>2015-08-03T13:27:02.016Z</time>
      </trkpt>
      <trkpt lat="43.32254" lon="2.99026">
        <ele>34.5</ele>
        <time>2015-08-03T13:27:02.961Z</time>
      </trkpt>
      <trkpt lat="43.32257" lon="2.99016">
        <ele>34.3</ele>
        <time>2015-08-03T13:27:06.046Z</time>
      </trkpt>
      <trkpt lat="43.32258" lon="2.99013">
        <ele>34.2</ele>
        <time>2015-08-03T13:27:06.971Z</time>
      </trkpt>
      <trkpt lat="43.32262" lon="2.99003">
        <ele>33.9</ele>
        <time>2015-08-03T13:27:10.344Z</time>
      </trkpt>
      <trkpt lat="43.32263" lon="2.98999">
        <ele>33.8</ele>
        <time>2015-08-03T13:27:10.957Z</time>
      </trkpt>
      <trkpt lat="43.32267" lon="2.98988">
        <ele>33.3</ele>
        <time>2015-08-03T13:27:14.015Z</time>
      </trkpt>
      <trkpt lat="43.32268" lon="2.98984">
        <ele>33.1</ele>
        <time>2015-08-03T13:27:14.960Z</time>
      </trkpt>
      <trkpt lat="43.3227" lon="2.98976">
        <ele>32.7</ele>
        <time>2015-08-03T13:27:17.099Z</time>
      </trkpt>
      <trkpt lat="43.32272" lon="2.98972">
        <ele>32.5</ele>
        <time>2015-08-03T13:27:17.959Z</time>
      </trkpt>
      <trkpt lat="43.32274" lon="2.9896">
        <ele>32</ele>
        <time>2015-08-03T13:27:21.010Z</time>
      </trkpt>
      <trkpt lat="43.32275" lon="2.98956">
        <ele>31.9</ele>
        <time>2015-08-03T13:27:21.957Z</time>
      </trkpt>
      <trkpt lat="43.32277" lon="2.98945">
        <ele>31.8</ele>
        <time>2015-08-03T13:27:25.010Z</time>
      </trkpt>
      <trkpt lat="43.32277" lon="2.98941">
        <ele>31.8</ele>
        <time>2015-08-03T13:27:25.973Z</time>
      </trkpt>
      <trkpt lat="43.32279" lon="2.98933">
        <ele>31.9</ele>
        <time>2015-08-03T13:27:28.046Z</time>
      </trkpt>
      <trkpt lat="43.3228" lon="2.98929">
        <ele>31.9</ele>
        <time>2015-08-03T13:27:28.960Z</time>
      </trkpt>
      <trkpt lat="43.32282" lon="2.9892">
        <ele>31.2</ele>
        <time>2015-08-03T13:27:31.008Z</time>
      </trkpt>
      <trkpt lat="43.32283" lon="2.98916">
        <ele>31</ele>
        <time>2015-08-03T13:27:31.990Z</time>
      </trkpt>
      <trkpt lat="43.32285" lon="2.98907">
        <ele>30.6</ele>
        <time>2015-08-03T13:27:34.035Z</time>
      </trkpt>
      <trkpt lat="43.32286" lon="2.98903">
        <ele>30.3</ele>
        <time>2015-08-03T13:27:34.962Z</time>
      </trkpt>
      <trkpt lat="43.32288" lon="2.98895">
        <ele>29.2</ele>
        <time>2015-08-03T13:27:37.010Z</time>
      </trkpt>
      <trkpt lat="43.32289" lon="2.98891">
        <ele>28.7</ele>
        <time>2015-08-03T13:27:37.983Z</time>
      </trkpt>
      <trkpt lat="43.32291" lon="2.98882">
        <ele>28.3</ele>
        <time>2015-08-03T13:27:40.005Z</time>
      </trkpt>
      <trkpt lat="43.32292" lon="2.98878">
        <ele>27.8</ele>
        <time>2015-08-03T13:27:40.960Z</time>
      </trkpt>
      <trkpt lat="43.32294" lon="2.9887">
        <ele>27.2</ele>
        <time>2015-08-03T13:27:43.355Z</time>
      </trkpt>
      <trkpt lat="43.32295" lon="2.98865">
        <ele>27.1</ele>
        <time>2015-08-03T13:27:43.981Z</time>
      </trkpt>
      <trkpt lat="43.32297" lon="2.98857">
        <ele>27.4</ele>
        <time>2015-08-03T13:27:46.014Z</time>
      </trkpt>
      <trkpt lat="43.32298" lon="2.98853">
        <ele>27.1</ele>
        <time>2015-08-03T13:27:46.957Z</time>
      </trkpt>
      <trkpt lat="43.32301" lon="2.98844">
        <ele>26.7</ele>
        <time>2015-08-03T13:27:49.166Z</time>
      </trkpt>
      <trkpt lat="43.32303" lon="2.98841">
        <ele>26.7</ele>
        <time>2015-08-03T13:27:50.018Z</time>
      </trkpt>
      <trkpt lat="43.32306" lon="2.98832">
        <ele>26.7</ele>
        <time>2015-08-03T13:27:52.024Z</time>
      </trkpt>
      <trkpt lat="43.32308" lon="2.98828">
        <ele>26.6</ele>
        <time>2015-08-03T13:27:52.959Z</time>
      </trkpt>
      <trkpt lat="43.32312" lon="2.98821">
        <ele>27</ele>
        <time>2015-08-03T13:27:55.122Z</time>
      </trkpt>
      <trkpt lat="43.32314" lon="2.98818">
        <ele>26.9</ele>
        <time>2015-08-03T13:27:55.984Z</time>
      </trkpt>
      <trkpt lat="43.32318" lon="2.98812">
        <ele>27</ele>
        <time>2015-08-03T13:27:58.014Z</time>
      </trkpt>
      <trkpt lat="43.32321" lon="2.9881">
        <ele>27.1</ele>
        <time>2015-08-03T13:27:58.959Z</time>
      </trkpt>
      <trkpt lat="43.32329" lon="2.98804">
        <ele>27.3</ele>
        <time>2015-08-03T13:28:02.406Z</time>
      </trkpt>
      <trkpt lat="43.32332" lon="2.98803">
        <ele>27.3</ele>
        <time>2015-08-03T13:28:02.957Z</time>
      </trkpt>
      <trkpt lat="43.3234" lon="2.98799">
        <ele>27.4</ele>
        <time>2015-08-03T13:28:06.024Z</time>
      </trkpt>
      <trkpt lat="43.32343" lon="2.98798">
        <ele>27.4</ele>
        <time>2015-08-03T13:28:06.961Z</time>
      </trkpt>
      <trkpt lat="43.32349" lon="2.98797">
        <ele>27.2</ele>
        <time>2015-08-03T13:28:09.029Z</time>
      </trkpt>
      <trkpt lat="43.32352" lon="2.98797">
        <ele>27.1</ele>
        <time>2015-08-03T13:28:09.969Z</time>
      </trkpt>
      <trkpt lat="43.3236" lon="2.98797">
        <ele>27.7</ele>
        <time>2015-08-03T13:28:13.027Z</time>
      </trkpt>
      <trkpt lat="43.32363" lon="2.98797">
        <ele>27.9</ele>
        <time>2015-08-03T13:28:13.967Z</time>
      </trkpt>
      <trkpt lat="43.32371" lon="2.98802">
        <ele>29.7</ele>
        <time>2015-08-03T13:28:19.011Z</time>
      </trkpt>
      <trkpt lat="43.32373" lon="2.98805">
        <ele>29.9</ele>
        <time>2015-08-03T13:28:19.982Z</time>
      </trkpt>
      <trkpt lat="43.32377" lon="2.98812">
        <ele>30.4</ele>
        <time>2015-08-03T13:28:22.021Z</time>
      </trkpt>
      <trkpt lat="43.32378" lon="2.98816">
        <ele>30.6</ele>
        <time>2015-08-03T13:28:22.961Z</time>
      </trkpt>
      <trkpt lat="43.32382" lon="2.98823">
        <ele>30.9</ele>
        <time>2015-08-03T13:28:26.030Z</time>
      </trkpt>
      <trkpt lat="43.32383" lon="2.98827">
        <ele>31.1</ele>
        <time>2015-08-03T13:28:26.969Z</time>
      </trkpt>
      <trkpt lat="43.32389" lon="2.98833">
        <ele>30.5</ele>
        <time>2015-08-03T13:28:29.005Z</time>
      </trkpt>
      <trkpt lat="43.3239" lon="2.98837">
        <ele>30.7</ele>
        <time>2015-08-03T13:28:29.960Z</time>
      </trkpt>
      <trkpt lat="43.32395" lon="2.98844">
        <ele>30.3</ele>
        <time>2015-08-03T13:28:32.022Z</time>
      </trkpt>
      <trkpt lat="43.32397" lon="2.98849">
        <ele>30.1</ele>
        <time>2015-08-03T13:28:32.960Z</time>
      </trkpt>
      <trkpt lat="43.32399" lon="2.98857">
        <ele>29.8</ele>
        <time>2015-08-03T13:28:35.006Z</time>
      </trkpt>
      <trkpt lat="43.324" lon="2.9886">
        <ele>29.8</ele>
        <time>2015-08-03T13:28:35.963Z</time>
      </trkpt>
      <trkpt lat="43.32403" lon="2.98868">
        <ele>29.9</ele>
        <time>2015-08-03T13:28:38.016Z</time>
      </trkpt>
      <trkpt lat="43.32404" lon="2.98872">
        <ele>30</ele>
        <time>2015-08-03T13:28:38.958Z</time>
      </trkpt>
      <trkpt lat="43.32406" lon="2.98881">
        <ele>30.5</ele>
        <time>2015-08-03T13:28:41.003Z</time>
      </trkpt>
      <trkpt lat="43.32407" lon="2.98885">
        <ele>30.6</ele>
        <time>2015-08-03T13:28:41.962Z</time>
      </trkpt>
      <trkpt lat="43.3241" lon="2.98893">
        <ele>30.3</ele>
        <time>2015-08-03T13:28:44.016Z</time>
      </trkpt>
      <trkpt lat="43.32411" lon="2.98897">
        <ele>30.5</ele>
        <time>2015-08-03T13:28:44.960Z</time>
      </trkpt>
      <trkpt lat="43.32414" lon="2.98905">
        <ele>30.6</ele>
        <time>2015-08-03T13:28:46.968Z</time>
      </trkpt>
      <trkpt lat="43.32416" lon="2.98909">
        <ele>30.7</ele>
        <time>2015-08-03T13:28:47.984Z</time>
      </trkpt>
      <trkpt lat="43.32418" lon="2.98918">
        <ele>30.2</ele>
        <time>2015-08-03T13:28:50.006Z</time>
      </trkpt>
      <trkpt lat="43.3242" lon="2.98922">
        <ele>30.3</ele>
        <time>2015-08-03T13:28:50.957Z</time>
      </trkpt>
      <trkpt lat="43.32423" lon="2.9893">
        <ele>29.8</ele>
        <time>2015-08-03T13:28:53.006Z</time>
      </trkpt>
      <trkpt lat="43.32424" lon="2.98935">
        <ele>30</ele>
        <time>2015-08-03T13:28:53.956Z</time>
      </trkpt>
      <trkpt lat="43.32426" lon="2.98943">
        <ele>29.7</ele>
        <time>2015-08-03T13:28:56.020Z</time>
      </trkpt>
      <trkpt lat="43.32427" lon="2.98947">
        <ele>29.7</ele>
        <time>2015-08-03T13:28:56.958Z</time>
      </trkpt>
      <trkpt lat="43.32429" lon="2.98955">
        <ele>29.9</ele>
        <time>2015-08-03T13:28:59.006Z</time>
      </trkpt>
      <trkpt lat="43.32431" lon="2.98959">
        <ele>29.7</ele>
        <time>2015-08-03T13:28:59.959Z</time>
      </trkpt>
      <trkpt lat="43.32434" lon="2.98967">
        <ele>29.5</ele>
        <time>2015-08-03T13:29:02.026Z</time>
      </trkpt>
      <trkpt lat="43.32435" lon="2.98971">
        <ele>29.5</ele>
        <time>2015-08-03T13:29:02.959Z</time>
      </trkpt>
      <trkpt lat="43.32438" lon="2.98979">
        <ele>29.3</ele>
        <time>2015-08-03T13:29:05.007Z</time>
      </trkpt>
      <trkpt lat="43.3244" lon="2.98983">
        <ele>28.9</ele>
        <time>2015-08-03T13:29:05.964Z</time>
      </trkpt>
      <trkpt lat="43.32444" lon="2.98994">
        <ele>28.3</ele>
        <time>2015-08-03T13:29:09.005Z</time>
      </trkpt>
      <trkpt lat="43.32446" lon="2.98998">
        <ele>28</ele>
        <time>2015-08-03T13:29:09.960Z</time>
      </trkpt>
      <trkpt lat="43.32449" lon="2.99005">
        <ele>27.7</ele>
        <time>2015-08-03T13:29:12.010Z</time>
      </trkpt>
      <trkpt lat="43.32451" lon="2.99009">
        <ele>27.6</ele>
        <time>2015-08-03T13:29:12.962Z</time>
      </trkpt>
      <trkpt lat="43.32454" lon="2.99018">
        <ele>27.4</ele>
        <time>2015-08-03T13:29:15.007Z</time>
      </trkpt>
      <trkpt lat="43.32455" lon="2.99022">
        <ele>27.3</ele>
        <time>2015-08-03T13:29:15.957Z</time>
      </trkpt>
      <trkpt lat="43.32458" lon="2.9903">
        <ele>27</ele>
        <time>2015-08-03T13:29:18.019Z</time>
      </trkpt>
      <trkpt lat="43.3246" lon="2.99034">
        <ele>27.1</ele>
        <time>2015-08-03T13:29:18.959Z</time>
      </trkpt>
      <trkpt lat="43.32463" lon="2.99042">
        <ele>26.5</ele>
        <time>2015-08-03T13:29:21.033Z</time>
      </trkpt>
      <trkpt lat="43.32464" lon="2.99046">
        <ele>26.6</ele>
        <time>2015-08-03T13:29:21.981Z</time>
      </trkpt>
      <trkpt lat="43.32467" lon="2.99054">
        <ele>26.3</ele>
        <time>2015-08-03T13:29:24.033Z</time>
      </trkpt>
      <trkpt lat="43.32468" lon="2.99058">
        <ele>25.9</ele>
        <time>2015-08-03T13:29:24.964Z</time>
      </trkpt>
      <trkpt lat="43.32471" lon="2.99066">
        <ele>25.5</ele>
        <time>2015-08-03T13:29:27.003Z</time>
      </trkpt>
      <trkpt lat="43.32473" lon="2.9907">
        <ele>25.2</ele>
        <time>2015-08-03T13:29:27.980Z</time>
      </trkpt>
      <trkpt lat="43.32476" lon="2.99078">
        <ele>25.2</ele>
        <time>2015-08-03T13:29:30.054Z</time>
      </trkpt>
      <trkpt lat="43.32477" lon="2.99083">
        <ele>25.2</ele>
        <time>2015-08-03T13:29:30.971Z</time>
      </trkpt>
      <trkpt lat="43.32479" lon="2.99091">
        <ele>25.1</ele>
        <time>2015-08-03T13:29:32.998Z</time>
      </trkpt>
      <trkpt lat="43.3248" lon="2.99096">
        <ele>25.3</ele>
        <time>2015-08-03T13:29:33.966Z</time>
      </trkpt>
      <trkpt lat="43.32482" lon="2.99105">
        <ele>25.6</ele>
        <time>2015-08-03T13:29:36.013Z</time>
      </trkpt>
      <trkpt lat="43.32484" lon="2.9911">
        <ele>25.5</ele>
        <time>2015-08-03T13:29:36.972Z</time>
      </trkpt>
      <trkpt lat="43.32487" lon="2.99117">
        <ele>25.7</ele>
        <time>2015-08-03T13:29:39.005Z</time>
      </trkpt>
      <trkpt lat="43.32488" lon="2.99121">
        <ele>25.5</ele>
        <time>2015-08-03T13:29:39.959Z</time>
      </trkpt>
      <trkpt lat="43.32491" lon="2.99129">
        <ele>25.6</ele>
        <time>2015-08-03T13:29:42.024Z</time>
      </trkpt>
      <trkpt lat="43.32492" lon="2.99133">
        <ele>25.5</ele>
        <time>2015-08-03T13:29:42.972Z</time>
      </trkpt>
      <trkpt lat="43.32494" lon="2.99142">
        <ele>25.4</ele>
        <time>2015-08-03T13:29:45.015Z</time>
      </trkpt>
      <trkpt lat="43.32495" lon="2.99147">
        <ele>25.2</ele>
        <time>2015-08-03T13:29:45.966Z</time>
      </trkpt>
      <trkpt lat="43.32497" lon="2.99157">
        <ele>24.7</ele>
        <time>2015-08-03T13:29:48.014Z</time>
      </trkpt>
      <trkpt lat="43.32498" lon="2.99162">
        <ele>24.6</ele>
        <time>2015-08-03T13:29:48.962Z</time>
      </trkpt>
      <trkpt lat="43.325" lon="2.99172">
        <ele>24.6</ele>
        <time>2015-08-03T13:29:51.006Z</time>
      </trkpt>
      <trkpt lat="43.32501" lon="2.99177">
        <ele>24.1</ele>
        <time>2015-08-03T13:29:51.971Z</time>
      </trkpt>
      <trkpt lat="43.32503" lon="2.99187">
        <ele>23.3</ele>
        <time>2015-08-03T13:29:54.039Z</time>
      </trkpt>
      <trkpt lat="43.32503" lon="2.99192">
        <ele>23.4</ele>
        <time>2015-08-03T13:29:54.960Z</time>
      </trkpt>
      <trkpt lat="43.32505" lon="2.99201">
        <ele>23.5</ele>
        <time>2015-08-03T13:29:57.023Z</time>
      </trkpt>
      <trkpt lat="43.32506" lon="2.99206">
        <ele>23.6</ele>
        <time>2015-08-03T13:29:57.983Z</time>
      </trkpt>
      <trkpt lat="43.32508" lon="2.99216">
        <ele>23.5</ele>
        <time>2015-08-03T13:30:00.010Z</time>
      </trkpt>
      <trkpt lat="43.32509" lon="2.99221">
        <ele>23.5</ele>
        <time>2015-08-03T13:30:00.964Z</time>
      </trkpt>
      <trkpt lat="43.32511" lon="2.9923">
        <ele>23.6</ele>
        <time>2015-08-03T13:30:03.001Z</time>
      </trkpt>
      <trkpt lat="43.32512" lon="2.99235">
        <ele>23.5</ele>
        <time>2015-08-03T13:30:03.955Z</time>
      </trkpt>
      <trkpt lat="43.32514" lon="2.99245">
        <ele>23.5</ele>
        <time>2015-08-03T13:30:06.002Z</time>
      </trkpt>
      <trkpt lat="43.32514" lon="2.9925">
        <ele>23.6</ele>
        <time>2015-08-03T13:30:06.958Z</time>
      </trkpt>
      <trkpt lat="43.32517" lon="2.9926">
        <ele>23.7</ele>
        <time>2015-08-03T13:30:09.009Z</time>
      </trkpt>
      <trkpt lat="43.32518" lon="2.99264">
        <ele>23.5</ele>
        <time>2015-08-03T13:30:09.958Z</time>
      </trkpt>
      <trkpt lat="43.32519" lon="2.99272">
        <ele>23.2</ele>
        <time>2015-08-03T13:30:12.022Z</time>
      </trkpt>
      <trkpt lat="43.32519" lon="2.99277">
        <ele>23.1</ele>
        <time>2015-08-03T13:30:12.961Z</time>
      </trkpt>
      <trkpt lat="43.32521" lon="2.99285">
        <ele>22.8</ele>
        <time>2015-08-03T13:30:14.998Z</time>
      </trkpt>
      <trkpt lat="43.32522" lon="2.9929">
        <ele>22.9</ele>
        <time>2015-08-03T13:30:15.965Z</time>
      </trkpt>
      <trkpt lat="43.32523" lon="2.99299">
        <ele>22.9</ele>
        <time>2015-08-03T13:30:18.004Z</time>
      </trkpt>
      <trkpt lat="43.32524" lon="2.99303">
        <ele>23</ele>
        <time>2015-08-03T13:30:18.972Z</time>
      </trkpt>
      <trkpt lat="43.32525" lon="2.99312">
        <ele>22.3</ele>
        <time>2015-08-03T13:30:21.012Z</time>
      </trkpt>
      <trkpt lat="43.32526" lon="2.99317">
        <ele>22</ele>
        <time>2015-08-03T13:30:21.959Z</time>
      </trkpt>
      <trkpt lat="43.3253" lon="2.99327">
        <ele>21.6</ele>
        <time>2015-08-03T13:30:25.025Z</time>
      </trkpt>
      <trkpt lat="43.32531" lon="2.9933">
        <ele>21.5</ele>
        <time>2015-08-03T13:30:26.366Z</time>
      </trkpt>
      <trkpt lat="43.32532" lon="2.99341">
        <ele>21.9</ele>
        <time>2015-08-03T13:30:30.012Z</time>
      </trkpt>
      <trkpt lat="43.32532" lon="2.99343">
        <ele>21.9</ele>
        <time>2015-08-03T13:30:30.962Z</time>
      </trkpt>
      <trkpt lat="43.32533" lon="2.99353">
        <ele>21.1</ele>
        <time>2015-08-03T13:30:34.074Z</time>
      </trkpt>
      <trkpt lat="43.32533" lon="2.99357">
        <ele>20.9</ele>
        <time>2015-08-03T13:30:34.968Z</time>
      </trkpt>
      <trkpt lat="43.32534" lon="2.99368">
        <ele>20.9</ele>
        <time>2015-08-03T13:30:38.039Z</time>
      </trkpt>
      <trkpt lat="43.32534" lon="2.99371">
        <ele>20.9</ele>
        <time>2015-08-03T13:30:38.968Z</time>
      </trkpt>
      <trkpt lat="43.32535" lon="2.99382">
        <ele>21.9</ele>
        <time>2015-08-03T13:30:42.064Z</time>
      </trkpt>
      <trkpt lat="43.32536" lon="2.99385">
        <ele>22</ele>
        <time>2015-08-03T13:30:42.966Z</time>
      </trkpt>
      <trkpt lat="43.32537" lon="2.99395">
        <ele>21.9</ele>
        <time>2015-08-03T13:30:46.015Z</time>
      </trkpt>
      <trkpt lat="43.32537" lon="2.99399">
        <ele>21.8</ele>
        <time>2015-08-03T13:30:46.957Z</time>
      </trkpt>
      <trkpt lat="43.32538" lon="2.99409">
        <ele>22.1</ele>
        <time>2015-08-03T13:30:50.172Z</time>
      </trkpt>
      <trkpt lat="43.32539" lon="2.99413">
        <ele>22.3</ele>
        <time>2015-08-03T13:30:50.958Z</time>
      </trkpt>
      <trkpt lat="43.3254" lon="2.99423">
        <ele>22.3</ele>
        <time>2015-08-03T13:30:54.007Z</time>
      </trkpt>
      <trkpt lat="43.32541" lon="2.99426">
        <ele>21.9</ele>
        <time>2015-08-03T13:30:54.961Z</time>
      </trkpt>
      <trkpt lat="43.32542" lon="2.99436">
        <ele>21.5</ele>
        <time>2015-08-03T13:30:59.000Z</time>
      </trkpt>
      <trkpt lat="43.32542" lon="2.99439">
        <ele>21.6</ele>
        <time>2015-08-03T13:31:00.336Z</time>
      </trkpt>
      <trkpt lat="43.32543" lon="2.99449">
        <ele>21.8</ele>
        <time>2015-08-03T13:31:04.003Z</time>
      </trkpt>
      <trkpt lat="43.32543" lon="2.99451">
        <ele>21.8</ele>
        <time>2015-08-03T13:31:04.959Z</time>
      </trkpt>
      <trkpt lat="43.32546" lon="2.99462">
        <ele>22.7</ele>
        <time>2015-08-03T13:31:10.008Z</time>
      </trkpt>
      <trkpt lat="43.32547" lon="2.99463">
        <ele>22.8</ele>
        <time>2015-08-03T13:31:10.964Z</time>
      </trkpt>
      <trkpt lat="43.32546" lon="2.99471">
        <ele>23.5</ele>
        <time>2015-08-03T13:31:15.992Z</time>
      </trkpt>
      <trkpt lat="43.32545" lon="2.99475">
        <ele>23.5</ele>
        <time>2015-08-03T13:31:16.958Z</time>
      </trkpt>
      <trkpt lat="43.32548" lon="2.99486">
        <ele>23.4</ele>
        <time>2015-08-03T13:31:18.996Z</time>
      </trkpt>
      <trkpt lat="43.3255" lon="2.99492">
        <ele>23.3</ele>
        <time>2015-08-03T13:31:19.959Z</time>
      </trkpt>
      <trkpt lat="43.32551" lon="2.99498">
        <ele>23.1</ele>
        <time>2015-08-03T13:31:20.997Z</time>
      </trkpt>
      <trkpt lat="43.32553" lon="2.99506">
        <ele>22.9</ele>
        <time>2015-08-03T13:31:22.004Z</time>
      </trkpt>
      <trkpt lat="43.32554" lon="2.99514">
        <ele>22.9</ele>
        <time>2015-08-03T13:31:22.993Z</time>
      </trkpt>
      <trkpt lat="43.32554" lon="2.99522">
        <ele>22.8</ele>
        <time>2015-08-03T13:31:23.958Z</time>
      </trkpt>
      <trkpt lat="43.32555" lon="2.99529">
        <ele>22.8</ele>
        <time>2015-08-03T13:31:24.997Z</time>
      </trkpt>
      <trkpt lat="43.32555" lon="2.99536">
        <ele>22.9</ele>
        <time>2015-08-03T13:31:25.958Z</time>
      </trkpt>
      <trkpt lat="43.32555" lon="2.99543">
        <ele>23.5</ele>
        <time>2015-08-03T13:31:26.992Z</time>
      </trkpt>
      <trkpt lat="43.32556" lon="2.99549">
        <ele>23.9</ele>
        <time>2015-08-03T13:31:27.968Z</time>
      </trkpt>
      <trkpt lat="43.32557" lon="2.99561">
        <ele>24.3</ele>
        <time>2015-08-03T13:31:30.005Z</time>
      </trkpt>
      <trkpt lat="43.32557" lon="2.99566">
        <ele>24.2</ele>
        <time>2015-08-03T13:31:30.961Z</time>
      </trkpt>
      <trkpt lat="43.32556" lon="2.99576">
        <ele>24.5</ele>
        <time>2015-08-03T13:31:33.001Z</time>
      </trkpt>
      <trkpt lat="43.32557" lon="2.99581">
        <ele>24.6</ele>
        <time>2015-08-03T13:31:33.962Z</time>
      </trkpt>
      <trkpt lat="43.32556" lon="2.9959">
        <ele>24.8</ele>
        <time>2015-08-03T13:31:36.002Z</time>
      </trkpt>
      <trkpt lat="43.32556" lon="2.99594">
        <ele>24.9</ele>
        <time>2015-08-03T13:31:36.961Z</time>
      </trkpt>
      <trkpt lat="43.32556" lon="2.99604">
        <ele>25.2</ele>
        <time>2015-08-03T13:31:38.999Z</time>
      </trkpt>
      <trkpt lat="43.32556" lon="2.99609">
        <ele>25.2</ele>
        <time>2015-08-03T13:31:39.958Z</time>
      </trkpt>
      <trkpt lat="43.32555" lon="2.99618">
        <ele>25.5</ele>
        <time>2015-08-03T13:31:42.010Z</time>
      </trkpt>
      <trkpt lat="43.32555" lon="2.99623">
        <ele>25.6</ele>
        <time>2015-08-03T13:31:42.961Z</time>
      </trkpt>
      <trkpt lat="43.32555" lon="2.99632">
        <ele>25.8</ele>
        <time>2015-08-03T13:31:44.998Z</time>
      </trkpt>
      <trkpt lat="43.32555" lon="2.99638">
        <ele>26</ele>
        <time>2015-08-03T13:31:45.962Z</time>
      </trkpt>
      <trkpt lat="43.32554" lon="2.99647">
        <ele>26.1</ele>
        <time>2015-08-03T13:31:48.022Z</time>
      </trkpt>
      <trkpt lat="43.32554" lon="2.99652">
        <ele>26.1</ele>
        <time>2015-08-03T13:31:48.970Z</time>
      </trkpt>
      <trkpt lat="43.32553" lon="2.99661">
        <ele>26.6</ele>
        <time>2015-08-03T13:31:51.000Z</time>
      </trkpt>
      <trkpt lat="43.32553" lon="2.99666">
        <ele>26.9</ele>
        <time>2015-08-03T13:31:51.958Z</time>
      </trkpt>
      <trkpt lat="43.32553" lon="2.99675">
        <ele>26.9</ele>
        <time>2015-08-03T13:31:54.011Z</time>
      </trkpt>
      <trkpt lat="43.32552" lon="2.9968">
        <ele>26.8</ele>
        <time>2015-08-03T13:31:54.961Z</time>
      </trkpt>
      <trkpt lat="43.32551" lon="2.9969">
        <ele>26.8</ele>
        <time>2015-08-03T13:31:57.024Z</time>
      </trkpt>
      <trkpt lat="43.32551" lon="2.99694">
        <ele>27.1</ele>
        <time>2015-08-03T13:31:57.981Z</time>
      </trkpt>
      <trkpt lat="43.3255" lon="2.99703">
        <ele>26.8</ele>
        <time>2015-08-03T13:32:00.013Z</time>
      </trkpt>
      <trkpt lat="43.32549" lon="2.99708">
        <ele>26.7</ele>
        <time>2015-08-03T13:32:00.961Z</time>
      </trkpt>
      <trkpt lat="43.32549" lon="2.99717">
        <ele>26.8</ele>
        <time>2015-08-03T13:32:03.000Z</time>
      </trkpt>
      <trkpt lat="43.32549" lon="2.99721">
        <ele>27.1</ele>
        <time>2015-08-03T13:32:03.959Z</time>
      </trkpt>
      <trkpt lat="43.32548" lon="2.9973">
        <ele>26.4</ele>
        <time>2015-08-03T13:32:06.039Z</time>
      </trkpt>
      <trkpt lat="43.32547" lon="2.99735">
        <ele>26.4</ele>
        <time>2015-08-03T13:32:06.971Z</time>
      </trkpt>
      <trkpt lat="43.32547" lon="2.99745">
        <ele>24.7</ele>
        <time>2015-08-03T13:32:10.005Z</time>
      </trkpt>
      <trkpt lat="43.32547" lon="2.99749">
        <ele>24.6</ele>
        <time>2015-08-03T13:32:10.974Z</time>
      </trkpt>
      <trkpt lat="43.32545" lon="2.99757">
        <ele>23.8</ele>
        <time>2015-08-03T13:32:12.991Z</time>
      </trkpt>
      <trkpt lat="43.32545" lon="2.99761">
        <ele>23.6</ele>
        <time>2015-08-03T13:32:13.957Z</time>
      </trkpt>
      <trkpt lat="43.32543" lon="2.9977">
        <ele>23.5</ele>
        <time>2015-08-03T13:32:15.996Z</time>
      </trkpt>
      <trkpt lat="43.32542" lon="2.99774">
        <ele>23.3</ele>
        <time>2015-08-03T13:32:16.961Z</time>
      </trkpt>
      <trkpt lat="43.32541" lon="2.99785">
        <ele>22.7</ele>
        <time>2015-08-03T13:32:19.995Z</time>
      </trkpt>
      <trkpt lat="43.3254" lon="2.99789">
        <ele>22.4</ele>
        <time>2015-08-03T13:32:20.958Z</time>
      </trkpt>
      <trkpt lat="43.32539" lon="2.99799">
        <ele>22.2</ele>
        <time>2015-08-03T13:32:22.992Z</time>
      </trkpt>
      <trkpt lat="43.32538" lon="2.99803">
        <ele>22</ele>
        <time>2015-08-03T13:32:23.962Z</time>
      </trkpt>
      <trkpt lat="43.32536" lon="2.99815">
        <ele>21.4</ele>
        <time>2015-08-03T13:32:27.000Z</time>
      </trkpt>
      <trkpt lat="43.32535" lon="2.99818">
        <ele>21.4</ele>
        <time>2015-08-03T13:32:27.962Z</time>
      </trkpt>
      <trkpt lat="43.32533" lon="2.9983">
        <ele>21.2</ele>
        <time>2015-08-03T13:32:31.003Z</time>
      </trkpt>
      <trkpt lat="43.32532" lon="2.99834">
        <ele>21.1</ele>
        <time>2015-08-03T13:32:31.960Z</time>
      </trkpt>
      <trkpt lat="43.3253" lon="2.99844">
        <ele>20.2</ele>
        <time>2015-08-03T13:32:35.004Z</time>
      </trkpt>
      <trkpt lat="43.3253" lon="2.99848">
        <ele>19.8</ele>
        <time>2015-08-03T13:32:35.962Z</time>
      </trkpt>
      <trkpt lat="43.32526" lon="2.99859">
        <ele>19.1</ele>
        <time>2015-08-03T13:32:39.297Z</time>
      </trkpt>
      <trkpt lat="43.32526" lon="2.99863">
        <ele>18.8</ele>
        <time>2015-08-03T13:32:39.959Z</time>
      </trkpt>
      <trkpt lat="43.32523" lon="2.99874">
        <ele>18.5</ele>
        <time>2015-08-03T13:32:43.006Z</time>
      </trkpt>
      <trkpt lat="43.32522" lon="2.99878">
        <ele>18.1</ele>
        <time>2015-08-03T13:32:43.961Z</time>
      </trkpt>
      <trkpt lat="43.3252" lon="2.99886">
        <ele>17.3</ele>
        <time>2015-08-03T13:32:46.006Z</time>
      </trkpt>
      <trkpt lat="43.32519" lon="2.99891">
        <ele>16.7</ele>
        <time>2015-08-03T13:32:46.962Z</time>
      </trkpt>
      <trkpt lat="43.32516" lon="2.999">
        <ele>16.4</ele>
        <time>2015-08-03T13:32:49.001Z</time>
      </trkpt>
      <trkpt lat="43.32515" lon="2.99904">
        <ele>16.1</ele>
        <time>2015-08-03T13:32:49.966Z</time>
      </trkpt>
      <trkpt lat="43.32512" lon="2.99911">
        <ele>15.8</ele>
        <time>2015-08-03T13:32:52.257Z</time>
      </trkpt>
      <trkpt lat="43.32511" lon="2.99915">
        <ele>15.6</ele>
        <time>2015-08-03T13:32:52.956Z</time>
      </trkpt>
      <trkpt lat="43.32509" lon="2.99923">
        <ele>14.7</ele>
        <time>2015-08-03T13:32:54.993Z</time>
      </trkpt>
      <trkpt lat="43.32507" lon="2.99927">
        <ele>14.1</ele>
        <time>2015-08-03T13:32:55.965Z</time>
      </trkpt>
      <trkpt lat="43.32505" lon="2.99934">
        <ele>15.5</ele>
        <time>2015-08-03T13:32:57.002Z</time>
      </trkpt>
      <trkpt lat="43.32502" lon="2.9994">
        <ele>16.1</ele>
        <time>2015-08-03T13:32:57.957Z</time>
      </trkpt>
      <trkpt lat="43.32499" lon="2.99949">
        <ele>15.2</ele>
        <time>2015-08-03T13:33:00.006Z</time>
      </trkpt>
      <trkpt lat="43.32497" lon="2.99954">
        <ele>14.7</ele>
        <time>2015-08-03T13:33:00.972Z</time>
      </trkpt>
      <trkpt lat="43.32494" lon="2.9996">
        <ele>14.3</ele>
        <time>2015-08-03T13:33:03.219Z</time>
      </trkpt>
      <trkpt lat="43.32493" lon="2.99965">
        <ele>14.2</ele>
        <time>2015-08-03T13:33:03.966Z</time>
      </trkpt>
      <trkpt lat="43.32489" lon="2.99973">
        <ele>13.8</ele>
        <time>2015-08-03T13:33:06.006Z</time>
      </trkpt>
      <trkpt lat="43.32488" lon="2.99977">
        <ele>13.4</ele>
        <time>2015-08-03T13:33:07.011Z</time>
      </trkpt>
      <trkpt lat="43.32484" lon="2.99987">
        <ele>14</ele>
        <time>2015-08-03T13:33:08.992Z</time>
      </trkpt>
      <trkpt lat="43.32482" lon="2.99991">
        <ele>13.8</ele>
        <time>2015-08-03T13:33:09.956Z</time>
      </trkpt>
      <trkpt lat="43.32477" lon="3.00001">
        <ele>12.7</ele>
        <time>2015-08-03T13:33:12.995Z</time>
      </trkpt>
      <trkpt lat="43.32475" lon="3.00006">
        <ele>12.8</ele>
        <time>2015-08-03T13:33:13.960Z</time>
      </trkpt>
      <trkpt lat="43.3247" lon="3.00016">
        <ele>11.8</ele>
        <time>2015-08-03T13:33:17.003Z</time>
      </trkpt>
      <trkpt lat="43.32469" lon="3.00019">
        <ele>11.9</ele>
        <time>2015-08-03T13:33:17.962Z</time>
      </trkpt>
      <trkpt lat="43.32465" lon="3.00028">
        <ele>12.4</ele>
        <time>2015-08-03T13:33:20.015Z</time>
      </trkpt>
      <trkpt lat="43.32463" lon="3.00032">
        <ele>12.6</ele>
        <time>2015-08-03T13:33:20.969Z</time>
      </trkpt>
      <trkpt lat="43.3246" lon="3.00041">
        <ele>13.2</ele>
        <time>2015-08-03T13:33:23.343Z</time>
      </trkpt>
      <trkpt lat="43.32458" lon="3.00044">
        <ele>13.2</ele>
        <time>2015-08-03T13:33:23.961Z</time>
      </trkpt>
      <trkpt lat="43.32454" lon="3.00051">
        <ele>12.8</ele>
        <time>2015-08-03T13:33:26.027Z</time>
      </trkpt>
      <trkpt lat="43.32452" lon="3.00055">
        <ele>12.6</ele>
        <time>2015-08-03T13:33:26.959Z</time>
      </trkpt>
      <trkpt lat="43.32448" lon="3.00062">
        <ele>12</ele>
        <time>2015-08-03T13:33:28.998Z</time>
      </trkpt>
      <trkpt lat="43.32446" lon="3.00066">
        <ele>12</ele>
        <time>2015-08-03T13:33:30.054Z</time>
      </trkpt>
      <trkpt lat="43.32442" lon="3.00074">
        <ele>11.7</ele>
        <time>2015-08-03T13:33:32.000Z</time>
      </trkpt>
      <trkpt lat="43.3244" lon="3.00077">
        <ele>11.3</ele>
        <time>2015-08-03T13:33:32.969Z</time>
      </trkpt>
      <trkpt lat="43.32434" lon="3.00086">
        <ele>11.3</ele>
        <time>2015-08-03T13:33:35.026Z</time>
      </trkpt>
      <trkpt lat="43.32432" lon="3.00091">
        <ele>11.4</ele>
        <time>2015-08-03T13:33:35.970Z</time>
      </trkpt>
      <trkpt lat="43.32426" lon="3.001">
        <ele>12.2</ele>
        <time>2015-08-03T13:33:38.006Z</time>
      </trkpt>
      <trkpt lat="43.32424" lon="3.00106">
        <ele>12.8</ele>
        <time>2015-08-03T13:33:38.959Z</time>
      </trkpt>
      <trkpt lat="43.32418" lon="3.00114">
        <ele>12.8</ele>
        <time>2015-08-03T13:33:40.996Z</time>
      </trkpt>
      <trkpt lat="43.32416" lon="3.00118">
        <ele>13.2</ele>
        <time>2015-08-03T13:33:41.966Z</time>
      </trkpt>
      <trkpt lat="43.32412" lon="3.00126">
        <ele>12.9</ele>
        <time>2015-08-03T13:33:44.068Z</time>
      </trkpt>
      <trkpt lat="43.32409" lon="3.0013">
        <ele>13</ele>
        <time>2015-08-03T13:33:44.989Z</time>
      </trkpt>
      <trkpt lat="43.32404" lon="3.00138">
        <ele>13.3</ele>
        <time>2015-08-03T13:33:47.006Z</time>
      </trkpt>
      <trkpt lat="43.32401" lon="3.00143">
        <ele>13.9</ele>
        <time>2015-08-03T13:33:47.962Z</time>
      </trkpt>
      <trkpt lat="43.32396" lon="3.00152">
        <ele>14.5</ele>
        <time>2015-08-03T13:33:50.127Z</time>
      </trkpt>
      <trkpt lat="43.32394" lon="3.00156">
        <ele>14.4</ele>
        <time>2015-08-03T13:33:50.957Z</time>
      </trkpt>
      <trkpt lat="43.3239" lon="3.00165">
        <ele>15.4</ele>
        <time>2015-08-03T13:33:53.016Z</time>
      </trkpt>
      <trkpt lat="43.32387" lon="3.00169">
        <ele>15.8</ele>
        <time>2015-08-03T13:33:53.960Z</time>
      </trkpt>
      <trkpt lat="43.32383" lon="3.00178">
        <ele>16.7</ele>
        <time>2015-08-03T13:33:56.022Z</time>
      </trkpt>
      <trkpt lat="43.3238" lon="3.00183">
        <ele>17.2</ele>
        <time>2015-08-03T13:33:56.964Z</time>
      </trkpt>
      <trkpt lat="43.32375" lon="3.00191">
        <ele>18</ele>
        <time>2015-08-03T13:33:59.007Z</time>
      </trkpt>
      <trkpt lat="43.32372" lon="3.00195">
        <ele>18.8</ele>
        <time>2015-08-03T13:33:59.968Z</time>
      </trkpt>
      <trkpt lat="43.32367" lon="3.00204">
        <ele>19.5</ele>
        <time>2015-08-03T13:34:02.050Z</time>
      </trkpt>
      <trkpt lat="43.32365" lon="3.00208">
        <ele>19.9</ele>
        <time>2015-08-03T13:34:02.971Z</time>
      </trkpt>
      <trkpt lat="43.32359" lon="3.00217">
        <ele>20.4</ele>
        <time>2015-08-03T13:34:05.019Z</time>
      </trkpt>
      <trkpt lat="43.32357" lon="3.00222">
        <ele>21.1</ele>
        <time>2015-08-03T13:34:05.963Z</time>
      </trkpt>
      <trkpt lat="43.32352" lon="3.0023">
        <ele>21.9</ele>
        <time>2015-08-03T13:34:08.014Z</time>
      </trkpt>
      <trkpt lat="43.3235" lon="3.00235">
        <ele>22.1</ele>
        <time>2015-08-03T13:34:08.973Z</time>
      </trkpt>
      <trkpt lat="43.32345" lon="3.00242">
        <ele>22.3</ele>
        <time>2015-08-03T13:34:11.001Z</time>
      </trkpt>
      <trkpt lat="43.32343" lon="3.00246">
        <ele>22.6</ele>
        <time>2015-08-03T13:34:11.966Z</time>
      </trkpt>
      <trkpt lat="43.32339" lon="3.00254">
        <ele>23</ele>
        <time>2015-08-03T13:34:14.013Z</time>
      </trkpt>
      <trkpt lat="43.32336" lon="3.00258">
        <ele>23.4</ele>
        <time>2015-08-03T13:34:14.961Z</time>
      </trkpt>
      <trkpt lat="43.32332" lon="3.00267">
        <ele>23.5</ele>
        <time>2015-08-03T13:34:17.012Z</time>
      </trkpt>
      <trkpt lat="43.32329" lon="3.00271">
        <ele>23.8</ele>
        <time>2015-08-03T13:34:17.961Z</time>
      </trkpt>
      <trkpt lat="43.32325" lon="3.0028">
        <ele>23.8</ele>
        <time>2015-08-03T13:34:20.009Z</time>
      </trkpt>
      <trkpt lat="43.32323" lon="3.00284">
        <ele>23.9</ele>
        <time>2015-08-03T13:34:21.259Z</time>
      </trkpt>
      <trkpt lat="43.32318" lon="3.00292">
        <ele>24.5</ele>
        <time>2015-08-03T13:34:23.001Z</time>
      </trkpt>
      <trkpt lat="43.32316" lon="3.00296">
        <ele>24.3</ele>
        <time>2015-08-03T13:34:23.963Z</time>
      </trkpt>
      <trkpt lat="43.32312" lon="3.00305">
        <ele>24.7</ele>
        <time>2015-08-03T13:34:26.012Z</time>
      </trkpt>
      <trkpt lat="43.3231" lon="3.00308">
        <ele>24.5</ele>
        <time>2015-08-03T13:34:26.962Z</time>
      </trkpt>
      <trkpt lat="43.32306" lon="3.00316">
        <ele>24.2</ele>
        <time>2015-08-03T13:34:29.150Z</time>
      </trkpt>
      <trkpt lat="43.32304" lon="3.0032">
        <ele>24.8</ele>
        <time>2015-08-03T13:34:29.963Z</time>
      </trkpt>
      <trkpt lat="43.323" lon="3.00328">
        <ele>25.2</ele>
        <time>2015-08-03T13:34:32.018Z</time>
      </trkpt>
      <trkpt lat="43.32299" lon="3.00331">
        <ele>25.1</ele>
        <time>2015-08-03T13:34:32.959Z</time>
      </trkpt>
      <trkpt lat="43.32294" lon="3.00342">
        <ele>25.1</ele>
        <time>2015-08-03T13:34:36.057Z</time>
      </trkpt>
      <trkpt lat="43.32292" lon="3.00345">
        <ele>25.7</ele>
        <time>2015-08-03T13:34:36.973Z</time>
      </trkpt>
      <trkpt lat="43.32289" lon="3.00353">
        <ele>25</ele>
        <time>2015-08-03T13:34:39.002Z</time>
      </trkpt>
      <trkpt lat="43.32288" lon="3.00357">
        <ele>24.9</ele>
        <time>2015-08-03T13:34:39.962Z</time>
      </trkpt>
      <trkpt lat="43.32284" lon="3.00365">
        <ele>25.3</ele>
        <time>2015-08-03T13:34:42.010Z</time>
      </trkpt>
      <trkpt lat="43.32282" lon="3.0037">
        <ele>25.5</ele>
        <time>2015-08-03T13:34:42.964Z</time>
      </trkpt>
      <trkpt lat="43.32279" lon="3.00377">
        <ele>25.7</ele>
        <time>2015-08-03T13:34:45.270Z</time>
      </trkpt>
      <trkpt lat="43.32278" lon="3.00381">
        <ele>25.7</ele>
        <time>2015-08-03T13:34:45.964Z</time>
      </trkpt>
      <trkpt lat="43.32275" lon="3.00389">
        <ele>25.8</ele>
        <time>2015-08-03T13:34:48.024Z</time>
      </trkpt>
      <trkpt lat="43.32273" lon="3.00393">
        <ele>26.2</ele>
        <time>2015-08-03T13:34:48.962Z</time>
      </trkpt>
      <trkpt lat="43.3227" lon="3.004">
        <ele>26</ele>
        <time>2015-08-03T13:34:51.004Z</time>
      </trkpt>
      <trkpt lat="43.32269" lon="3.00404">
        <ele>25.8</ele>
        <time>2015-08-03T13:34:51.961Z</time>
      </trkpt>
      <trkpt lat="43.32265" lon="3.00412">
        <ele>26</ele>
        <time>2015-08-03T13:34:53.996Z</time>
      </trkpt>
      <trkpt lat="43.32263" lon="3.00416">
        <ele>26.2</ele>
        <time>2015-08-03T13:34:54.960Z</time>
      </trkpt>
      <trkpt lat="43.3226" lon="3.00425">
        <ele>26.6</ele>
        <time>2015-08-03T13:34:57.041Z</time>
      </trkpt>
      <trkpt lat="43.32259" lon="3.00429">
        <ele>27</ele>
        <time>2015-08-03T13:34:57.966Z</time>
      </trkpt>
      <trkpt lat="43.32255" lon="3.00438">
        <ele>27.7</ele>
        <time>2015-08-03T13:35:00.050Z</time>
      </trkpt>
      <trkpt lat="43.32253" lon="3.00442">
        <ele>28.1</ele>
        <time>2015-08-03T13:35:00.962Z</time>
      </trkpt>
      <trkpt lat="43.3225" lon="3.0045">
        <ele>28.5</ele>
        <time>2015-08-03T13:35:03.000Z</time>
      </trkpt>
      <trkpt lat="43.32248" lon="3.00454">
        <ele>28.9</ele>
        <time>2015-08-03T13:35:03.971Z</time>
      </trkpt>
      <trkpt lat="43.32243" lon="3.00464">
        <ele>29.4</ele>
        <time>2015-08-03T13:35:06.007Z</time>
      </trkpt>
      <trkpt lat="43.3224" lon="3.00469">
        <ele>29.7</ele>
        <time>2015-08-03T13:35:06.959Z</time>
      </trkpt>
      <trkpt lat="43.32237" lon="3.00477">
        <ele>29.9</ele>
        <time>2015-08-03T13:35:09.000Z</time>
      </trkpt>
      <trkpt lat="43.32234" lon="3.00482">
        <ele>29.8</ele>
        <time>2015-08-03T13:35:09.966Z</time>
      </trkpt>
      <trkpt lat="43.3223" lon="3.0049">
        <ele>30</ele>
        <time>2015-08-03T13:35:12.025Z</time>
      </trkpt>
      <trkpt lat="43.32227" lon="3.00495">
        <ele>30.1</ele>
        <time>2015-08-03T13:35:12.972Z</time>
      </trkpt>
      <trkpt lat="43.32223" lon="3.00502">
        <ele>30</ele>
        <time>2015-08-03T13:35:15.002Z</time>
      </trkpt>
      <trkpt lat="43.32221" lon="3.00507">
        <ele>29.8</ele>
        <time>2015-08-03T13:35:15.966Z</time>
      </trkpt>
      <trkpt lat="43.32217" lon="3.00515">
        <ele>29.6</ele>
        <time>2015-08-03T13:35:18.008Z</time>
      </trkpt>
      <trkpt lat="43.32214" lon="3.00519">
        <ele>29.6</ele>
        <time>2015-08-03T13:35:18.972Z</time>
      </trkpt>
      <trkpt lat="43.32211" lon="3.00527">
        <ele>29.8</ele>
        <time>2015-08-03T13:35:21.006Z</time>
      </trkpt>
      <trkpt lat="43.32209" lon="3.00531">
        <ele>29.7</ele>
        <time>2015-08-03T13:35:21.962Z</time>
      </trkpt>
      <trkpt lat="43.32205" lon="3.00539">
        <ele>29</ele>
        <time>2015-08-03T13:35:24.013Z</time>
      </trkpt>
      <trkpt lat="43.32203" lon="3.00544">
        <ele>29</ele>
        <time>2015-08-03T13:35:24.964Z</time>
      </trkpt>
      <trkpt lat="43.32199" lon="3.00552">
        <ele>29</ele>
        <time>2015-08-03T13:35:27.027Z</time>
      </trkpt>
      <trkpt lat="43.32196" lon="3.00556">
        <ele>28.7</ele>
        <time>2015-08-03T13:35:27.983Z</time>
      </trkpt>
      <trkpt lat="43.32192" lon="3.00564">
        <ele>27.9</ele>
        <time>2015-08-03T13:35:30.018Z</time>
      </trkpt>
      <trkpt lat="43.32191" lon="3.00568">
        <ele>27.7</ele>
        <time>2015-08-03T13:35:30.961Z</time>
      </trkpt>
      <trkpt lat="43.32186" lon="3.00577">
        <ele>27.7</ele>
        <time>2015-08-03T13:35:33.001Z</time>
      </trkpt>
      <trkpt lat="43.32184" lon="3.00581">
        <ele>27.6</ele>
        <time>2015-08-03T13:35:33.962Z</time>
      </trkpt>
      <trkpt lat="43.3218" lon="3.0059">
        <ele>27.4</ele>
        <time>2015-08-03T13:35:36.008Z</time>
      </trkpt>
      <trkpt lat="43.32178" lon="3.00594">
        <ele>27.3</ele>
        <time>2015-08-03T13:35:36.962Z</time>
      </trkpt>
      <trkpt lat="43.32175" lon="3.00602">
        <ele>26.7</ele>
        <time>2015-08-03T13:35:39.001Z</time>
      </trkpt>
      <trkpt lat="43.32173" lon="3.00606">
        <ele>26.6</ele>
        <time>2015-08-03T13:35:39.968Z</time>
      </trkpt>
      <trkpt lat="43.32169" lon="3.00615">
        <ele>25.8</ele>
        <time>2015-08-03T13:35:43.004Z</time>
      </trkpt>
      <trkpt lat="43.32167" lon="3.0062">
        <ele>25.7</ele>
        <time>2015-08-03T13:35:43.963Z</time>
      </trkpt>
      <trkpt lat="43.32164" lon="3.00628">
        <ele>25.8</ele>
        <time>2015-08-03T13:35:45.993Z</time>
      </trkpt>
      <trkpt lat="43.32162" lon="3.00633">
        <ele>25.7</ele>
        <time>2015-08-03T13:35:46.957Z</time>
      </trkpt>
      <trkpt lat="43.32157" lon="3.00643">
        <ele>25.1</ele>
        <time>2015-08-03T13:35:50.018Z</time>
      </trkpt>
      <trkpt lat="43.32156" lon="3.00648">
        <ele>25.1</ele>
        <time>2015-08-03T13:35:50.970Z</time>
      </trkpt>
      <trkpt lat="43.32153" lon="3.00656">
        <ele>24.5</ele>
        <time>2015-08-03T13:35:54.020Z</time>
      </trkpt>
      <trkpt lat="43.32151" lon="3.0066">
        <ele>24.1</ele>
        <time>2015-08-03T13:35:54.966Z</time>
      </trkpt>
      <trkpt lat="43.32147" lon="3.00669">
        <ele>23.1</ele>
        <time>2015-08-03T13:35:58.999Z</time>
      </trkpt>
      <trkpt lat="43.32146" lon="3.00671">
        <ele>22.9</ele>
        <time>2015-08-03T13:35:59.964Z</time>
      </trkpt>
      <trkpt lat="43.32143" lon="3.00678">
        <ele>20.9</ele>
        <time>2015-08-03T13:36:22.043Z</time>
      </trkpt>
      <trkpt lat="43.32138" lon="3.0069">
        <ele>21.1</ele>
        <time>2015-08-03T13:36:23.007Z</time>
      </trkpt>
      <trkpt lat="43.32133" lon="3.00699">
        <ele>21.9</ele>
        <time>2015-08-03T13:36:28.001Z</time>
      </trkpt>
      <trkpt lat="43.32132" lon="3.00702">
        <ele>22.1</ele>
        <time>2015-08-03T13:36:28.957Z</time>
      </trkpt>
      <trkpt lat="43.32128" lon="3.00711">
        <ele>22.3</ele>
        <time>2015-08-03T13:36:33.024Z</time>
      </trkpt>
      <trkpt lat="43.32127" lon="3.00713">
        <ele>22.3</ele>
        <time>2015-08-03T13:36:33.968Z</time>
      </trkpt>
      <trkpt lat="43.32125" lon="3.00724">
        <ele>22.1</ele>
        <time>2015-08-03T13:36:39.007Z</time>
      </trkpt>
      <trkpt lat="43.32125" lon="3.00726">
        <ele>22.1</ele>
        <time>2015-08-03T13:36:39.962Z</time>
      </trkpt>
      <trkpt lat="43.32122" lon="3.00735">
        <ele>22.5</ele>
        <time>2015-08-03T13:36:42.003Z</time>
      </trkpt>
      <trkpt lat="43.32119" lon="3.00739">
        <ele>22.4</ele>
        <time>2015-08-03T13:36:42.968Z</time>
      </trkpt>
      <trkpt lat="43.32114" lon="3.00748">
        <ele>22.4</ele>
        <time>2015-08-03T13:36:45.005Z</time>
      </trkpt>
      <trkpt lat="43.32112" lon="3.00753">
        <ele>22.4</ele>
        <time>2015-08-03T13:36:45.961Z</time>
      </trkpt>
      <trkpt lat="43.32107" lon="3.00762">
        <ele>22.1</ele>
        <time>2015-08-03T13:36:48.039Z</time>
      </trkpt>
      <trkpt lat="43.32105" lon="3.00766">
        <ele>22</ele>
        <time>2015-08-03T13:36:48.983Z</time>
      </trkpt>
      <trkpt lat="43.321" lon="3.00773">
        <ele>21.6</ele>
        <time>2015-08-03T13:36:51.015Z</time>
      </trkpt>
      <trkpt lat="43.32098" lon="3.00777">
        <ele>21.4</ele>
        <time>2015-08-03T13:36:51.962Z</time>
      </trkpt>
      <trkpt lat="43.32094" lon="3.00784">
        <ele>21</ele>
        <time>2015-08-03T13:36:53.998Z</time>
      </trkpt>
      <trkpt lat="43.32092" lon="3.00788">
        <ele>20.9</ele>
        <time>2015-08-03T13:36:54.966Z</time>
      </trkpt>
      <trkpt lat="43.32087" lon="3.00797">
        <ele>20.9</ele>
        <time>2015-08-03T13:36:57.023Z</time>
      </trkpt>
      <trkpt lat="43.32085" lon="3.00802">
        <ele>21</ele>
        <time>2015-08-03T13:36:57.969Z</time>
      </trkpt>
      <trkpt lat="43.32081" lon="3.00811">
        <ele>20.6</ele>
        <time>2015-08-03T13:36:59.999Z</time>
      </trkpt>
      <trkpt lat="43.32078" lon="3.00816">
        <ele>20.3</ele>
        <time>2015-08-03T13:37:00.962Z</time>
      </trkpt>
      <trkpt lat="43.32074" lon="3.00825">
        <ele>20</ele>
        <time>2015-08-03T13:37:03.024Z</time>
      </trkpt>
      <trkpt lat="43.32071" lon="3.00829">
        <ele>19.8</ele>
        <time>2015-08-03T13:37:03.961Z</time>
      </trkpt>
      <trkpt lat="43.32066" lon="3.00839">
        <ele>19.5</ele>
        <time>2015-08-03T13:37:06.039Z</time>
      </trkpt>
      <trkpt lat="43.32063" lon="3.00843">
        <ele>19.3</ele>
        <time>2015-08-03T13:37:07.010Z</time>
      </trkpt>
      <trkpt lat="43.32057" lon="3.00853">
        <ele>18.8</ele>
        <time>2015-08-03T13:37:09.018Z</time>
      </trkpt>
      <trkpt lat="43.32055" lon="3.00857">
        <ele>18.6</ele>
        <time>2015-08-03T13:37:09.959Z</time>
      </trkpt>
      <trkpt lat="43.32049" lon="3.00865">
        <ele>18.1</ele>
        <time>2015-08-03T13:37:12.180Z</time>
      </trkpt>
      <trkpt lat="43.32047" lon="3.00869">
        <ele>17.9</ele>
        <time>2015-08-03T13:37:12.984Z</time>
      </trkpt>
      <trkpt lat="43.32042" lon="3.00878">
        <ele>17.6</ele>
        <time>2015-08-03T13:37:15.007Z</time>
      </trkpt>
      <trkpt lat="43.32038" lon="3.00883">
        <ele>17.3</ele>
        <time>2015-08-03T13:37:15.960Z</time>
      </trkpt>
      <trkpt lat="43.32033" lon="3.00891">
        <ele>16.9</ele>
        <time>2015-08-03T13:37:18.336Z</time>
      </trkpt>
      <trkpt lat="43.32031" lon="3.00894">
        <ele>16.7</ele>
        <time>2015-08-03T13:37:18.986Z</time>
      </trkpt>
      <trkpt lat="43.32027" lon="3.00903">
        <ele>16.9</ele>
        <time>2015-08-03T13:37:21.017Z</time>
      </trkpt>
      <trkpt lat="43.32024" lon="3.00907">
        <ele>16.8</ele>
        <time>2015-08-03T13:37:21.959Z</time>
      </trkpt>
      <trkpt lat="43.3202" lon="3.00917">
        <ele>18</ele>
        <time>2015-08-03T13:37:24.319Z</time>
      </trkpt>
      <trkpt lat="43.32018" lon="3.00922">
        <ele>18.3</ele>
        <time>2015-08-03T13:37:24.962Z</time>
      </trkpt>
      <trkpt lat="43.32013" lon="3.00931">
        <ele>18.8</ele>
        <time>2015-08-03T13:37:26.994Z</time>
      </trkpt>
      <trkpt lat="43.32011" lon="3.00935">
        <ele>19</ele>
        <time>2015-08-03T13:37:27.956Z</time>
      </trkpt>
      <trkpt lat="43.32007" lon="3.00943">
        <ele>19.5</ele>
        <time>2015-08-03T13:37:30.345Z</time>
      </trkpt>
      <trkpt lat="43.32005" lon="3.00948">
        <ele>19.8</ele>
        <time>2015-08-03T13:37:30.962Z</time>
      </trkpt>
      <trkpt lat="43.32001" lon="3.00956">
        <ele>20.1</ele>
        <time>2015-08-03T13:37:33.008Z</time>
      </trkpt>
      <trkpt lat="43.31998" lon="3.00961">
        <ele>20.2</ele>
        <time>2015-08-03T13:37:33.960Z</time>
      </trkpt>
      <trkpt lat="43.31994" lon="3.0097">
        <ele>20.8</ele>
        <time>2015-08-03T13:37:36.024Z</time>
      </trkpt>
      <trkpt lat="43.31992" lon="3.00974">
        <ele>21</ele>
        <time>2015-08-03T13:37:36.980Z</time>
      </trkpt>
      <trkpt lat="43.31988" lon="3.00982">
        <ele>21.7</ele>
        <time>2015-08-03T13:37:39.009Z</time>
      </trkpt>
      <trkpt lat="43.31985" lon="3.00987">
        <ele>22.3</ele>
        <time>2015-08-03T13:37:39.961Z</time>
      </trkpt>
      <trkpt lat="43.31981" lon="3.00994">
        <ele>22.2</ele>
        <time>2015-08-03T13:37:42.000Z</time>
      </trkpt>
      <trkpt lat="43.31979" lon="3.00999">
        <ele>22.3</ele>
        <time>2015-08-03T13:37:42.985Z</time>
      </trkpt>
      <trkpt lat="43.31975" lon="3.01006">
        <ele>23</ele>
        <time>2015-08-03T13:37:45.010Z</time>
      </trkpt>
      <trkpt lat="43.31973" lon="3.0101">
        <ele>23.1</ele>
        <time>2015-08-03T13:37:45.959Z</time>
      </trkpt>
      <trkpt lat="43.31968" lon="3.01018">
        <ele>23.3</ele>
        <time>2015-08-03T13:37:47.999Z</time>
      </trkpt>
      <trkpt lat="43.31965" lon="3.01022">
        <ele>23.2</ele>
        <time>2015-08-03T13:37:48.984Z</time>
      </trkpt>
      <trkpt lat="43.31961" lon="3.0103">
        <ele>23.3</ele>
        <time>2015-08-03T13:37:51.008Z</time>
      </trkpt>
      <trkpt lat="43.3196" lon="3.01033">
        <ele>23.4</ele>
        <time>2015-08-03T13:37:51.958Z</time>
      </trkpt>
      <trkpt lat="43.31956" lon="3.01042">
        <ele>23.5</ele>
        <time>2015-08-03T13:37:54.000Z</time>
      </trkpt>
      <trkpt lat="43.31954" lon="3.01046">
        <ele>23.6</ele>
        <time>2015-08-03T13:37:54.986Z</time>
      </trkpt>
      <trkpt lat="43.31949" lon="3.01053">
        <ele>24.4</ele>
        <time>2015-08-03T13:37:57.007Z</time>
      </trkpt>
      <trkpt lat="43.31946" lon="3.01058">
        <ele>24.7</ele>
        <time>2015-08-03T13:37:57.960Z</time>
      </trkpt>
      <trkpt lat="43.31941" lon="3.01066">
        <ele>25.4</ele>
        <time>2015-08-03T13:38:00.005Z</time>
      </trkpt>
      <trkpt lat="43.31938" lon="3.0107">
        <ele>25.5</ele>
        <time>2015-08-03T13:38:00.973Z</time>
      </trkpt>
      <trkpt lat="43.31932" lon="3.01079">
        <ele>25.4</ele>
        <time>2015-08-03T13:38:03.008Z</time>
      </trkpt>
      <trkpt lat="43.31929" lon="3.01083">
        <ele>25.6</ele>
        <time>2015-08-03T13:38:03.961Z</time>
      </trkpt>
      <trkpt lat="43.31924" lon="3.01091">
        <ele>25.7</ele>
        <time>2015-08-03T13:38:06.006Z</time>
      </trkpt>
      <trkpt lat="43.31922" lon="3.01095">
        <ele>25.7</ele>
        <time>2015-08-03T13:38:06.985Z</time>
      </trkpt>
      <trkpt lat="43.31916" lon="3.01103">
        <ele>25.5</ele>
        <time>2015-08-03T13:38:09.000Z</time>
      </trkpt>
      <trkpt lat="43.31913" lon="3.01107">
        <ele>25.7</ele>
        <time>2015-08-03T13:38:09.960Z</time>
      </trkpt>
      <trkpt lat="43.31908" lon="3.01114">
        <ele>26</ele>
        <time>2015-08-03T13:38:12.004Z</time>
      </trkpt>
      <trkpt lat="43.31907" lon="3.01117">
        <ele>26</ele>
        <time>2015-08-03T13:38:12.985Z</time>
      </trkpt>
      <trkpt lat="43.31902" lon="3.01125">
        <ele>26.3</ele>
        <time>2015-08-03T13:38:15.141Z</time>
      </trkpt>
      <trkpt lat="43.31899" lon="3.01128">
        <ele>26.1</ele>
        <time>2015-08-03T13:38:15.957Z</time>
      </trkpt>
      <trkpt lat="43.31894" lon="3.01136">
        <ele>26.2</ele>
        <time>2015-08-03T13:38:18.000Z</time>
      </trkpt>
      <trkpt lat="43.31892" lon="3.01139">
        <ele>26.3</ele>
        <time>2015-08-03T13:38:18.967Z</time>
      </trkpt>
      <trkpt lat="43.31886" lon="3.01147">
        <ele>27.1</ele>
        <time>2015-08-03T13:38:21.018Z</time>
      </trkpt>
      <trkpt lat="43.31882" lon="3.0115">
        <ele>26.9</ele>
        <time>2015-08-03T13:38:21.956Z</time>
      </trkpt>
      <trkpt lat="43.31877" lon="3.01158">
        <ele>26.9</ele>
        <time>2015-08-03T13:38:24.015Z</time>
      </trkpt>
      <trkpt lat="43.31873" lon="3.01162">
        <ele>26.7</ele>
        <time>2015-08-03T13:38:24.961Z</time>
      </trkpt>
      <trkpt lat="43.31867" lon="3.0117">
        <ele>26.5</ele>
        <time>2015-08-03T13:38:27.007Z</time>
      </trkpt>
      <trkpt lat="43.31865" lon="3.01174">
        <ele>26.5</ele>
        <time>2015-08-03T13:38:27.955Z</time>
      </trkpt>
      <trkpt lat="43.3186" lon="3.0118">
        <ele>26.5</ele>
        <time>2015-08-03T13:38:30.010Z</time>
      </trkpt>
      <trkpt lat="43.31857" lon="3.01184">
        <ele>26.7</ele>
        <time>2015-08-03T13:38:30.972Z</time>
      </trkpt>
      <trkpt lat="43.31853" lon="3.0119">
        <ele>27.6</ele>
        <time>2015-08-03T13:38:33.039Z</time>
      </trkpt>
      <trkpt lat="43.31851" lon="3.01195">
        <ele>28.2</ele>
        <time>2015-08-03T13:38:33.961Z</time>
      </trkpt>
      <trkpt lat="43.31845" lon="3.01202">
        <ele>28.9</ele>
        <time>2015-08-03T13:38:36.013Z</time>
      </trkpt>
      <trkpt lat="43.31842" lon="3.01206">
        <ele>28.6</ele>
        <time>2015-08-03T13:38:36.964Z</time>
      </trkpt>
      <trkpt lat="43.31836" lon="3.01215">
        <ele>28.7</ele>
        <time>2015-08-03T13:38:39.006Z</time>
      </trkpt>
      <trkpt lat="43.31835" lon="3.0122">
        <ele>28.6</ele>
        <time>2015-08-03T13:38:39.969Z</time>
      </trkpt>
      <trkpt lat="43.31831" lon="3.0123">
        <ele>28.4</ele>
        <time>2015-08-03T13:38:42.001Z</time>
      </trkpt>
      <trkpt lat="43.31829" lon="3.01235">
        <ele>28.4</ele>
        <time>2015-08-03T13:38:42.962Z</time>
      </trkpt>
      <trkpt lat="43.31825" lon="3.01245">
        <ele>28.1</ele>
        <time>2015-08-03T13:38:45.008Z</time>
      </trkpt>
      <trkpt lat="43.31824" lon="3.0125">
        <ele>27.9</ele>
        <time>2015-08-03T13:38:45.960Z</time>
      </trkpt>
      <trkpt lat="43.31821" lon="3.01259">
        <ele>27.3</ele>
        <time>2015-08-03T13:38:48.001Z</time>
      </trkpt>
      <trkpt lat="43.3182" lon="3.01264">
        <ele>27.2</ele>
        <time>2015-08-03T13:38:48.985Z</time>
      </trkpt>
      <trkpt lat="43.31819" lon="3.01274">
        <ele>27.1</ele>
        <time>2015-08-03T13:38:51.014Z</time>
      </trkpt>
      <trkpt lat="43.31819" lon="3.01279">
        <ele>27</ele>
        <time>2015-08-03T13:38:52.291Z</time>
      </trkpt>
      <trkpt lat="43.31819" lon="3.01289">
        <ele>26.4</ele>
        <time>2015-08-03T13:38:54.002Z</time>
      </trkpt>
      <trkpt lat="43.31819" lon="3.01294">
        <ele>26.1</ele>
        <time>2015-08-03T13:38:54.985Z</time>
      </trkpt>
      <trkpt lat="43.31819" lon="3.01305">
        <ele>25.3</ele>
        <time>2015-08-03T13:38:57.002Z</time>
      </trkpt>
      <trkpt lat="43.3182" lon="3.01311">
        <ele>25.2</ele>
        <time>2015-08-03T13:38:57.956Z</time>
      </trkpt>
      <trkpt lat="43.31821" lon="3.01323">
        <ele>25</ele>
        <time>2015-08-03T13:39:00.005Z</time>
      </trkpt>
      <trkpt lat="43.31821" lon="3.0133">
        <ele>24.9</ele>
        <time>2015-08-03T13:39:00.974Z</time>
      </trkpt>
      <trkpt lat="43.31822" lon="3.01341">
        <ele>24.6</ele>
        <time>2015-08-03T13:39:03.022Z</time>
      </trkpt>
      <trkpt lat="43.31823" lon="3.01346">
        <ele>24.2</ele>
        <time>2015-08-03T13:39:03.956Z</time>
      </trkpt>
      <trkpt lat="43.31824" lon="3.01356">
        <ele>24</ele>
        <time>2015-08-03T13:39:06.001Z</time>
      </trkpt>
      <trkpt lat="43.31825" lon="3.01361">
        <ele>23.8</ele>
        <time>2015-08-03T13:39:06.966Z</time>
      </trkpt>
      <trkpt lat="43.31826" lon="3.01371">
        <ele>23.9</ele>
        <time>2015-08-03T13:39:09.039Z</time>
      </trkpt>
      <trkpt lat="43.31827" lon="3.01375">
        <ele>24.1</ele>
        <time>2015-08-03T13:39:09.969Z</time>
      </trkpt>
      <trkpt lat="43.3183" lon="3.01386">
        <ele>24.3</ele>
        <time>2015-08-03T13:39:13.007Z</time>
      </trkpt>
      <trkpt lat="43.31832" lon="3.0139">
        <ele>24.4</ele>
        <time>2015-08-03T13:39:13.960Z</time>
      </trkpt>
      <trkpt lat="43.31835" lon="3.01399">
        <ele>24.4</ele>
        <time>2015-08-03T13:39:16.001Z</time>
      </trkpt>
      <trkpt lat="43.31837" lon="3.01403">
        <ele>24.5</ele>
        <time>2015-08-03T13:39:16.983Z</time>
      </trkpt>
      <trkpt lat="43.31842" lon="3.01411">
        <ele>24.8</ele>
        <time>2015-08-03T13:39:19.010Z</time>
      </trkpt>
      <trkpt lat="43.31844" lon="3.01415">
        <ele>25.3</ele>
        <time>2015-08-03T13:39:19.961Z</time>
      </trkpt>
      <trkpt lat="43.3185" lon="3.01421">
        <ele>25.4</ele>
        <time>2015-08-03T13:39:21.999Z</time>
      </trkpt>
      <trkpt lat="43.31853" lon="3.01424">
        <ele>25.1</ele>
        <time>2015-08-03T13:39:22.959Z</time>
      </trkpt>
      <trkpt lat="43.31859" lon="3.01427">
        <ele>24.9</ele>
        <time>2015-08-03T13:39:25.021Z</time>
      </trkpt>
      <trkpt lat="43.31862" lon="3.01429">
        <ele>25.1</ele>
        <time>2015-08-03T13:39:25.963Z</time>
      </trkpt>
      <trkpt lat="43.31868" lon="3.01431">
        <ele>24.8</ele>
        <time>2015-08-03T13:39:27.997Z</time>
      </trkpt>
      <trkpt lat="43.31871" lon="3.01432">
        <ele>25.1</ele>
        <time>2015-08-03T13:39:28.964Z</time>
      </trkpt>
      <trkpt lat="43.31877" lon="3.01434">
        <ele>25.4</ele>
        <time>2015-08-03T13:39:31.017Z</time>
      </trkpt>
      <trkpt lat="43.3188" lon="3.01435">
        <ele>24.9</ele>
        <time>2015-08-03T13:39:31.956Z</time>
      </trkpt>
      <trkpt lat="43.31887" lon="3.01435">
        <ele>24.9</ele>
        <time>2015-08-03T13:39:34.001Z</time>
      </trkpt>
      <trkpt lat="43.3189" lon="3.01435">
        <ele>25.9</ele>
        <time>2015-08-03T13:39:34.961Z</time>
      </trkpt>
      <trkpt lat="43.31897" lon="3.01436">
        <ele>25.2</ele>
        <time>2015-08-03T13:39:36.997Z</time>
      </trkpt>
      <trkpt lat="43.31901" lon="3.01437">
        <ele>25.1</ele>
        <time>2015-08-03T13:39:37.956Z</time>
      </trkpt>
      <trkpt lat="43.31908" lon="3.01438">
        <ele>25</ele>
        <time>2015-08-03T13:39:39.992Z</time>
      </trkpt>
      <trkpt lat="43.31911" lon="3.01438">
        <ele>24.8</ele>
        <time>2015-08-03T13:39:40.955Z</time>
      </trkpt>
      <trkpt lat="43.31919" lon="3.01439">
        <ele>24.5</ele>
        <time>2015-08-03T13:39:43.041Z</time>
      </trkpt>
      <trkpt lat="43.31922" lon="3.01438">
        <ele>25.1</ele>
        <time>2015-08-03T13:39:43.969Z</time>
      </trkpt>
      <trkpt lat="43.31928" lon="3.01438">
        <ele>25.6</ele>
        <time>2015-08-03T13:39:45.997Z</time>
      </trkpt>
      <trkpt lat="43.31932" lon="3.01439">
        <ele>26.2</ele>
        <time>2015-08-03T13:39:46.959Z</time>
      </trkpt>
      <trkpt lat="43.31938" lon="3.01439">
        <ele>26.7</ele>
        <time>2015-08-03T13:39:49.008Z</time>
      </trkpt>
      <trkpt lat="43.31941" lon="3.01438">
        <ele>27.1</ele>
        <time>2015-08-03T13:39:49.960Z</time>
      </trkpt>
      <trkpt lat="43.31949" lon="3.01437">
        <ele>27.3</ele>
        <time>2015-08-03T13:39:53.009Z</time>
      </trkpt>
      <trkpt lat="43.31951" lon="3.01437">
        <ele>27.7</ele>
        <time>2015-08-03T13:39:53.958Z</time>
      </trkpt>
      <trkpt lat="43.31955" lon="3.01437">
        <ele>28.3</ele>
        <time>2015-08-03T13:39:56.022Z</time>
      </trkpt>
      <trkpt lat="43.31956" lon="3.01437">
        <ele>28.1</ele>
        <time>2015-08-03T13:39:56.980Z</time>
      </trkpt>
      <trkpt lat="43.3196" lon="3.01444">
        <ele>26.1</ele>
        <time>2015-08-03T13:41:05.024Z</time>
      </trkpt>
      <trkpt lat="43.31961" lon="3.0145">
        <ele>28.3</ele>
        <time>2015-08-03T13:41:05.980Z</time>
      </trkpt>
      <trkpt lat="43.3197" lon="3.0145">
        <ele>27.7</ele>
        <time>2015-08-03T13:41:13.026Z</time>
      </trkpt>
      <trkpt lat="43.31972" lon="3.0145">
        <ele>27.8</ele>
        <time>2015-08-03T13:41:13.969Z</time>
      </trkpt>
      <trkpt lat="43.31981" lon="3.01449">
        <ele>27.7</ele>
        <time>2015-08-03T13:41:18.008Z</time>
      </trkpt>
      <trkpt lat="43.31983" lon="3.01449">
        <ele>27.8</ele>
        <time>2015-08-03T13:41:18.963Z</time>
      </trkpt>
      <trkpt lat="43.3199" lon="3.01447">
        <ele>27.5</ele>
        <time>2015-08-03T13:41:22.036Z</time>
      </trkpt>
      <trkpt lat="43.31992" lon="3.01447">
        <ele>27.7</ele>
        <time>2015-08-03T13:41:22.968Z</time>
      </trkpt>
      <trkpt lat="43.31998" lon="3.01445">
        <ele>27.5</ele>
        <time>2015-08-03T13:41:25.039Z</time>
      </trkpt>
      <trkpt lat="43.32001" lon="3.01444">
        <ele>27.3</ele>
        <time>2015-08-03T13:41:25.979Z</time>
      </trkpt>
      <trkpt lat="43.32009" lon="3.0144">
        <ele>27.6</ele>
        <time>2015-08-03T13:41:28.999Z</time>
      </trkpt>
      <trkpt lat="43.32013" lon="3.01439">
        <ele>27.6</ele>
        <time>2015-08-03T13:41:29.957Z</time>
      </trkpt>
      <trkpt lat="43.32021" lon="3.01436">
        <ele>27</ele>
        <time>2015-08-03T13:41:33.131Z</time>
      </trkpt>
      <trkpt lat="43.32023" lon="3.01435">
        <ele>27.1</ele>
        <time>2015-08-03T13:41:33.962Z</time>
      </trkpt>
      <trkpt lat="43.32031" lon="3.0143">
        <ele>26.6</ele>
        <time>2015-08-03T13:41:37.003Z</time>
      </trkpt>
      <trkpt lat="43.32033" lon="3.01429">
        <ele>26.7</ele>
        <time>2015-08-03T13:41:37.959Z</time>
      </trkpt>
      <trkpt lat="43.32039" lon="3.01426">
        <ele>27.1</ele>
        <time>2015-08-03T13:41:40.047Z</time>
      </trkpt>
      <trkpt lat="43.32042" lon="3.01424">
        <ele>27.4</ele>
        <time>2015-08-03T13:41:40.969Z</time>
      </trkpt>
      <trkpt lat="43.3205" lon="3.01421">
        <ele>27.5</ele>
        <time>2015-08-03T13:41:43.002Z</time>
      </trkpt>
      <trkpt lat="43.32054" lon="3.01419">
        <ele>27.6</ele>
        <time>2015-08-03T13:41:43.959Z</time>
      </trkpt>
      <trkpt lat="43.32062" lon="3.01416">
        <ele>27.5</ele>
        <time>2015-08-03T13:41:46.001Z</time>
      </trkpt>
      <trkpt lat="43.32066" lon="3.01414">
        <ele>27.4</ele>
        <time>2015-08-03T13:41:46.959Z</time>
      </trkpt>
      <trkpt lat="43.32073" lon="3.01412">
        <ele>27.7</ele>
        <time>2015-08-03T13:41:49.044Z</time>
      </trkpt>
      <trkpt lat="43.32076" lon="3.01411">
        <ele>27.8</ele>
        <time>2015-08-03T13:41:49.983Z</time>
      </trkpt>
      <trkpt lat="43.32082" lon="3.01408">
        <ele>28.8</ele>
        <time>2015-08-03T13:41:52.008Z</time>
      </trkpt>
      <trkpt lat="43.32085" lon="3.01407">
        <ele>29</ele>
        <time>2015-08-03T13:41:52.962Z</time>
      </trkpt>
      <trkpt lat="43.32093" lon="3.01404">
        <ele>29.9</ele>
        <time>2015-08-03T13:41:56.054Z</time>
      </trkpt>
      <trkpt lat="43.32096" lon="3.01404">
        <ele>30.1</ele>
        <time>2015-08-03T13:41:56.959Z</time>
      </trkpt>
      <trkpt lat="43.32104" lon="3.01401">
        <ele>30.6</ele>
        <time>2015-08-03T13:42:00.006Z</time>
      </trkpt>
      <trkpt lat="43.32107" lon="3.01401">
        <ele>30.7</ele>
        <time>2015-08-03T13:42:00.961Z</time>
      </trkpt>
      <trkpt lat="43.32113" lon="3.01399">
        <ele>29.5</ele>
        <time>2015-08-03T13:42:03.141Z</time>
      </trkpt>
      <trkpt lat="43.32116" lon="3.01398">
        <ele>29.6</ele>
        <time>2015-08-03T13:42:04.265Z</time>
      </trkpt>
      <trkpt lat="43.32122" lon="3.01396">
        <ele>29.4</ele>
        <time>2015-08-03T13:42:05.997Z</time>
      </trkpt>
      <trkpt lat="43.32125" lon="3.01395">
        <ele>29</ele>
        <time>2015-08-03T13:42:06.960Z</time>
      </trkpt>
      <trkpt lat="43.32134" lon="3.01393">
        <ele>29.5</ele>
        <time>2015-08-03T13:42:08.992Z</time>
      </trkpt>
      <trkpt lat="43.32139" lon="3.01392">
        <ele>29.4</ele>
        <time>2015-08-03T13:42:09.957Z</time>
      </trkpt>
      <trkpt lat="43.32144" lon="3.0139">
        <ele>29.5</ele>
        <time>2015-08-03T13:42:10.999Z</time>
      </trkpt>
      <trkpt lat="43.32149" lon="3.01389">
        <ele>29.2</ele>
        <time>2015-08-03T13:42:11.997Z</time>
      </trkpt>
      <trkpt lat="43.32154" lon="3.01387">
        <ele>29.1</ele>
        <time>2015-08-03T13:42:13.004Z</time>
      </trkpt>
      <trkpt lat="43.32159" lon="3.01385">
        <ele>28.8</ele>
        <time>2015-08-03T13:42:13.963Z</time>
      </trkpt>
      <trkpt lat="43.32164" lon="3.01384">
        <ele>28.8</ele>
        <time>2015-08-03T13:42:14.998Z</time>
      </trkpt>
      <trkpt lat="43.3217" lon="3.01381">
        <ele>29</ele>
        <time>2015-08-03T13:42:15.962Z</time>
      </trkpt>
      <trkpt lat="43.32175" lon="3.0138">
        <ele>29.1</ele>
        <time>2015-08-03T13:42:16.997Z</time>
      </trkpt>
      <trkpt lat="43.32181" lon="3.01378">
        <ele>28.8</ele>
        <time>2015-08-03T13:42:17.958Z</time>
      </trkpt>
      <trkpt lat="43.32187" lon="3.01376">
        <ele>28.6</ele>
        <time>2015-08-03T13:42:19.023Z</time>
      </trkpt>
      <trkpt lat="43.32192" lon="3.01374">
        <ele>28.3</ele>
        <time>2015-08-03T13:42:19.980Z</time>
      </trkpt>
      <trkpt lat="43.32198" lon="3.01372">
        <ele>28.5</ele>
        <time>2015-08-03T13:42:21.014Z</time>
      </trkpt>
      <trkpt lat="43.32203" lon="3.01369">
        <ele>28.6</ele>
        <time>2015-08-03T13:42:21.962Z</time>
      </trkpt>
      <trkpt lat="43.32208" lon="3.01367">
        <ele>28.7</ele>
        <time>2015-08-03T13:42:22.997Z</time>
      </trkpt>
      <trkpt lat="43.32213" lon="3.01364">
        <ele>29.2</ele>
        <time>2015-08-03T13:42:23.960Z</time>
      </trkpt>
      <trkpt lat="43.32219" lon="3.01361">
        <ele>29.1</ele>
        <time>2015-08-03T13:42:25.003Z</time>
      </trkpt>
      <trkpt lat="43.32224" lon="3.01359">
        <ele>28.9</ele>
        <time>2015-08-03T13:42:25.965Z</time>
      </trkpt>
      <trkpt lat="43.32229" lon="3.01356">
        <ele>29.5</ele>
        <time>2015-08-03T13:42:27.376Z</time>
      </trkpt>
      <trkpt lat="43.32234" lon="3.01353">
        <ele>29.3</ele>
        <time>2015-08-03T13:42:27.962Z</time>
      </trkpt>
      <trkpt lat="43.3224" lon="3.01351">
        <ele>29.3</ele>
        <time>2015-08-03T13:42:28.999Z</time>
      </trkpt>
      <trkpt lat="43.32245" lon="3.01349">
        <ele>29.2</ele>
        <time>2015-08-03T13:42:29.966Z</time>
      </trkpt>
      <trkpt lat="43.32251" lon="3.01346">
        <ele>29.5</ele>
        <time>2015-08-03T13:42:31.008Z</time>
      </trkpt>
      <trkpt lat="43.32256" lon="3.01344">
        <ele>29.4</ele>
        <time>2015-08-03T13:42:31.958Z</time>
      </trkpt>
      <trkpt lat="43.32262" lon="3.01342">
        <ele>29.4</ele>
        <time>2015-08-03T13:42:32.999Z</time>
      </trkpt>
      <trkpt lat="43.32267" lon="3.0134">
        <ele>29.2</ele>
        <time>2015-08-03T13:42:33.980Z</time>
      </trkpt>
      <trkpt lat="43.32273" lon="3.01338">
        <ele>28.9</ele>
        <time>2015-08-03T13:42:35.014Z</time>
      </trkpt>
      <trkpt lat="43.32278" lon="3.01336">
        <ele>29.3</ele>
        <time>2015-08-03T13:42:35.956Z</time>
      </trkpt>
      <trkpt lat="43.32284" lon="3.01334">
        <ele>29.6</ele>
        <time>2015-08-03T13:42:37.001Z</time>
      </trkpt>
      <trkpt lat="43.32289" lon="3.01332">
        <ele>29.6</ele>
        <time>2015-08-03T13:42:37.970Z</time>
      </trkpt>
      <trkpt lat="43.32295" lon="3.0133">
        <ele>29.7</ele>
        <time>2015-08-03T13:42:39.002Z</time>
      </trkpt>
      <trkpt lat="43.32299" lon="3.01328">
        <ele>29.7</ele>
        <time>2015-08-03T13:42:39.961Z</time>
      </trkpt>
      <trkpt lat="43.32304" lon="3.01326">
        <ele>29.9</ele>
        <time>2015-08-03T13:42:41.035Z</time>
      </trkpt>
      <trkpt lat="43.32309" lon="3.01324">
        <ele>29.9</ele>
        <time>2015-08-03T13:42:41.980Z</time>
      </trkpt>
      <trkpt lat="43.32313" lon="3.01322">
        <ele>30.1</ele>
        <time>2015-08-03T13:42:43.010Z</time>
      </trkpt>
      <trkpt lat="43.32318" lon="3.0132">
        <ele>29.8</ele>
        <time>2015-08-03T13:42:43.963Z</time>
      </trkpt>
      <trkpt lat="43.32323" lon="3.01318">
        <ele>29.8</ele>
        <time>2015-08-03T13:42:45.000Z</time>
      </trkpt>
      <trkpt lat="43.32328" lon="3.01317">
        <ele>29.7</ele>
        <time>2015-08-03T13:42:45.961Z</time>
      </trkpt>
      <trkpt lat="43.32333" lon="3.01315">
        <ele>29.7</ele>
        <time>2015-08-03T13:42:47.160Z</time>
      </trkpt>
      <trkpt lat="43.32337" lon="3.01313">
        <ele>29.6</ele>
        <time>2015-08-03T13:42:47.963Z</time>
      </trkpt>
      <trkpt lat="43.32344" lon="3.01309">
        <ele>29.7</ele>
        <time>2015-08-03T13:42:50.038Z</time>
      </trkpt>
      <trkpt lat="43.32348" lon="3.01307">
        <ele>29.8</ele>
        <time>2015-08-03T13:42:50.969Z</time>
      </trkpt>
      <trkpt lat="43.32356" lon="3.01304">
        <ele>29.8</ele>
        <time>2015-08-03T13:42:52.997Z</time>
      </trkpt>
      <trkpt lat="43.32361" lon="3.01303">
        <ele>30.1</ele>
        <time>2015-08-03T13:42:53.958Z</time>
      </trkpt>
      <trkpt lat="43.32365" lon="3.01302">
        <ele>30.3</ele>
        <time>2015-08-03T13:42:55.006Z</time>
      </trkpt>
      <trkpt lat="43.3237" lon="3.01301">
        <ele>30.3</ele>
        <time>2015-08-03T13:42:55.957Z</time>
      </trkpt>
      <trkpt lat="43.32375" lon="3.01299">
        <ele>30.4</ele>
        <time>2015-08-03T13:42:57.021Z</time>
      </trkpt>
      <trkpt lat="43.3238" lon="3.01297">
        <ele>30.5</ele>
        <time>2015-08-03T13:42:57.980Z</time>
      </trkpt>
      <trkpt lat="43.32384" lon="3.01296">
        <ele>30.3</ele>
        <time>2015-08-03T13:42:59.011Z</time>
      </trkpt>
      <trkpt lat="43.32388" lon="3.01294">
        <ele>30.6</ele>
        <time>2015-08-03T13:42:59.958Z</time>
      </trkpt>
      <trkpt lat="43.32397" lon="3.01292">
        <ele>30.4</ele>
        <time>2015-08-03T13:43:02.009Z</time>
      </trkpt>
      <trkpt lat="43.324" lon="3.01291">
        <ele>30.5</ele>
        <time>2015-08-03T13:43:02.959Z</time>
      </trkpt>
      <trkpt lat="43.32407" lon="3.01289">
        <ele>30.9</ele>
        <time>2015-08-03T13:43:05.013Z</time>
      </trkpt>
      <trkpt lat="43.3241" lon="3.01288">
        <ele>31.8</ele>
        <time>2015-08-03T13:43:05.980Z</time>
      </trkpt>
      <trkpt lat="43.32417" lon="3.01287">
        <ele>32.3</ele>
        <time>2015-08-03T13:43:08.028Z</time>
      </trkpt>
      <trkpt lat="43.32422" lon="3.01286">
        <ele>32.2</ele>
        <time>2015-08-03T13:43:08.961Z</time>
      </trkpt>
      <trkpt lat="43.32427" lon="3.01285">
        <ele>31.6</ele>
        <time>2015-08-03T13:43:10.002Z</time>
      </trkpt>
      <trkpt lat="43.32432" lon="3.01285">
        <ele>31.7</ele>
        <time>2015-08-03T13:43:10.961Z</time>
      </trkpt>
      <trkpt lat="43.32437" lon="3.01284">
        <ele>32.2</ele>
        <time>2015-08-03T13:43:12.056Z</time>
      </trkpt>
      <trkpt lat="43.32441" lon="3.01284">
        <ele>32</ele>
        <time>2015-08-03T13:43:12.972Z</time>
      </trkpt>
      <trkpt lat="43.32446" lon="3.01282">
        <ele>31.7</ele>
        <time>2015-08-03T13:43:14.013Z</time>
      </trkpt>
      <trkpt lat="43.3245" lon="3.01281">
        <ele>31</ele>
        <time>2015-08-03T13:43:14.960Z</time>
      </trkpt>
      <trkpt lat="43.32455" lon="3.0128">
        <ele>30.6</ele>
        <time>2015-08-03T13:43:16.008Z</time>
      </trkpt>
      <trkpt lat="43.32461" lon="3.01279">
        <ele>29.8</ele>
        <time>2015-08-03T13:43:16.958Z</time>
      </trkpt>
      <trkpt lat="43.32466" lon="3.01277">
        <ele>29.7</ele>
        <time>2015-08-03T13:43:18.008Z</time>
      </trkpt>
      <trkpt lat="43.32471" lon="3.01275">
        <ele>29.3</ele>
        <time>2015-08-03T13:43:18.971Z</time>
      </trkpt>
      <trkpt lat="43.32476" lon="3.01274">
        <ele>29.5</ele>
        <time>2015-08-03T13:43:20.009Z</time>
      </trkpt>
      <trkpt lat="43.32481" lon="3.01272">
        <ele>28.9</ele>
        <time>2015-08-03T13:43:20.960Z</time>
      </trkpt>
      <trkpt lat="43.32486" lon="3.0127">
        <ele>28.6</ele>
        <time>2015-08-03T13:43:22.015Z</time>
      </trkpt>
      <trkpt lat="43.3249" lon="3.01268">
        <ele>28.6</ele>
        <time>2015-08-03T13:43:22.958Z</time>
      </trkpt>
      <trkpt lat="43.32495" lon="3.01266">
        <ele>28.6</ele>
        <time>2015-08-03T13:43:24.005Z</time>
      </trkpt>
      <trkpt lat="43.325" lon="3.01264">
        <ele>28.1</ele>
        <time>2015-08-03T13:43:24.961Z</time>
      </trkpt>
      <trkpt lat="43.32504" lon="3.01261">
        <ele>28.1</ele>
        <time>2015-08-03T13:43:26.041Z</time>
      </trkpt>
      <trkpt lat="43.3251" lon="3.01258">
        <ele>28</ele>
        <time>2015-08-03T13:43:26.968Z</time>
      </trkpt>
      <trkpt lat="43.32514" lon="3.01255">
        <ele>27.9</ele>
        <time>2015-08-03T13:43:28.034Z</time>
      </trkpt>
      <trkpt lat="43.32519" lon="3.01252">
        <ele>27.9</ele>
        <time>2015-08-03T13:43:28.959Z</time>
      </trkpt>
      <trkpt lat="43.32523" lon="3.01247">
        <ele>28</ele>
        <time>2015-08-03T13:43:30.006Z</time>
      </trkpt>
      <trkpt lat="43.32527" lon="3.01244">
        <ele>28</ele>
        <time>2015-08-03T13:43:30.961Z</time>
      </trkpt>
      <trkpt lat="43.32531" lon="3.01239">
        <ele>28</ele>
        <time>2015-08-03T13:43:32.009Z</time>
      </trkpt>
      <trkpt lat="43.32535" lon="3.01234">
        <ele>28.1</ele>
        <time>2015-08-03T13:43:32.957Z</time>
      </trkpt>
      <trkpt lat="43.32539" lon="3.0123">
        <ele>28</ele>
        <time>2015-08-03T13:43:34.009Z</time>
      </trkpt>
      <trkpt lat="43.32544" lon="3.01226">
        <ele>27.7</ele>
        <time>2015-08-03T13:43:34.959Z</time>
      </trkpt>
      <trkpt lat="43.32548" lon="3.01221">
        <ele>27.4</ele>
        <time>2015-08-03T13:43:36.018Z</time>
      </trkpt>
      <trkpt lat="43.32553" lon="3.01217">
        <ele>27.3</ele>
        <time>2015-08-03T13:43:36.961Z</time>
      </trkpt>
      <trkpt lat="43.32557" lon="3.01213">
        <ele>27.4</ele>
        <time>2015-08-03T13:43:38.344Z</time>
      </trkpt>
      <trkpt lat="43.3256" lon="3.01209">
        <ele>27.3</ele>
        <time>2015-08-03T13:43:38.957Z</time>
      </trkpt>
      <trkpt lat="43.32564" lon="3.01205">
        <ele>27.1</ele>
        <time>2015-08-03T13:43:40.008Z</time>
      </trkpt>
      <trkpt lat="43.32568" lon="3.01201">
        <ele>27.1</ele>
        <time>2015-08-03T13:43:40.958Z</time>
      </trkpt>
      <trkpt lat="43.32572" lon="3.01196">
        <ele>27.1</ele>
        <time>2015-08-03T13:43:42.050Z</time>
      </trkpt>
      <trkpt lat="43.32575" lon="3.01192">
        <ele>27.1</ele>
        <time>2015-08-03T13:43:42.970Z</time>
      </trkpt>
      <trkpt lat="43.32582" lon="3.01184">
        <ele>26.9</ele>
        <time>2015-08-03T13:43:44.994Z</time>
      </trkpt>
      <trkpt lat="43.32583" lon="3.01179">
        <ele>26.9</ele>
        <time>2015-08-03T13:43:45.962Z</time>
      </trkpt>
      <trkpt lat="43.32586" lon="3.01168">
        <ele>26</ele>
        <time>2015-08-03T13:43:48.012Z</time>
      </trkpt>
      <trkpt lat="43.32589" lon="3.01163">
        <ele>25.8</ele>
        <time>2015-08-03T13:43:48.963Z</time>
      </trkpt>
      <trkpt lat="43.32594" lon="3.01154">
        <ele>25.7</ele>
        <time>2015-08-03T13:43:51.054Z</time>
      </trkpt>
      <trkpt lat="43.32597" lon="3.0115">
        <ele>25.5</ele>
        <time>2015-08-03T13:43:51.961Z</time>
      </trkpt>
      <trkpt lat="43.32603" lon="3.01142">
        <ele>25.1</ele>
        <time>2015-08-03T13:43:53.998Z</time>
      </trkpt>
      <trkpt lat="43.32605" lon="3.01138">
        <ele>25</ele>
        <time>2015-08-03T13:43:54.960Z</time>
      </trkpt>
      <trkpt lat="43.32611" lon="3.01131">
        <ele>24.9</ele>
        <time>2015-08-03T13:43:57.205Z</time>
      </trkpt>
      <trkpt lat="43.32613" lon="3.01127">
        <ele>24.8</ele>
        <time>2015-08-03T13:43:57.958Z</time>
      </trkpt>
      <trkpt lat="43.32617" lon="3.01119">
        <ele>25.2</ele>
        <time>2015-08-03T13:43:59.995Z</time>
      </trkpt>
      <trkpt lat="43.32619" lon="3.01116">
        <ele>25.4</ele>
        <time>2015-08-03T13:44:00.960Z</time>
      </trkpt>
      <trkpt lat="43.32626" lon="3.01107">
        <ele>25.4</ele>
        <time>2015-08-03T13:44:03.996Z</time>
      </trkpt>
      <trkpt lat="43.32628" lon="3.01105">
        <ele>25.4</ele>
        <time>2015-08-03T13:44:04.968Z</time>
      </trkpt>
      <trkpt lat="43.32634" lon="3.01097">
        <ele>25.4</ele>
        <time>2015-08-03T13:44:08.410Z</time>
      </trkpt>
      <trkpt lat="43.32636" lon="3.01094">
        <ele>25.5</ele>
        <time>2015-08-03T13:44:08.961Z</time>
      </trkpt>
      <trkpt lat="43.32643" lon="3.01087">
        <ele>25.3</ele>
        <time>2015-08-03T13:44:12.007Z</time>
      </trkpt>
      <trkpt lat="43.32645" lon="3.01085">
        <ele>25.3</ele>
        <time>2015-08-03T13:44:12.961Z</time>
      </trkpt>
      <trkpt lat="43.3265" lon="3.01079">
        <ele>27</ele>
        <time>2015-08-03T13:44:26.035Z</time>
      </trkpt>
      <trkpt lat="43.32651" lon="3.01076">
        <ele>27</ele>
        <time>2015-08-03T13:44:26.959Z</time>
      </trkpt>
      <trkpt lat="43.32658" lon="3.01069">
        <ele>26.5</ele>
        <time>2015-08-03T13:44:29.998Z</time>
      </trkpt>
      <trkpt lat="43.3266" lon="3.01067">
        <ele>26.4</ele>
        <time>2015-08-03T13:44:30.963Z</time>
      </trkpt>
      <trkpt lat="43.32667" lon="3.01059">
        <ele>26.7</ele>
        <time>2015-08-03T13:44:34.022Z</time>
      </trkpt>
      <trkpt lat="43.32669" lon="3.01056">
        <ele>27</ele>
        <time>2015-08-03T13:44:34.959Z</time>
      </trkpt>
      <trkpt lat="43.32674" lon="3.01049">
        <ele>26.9</ele>
        <time>2015-08-03T13:44:37.031Z</time>
      </trkpt>
      <trkpt lat="43.32676" lon="3.01046">
        <ele>27.2</ele>
        <time>2015-08-03T13:44:38.336Z</time>
      </trkpt>
      <trkpt lat="43.32681" lon="3.01039">
        <ele>27.2</ele>
        <time>2015-08-03T13:44:40.007Z</time>
      </trkpt>
      <trkpt lat="43.32683" lon="3.01036">
        <ele>27.3</ele>
        <time>2015-08-03T13:44:40.961Z</time>
      </trkpt>
      <trkpt lat="43.32688" lon="3.01029">
        <ele>26.8</ele>
        <time>2015-08-03T13:44:43.007Z</time>
      </trkpt>
      <trkpt lat="43.3269" lon="3.01026">
        <ele>26.4</ele>
        <time>2015-08-03T13:44:43.966Z</time>
      </trkpt>
      <trkpt lat="43.32695" lon="3.01019">
        <ele>26.4</ele>
        <time>2015-08-03T13:44:46.008Z</time>
      </trkpt>
      <trkpt lat="43.32697" lon="3.01016">
        <ele>26.4</ele>
        <time>2015-08-03T13:44:46.959Z</time>
      </trkpt>
      <trkpt lat="43.32702" lon="3.0101">
        <ele>26.6</ele>
        <time>2015-08-03T13:44:49.000Z</time>
      </trkpt>
      <trkpt lat="43.32704" lon="3.01006">
        <ele>26.6</ele>
        <time>2015-08-03T13:44:49.959Z</time>
      </trkpt>
      <trkpt lat="43.32709" lon="3.01">
        <ele>27</ele>
        <time>2015-08-03T13:44:52.252Z</time>
      </trkpt>
      <trkpt lat="43.32711" lon="3.00996">
        <ele>27</ele>
        <time>2015-08-03T13:44:52.960Z</time>
      </trkpt>
      <trkpt lat="43.32716" lon="3.00989">
        <ele>26.9</ele>
        <time>2015-08-03T13:44:55.006Z</time>
      </trkpt>
      <trkpt lat="43.32718" lon="3.00985">
        <ele>27</ele>
        <time>2015-08-03T13:44:55.966Z</time>
      </trkpt>
      <trkpt lat="43.32724" lon="3.00978">
        <ele>27.7</ele>
        <time>2015-08-03T13:44:58.018Z</time>
      </trkpt>
      <trkpt lat="43.32726" lon="3.00974">
        <ele>27.6</ele>
        <time>2015-08-03T13:44:58.960Z</time>
      </trkpt>
      <trkpt lat="43.32732" lon="3.00966">
        <ele>27.8</ele>
        <time>2015-08-03T13:45:01.027Z</time>
      </trkpt>
      <trkpt lat="43.32734" lon="3.00962">
        <ele>27.8</ele>
        <time>2015-08-03T13:45:01.960Z</time>
      </trkpt>
      <trkpt lat="43.32739" lon="3.00955">
        <ele>27.8</ele>
        <time>2015-08-03T13:45:04.020Z</time>
      </trkpt>
      <trkpt lat="43.32742" lon="3.00952">
        <ele>28.1</ele>
        <time>2015-08-03T13:45:04.958Z</time>
      </trkpt>
      <trkpt lat="43.32746" lon="3.00945">
        <ele>28.9</ele>
        <time>2015-08-03T13:45:07.029Z</time>
      </trkpt>
      <trkpt lat="43.32749" lon="3.00941">
        <ele>29.4</ele>
        <time>2015-08-03T13:45:07.966Z</time>
      </trkpt>
      <trkpt lat="43.32754" lon="3.00934">
        <ele>29.7</ele>
        <time>2015-08-03T13:45:10.002Z</time>
      </trkpt>
      <trkpt lat="43.32757" lon="3.00931">
        <ele>29.9</ele>
        <time>2015-08-03T13:45:10.963Z</time>
      </trkpt>
      <trkpt lat="43.32762" lon="3.00923">
        <ele>30</ele>
        <time>2015-08-03T13:45:13.002Z</time>
      </trkpt>
      <trkpt lat="43.32765" lon="3.00919">
        <ele>30.3</ele>
        <time>2015-08-03T13:45:13.982Z</time>
      </trkpt>
      <trkpt lat="43.32769" lon="3.00911">
        <ele>30.1</ele>
        <time>2015-08-03T13:45:16.010Z</time>
      </trkpt>
      <trkpt lat="43.32771" lon="3.00907">
        <ele>30</ele>
        <time>2015-08-03T13:45:16.962Z</time>
      </trkpt>
      <trkpt lat="43.32774" lon="3.00899">
        <ele>30.9</ele>
        <time>2015-08-03T13:45:19.003Z</time>
      </trkpt>
      <trkpt lat="43.32776" lon="3.00894">
        <ele>30.8</ele>
        <time>2015-08-03T13:45:19.978Z</time>
      </trkpt>
      <trkpt lat="43.3278" lon="3.00887">
        <ele>31.1</ele>
        <time>2015-08-03T13:45:22.180Z</time>
      </trkpt>
      <trkpt lat="43.32782" lon="3.00883">
        <ele>30.9</ele>
        <time>2015-08-03T13:45:22.958Z</time>
      </trkpt>
      <trkpt lat="43.32785" lon="3.00876">
        <ele>30.9</ele>
        <time>2015-08-03T13:45:26.058Z</time>
      </trkpt>
      <trkpt lat="43.32787" lon="3.00872">
        <ele>30.5</ele>
        <time>2015-08-03T13:45:26.970Z</time>
      </trkpt>
      <trkpt lat="43.32791" lon="3.00861">
        <ele>31.1</ele>
        <time>2015-08-03T13:45:30.008Z</time>
      </trkpt>
      <trkpt lat="43.32792" lon="3.00857">
        <ele>31.2</ele>
        <time>2015-08-03T13:45:30.961Z</time>
      </trkpt>
      <trkpt lat="43.32796" lon="3.00846">
        <ele>30.3</ele>
        <time>2015-08-03T13:45:34.011Z</time>
      </trkpt>
      <trkpt lat="43.32797" lon="3.00842">
        <ele>30.4</ele>
        <time>2015-08-03T13:45:34.969Z</time>
      </trkpt>
      <trkpt lat="43.32801" lon="3.00835">
        <ele>30.9</ele>
        <time>2015-08-03T13:45:37.232Z</time>
      </trkpt>
      <trkpt lat="43.32802" lon="3.00831">
        <ele>30.9</ele>
        <time>2015-08-03T13:45:37.961Z</time>
      </trkpt>
      <trkpt lat="43.32805" lon="3.00823">
        <ele>30.9</ele>
        <time>2015-08-03T13:45:40.007Z</time>
      </trkpt>
      <trkpt lat="43.32807" lon="3.00819">
        <ele>31</ele>
        <time>2015-08-03T13:45:40.961Z</time>
      </trkpt>
      <trkpt lat="43.32809" lon="3.00811">
        <ele>31.3</ele>
        <time>2015-08-03T13:45:43.321Z</time>
      </trkpt>
      <trkpt lat="43.32811" lon="3.00807">
        <ele>31.1</ele>
        <time>2015-08-03T13:45:43.958Z</time>
      </trkpt>
      <trkpt lat="43.32814" lon="3.00799">
        <ele>31.2</ele>
        <time>2015-08-03T13:45:45.999Z</time>
      </trkpt>
      <trkpt lat="43.32816" lon="3.00796">
        <ele>31</ele>
        <time>2015-08-03T13:45:46.958Z</time>
      </trkpt>
      <trkpt lat="43.3282" lon="3.00788">
        <ele>29.8</ele>
        <time>2015-08-03T13:45:49.003Z</time>
      </trkpt>
      <trkpt lat="43.32822" lon="3.00783">
        <ele>28.8</ele>
        <time>2015-08-03T13:45:49.973Z</time>
      </trkpt>
      <trkpt lat="43.32825" lon="3.00775">
        <ele>28.5</ele>
        <time>2015-08-03T13:45:52.013Z</time>
      </trkpt>
      <trkpt lat="43.32826" lon="3.00771">
        <ele>29.3</ele>
        <time>2015-08-03T13:45:52.958Z</time>
      </trkpt>
      <trkpt lat="43.3283" lon="3.00764">
        <ele>29.1</ele>
        <time>2015-08-03T13:45:55.028Z</time>
      </trkpt>
      <trkpt lat="43.32831" lon="3.0076">
        <ele>29.3</ele>
        <time>2015-08-03T13:45:55.981Z</time>
      </trkpt>
      <trkpt lat="43.32835" lon="3.0075">
        <ele>28.9</ele>
        <time>2015-08-03T13:45:59.000Z</time>
      </trkpt>
      <trkpt lat="43.32836" lon="3.00748">
        <ele>28.8</ele>
        <time>2015-08-03T13:45:59.957Z</time>
      </trkpt>
      <trkpt lat="43.3284" lon="3.00738">
        <ele>28.6</ele>
        <time>2015-08-03T13:46:04.010Z</time>
      </trkpt>
      <trkpt lat="43.3284" lon="3.00737">
        <ele>28.6</ele>
        <time>2015-08-03T13:46:04.960Z</time>
      </trkpt>
      <trkpt lat="43.32844" lon="3.00727">
        <ele>29.9</ele>
        <time>2015-08-03T13:46:23.044Z</time>
      </trkpt>
      <trkpt lat="43.32846" lon="3.00725">
        <ele>29.9</ele>
        <time>2015-08-03T13:46:23.960Z</time>
      </trkpt>
      <trkpt lat="43.3285" lon="3.00715">
        <ele>30</ele>
        <time>2015-08-03T13:46:28.000Z</time>
      </trkpt>
      <trkpt lat="43.3285" lon="3.00713">
        <ele>29.9</ele>
        <time>2015-08-03T13:46:28.958Z</time>
      </trkpt>
      <trkpt lat="43.32856" lon="3.00705">
        <ele>29.3</ele>
        <time>2015-08-03T13:46:33.048Z</time>
      </trkpt>
      <trkpt lat="43.32858" lon="3.00703">
        <ele>29.4</ele>
        <time>2015-08-03T13:46:33.968Z</time>
      </trkpt>
      <trkpt lat="43.32862" lon="3.00698">
        <ele>29.3</ele>
        <time>2015-08-03T13:46:37.012Z</time>
      </trkpt>
      <trkpt lat="43.32864" lon="3.00695">
        <ele>29</ele>
        <time>2015-08-03T13:46:37.961Z</time>
      </trkpt>
      <trkpt lat="43.32872" lon="3.0069">
        <ele>28.9</ele>
        <time>2015-08-03T13:46:41.027Z</time>
      </trkpt>
      <trkpt lat="43.32875" lon="3.00689">
        <ele>28.9</ele>
        <time>2015-08-03T13:46:41.961Z</time>
      </trkpt>
      <trkpt lat="43.32882" lon="3.00688">
        <ele>29.4</ele>
        <time>2015-08-03T13:46:45.018Z</time>
      </trkpt>
      <trkpt lat="43.32885" lon="3.00688">
        <ele>29.5</ele>
        <time>2015-08-03T13:46:45.958Z</time>
      </trkpt>
      <trkpt lat="43.32893" lon="3.0069">
        <ele>29.8</ele>
        <time>2015-08-03T13:46:49.396Z</time>
      </trkpt>
      <trkpt lat="43.32894" lon="3.00691">
        <ele>29.8</ele>
        <time>2015-08-03T13:46:49.959Z</time>
      </trkpt>
      <trkpt lat="43.329" lon="3.00696">
        <ele>31.7</ele>
        <time>2015-08-03T13:46:55.012Z</time>
      </trkpt>
      <trkpt lat="43.32901" lon="3.00699">
        <ele>32</ele>
        <time>2015-08-03T13:46:55.968Z</time>
      </trkpt>
      <trkpt lat="43.32907" lon="3.00705">
        <ele>32.3</ele>
        <time>2015-08-03T13:46:59.014Z</time>
      </trkpt>
      <trkpt lat="43.32909" lon="3.00707">
        <ele>32.4</ele>
        <time>2015-08-03T13:46:59.961Z</time>
      </trkpt>
      <trkpt lat="43.32915" lon="3.00714">
        <ele>33.1</ele>
        <time>2015-08-03T13:47:03.037Z</time>
      </trkpt>
      <trkpt lat="43.32917" lon="3.00717">
        <ele>33.4</ele>
        <time>2015-08-03T13:47:04.063Z</time>
      </trkpt>
      <trkpt lat="43.32921" lon="3.00724">
        <ele>33.7</ele>
        <time>2015-08-03T13:47:06.011Z</time>
      </trkpt>
      <trkpt lat="43.32925" lon="3.00728">
        <ele>33.6</ele>
        <time>2015-08-03T13:47:06.960Z</time>
      </trkpt>
      <trkpt lat="43.3293" lon="3.00734">
        <ele>33.2</ele>
        <time>2015-08-03T13:47:08.997Z</time>
      </trkpt>
      <trkpt lat="43.32933" lon="3.00737">
        <ele>33.3</ele>
        <time>2015-08-03T13:47:09.962Z</time>
      </trkpt>
      <trkpt lat="43.32938" lon="3.00745">
        <ele>33</ele>
        <time>2015-08-03T13:47:12.007Z</time>
      </trkpt>
      <trkpt lat="43.3294" lon="3.00748">
        <ele>33.2</ele>
        <time>2015-08-03T13:47:12.970Z</time>
      </trkpt>
      <trkpt lat="43.32946" lon="3.00755">
        <ele>32.8</ele>
        <time>2015-08-03T13:47:15.062Z</time>
      </trkpt>
      <trkpt lat="43.32949" lon="3.00758">
        <ele>32.5</ele>
        <time>2015-08-03T13:47:15.961Z</time>
      </trkpt>
      <trkpt lat="43.32954" lon="3.00765">
        <ele>32.3</ele>
        <time>2015-08-03T13:47:17.996Z</time>
      </trkpt>
      <trkpt lat="43.32956" lon="3.00768">
        <ele>32.1</ele>
        <time>2015-08-03T13:47:18.960Z</time>
      </trkpt>
      <trkpt lat="43.32961" lon="3.00775">
        <ele>31.5</ele>
        <time>2015-08-03T13:47:21.024Z</time>
      </trkpt>
      <trkpt lat="43.32963" lon="3.00778">
        <ele>31.2</ele>
        <time>2015-08-03T13:47:21.969Z</time>
      </trkpt>
      <trkpt lat="43.32968" lon="3.00785">
        <ele>30.6</ele>
        <time>2015-08-03T13:47:24.008Z</time>
      </trkpt>
      <trkpt lat="43.32971" lon="3.00789">
        <ele>30</ele>
        <time>2015-08-03T13:47:24.966Z</time>
      </trkpt>
      <trkpt lat="43.32975" lon="3.00796">
        <ele>29.3</ele>
        <time>2015-08-03T13:47:27.010Z</time>
      </trkpt>
      <trkpt lat="43.32977" lon="3.00801">
        <ele>29.2</ele>
        <time>2015-08-03T13:47:27.958Z</time>
      </trkpt>
      <trkpt lat="43.32981" lon="3.00809">
        <ele>28.4</ele>
        <time>2015-08-03T13:47:30.022Z</time>
      </trkpt>
      <trkpt lat="43.32983" lon="3.00813">
        <ele>27.9</ele>
        <time>2015-08-03T13:47:30.963Z</time>
      </trkpt>
      <trkpt lat="43.32986" lon="3.00822">
        <ele>27</ele>
        <time>2015-08-03T13:47:33.005Z</time>
      </trkpt>
      <trkpt lat="43.32987" lon="3.00826">
        <ele>26.7</ele>
        <time>2015-08-03T13:47:33.957Z</time>
      </trkpt>
      <trkpt lat="43.3299" lon="3.00835">
        <ele>26.2</ele>
        <time>2015-08-03T13:47:35.998Z</time>
      </trkpt>
      <trkpt lat="43.32991" lon="3.0084">
        <ele>26</ele>
        <time>2015-08-03T13:47:36.963Z</time>
      </trkpt>
      <trkpt lat="43.32992" lon="3.00849">
        <ele>25.7</ele>
        <time>2015-08-03T13:47:39.028Z</time>
      </trkpt>
      <trkpt lat="43.32993" lon="3.00854">
        <ele>25.4</ele>
        <time>2015-08-03T13:47:39.961Z</time>
      </trkpt>
      <trkpt lat="43.32993" lon="3.00863">
        <ele>25.1</ele>
        <time>2015-08-03T13:47:42.015Z</time>
      </trkpt>
      <trkpt lat="43.32993" lon="3.00866">
        <ele>24.8</ele>
        <time>2015-08-03T13:47:42.966Z</time>
      </trkpt>
      <trkpt lat="43.32993" lon="3.00876">
        <ele>24.6</ele>
        <time>2015-08-03T13:47:46.006Z</time>
      </trkpt>
      <trkpt lat="43.32993" lon="3.00879">
        <ele>24.9</ele>
        <time>2015-08-03T13:47:46.960Z</time>
      </trkpt>
      <trkpt lat="43.32993" lon="3.00879">
        <ele>24.9</ele>
        <time>2015-08-03T13:47:47.025Z</time>
      </trkpt>
      <trkpt lat="43.32993" lon="3.00881">
        <ele>25.1</ele>
        <time>2015-08-03T13:47:47.961Z</time>
      </trkpt>
      <trkpt lat="43.32992" lon="3.00881">
        <ele>25.4</ele>
        <time>2015-08-03T13:48:21.019Z</time>
      </trkpt>
      <trkpt lat="43.32995" lon="3.00893">
        <ele>27.9</ele>
        <time>2015-08-03T13:48:21.969Z</time>
      </trkpt>
      <trkpt lat="43.32995" lon="3.00893">
        <ele>27.9</ele>
        <time>2015-08-03T13:48:22.057Z</time>
      </trkpt>
      <trkpt lat="43.32995" lon="3.00894">
        <ele>28.3</ele>
        <time>2015-08-03T13:49:18.019Z</time>
      </trkpt>
      <trkpt lat="43.32996" lon="3.00892">
        <ele>25.1</ele>
        <time>2015-08-03T13:49:18.963Z</time>
      </trkpt>
      <trkpt lat="43.32995" lon="3.00895">
        <ele>25.1</ele>
        <time>2015-08-03T13:49:22.011Z</time>
      </trkpt>
      <trkpt lat="43.32995" lon="3.00896">
        <ele>25.1</ele>
        <time>2015-08-03T13:49:22.964Z</time>
      </trkpt>
      <trkpt lat="43.32994" lon="3.00903">
        <ele>25.2</ele>
        <time>2015-08-03T13:49:29.023Z</time>
      </trkpt>
      <trkpt lat="43.32994" lon="3.00905">
        <ele>25.1</ele>
        <time>2015-08-03T13:49:29.968Z</time>
      </trkpt>
      <trkpt lat="43.32992" lon="3.00916">
        <ele>25</ele>
        <time>2015-08-03T13:49:34.006Z</time>
      </trkpt>
      <trkpt lat="43.32991" lon="3.00918">
        <ele>25.1</ele>
        <time>2015-08-03T13:49:34.958Z</time>
      </trkpt>
      <trkpt lat="43.3299" lon="3.0093">
        <ele>25.6</ele>
        <time>2015-08-03T13:49:39.038Z</time>
      </trkpt>
      <trkpt lat="43.32989" lon="3.00933">
        <ele>25.6</ele>
        <time>2015-08-03T13:49:39.973Z</time>
      </trkpt>
      <trkpt lat="43.32987" lon="3.00944">
        <ele>25.9</ele>
        <time>2015-08-03T13:49:44.033Z</time>
      </trkpt>
      <trkpt lat="43.32986" lon="3.00946">
        <ele>26</ele>
        <time>2015-08-03T13:49:44.965Z</time>
      </trkpt>
      <trkpt lat="43.32983" lon="3.00958">
        <ele>26.4</ele>
        <time>2015-08-03T13:49:49.018Z</time>
      </trkpt>
      <trkpt lat="43.32983" lon="3.00961">
        <ele>26.5</ele>
        <time>2015-08-03T13:49:49.961Z</time>
      </trkpt>
      <trkpt lat="43.32981" lon="3.00972">
        <ele>26.6</ele>
        <time>2015-08-03T13:49:54.070Z</time>
      </trkpt>
      <trkpt lat="43.32981" lon="3.00974">
        <ele>26.7</ele>
        <time>2015-08-03T13:49:54.962Z</time>
      </trkpt>
      <trkpt lat="43.3298" lon="3.00984">
        <ele>27.2</ele>
        <time>2015-08-03T13:49:59.002Z</time>
      </trkpt>
      <trkpt lat="43.32979" lon="3.00988">
        <ele>27.3</ele>
        <time>2015-08-03T13:49:59.961Z</time>
      </trkpt>
      <trkpt lat="43.32978" lon="3.00999">
        <ele>27.4</ele>
        <time>2015-08-03T13:50:03.009Z</time>
      </trkpt>
      <trkpt lat="43.32977" lon="3.01003">
        <ele>27</ele>
        <time>2015-08-03T13:50:03.960Z</time>
      </trkpt>
      <trkpt lat="43.32976" lon="3.01015">
        <ele>26.9</ele>
        <time>2015-08-03T13:50:07.026Z</time>
      </trkpt>
      <trkpt lat="43.32976" lon="3.01019">
        <ele>26.7</ele>
        <time>2015-08-03T13:50:07.986Z</time>
      </trkpt>
      <trkpt lat="43.32975" lon="3.01031">
        <ele>26.4</ele>
        <time>2015-08-03T13:50:11.013Z</time>
      </trkpt>
      <trkpt lat="43.32975" lon="3.01035">
        <ele>26.3</ele>
        <time>2015-08-03T13:50:11.958Z</time>
      </trkpt>
      <trkpt lat="43.32974" lon="3.01045">
        <ele>25.3</ele>
        <time>2015-08-03T13:50:15.038Z</time>
      </trkpt>
      <trkpt lat="43.32974" lon="3.01048">
        <ele>25.1</ele>
        <time>2015-08-03T13:50:15.969Z</time>
      </trkpt>
      <trkpt lat="43.32973" lon="3.0106">
        <ele>25.4</ele>
        <time>2015-08-03T13:50:19.001Z</time>
      </trkpt>
      <trkpt lat="43.32973" lon="3.01063">
        <ele>25.4</ele>
        <time>2015-08-03T13:50:19.958Z</time>
      </trkpt>
      <trkpt lat="43.32972" lon="3.01073">
        <ele>24.7</ele>
        <time>2015-08-03T13:50:23.002Z</time>
      </trkpt>
      <trkpt lat="43.32972" lon="3.01076">
        <ele>24.2</ele>
        <time>2015-08-03T13:50:23.957Z</time>
      </trkpt>
      <trkpt lat="43.32972" lon="3.01085">
        <ele>24.2</ele>
        <time>2015-08-03T13:50:26.016Z</time>
      </trkpt>
      <trkpt lat="43.32972" lon="3.01089">
        <ele>24.4</ele>
        <time>2015-08-03T13:50:26.958Z</time>
      </trkpt>
      <trkpt lat="43.32971" lon="3.01098">
        <ele>24.7</ele>
        <time>2015-08-03T13:50:29.001Z</time>
      </trkpt>
      <trkpt lat="43.32972" lon="3.01102">
        <ele>25</ele>
        <time>2015-08-03T13:50:29.961Z</time>
      </trkpt>
      <trkpt lat="43.32971" lon="3.01114">
        <ele>24.7</ele>
        <time>2015-08-03T13:50:33.013Z</time>
      </trkpt>
      <trkpt lat="43.3297" lon="3.01116">
        <ele>24.9</ele>
        <time>2015-08-03T13:50:33.962Z</time>
      </trkpt>
      <trkpt lat="43.32969" lon="3.01126">
        <ele>25.7</ele>
        <time>2015-08-03T13:50:37.038Z</time>
      </trkpt>
      <trkpt lat="43.32969" lon="3.0113">
        <ele>26.1</ele>
        <time>2015-08-03T13:50:37.969Z</time>
      </trkpt>
      <trkpt lat="43.32968" lon="3.0114">
        <ele>26.3</ele>
        <time>2015-08-03T13:50:41.007Z</time>
      </trkpt>
      <trkpt lat="43.32968" lon="3.01144">
        <ele>26.6</ele>
        <time>2015-08-03T13:50:41.962Z</time>
      </trkpt>
      <trkpt lat="43.32967" lon="3.01156">
        <ele>27</ele>
        <time>2015-08-03T13:50:45.023Z</time>
      </trkpt>
      <trkpt lat="43.32966" lon="3.01159">
        <ele>27.2</ele>
        <time>2015-08-03T13:50:45.968Z</time>
      </trkpt>
      <trkpt lat="43.32966" lon="3.01168">
        <ele>27.2</ele>
        <time>2015-08-03T13:50:48.006Z</time>
      </trkpt>
      <trkpt lat="43.32966" lon="3.01172">
        <ele>27.3</ele>
        <time>2015-08-03T13:50:48.960Z</time>
      </trkpt>
      <trkpt lat="43.32964" lon="3.01183">
        <ele>27.4</ele>
        <time>2015-08-03T13:50:52.013Z</time>
      </trkpt>
      <trkpt lat="43.32964" lon="3.01187">
        <ele>27.4</ele>
        <time>2015-08-03T13:50:52.981Z</time>
      </trkpt>
      <trkpt lat="43.32963" lon="3.01196">
        <ele>28</ele>
        <time>2015-08-03T13:50:55.019Z</time>
      </trkpt>
      <trkpt lat="43.32963" lon="3.012">
        <ele>28.2</ele>
        <time>2015-08-03T13:50:55.956Z</time>
      </trkpt>
      <trkpt lat="43.32961" lon="3.01208">
        <ele>28.8</ele>
        <time>2015-08-03T13:50:58.008Z</time>
      </trkpt>
      <trkpt lat="43.32961" lon="3.01212">
        <ele>28.7</ele>
        <time>2015-08-03T13:50:58.958Z</time>
      </trkpt>
      <trkpt lat="43.32959" lon="3.01224">
        <ele>29.5</ele>
        <time>2015-08-03T13:51:02.010Z</time>
      </trkpt>
      <trkpt lat="43.32958" lon="3.01228">
        <ele>29.5</ele>
        <time>2015-08-03T13:51:02.963Z</time>
      </trkpt>
      <trkpt lat="43.32956" lon="3.01236">
        <ele>29.4</ele>
        <time>2015-08-03T13:51:05.016Z</time>
      </trkpt>
      <trkpt lat="43.32955" lon="3.01239">
        <ele>29.2</ele>
        <time>2015-08-03T13:51:05.961Z</time>
      </trkpt>
      <trkpt lat="43.32952" lon="3.01249">
        <ele>28.9</ele>
        <time>2015-08-03T13:51:08.007Z</time>
      </trkpt>
      <trkpt lat="43.32951" lon="3.01253">
        <ele>28.8</ele>
        <time>2015-08-03T13:51:08.962Z</time>
      </trkpt>
      <trkpt lat="43.32949" lon="3.01261">
        <ele>28.6</ele>
        <time>2015-08-03T13:51:11.013Z</time>
      </trkpt>
      <trkpt lat="43.32947" lon="3.01265">
        <ele>28.6</ele>
        <time>2015-08-03T13:51:11.957Z</time>
      </trkpt>
      <trkpt lat="43.32944" lon="3.01273">
        <ele>28.4</ele>
        <time>2015-08-03T13:51:13.999Z</time>
      </trkpt>
      <trkpt lat="43.32942" lon="3.01277">
        <ele>28.6</ele>
        <time>2015-08-03T13:51:14.957Z</time>
      </trkpt>
      <trkpt lat="43.32937" lon="3.01287">
        <ele>28.2</ele>
        <time>2015-08-03T13:51:18.010Z</time>
      </trkpt>
      <trkpt lat="43.32935" lon="3.0129">
        <ele>28.1</ele>
        <time>2015-08-03T13:51:18.966Z</time>
      </trkpt>
      <trkpt lat="43.3293" lon="3.01301">
        <ele>27.2</ele>
        <time>2015-08-03T13:51:22.034Z</time>
      </trkpt>
      <trkpt lat="43.32928" lon="3.01304">
        <ele>27</ele>
        <time>2015-08-03T13:51:22.982Z</time>
      </trkpt>
      <trkpt lat="43.32925" lon="3.01312">
        <ele>27.2</ele>
        <time>2015-08-03T13:51:25.009Z</time>
      </trkpt>
      <trkpt lat="43.32924" lon="3.01315">
        <ele>27.2</ele>
        <time>2015-08-03T13:51:25.959Z</time>
      </trkpt>
      <trkpt lat="43.32921" lon="3.01323">
        <ele>27.4</ele>
        <time>2015-08-03T13:51:28.009Z</time>
      </trkpt>
      <trkpt lat="43.32919" lon="3.01326">
        <ele>27.3</ele>
        <time>2015-08-03T13:51:28.977Z</time>
      </trkpt>
      <trkpt lat="43.32916" lon="3.01334">
        <ele>27.6</ele>
        <time>2015-08-03T13:51:31.016Z</time>
      </trkpt>
      <trkpt lat="43.32915" lon="3.01338">
        <ele>27.6</ele>
        <time>2015-08-03T13:51:31.956Z</time>
      </trkpt>
      <trkpt lat="43.32912" lon="3.01347">
        <ele>27.4</ele>
        <time>2015-08-03T13:51:34.012Z</time>
      </trkpt>
      <trkpt lat="43.3291" lon="3.01351">
        <ele>27.5</ele>
        <time>2015-08-03T13:51:34.965Z</time>
      </trkpt>
      <trkpt lat="43.32907" lon="3.0136">
        <ele>26.9</ele>
        <time>2015-08-03T13:51:37.025Z</time>
      </trkpt>
      <trkpt lat="43.32906" lon="3.01364">
        <ele>26.7</ele>
        <time>2015-08-03T13:51:37.956Z</time>
      </trkpt>
      <trkpt lat="43.32905" lon="3.01373">
        <ele>27.1</ele>
        <time>2015-08-03T13:51:40.022Z</time>
      </trkpt>
      <trkpt lat="43.32904" lon="3.01377">
        <ele>27.2</ele>
        <time>2015-08-03T13:51:40.963Z</time>
      </trkpt>
      <trkpt lat="43.32903" lon="3.01385">
        <ele>27.4</ele>
        <time>2015-08-03T13:51:43.038Z</time>
      </trkpt>
      <trkpt lat="43.32902" lon="3.01389">
        <ele>27.7</ele>
        <time>2015-08-03T13:51:43.973Z</time>
      </trkpt>
      <trkpt lat="43.32901" lon="3.01398">
        <ele>28.1</ele>
        <time>2015-08-03T13:51:45.999Z</time>
      </trkpt>
      <trkpt lat="43.32901" lon="3.01402">
        <ele>28.3</ele>
        <time>2015-08-03T13:51:46.956Z</time>
      </trkpt>
      <trkpt lat="43.32899" lon="3.01411">
        <ele>28.7</ele>
        <time>2015-08-03T13:51:49.003Z</time>
      </trkpt>
      <trkpt lat="43.32898" lon="3.01416">
        <ele>28.9</ele>
        <time>2015-08-03T13:51:49.955Z</time>
      </trkpt>
      <trkpt lat="43.32897" lon="3.01426">
        <ele>29.3</ele>
        <time>2015-08-03T13:51:52.031Z</time>
      </trkpt>
      <trkpt lat="43.32897" lon="3.01431">
        <ele>29.4</ele>
        <time>2015-08-03T13:51:52.981Z</time>
      </trkpt>
      <trkpt lat="43.32896" lon="3.0144">
        <ele>29.3</ele>
        <time>2015-08-03T13:51:55.016Z</time>
      </trkpt>
      <trkpt lat="43.32897" lon="3.01445">
        <ele>29.7</ele>
        <time>2015-08-03T13:51:55.959Z</time>
      </trkpt>
      <trkpt lat="43.32898" lon="3.01455">
        <ele>29.6</ele>
        <time>2015-08-03T13:51:58.010Z</time>
      </trkpt>
      <trkpt lat="43.32899" lon="3.01459">
        <ele>29</ele>
        <time>2015-08-03T13:51:58.963Z</time>
      </trkpt>
      <trkpt lat="43.32901" lon="3.01467">
        <ele>28.4</ele>
        <time>2015-08-03T13:52:01.005Z</time>
      </trkpt>
      <trkpt lat="43.32902" lon="3.01471">
        <ele>28.2</ele>
        <time>2015-08-03T13:52:01.958Z</time>
      </trkpt>
      <trkpt lat="43.32906" lon="3.01482">
        <ele>28.3</ele>
        <time>2015-08-03T13:52:05.004Z</time>
      </trkpt>
      <trkpt lat="43.32907" lon="3.01486">
        <ele>28.4</ele>
        <time>2015-08-03T13:52:05.968Z</time>
      </trkpt>
      <trkpt lat="43.32911" lon="3.01495">
        <ele>28.7</ele>
        <time>2015-08-03T13:52:09.033Z</time>
      </trkpt>
      <trkpt lat="43.32912" lon="3.01498">
        <ele>29.3</ele>
        <time>2015-08-03T13:52:09.961Z</time>
      </trkpt>
      <trkpt lat="43.32916" lon="3.01506">
        <ele>29.7</ele>
        <time>2015-08-03T13:52:13.001Z</time>
      </trkpt>
      <trkpt lat="43.32917" lon="3.01509">
        <ele>29.8</ele>
        <time>2015-08-03T13:52:13.958Z</time>
      </trkpt>
      <trkpt lat="43.32921" lon="3.01517">
        <ele>30.7</ele>
        <time>2015-08-03T13:52:17.009Z</time>
      </trkpt>
      <trkpt lat="43.32923" lon="3.01519">
        <ele>31.5</ele>
        <time>2015-08-03T13:52:17.957Z</time>
      </trkpt>
      <trkpt lat="43.32929" lon="3.01526">
        <ele>32.5</ele>
        <time>2015-08-03T13:52:21.327Z</time>
      </trkpt>
      <trkpt lat="43.3293" lon="3.01529">
        <ele>32.5</ele>
        <time>2015-08-03T13:52:21.958Z</time>
      </trkpt>
      <trkpt lat="43.32936" lon="3.01535">
        <ele>32.2</ele>
        <time>2015-08-03T13:52:25.004Z</time>
      </trkpt>
      <trkpt lat="43.32938" lon="3.01537">
        <ele>32</ele>
        <time>2015-08-03T13:52:25.968Z</time>
      </trkpt>
      <trkpt lat="43.32942" lon="3.01545">
        <ele>31.5</ele>
        <time>2015-08-03T13:52:30.015Z</time>
      </trkpt>
      <trkpt lat="43.32943" lon="3.01548">
        <ele>30.6</ele>
        <time>2015-08-03T13:52:30.961Z</time>
      </trkpt>
      <trkpt lat="43.32949" lon="3.01554">
        <ele>30.3</ele>
        <time>2015-08-03T13:52:34.068Z</time>
      </trkpt>
      <trkpt lat="43.32951" lon="3.01555">
        <ele>30.6</ele>
        <time>2015-08-03T13:52:34.980Z</time>
      </trkpt>
      <trkpt lat="43.32958" lon="3.01558">
        <ele>30.9</ele>
        <time>2015-08-03T13:52:38.013Z</time>
      </trkpt>
      <trkpt lat="43.32961" lon="3.01559">
        <ele>30.9</ele>
        <time>2015-08-03T13:52:38.971Z</time>
      </trkpt>
      <trkpt lat="43.32969" lon="3.01561">
        <ele>31.4</ele>
        <time>2015-08-03T13:52:42.343Z</time>
      </trkpt>
      <trkpt lat="43.32972" lon="3.01562">
        <ele>31.7</ele>
        <time>2015-08-03T13:52:42.982Z</time>
      </trkpt>
      <trkpt lat="43.32981" lon="3.01564">
        <ele>32.3</ele>
        <time>2015-08-03T13:52:46.026Z</time>
      </trkpt>
      <trkpt lat="43.32982" lon="3.01565">
        <ele>32.5</ele>
        <time>2015-08-03T13:52:46.983Z</time>
      </trkpt>
      <trkpt lat="43.32989" lon="3.0157">
        <ele>33.5</ele>
        <time>2015-08-03T13:52:50.356Z</time>
      </trkpt>
      <trkpt lat="43.32991" lon="3.01572">
        <ele>33.8</ele>
        <time>2015-08-03T13:52:50.962Z</time>
      </trkpt>
      <trkpt lat="43.32997" lon="3.0158">
        <ele>34.1</ele>
        <time>2015-08-03T13:52:54.073Z</time>
      </trkpt>
      <trkpt lat="43.32998" lon="3.01582">
        <ele>34.3</ele>
        <time>2015-08-03T13:52:54.958Z</time>
      </trkpt>
      <trkpt lat="43.33002" lon="3.01593">
        <ele>34.2</ele>
        <time>2015-08-03T13:52:59.016Z</time>
      </trkpt>
      <trkpt lat="43.33003" lon="3.01596">
        <ele>34.1</ele>
        <time>2015-08-03T13:52:59.958Z</time>
      </trkpt>
      <trkpt lat="43.33006" lon="3.01605">
        <ele>33.5</ele>
        <time>2015-08-03T13:53:03.006Z</time>
      </trkpt>
      <trkpt lat="43.33006" lon="3.01609">
        <ele>32.8</ele>
        <time>2015-08-03T13:53:03.958Z</time>
      </trkpt>
      <trkpt lat="43.33005" lon="3.0162">
        <ele>31.8</ele>
        <time>2015-08-03T13:53:07.117Z</time>
      </trkpt>
      <trkpt lat="43.33005" lon="3.01623">
        <ele>31.6</ele>
        <time>2015-08-03T13:53:07.961Z</time>
      </trkpt>
      <trkpt lat="43.33004" lon="3.01633">
        <ele>32.9</ele>
        <time>2015-08-03T13:53:31.041Z</time>
      </trkpt>
      <trkpt lat="43.33001" lon="3.01643">
        <ele>34.4</ele>
        <time>2015-08-03T13:53:31.980Z</time>
      </trkpt>
      <trkpt lat="43.32997" lon="3.01652">
        <ele>34.2</ele>
        <time>2015-08-03T13:53:35.006Z</time>
      </trkpt>
      <trkpt lat="43.32995" lon="3.01655">
        <ele>34.1</ele>
        <time>2015-08-03T13:53:35.966Z</time>
      </trkpt>
      <trkpt lat="43.3299" lon="3.01662">
        <ele>34</ele>
        <time>2015-08-03T13:53:38.014Z</time>
      </trkpt>
      <trkpt lat="43.32987" lon="3.01664">
        <ele>34</ele>
        <time>2015-08-03T13:53:38.970Z</time>
      </trkpt>
      <trkpt lat="43.32981" lon="3.0167">
        <ele>34</ele>
        <time>2015-08-03T13:53:41.002Z</time>
      </trkpt>
      <trkpt lat="43.32977" lon="3.01672">
        <ele>34.2</ele>
        <time>2015-08-03T13:53:41.964Z</time>
      </trkpt>
      <trkpt lat="43.32971" lon="3.01673">
        <ele>34.2</ele>
        <time>2015-08-03T13:53:44.008Z</time>
      </trkpt>
      <trkpt lat="43.32968" lon="3.01674">
        <ele>34.5</ele>
        <time>2015-08-03T13:53:44.961Z</time>
      </trkpt>
      <trkpt lat="43.32959" lon="3.01673">
        <ele>35.6</ele>
        <time>2015-08-03T13:53:48.015Z</time>
      </trkpt>
      <trkpt lat="43.32956" lon="3.01673">
        <ele>35.9</ele>
        <time>2015-08-03T13:53:48.961Z</time>
      </trkpt>
      <trkpt lat="43.32948" lon="3.01673">
        <ele>37</ele>
        <time>2015-08-03T13:53:51.012Z</time>
      </trkpt>
      <trkpt lat="43.32944" lon="3.01673">
        <ele>37</ele>
        <time>2015-08-03T13:53:51.959Z</time>
      </trkpt>
      <trkpt lat="43.32939" lon="3.01673">
        <ele>36.7</ele>
        <time>2015-08-03T13:53:53.023Z</time>
      </trkpt>
      <trkpt lat="43.32934" lon="3.01672">
        <ele>36.2</ele>
        <time>2015-08-03T13:53:53.981Z</time>
      </trkpt>
      <trkpt lat="43.32925" lon="3.01671">
        <ele>35.9</ele>
        <time>2015-08-03T13:53:56.007Z</time>
      </trkpt>
      <trkpt lat="43.3292" lon="3.01669">
        <ele>35.9</ele>
        <time>2015-08-03T13:53:56.958Z</time>
      </trkpt>
      <trkpt lat="43.32912" lon="3.01668">
        <ele>35.6</ele>
        <time>2015-08-03T13:53:59.007Z</time>
      </trkpt>
      <trkpt lat="43.32907" lon="3.01667">
        <ele>35.2</ele>
        <time>2015-08-03T13:53:59.966Z</time>
      </trkpt>
      <trkpt lat="43.32899" lon="3.01665">
        <ele>35.1</ele>
        <time>2015-08-03T13:54:02.006Z</time>
      </trkpt>
      <trkpt lat="43.32895" lon="3.01664">
        <ele>34.9</ele>
        <time>2015-08-03T13:54:02.956Z</time>
      </trkpt>
      <trkpt lat="43.32888" lon="3.01662">
        <ele>34.2</ele>
        <time>2015-08-03T13:54:05.003Z</time>
      </trkpt>
      <trkpt lat="43.32884" lon="3.01661">
        <ele>34.2</ele>
        <time>2015-08-03T13:54:05.960Z</time>
      </trkpt>
      <trkpt lat="43.32875" lon="3.0166">
        <ele>33.7</ele>
        <time>2015-08-03T13:54:08.014Z</time>
      </trkpt>
      <trkpt lat="43.32871" lon="3.01661">
        <ele>33.9</ele>
        <time>2015-08-03T13:54:08.960Z</time>
      </trkpt>
      <trkpt lat="43.32862" lon="3.01661">
        <ele>34.2</ele>
        <time>2015-08-03T13:54:11.011Z</time>
      </trkpt>
      <trkpt lat="43.32858" lon="3.01661">
        <ele>34.3</ele>
        <time>2015-08-03T13:54:11.977Z</time>
      </trkpt>
      <trkpt lat="43.3285" lon="3.01661">
        <ele>33.7</ele>
        <time>2015-08-03T13:54:13.997Z</time>
      </trkpt>
      <trkpt lat="43.32848" lon="3.01663">
        <ele>33.2</ele>
        <time>2015-08-03T13:54:14.958Z</time>
      </trkpt>
      <trkpt lat="43.3284" lon="3.01669">
        <ele>32.2</ele>
        <time>2015-08-03T13:54:18.246Z</time>
      </trkpt>
      <trkpt lat="43.32837" lon="3.01671">
        <ele>32.4</ele>
        <time>2015-08-03T13:54:18.960Z</time>
      </trkpt>
      <trkpt lat="43.32831" lon="3.01672">
        <ele>32.3</ele>
        <time>2015-08-03T13:54:21.002Z</time>
      </trkpt>
      <trkpt lat="43.32828" lon="3.01673">
        <ele>32</ele>
        <time>2015-08-03T13:54:21.959Z</time>
      </trkpt>
      <trkpt lat="43.3282" lon="3.01676">
        <ele>31</ele>
        <time>2015-08-03T13:54:25.045Z</time>
      </trkpt>
      <trkpt lat="43.32817" lon="3.01677">
        <ele>30.6</ele>
        <time>2015-08-03T13:54:25.983Z</time>
      </trkpt>
      <trkpt lat="43.32809" lon="3.01677">
        <ele>34.7</ele>
        <time>2015-08-03T13:54:28.996Z</time>
      </trkpt>
      <trkpt lat="43.32806" lon="3.01677">
        <ele>35</ele>
        <time>2015-08-03T13:54:29.960Z</time>
      </trkpt>
      <trkpt lat="43.32798" lon="3.0168">
        <ele>35.3</ele>
        <time>2015-08-03T13:54:33.024Z</time>
      </trkpt>
      <trkpt lat="43.32795" lon="3.01681">
        <ele>35.3</ele>
        <time>2015-08-03T13:54:33.970Z</time>
      </trkpt>
      <trkpt lat="43.32787" lon="3.01687">
        <ele>34.9</ele>
        <time>2015-08-03T13:54:37.000Z</time>
      </trkpt>
      <trkpt lat="43.32785" lon="3.01689">
        <ele>34.7</ele>
        <time>2015-08-03T13:54:37.966Z</time>
      </trkpt>
      <trkpt lat="43.32779" lon="3.01695">
        <ele>34.4</ele>
        <time>2015-08-03T13:54:40.995Z</time>
      </trkpt>
      <trkpt lat="43.32777" lon="3.01697">
        <ele>34.5</ele>
        <time>2015-08-03T13:54:41.960Z</time>
      </trkpt>
      <trkpt lat="43.32771" lon="3.01705">
        <ele>34.2</ele>
        <time>2015-08-03T13:54:45.040Z</time>
      </trkpt>
      <trkpt lat="43.32769" lon="3.01708">
        <ele>34.2</ele>
        <time>2015-08-03T13:54:46.141Z</time>
      </trkpt>
      <trkpt lat="43.32764" lon="3.01714">
        <ele>34.3</ele>
        <time>2015-08-03T13:54:48.004Z</time>
      </trkpt>
      <trkpt lat="43.32762" lon="3.01717">
        <ele>34.4</ele>
        <time>2015-08-03T13:54:48.960Z</time>
      </trkpt>
      <trkpt lat="43.32758" lon="3.01724">
        <ele>34.6</ele>
        <time>2015-08-03T13:54:50.991Z</time>
      </trkpt>
      <trkpt lat="43.32755" lon="3.01727">
        <ele>34.6</ele>
        <time>2015-08-03T13:54:51.958Z</time>
      </trkpt>
      <trkpt lat="43.32751" lon="3.01734">
        <ele>34.2</ele>
        <time>2015-08-03T13:54:54.000Z</time>
      </trkpt>
      <trkpt lat="43.32749" lon="3.01738">
        <ele>34.2</ele>
        <time>2015-08-03T13:54:54.960Z</time>
      </trkpt>
      <trkpt lat="43.32745" lon="3.01746">
        <ele>34.3</ele>
        <time>2015-08-03T13:54:57.046Z</time>
      </trkpt>
      <trkpt lat="43.32744" lon="3.01749">
        <ele>34.3</ele>
        <time>2015-08-03T13:54:57.959Z</time>
      </trkpt>
      <trkpt lat="43.3274" lon="3.01757">
        <ele>34.1</ele>
        <time>2015-08-03T13:55:00.012Z</time>
      </trkpt>
      <trkpt lat="43.32738" lon="3.0176">
        <ele>34.1</ele>
        <time>2015-08-03T13:55:00.966Z</time>
      </trkpt>
      <trkpt lat="43.32733" lon="3.01767">
        <ele>33.7</ele>
        <time>2015-08-03T13:55:02.993Z</time>
      </trkpt>
      <trkpt lat="43.32731" lon="3.0177">
        <ele>33.5</ele>
        <time>2015-08-03T13:55:03.956Z</time>
      </trkpt>
      <trkpt lat="43.32726" lon="3.01775">
        <ele>33.4</ele>
        <time>2015-08-03T13:55:05.994Z</time>
      </trkpt>
      <trkpt lat="43.32723" lon="3.01778">
        <ele>33.5</ele>
        <time>2015-08-03T13:55:06.958Z</time>
      </trkpt>
      <trkpt lat="43.32718" lon="3.01781">
        <ele>33.4</ele>
        <time>2015-08-03T13:55:09.001Z</time>
      </trkpt>
      <trkpt lat="43.32715" lon="3.01784">
        <ele>33.4</ele>
        <time>2015-08-03T13:55:09.964Z</time>
      </trkpt>
      <trkpt lat="43.32709" lon="3.01787">
        <ele>34</ele>
        <time>2015-08-03T13:55:12.020Z</time>
      </trkpt>
      <trkpt lat="43.32706" lon="3.01789">
        <ele>34.1</ele>
        <time>2015-08-03T13:55:12.960Z</time>
      </trkpt>
      <trkpt lat="43.327" lon="3.01792">
        <ele>34</ele>
        <time>2015-08-03T13:55:14.992Z</time>
      </trkpt>
      <trkpt lat="43.32696" lon="3.01794">
        <ele>34.1</ele>
        <time>2015-08-03T13:55:15.956Z</time>
      </trkpt>
      <trkpt lat="43.3269" lon="3.01796">
        <ele>33.7</ele>
        <time>2015-08-03T13:55:17.997Z</time>
      </trkpt>
      <trkpt lat="43.32687" lon="3.01797">
        <ele>33.6</ele>
        <time>2015-08-03T13:55:18.971Z</time>
      </trkpt>
      <trkpt lat="43.32681" lon="3.01799">
        <ele>33.1</ele>
        <time>2015-08-03T13:55:21.023Z</time>
      </trkpt>
      <trkpt lat="43.32677" lon="3.01801">
        <ele>33.1</ele>
        <time>2015-08-03T13:55:21.982Z</time>
      </trkpt>
      <trkpt lat="43.3267" lon="3.01802">
        <ele>33.4</ele>
        <time>2015-08-03T13:55:24.170Z</time>
      </trkpt>
      <trkpt lat="43.32667" lon="3.01803">
        <ele>33.6</ele>
        <time>2015-08-03T13:55:24.961Z</time>
      </trkpt>
      <trkpt lat="43.32661" lon="3.01803">
        <ele>33.6</ele>
        <time>2015-08-03T13:55:27.001Z</time>
      </trkpt>
      <trkpt lat="43.32658" lon="3.01803">
        <ele>33.3</ele>
        <time>2015-08-03T13:55:27.959Z</time>
      </trkpt>
      <trkpt lat="43.32652" lon="3.01804">
        <ele>33.1</ele>
        <time>2015-08-03T13:55:30.047Z</time>
      </trkpt>
      <trkpt lat="43.32649" lon="3.01804">
        <ele>33.1</ele>
        <time>2015-08-03T13:55:31.015Z</time>
      </trkpt>
      <trkpt lat="43.32642" lon="3.01804">
        <ele>32.7</ele>
        <time>2015-08-03T13:55:32.999Z</time>
      </trkpt>
      <trkpt lat="43.32638" lon="3.01804">
        <ele>32.1</ele>
        <time>2015-08-03T13:55:33.960Z</time>
      </trkpt>
      <trkpt lat="43.32632" lon="3.01804">
        <ele>31.8</ele>
        <time>2015-08-03T13:55:35.998Z</time>
      </trkpt>
      <trkpt lat="43.32629" lon="3.01803">
        <ele>31.9</ele>
        <time>2015-08-03T13:55:36.963Z</time>
      </trkpt>
      <trkpt lat="43.32621" lon="3.01803">
        <ele>31.4</ele>
        <time>2015-08-03T13:55:38.998Z</time>
      </trkpt>
      <trkpt lat="43.32618" lon="3.01803">
        <ele>31.8</ele>
        <time>2015-08-03T13:55:39.960Z</time>
      </trkpt>
      <trkpt lat="43.3261" lon="3.01803">
        <ele>31.8</ele>
        <time>2015-08-03T13:55:42.011Z</time>
      </trkpt>
      <trkpt lat="43.32607" lon="3.01803">
        <ele>32</ele>
        <time>2015-08-03T13:55:42.971Z</time>
      </trkpt>
      <trkpt lat="43.32599" lon="3.01802">
        <ele>31.5</ele>
        <time>2015-08-03T13:55:44.999Z</time>
      </trkpt>
      <trkpt lat="43.32595" lon="3.01802">
        <ele>31.3</ele>
        <time>2015-08-03T13:55:45.962Z</time>
      </trkpt>
      <trkpt lat="43.32587" lon="3.01801">
        <ele>31</ele>
        <time>2015-08-03T13:55:48.000Z</time>
      </trkpt>
      <trkpt lat="43.32583" lon="3.01801">
        <ele>30.9</ele>
        <time>2015-08-03T13:55:48.961Z</time>
      </trkpt>
      <trkpt lat="43.32574" lon="3.01801">
        <ele>30.9</ele>
        <time>2015-08-03T13:55:51.024Z</time>
      </trkpt>
      <trkpt lat="43.3257" lon="3.01801">
        <ele>31</ele>
        <time>2015-08-03T13:55:51.968Z</time>
      </trkpt>
      <trkpt lat="43.32563" lon="3.01801">
        <ele>30.8</ele>
        <time>2015-08-03T13:55:54.457Z</time>
      </trkpt>
      <trkpt lat="43.32559" lon="3.01801">
        <ele>31.1</ele>
        <time>2015-08-03T13:55:54.960Z</time>
      </trkpt>
      <trkpt lat="43.32551" lon="3.018">
        <ele>31.3</ele>
        <time>2015-08-03T13:55:56.998Z</time>
      </trkpt>
      <trkpt lat="43.32548" lon="3.018">
        <ele>31.6</ele>
        <time>2015-08-03T13:55:57.961Z</time>
      </trkpt>
      <trkpt lat="43.3254" lon="3.01799">
        <ele>31.3</ele>
        <time>2015-08-03T13:56:00.097Z</time>
      </trkpt>
      <trkpt lat="43.32536" lon="3.01799">
        <ele>31.3</ele>
        <time>2015-08-03T13:56:00.961Z</time>
      </trkpt>
      <trkpt lat="43.32529" lon="3.01799">
        <ele>31.5</ele>
        <time>2015-08-03T13:56:03.326Z</time>
      </trkpt>
      <trkpt lat="43.32526" lon="3.01799">
        <ele>31.2</ele>
        <time>2015-08-03T13:56:03.967Z</time>
      </trkpt>
      <trkpt lat="43.32519" lon="3.01799">
        <ele>30.9</ele>
        <time>2015-08-03T13:56:06.006Z</time>
      </trkpt>
      <trkpt lat="43.32515" lon="3.01799">
        <ele>30.3</ele>
        <time>2015-08-03T13:56:06.971Z</time>
      </trkpt>
      <trkpt lat="43.32507" lon="3.01799">
        <ele>30.1</ele>
        <time>2015-08-03T13:56:09.002Z</time>
      </trkpt>
      <trkpt lat="43.32503" lon="3.018">
        <ele>30</ele>
        <time>2015-08-03T13:56:09.956Z</time>
      </trkpt>
      <trkpt lat="43.32495" lon="3.018">
        <ele>29.6</ele>
        <time>2015-08-03T13:56:12.015Z</time>
      </trkpt>
      <trkpt lat="43.32491" lon="3.01801">
        <ele>29.5</ele>
        <time>2015-08-03T13:56:12.958Z</time>
      </trkpt>
      <trkpt lat="43.32484" lon="3.01803">
        <ele>28.9</ele>
        <time>2015-08-03T13:56:14.999Z</time>
      </trkpt>
      <trkpt lat="43.3248" lon="3.01804">
        <ele>28.7</ele>
        <time>2015-08-03T13:56:15.960Z</time>
      </trkpt>
      <trkpt lat="43.32473" lon="3.01807">
        <ele>27.9</ele>
        <time>2015-08-03T13:56:18.039Z</time>
      </trkpt>
      <trkpt lat="43.32469" lon="3.01809">
        <ele>28.2</ele>
        <time>2015-08-03T13:56:18.971Z</time>
      </trkpt>
      <trkpt lat="43.32463" lon="3.01813">
        <ele>28.6</ele>
        <time>2015-08-03T13:56:20.999Z</time>
      </trkpt>
      <trkpt lat="43.32459" lon="3.01815">
        <ele>28.8</ele>
        <time>2015-08-03T13:56:21.958Z</time>
      </trkpt>
      <trkpt lat="43.32454" lon="3.0182">
        <ele>29.1</ele>
        <time>2015-08-03T13:56:24.022Z</time>
      </trkpt>
      <trkpt lat="43.32451" lon="3.01823">
        <ele>29.2</ele>
        <time>2015-08-03T13:56:24.961Z</time>
      </trkpt>
      <trkpt lat="43.32445" lon="3.01832">
        <ele>31</ele>
        <time>2015-08-03T13:56:28.010Z</time>
      </trkpt>
      <trkpt lat="43.32443" lon="3.01835">
        <ele>31.3</ele>
        <time>2015-08-03T13:56:28.958Z</time>
      </trkpt>
      <trkpt lat="43.3244" lon="3.01843">
        <ele>31.3</ele>
        <time>2015-08-03T13:56:31.191Z</time>
      </trkpt>
      <trkpt lat="43.32438" lon="3.01847">
        <ele>31.4</ele>
        <time>2015-08-03T13:56:31.957Z</time>
      </trkpt>
      <trkpt lat="43.32435" lon="3.01855">
        <ele>32.2</ele>
        <time>2015-08-03T13:56:33.993Z</time>
      </trkpt>
      <trkpt lat="43.32434" lon="3.01858">
        <ele>32.4</ele>
        <time>2015-08-03T13:56:34.959Z</time>
      </trkpt>
      <trkpt lat="43.32432" lon="3.01869">
        <ele>33.2</ele>
        <time>2015-08-03T13:56:38.037Z</time>
      </trkpt>
      <trkpt lat="43.32432" lon="3.01872">
        <ele>33.5</ele>
        <time>2015-08-03T13:56:38.958Z</time>
      </trkpt>
      <trkpt lat="43.32431" lon="3.01884">
        <ele>34.3</ele>
        <time>2015-08-03T13:56:43.001Z</time>
      </trkpt>
      <trkpt lat="43.32431" lon="3.01888">
        <ele>34.3</ele>
        <time>2015-08-03T13:56:43.961Z</time>
      </trkpt>
      <trkpt lat="43.32431" lon="3.01898">
        <ele>34.4</ele>
        <time>2015-08-03T13:56:47.022Z</time>
      </trkpt>
      <trkpt lat="43.32432" lon="3.01902">
        <ele>34.4</ele>
        <time>2015-08-03T13:56:47.981Z</time>
      </trkpt>
      <trkpt lat="43.32434" lon="3.01913">
        <ele>34.1</ele>
        <time>2015-08-03T13:56:50.999Z</time>
      </trkpt>
      <trkpt lat="43.32435" lon="3.01916">
        <ele>33.8</ele>
        <time>2015-08-03T13:56:51.959Z</time>
      </trkpt>
      <trkpt lat="43.32439" lon="3.01923">
        <ele>33.8</ele>
        <time>2015-08-03T13:56:54.023Z</time>
      </trkpt>
      <trkpt lat="43.32441" lon="3.01926">
        <ele>33.8</ele>
        <time>2015-08-03T13:56:54.958Z</time>
      </trkpt>
      <trkpt lat="43.32445" lon="3.01933">
        <ele>33.5</ele>
        <time>2015-08-03T13:56:57.037Z</time>
      </trkpt>
      <trkpt lat="43.32447" lon="3.01936">
        <ele>33.5</ele>
        <time>2015-08-03T13:56:57.980Z</time>
      </trkpt>
      <trkpt lat="43.32452" lon="3.01943">
        <ele>33.5</ele>
        <time>2015-08-03T13:57:00.092Z</time>
      </trkpt>
      <trkpt lat="43.32455" lon="3.01945">
        <ele>33.3</ele>
        <time>2015-08-03T13:57:00.961Z</time>
      </trkpt>
      <trkpt lat="43.32461" lon="3.01951">
        <ele>33</ele>
        <time>2015-08-03T13:57:03.015Z</time>
      </trkpt>
      <trkpt lat="43.32464" lon="3.01954">
        <ele>32.8</ele>
        <time>2015-08-03T13:57:03.955Z</time>
      </trkpt>
      <trkpt lat="43.32472" lon="3.01959">
        <ele>32.8</ele>
        <time>2015-08-03T13:57:06.002Z</time>
      </trkpt>
      <trkpt lat="43.32476" lon="3.01961">
        <ele>32.3</ele>
        <time>2015-08-03T13:57:06.970Z</time>
      </trkpt>
      <trkpt lat="43.3248" lon="3.01963">
        <ele>32</ele>
        <time>2015-08-03T13:57:08.056Z</time>
      </trkpt>
      <trkpt lat="43.32485" lon="3.01964">
        <ele>32</ele>
        <time>2015-08-03T13:57:08.960Z</time>
      </trkpt>
      <trkpt lat="43.3249" lon="3.01965">
        <ele>31.5</ele>
        <time>2015-08-03T13:57:10.014Z</time>
      </trkpt>
      <trkpt lat="43.32494" lon="3.01966">
        <ele>30.8</ele>
        <time>2015-08-03T13:57:10.959Z</time>
      </trkpt>
      <trkpt lat="43.32499" lon="3.01967">
        <ele>30.4</ele>
        <time>2015-08-03T13:57:12.015Z</time>
      </trkpt>
      <trkpt lat="43.32504" lon="3.01968">
        <ele>30.7</ele>
        <time>2015-08-03T13:57:12.959Z</time>
      </trkpt>
      <trkpt lat="43.32509" lon="3.01969">
        <ele>30.8</ele>
        <time>2015-08-03T13:57:13.997Z</time>
      </trkpt>
      <trkpt lat="43.32514" lon="3.0197">
        <ele>30.7</ele>
        <time>2015-08-03T13:57:14.958Z</time>
      </trkpt>
      <trkpt lat="43.32522" lon="3.01972">
        <ele>30.7</ele>
        <time>2015-08-03T13:57:16.991Z</time>
      </trkpt>
      <trkpt lat="43.32526" lon="3.01974">
        <ele>30.7</ele>
        <time>2015-08-03T13:57:17.959Z</time>
      </trkpt>
      <trkpt lat="43.32534" lon="3.01976">
        <ele>30.9</ele>
        <time>2015-08-03T13:57:20.038Z</time>
      </trkpt>
      <trkpt lat="43.32537" lon="3.01978">
        <ele>30.8</ele>
        <time>2015-08-03T13:57:20.969Z</time>
      </trkpt>
      <trkpt lat="43.32546" lon="3.0198">
        <ele>30.8</ele>
        <time>2015-08-03T13:57:24.025Z</time>
      </trkpt>
      <trkpt lat="43.32548" lon="3.01981">
        <ele>30.9</ele>
        <time>2015-08-03T13:57:24.963Z</time>
      </trkpt>
      <trkpt lat="43.32557" lon="3.01984">
        <ele>31.2</ele>
        <time>2015-08-03T13:57:28.042Z</time>
      </trkpt>
      <trkpt lat="43.3256" lon="3.01985">
        <ele>31.4</ele>
        <time>2015-08-03T13:57:28.969Z</time>
      </trkpt>
      <trkpt lat="43.32568" lon="3.01988">
        <ele>30.9</ele>
        <time>2015-08-03T13:57:31.993Z</time>
      </trkpt>
      <trkpt lat="43.32571" lon="3.01989">
        <ele>30.8</ele>
        <time>2015-08-03T13:57:32.959Z</time>
      </trkpt>
      <trkpt lat="43.32578" lon="3.01992">
        <ele>30.9</ele>
        <time>2015-08-03T13:57:34.998Z</time>
      </trkpt>
      <trkpt lat="43.32581" lon="3.01993">
        <ele>30.8</ele>
        <time>2015-08-03T13:57:35.960Z</time>
      </trkpt>
      <trkpt lat="43.32588" lon="3.01997">
        <ele>30.5</ele>
        <time>2015-08-03T13:57:38.031Z</time>
      </trkpt>
      <trkpt lat="43.32592" lon="3.01999">
        <ele>30.6</ele>
        <time>2015-08-03T13:57:38.968Z</time>
      </trkpt>
      <trkpt lat="43.32598" lon="3.02005">
        <ele>30.2</ele>
        <time>2015-08-03T13:57:41.001Z</time>
      </trkpt>
      <trkpt lat="43.32601" lon="3.02008">
        <ele>30.4</ele>
        <time>2015-08-03T13:57:41.959Z</time>
      </trkpt>
      <trkpt lat="43.32607" lon="3.02016">
        <ele>30.4</ele>
        <time>2015-08-03T13:57:44.007Z</time>
      </trkpt>
      <trkpt lat="43.3261" lon="3.0202">
        <ele>30.4</ele>
        <time>2015-08-03T13:57:44.960Z</time>
      </trkpt>
      <trkpt lat="43.32614" lon="3.02029">
        <ele>30.2</ele>
        <time>2015-08-03T13:57:47.029Z</time>
      </trkpt>
      <trkpt lat="43.32617" lon="3.02033">
        <ele>30.2</ele>
        <time>2015-08-03T13:57:47.980Z</time>
      </trkpt>
      <trkpt lat="43.32622" lon="3.02042">
        <ele>30.9</ele>
        <time>2015-08-03T13:57:50.010Z</time>
      </trkpt>
      <trkpt lat="43.32624" lon="3.02047">
        <ele>30.8</ele>
        <time>2015-08-03T13:57:50.957Z</time>
      </trkpt>
      <trkpt lat="43.32628" lon="3.02057">
        <ele>29.9</ele>
        <time>2015-08-03T13:57:52.999Z</time>
      </trkpt>
      <trkpt lat="43.3263" lon="3.02063">
        <ele>30</ele>
        <time>2015-08-03T13:57:53.964Z</time>
      </trkpt>
      <trkpt lat="43.32633" lon="3.02073">
        <ele>29.5</ele>
        <time>2015-08-03T13:57:56.032Z</time>
      </trkpt>
      <trkpt lat="43.32634" lon="3.02078">
        <ele>29.4</ele>
        <time>2015-08-03T13:57:56.968Z</time>
      </trkpt>
      <trkpt lat="43.32636" lon="3.02088">
        <ele>29.6</ele>
        <time>2015-08-03T13:57:59.021Z</time>
      </trkpt>
      <trkpt lat="43.32636" lon="3.02093">
        <ele>29.8</ele>
        <time>2015-08-03T13:57:59.979Z</time>
      </trkpt>
      <trkpt lat="43.32637" lon="3.02102">
        <ele>30</ele>
        <time>2015-08-03T13:58:02.004Z</time>
      </trkpt>
      <trkpt lat="43.32637" lon="3.02107">
        <ele>29.9</ele>
        <time>2015-08-03T13:58:02.956Z</time>
      </trkpt>
      <trkpt lat="43.32638" lon="3.02117">
        <ele>29.8</ele>
        <time>2015-08-03T13:58:04.998Z</time>
      </trkpt>
      <trkpt lat="43.32638" lon="3.02123">
        <ele>29.5</ele>
        <time>2015-08-03T13:58:05.956Z</time>
      </trkpt>
      <trkpt lat="43.32639" lon="3.02134">
        <ele>29.2</ele>
        <time>2015-08-03T13:58:08.038Z</time>
      </trkpt>
      <trkpt lat="43.3264" lon="3.0214">
        <ele>28.8</ele>
        <time>2015-08-03T13:58:08.968Z</time>
      </trkpt>
      <trkpt lat="43.3264" lon="3.0215">
        <ele>28.9</ele>
        <time>2015-08-03T13:58:11.012Z</time>
      </trkpt>
      <trkpt lat="43.32641" lon="3.02155">
        <ele>28.9</ele>
        <time>2015-08-03T13:58:11.961Z</time>
      </trkpt>
      <trkpt lat="43.32641" lon="3.02165">
        <ele>29</ele>
        <time>2015-08-03T13:58:14.012Z</time>
      </trkpt>
      <trkpt lat="43.32641" lon="3.0217">
        <ele>29.2</ele>
        <time>2015-08-03T13:58:14.959Z</time>
      </trkpt>
      <trkpt lat="43.32642" lon="3.0218">
        <ele>29.3</ele>
        <time>2015-08-03T13:58:16.998Z</time>
      </trkpt>
      <trkpt lat="43.32642" lon="3.02186">
        <ele>29.2</ele>
        <time>2015-08-03T13:58:17.963Z</time>
      </trkpt>
      <trkpt lat="43.32643" lon="3.02196">
        <ele>29.2</ele>
        <time>2015-08-03T13:58:20.019Z</time>
      </trkpt>
      <trkpt lat="43.32644" lon="3.02201">
        <ele>29.1</ele>
        <time>2015-08-03T13:58:20.961Z</time>
      </trkpt>
      <trkpt lat="43.32645" lon="3.02211">
        <ele>29.3</ele>
        <time>2015-08-03T13:58:22.998Z</time>
      </trkpt>
      <trkpt lat="43.32646" lon="3.02216">
        <ele>29.4</ele>
        <time>2015-08-03T13:58:23.965Z</time>
      </trkpt>
      <trkpt lat="43.32647" lon="3.02226">
        <ele>29.4</ele>
        <time>2015-08-03T13:58:26.007Z</time>
      </trkpt>
      <trkpt lat="43.32647" lon="3.02231">
        <ele>29.3</ele>
        <time>2015-08-03T13:58:26.960Z</time>
      </trkpt>
      <trkpt lat="43.32648" lon="3.02241">
        <ele>29.5</ele>
        <time>2015-08-03T13:58:29.003Z</time>
      </trkpt>
      <trkpt lat="43.32648" lon="3.02246">
        <ele>29.5</ele>
        <time>2015-08-03T13:58:29.963Z</time>
      </trkpt>
      <trkpt lat="43.32648" lon="3.02256">
        <ele>29.7</ele>
        <time>2015-08-03T13:58:32.003Z</time>
      </trkpt>
      <trkpt lat="43.32647" lon="3.02261">
        <ele>29.9</ele>
        <time>2015-08-03T13:58:32.959Z</time>
      </trkpt>
      <trkpt lat="43.32647" lon="3.02271">
        <ele>30.1</ele>
        <time>2015-08-03T13:58:34.998Z</time>
      </trkpt>
      <trkpt lat="43.32646" lon="3.02277">
        <ele>30.2</ele>
        <time>2015-08-03T13:58:35.959Z</time>
      </trkpt>
      <trkpt lat="43.32644" lon="3.02287">
        <ele>30.2</ele>
        <time>2015-08-03T13:58:38.036Z</time>
      </trkpt>
      <trkpt lat="43.32643" lon="3.02292">
        <ele>30.3</ele>
        <time>2015-08-03T13:58:38.969Z</time>
      </trkpt>
      <trkpt lat="43.3264" lon="3.02302">
        <ele>30.5</ele>
        <time>2015-08-03T13:58:41.341Z</time>
      </trkpt>
      <trkpt lat="43.32638" lon="3.02307">
        <ele>30.6</ele>
        <time>2015-08-03T13:58:41.957Z</time>
      </trkpt>
      <trkpt lat="43.32636" lon="3.02317">
        <ele>30.7</ele>
        <time>2015-08-03T13:58:44.007Z</time>
      </trkpt>
      <trkpt lat="43.32635" lon="3.02322">
        <ele>30.6</ele>
        <time>2015-08-03T13:58:44.960Z</time>
      </trkpt>
      <trkpt lat="43.32633" lon="3.02332">
        <ele>30.8</ele>
        <time>2015-08-03T13:58:47.032Z</time>
      </trkpt>
      <trkpt lat="43.32633" lon="3.02337">
        <ele>31.2</ele>
        <time>2015-08-03T13:58:47.982Z</time>
      </trkpt>
      <trkpt lat="43.32632" lon="3.02347">
        <ele>31.8</ele>
        <time>2015-08-03T13:58:50.010Z</time>
      </trkpt>
      <trkpt lat="43.32632" lon="3.02353">
        <ele>32</ele>
        <time>2015-08-03T13:58:50.960Z</time>
      </trkpt>
      <trkpt lat="43.32632" lon="3.02363">
        <ele>31.8</ele>
        <time>2015-08-03T13:58:52.999Z</time>
      </trkpt>
      <trkpt lat="43.32632" lon="3.02368">
        <ele>32.1</ele>
        <time>2015-08-03T13:58:53.961Z</time>
      </trkpt>
      <trkpt lat="43.32631" lon="3.02377">
        <ele>31.9</ele>
        <time>2015-08-03T13:58:56.054Z</time>
      </trkpt>
      <trkpt lat="43.32631" lon="3.02382">
        <ele>32.1</ele>
        <time>2015-08-03T13:58:56.965Z</time>
      </trkpt>
      <trkpt lat="43.32631" lon="3.02392">
        <ele>31.8</ele>
        <time>2015-08-03T13:58:58.994Z</time>
      </trkpt>
      <trkpt lat="43.3263" lon="3.02397">
        <ele>31.9</ele>
        <time>2015-08-03T13:58:59.959Z</time>
      </trkpt>
      <trkpt lat="43.3263" lon="3.02406">
        <ele>31.7</ele>
        <time>2015-08-03T13:59:01.992Z</time>
      </trkpt>
      <trkpt lat="43.32629" lon="3.02411">
        <ele>31.8</ele>
        <time>2015-08-03T13:59:02.958Z</time>
      </trkpt>
      <trkpt lat="43.32628" lon="3.02422">
        <ele>32.1</ele>
        <time>2015-08-03T13:59:06.005Z</time>
      </trkpt>
      <trkpt lat="43.32627" lon="3.02426">
        <ele>32</ele>
        <time>2015-08-03T13:59:06.965Z</time>
      </trkpt>
      <trkpt lat="43.32626" lon="3.02436">
        <ele>33.1</ele>
        <time>2015-08-03T13:59:10.004Z</time>
      </trkpt>
      <trkpt lat="43.32626" lon="3.0244">
        <ele>33.3</ele>
        <time>2015-08-03T13:59:10.969Z</time>
      </trkpt>
      <trkpt lat="43.32625" lon="3.02451">
        <ele>33.2</ele>
        <time>2015-08-03T13:59:14.005Z</time>
      </trkpt>
      <trkpt lat="43.32624" lon="3.02456">
        <ele>33.4</ele>
        <time>2015-08-03T13:59:14.956Z</time>
      </trkpt>
      <trkpt lat="43.32623" lon="3.02468">
        <ele>34</ele>
        <time>2015-08-03T13:59:18.023Z</time>
      </trkpt>
      <trkpt lat="43.32623" lon="3.02472">
        <ele>33.9</ele>
        <time>2015-08-03T13:59:18.971Z</time>
      </trkpt>
      <trkpt lat="43.32623" lon="3.02484">
        <ele>33.5</ele>
        <time>2015-08-03T13:59:22.036Z</time>
      </trkpt>
      <trkpt lat="43.32623" lon="3.02488">
        <ele>33.5</ele>
        <time>2015-08-03T13:59:22.994Z</time>
      </trkpt>
      <trkpt lat="43.32623" lon="3.02497">
        <ele>32.9</ele>
        <time>2015-08-03T13:59:25.003Z</time>
      </trkpt>
      <trkpt lat="43.32623" lon="3.02502">
        <ele>32.7</ele>
        <time>2015-08-03T13:59:25.960Z</time>
      </trkpt>
      <trkpt lat="43.32623" lon="3.02513">
        <ele>32.5</ele>
        <time>2015-08-03T13:59:28.011Z</time>
      </trkpt>
      <trkpt lat="43.32623" lon="3.02517">
        <ele>32.2</ele>
        <time>2015-08-03T13:59:28.958Z</time>
      </trkpt>
      <trkpt lat="43.32623" lon="3.02527">
        <ele>32.2</ele>
        <time>2015-08-03T13:59:31.110Z</time>
      </trkpt>
      <trkpt lat="43.32624" lon="3.02532">
        <ele>32.1</ele>
        <time>2015-08-03T13:59:31.963Z</time>
      </trkpt>
      <trkpt lat="43.32624" lon="3.02542">
        <ele>31.8</ele>
        <time>2015-08-03T13:59:34.005Z</time>
      </trkpt>
      <trkpt lat="43.32625" lon="3.02547">
        <ele>31.8</ele>
        <time>2015-08-03T13:59:34.961Z</time>
      </trkpt>
      <trkpt lat="43.32625" lon="3.02557">
        <ele>31.4</ele>
        <time>2015-08-03T13:59:37.004Z</time>
      </trkpt>
      <trkpt lat="43.32626" lon="3.02562">
        <ele>31.2</ele>
        <time>2015-08-03T13:59:37.969Z</time>
      </trkpt>
      <trkpt lat="43.32627" lon="3.02572">
        <ele>31.1</ele>
        <time>2015-08-03T13:59:40.003Z</time>
      </trkpt>
      <trkpt lat="43.32627" lon="3.02577">
        <ele>31.3</ele>
        <time>2015-08-03T13:59:40.956Z</time>
      </trkpt>
      <trkpt lat="43.32628" lon="3.02587">
        <ele>31.3</ele>
        <time>2015-08-03T13:59:42.996Z</time>
      </trkpt>
      <trkpt lat="43.32629" lon="3.02592">
        <ele>31.1</ele>
        <time>2015-08-03T13:59:43.959Z</time>
      </trkpt>
      <trkpt lat="43.3263" lon="3.02602">
        <ele>30.9</ele>
        <time>2015-08-03T13:59:46.029Z</time>
      </trkpt>
      <trkpt lat="43.32631" lon="3.02607">
        <ele>30.9</ele>
        <time>2015-08-03T13:59:46.961Z</time>
      </trkpt>
      <trkpt lat="43.32632" lon="3.02617">
        <ele>30.7</ele>
        <time>2015-08-03T13:59:49.011Z</time>
      </trkpt>
      <trkpt lat="43.32633" lon="3.02622">
        <ele>30.6</ele>
        <time>2015-08-03T13:59:49.967Z</time>
      </trkpt>
      <trkpt lat="43.32635" lon="3.02631">
        <ele>30.6</ele>
        <time>2015-08-03T13:59:52.035Z</time>
      </trkpt>
      <trkpt lat="43.32636" lon="3.02636">
        <ele>30.9</ele>
        <time>2015-08-03T13:59:52.969Z</time>
      </trkpt>
      <trkpt lat="43.32639" lon="3.02645">
        <ele>31</ele>
        <time>2015-08-03T13:59:55.027Z</time>
      </trkpt>
      <trkpt lat="43.3264" lon="3.02649">
        <ele>31</ele>
        <time>2015-08-03T13:59:55.981Z</time>
      </trkpt>
      <trkpt lat="43.32643" lon="3.02658">
        <ele>31.2</ele>
        <time>2015-08-03T13:59:58.008Z</time>
      </trkpt>
      <trkpt lat="43.32644" lon="3.02662">
        <ele>31.1</ele>
        <time>2015-08-03T13:59:58.959Z</time>
      </trkpt>
      <trkpt lat="43.32646" lon="3.02671">
        <ele>31</ele>
        <time>2015-08-03T14:00:01.016Z</time>
      </trkpt>
      <trkpt lat="43.32647" lon="3.02674">
        <ele>31.1</ele>
        <time>2015-08-03T14:00:01.958Z</time>
      </trkpt>
      <trkpt lat="43.32649" lon="3.02683">
        <ele>30.6</ele>
        <time>2015-08-03T14:00:03.994Z</time>
      </trkpt>
      <trkpt lat="43.3265" lon="3.02688">
        <ele>30.4</ele>
        <time>2015-08-03T14:00:04.964Z</time>
      </trkpt>
      <trkpt lat="43.32652" lon="3.02696">
        <ele>31.2</ele>
        <time>2015-08-03T14:00:06.995Z</time>
      </trkpt>
      <trkpt lat="43.32654" lon="3.02699">
        <ele>31.1</ele>
        <time>2015-08-03T14:00:07.971Z</time>
      </trkpt>
      <trkpt lat="43.32656" lon="3.02708">
        <ele>30.9</ele>
        <time>2015-08-03T14:00:10.009Z</time>
      </trkpt>
      <trkpt lat="43.32657" lon="3.02712">
        <ele>30.7</ele>
        <time>2015-08-03T14:00:10.959Z</time>
      </trkpt>
      <trkpt lat="43.3266" lon="3.0272">
        <ele>30.9</ele>
        <time>2015-08-03T14:00:13.009Z</time>
      </trkpt>
      <trkpt lat="43.32661" lon="3.02724">
        <ele>30.8</ele>
        <time>2015-08-03T14:00:13.983Z</time>
      </trkpt>
      <trkpt lat="43.32664" lon="3.02731">
        <ele>30.7</ele>
        <time>2015-08-03T14:00:16.012Z</time>
      </trkpt>
      <trkpt lat="43.32666" lon="3.02736">
        <ele>30.7</ele>
        <time>2015-08-03T14:00:16.961Z</time>
      </trkpt>
      <trkpt lat="43.32669" lon="3.02744">
        <ele>31</ele>
        <time>2015-08-03T14:00:19.004Z</time>
      </trkpt>
      <trkpt lat="43.32671" lon="3.02748">
        <ele>31</ele>
        <time>2015-08-03T14:00:19.975Z</time>
      </trkpt>
      <trkpt lat="43.32675" lon="3.02756">
        <ele>31.1</ele>
        <time>2015-08-03T14:00:22.006Z</time>
      </trkpt>
      <trkpt lat="43.32676" lon="3.02759">
        <ele>31.1</ele>
        <time>2015-08-03T14:00:22.962Z</time>
      </trkpt>
      <trkpt lat="43.3268" lon="3.02766">
        <ele>31.1</ele>
        <time>2015-08-03T14:00:25.003Z</time>
      </trkpt>
      <trkpt lat="43.32682" lon="3.02769">
        <ele>31.1</ele>
        <time>2015-08-03T14:00:25.983Z</time>
      </trkpt>
      <trkpt lat="43.32685" lon="3.02776">
        <ele>30.8</ele>
        <time>2015-08-03T14:00:28.347Z</time>
      </trkpt>
      <trkpt lat="43.32687" lon="3.0278">
        <ele>30.4</ele>
        <time>2015-08-03T14:00:28.959Z</time>
      </trkpt>
      <trkpt lat="43.3269" lon="3.02789">
        <ele>30</ele>
        <time>2015-08-03T14:00:31.011Z</time>
      </trkpt>
      <trkpt lat="43.32692" lon="3.02793">
        <ele>30.1</ele>
        <time>2015-08-03T14:00:31.993Z</time>
      </trkpt>
      <trkpt lat="43.32694" lon="3.02804">
        <ele>29.6</ele>
        <time>2015-08-03T14:00:33.997Z</time>
      </trkpt>
      <trkpt lat="43.32696" lon="3.02809">
        <ele>29.9</ele>
        <time>2015-08-03T14:00:34.960Z</time>
      </trkpt>
      <trkpt lat="43.32698" lon="3.02819">
        <ele>29.7</ele>
        <time>2015-08-03T14:00:36.994Z</time>
      </trkpt>
      <trkpt lat="43.32699" lon="3.02824">
        <ele>29.5</ele>
        <time>2015-08-03T14:00:37.958Z</time>
      </trkpt>
      <trkpt lat="43.32701" lon="3.02833">
        <ele>29.8</ele>
        <time>2015-08-03T14:00:40.003Z</time>
      </trkpt>
      <trkpt lat="43.32702" lon="3.02838">
        <ele>29.8</ele>
        <time>2015-08-03T14:00:40.956Z</time>
      </trkpt>
      <trkpt lat="43.32704" lon="3.02848">
        <ele>30</ele>
        <time>2015-08-03T14:00:43.000Z</time>
      </trkpt>
      <trkpt lat="43.32705" lon="3.02853">
        <ele>30.1</ele>
        <time>2015-08-03T14:00:43.956Z</time>
      </trkpt>
      <trkpt lat="43.32707" lon="3.02862">
        <ele>30.8</ele>
        <time>2015-08-03T14:00:46.003Z</time>
      </trkpt>
      <trkpt lat="43.32708" lon="3.02866">
        <ele>30.4</ele>
        <time>2015-08-03T14:00:46.962Z</time>
      </trkpt>
      <trkpt lat="43.3271" lon="3.02876">
        <ele>30.1</ele>
        <time>2015-08-03T14:00:49.027Z</time>
      </trkpt>
      <trkpt lat="43.3271" lon="3.0288">
        <ele>30.3</ele>
        <time>2015-08-03T14:00:49.957Z</time>
      </trkpt>
      <trkpt lat="43.32712" lon="3.02889">
        <ele>31.1</ele>
        <time>2015-08-03T14:00:52.000Z</time>
      </trkpt>
      <trkpt lat="43.32714" lon="3.02893">
        <ele>31.4</ele>
        <time>2015-08-03T14:00:52.956Z</time>
      </trkpt>
      <trkpt lat="43.32715" lon="3.02902">
        <ele>31.9</ele>
        <time>2015-08-03T14:00:55.007Z</time>
      </trkpt>
      <trkpt lat="43.32716" lon="3.02906">
        <ele>32.2</ele>
        <time>2015-08-03T14:00:55.957Z</time>
      </trkpt>
      <trkpt lat="43.32717" lon="3.02915">
        <ele>32.4</ele>
        <time>2015-08-03T14:00:58.006Z</time>
      </trkpt>
      <trkpt lat="43.32718" lon="3.0292">
        <ele>32.9</ele>
        <time>2015-08-03T14:00:58.956Z</time>
      </trkpt>
      <trkpt lat="43.32719" lon="3.02927">
        <ele>33.1</ele>
        <time>2015-08-03T14:01:01.005Z</time>
      </trkpt>
      <trkpt lat="43.32719" lon="3.02932">
        <ele>33.1</ele>
        <time>2015-08-03T14:01:01.957Z</time>
      </trkpt>
      <trkpt lat="43.32721" lon="3.02941">
        <ele>32.7</ele>
        <time>2015-08-03T14:01:04.072Z</time>
      </trkpt>
      <trkpt lat="43.32721" lon="3.02945">
        <ele>33.2</ele>
        <time>2015-08-03T14:01:04.979Z</time>
      </trkpt>
      <trkpt lat="43.32723" lon="3.02955">
        <ele>32.4</ele>
        <time>2015-08-03T14:01:07.004Z</time>
      </trkpt>
      <trkpt lat="43.32723" lon="3.02959">
        <ele>32.4</ele>
        <time>2015-08-03T14:01:07.956Z</time>
      </trkpt>
      <trkpt lat="43.32724" lon="3.02969">
        <ele>32.3</ele>
        <time>2015-08-03T14:01:10.014Z</time>
      </trkpt>
      <trkpt lat="43.32724" lon="3.02974">
        <ele>32.4</ele>
        <time>2015-08-03T14:01:10.956Z</time>
      </trkpt>
      <trkpt lat="43.32726" lon="3.02982">
        <ele>33.4</ele>
        <time>2015-08-03T14:01:13.059Z</time>
      </trkpt>
      <trkpt lat="43.32727" lon="3.02985">
        <ele>33.4</ele>
        <time>2015-08-03T14:01:13.963Z</time>
      </trkpt>
      <trkpt lat="43.32729" lon="3.02996">
        <ele>33.6</ele>
        <time>2015-08-03T14:01:16.992Z</time>
      </trkpt>
      <trkpt lat="43.3273" lon="3.02999">
        <ele>33.8</ele>
        <time>2015-08-03T14:01:17.980Z</time>
      </trkpt>
      <trkpt lat="43.32732" lon="3.03008">
        <ele>34.2</ele>
        <time>2015-08-03T14:01:20.006Z</time>
      </trkpt>
      <trkpt lat="43.32733" lon="3.03013">
        <ele>34.1</ele>
        <time>2015-08-03T14:01:20.957Z</time>
      </trkpt>
      <trkpt lat="43.32734" lon="3.03022">
        <ele>34</ele>
        <time>2015-08-03T14:01:22.994Z</time>
      </trkpt>
      <trkpt lat="43.32736" lon="3.03026">
        <ele>34</ele>
        <time>2015-08-03T14:01:23.962Z</time>
      </trkpt>
      <trkpt lat="43.32738" lon="3.03036">
        <ele>33.7</ele>
        <time>2015-08-03T14:01:26.373Z</time>
      </trkpt>
      <trkpt lat="43.32739" lon="3.0304">
        <ele>33.8</ele>
        <time>2015-08-03T14:01:26.959Z</time>
      </trkpt>
      <trkpt lat="43.32741" lon="3.0305">
        <ele>33.3</ele>
        <time>2015-08-03T14:01:28.998Z</time>
      </trkpt>
      <trkpt lat="43.32743" lon="3.03055">
        <ele>33.1</ele>
        <time>2015-08-03T14:01:29.964Z</time>
      </trkpt>
      <trkpt lat="43.32745" lon="3.03063">
        <ele>33</ele>
        <time>2015-08-03T14:01:31.999Z</time>
      </trkpt>
      <trkpt lat="43.32747" lon="3.03067">
        <ele>33</ele>
        <time>2015-08-03T14:01:32.959Z</time>
      </trkpt>
      <trkpt lat="43.32749" lon="3.03075">
        <ele>33</ele>
        <time>2015-08-03T14:01:34.997Z</time>
      </trkpt>
      <trkpt lat="43.3275" lon="3.0308">
        <ele>32.8</ele>
        <time>2015-08-03T14:01:36.110Z</time>
      </trkpt>
      <trkpt lat="43.32753" lon="3.03089">
        <ele>32.6</ele>
        <time>2015-08-03T14:01:38.474Z</time>
      </trkpt>
      <trkpt lat="43.32754" lon="3.03093">
        <ele>32.5</ele>
        <time>2015-08-03T14:01:39.018Z</time>
      </trkpt>
      <trkpt lat="43.32757" lon="3.03102">
        <ele>32.4</ele>
        <time>2015-08-03T14:01:41.000Z</time>
      </trkpt>
      <trkpt lat="43.32759" lon="3.03106">
        <ele>32.3</ele>
        <time>2015-08-03T14:01:41.961Z</time>
      </trkpt>
      <trkpt lat="43.32762" lon="3.03114">
        <ele>32.1</ele>
        <time>2015-08-03T14:01:43.999Z</time>
      </trkpt>
      <trkpt lat="43.32764" lon="3.03118">
        <ele>31.9</ele>
        <time>2015-08-03T14:01:44.961Z</time>
      </trkpt>
      <trkpt lat="43.32767" lon="3.03126">
        <ele>31.6</ele>
        <time>2015-08-03T14:01:46.996Z</time>
      </trkpt>
      <trkpt lat="43.32769" lon="3.0313">
        <ele>31.3</ele>
        <time>2015-08-03T14:01:47.961Z</time>
      </trkpt>
      <trkpt lat="43.32773" lon="3.03137">
        <ele>30.7</ele>
        <time>2015-08-03T14:01:50.031Z</time>
      </trkpt>
      <trkpt lat="43.32775" lon="3.0314">
        <ele>30.3</ele>
        <time>2015-08-03T14:01:50.962Z</time>
      </trkpt>
      <trkpt lat="43.3278" lon="3.03147">
        <ele>29.9</ele>
        <time>2015-08-03T14:01:54.007Z</time>
      </trkpt>
      <trkpt lat="43.32781" lon="3.03149">
        <ele>29.9</ele>
        <time>2015-08-03T14:01:54.963Z</time>
      </trkpt>
      <trkpt lat="43.32783" lon="3.03153">
        <ele>30</ele>
        <time>2015-08-03T14:01:57.009Z</time>
      </trkpt>
      <trkpt lat="43.32784" lon="3.03154">
        <ele>29.9</ele>
        <time>2015-08-03T14:01:57.961Z</time>
      </trkpt>
      <trkpt lat="43.32783" lon="3.03154">
        <ele>29.4</ele>
        <time>2015-08-03T14:02:11.013Z</time>
      </trkpt>
      <trkpt lat="43.32784" lon="3.03154">
        <ele>28</ele>
        <time>2015-08-03T14:02:11.956Z</time>
      </trkpt>
      <trkpt lat="43.32789" lon="3.03156">
        <ele>28.3</ele>
        <time>2015-08-03T14:02:15.000Z</time>
      </trkpt>
      <trkpt lat="43.32792" lon="3.03157">
        <ele>28.4</ele>
        <time>2015-08-03T14:02:15.966Z</time>
      </trkpt>
      <trkpt lat="43.32798" lon="3.03161">
        <ele>29</ele>
        <time>2015-08-03T14:02:18.005Z</time>
      </trkpt>
      <trkpt lat="43.32802" lon="3.03162">
        <ele>29.4</ele>
        <time>2015-08-03T14:02:18.962Z</time>
      </trkpt>
      <trkpt lat="43.3281" lon="3.03164">
        <ele>30.2</ele>
        <time>2015-08-03T14:02:21.403Z</time>
      </trkpt>
      <trkpt lat="43.32814" lon="3.03164">
        <ele>30.1</ele>
        <time>2015-08-03T14:02:21.965Z</time>
      </trkpt>
      <trkpt lat="43.32822" lon="3.03162">
        <ele>30.3</ele>
        <time>2015-08-03T14:02:24.016Z</time>
      </trkpt>
      <trkpt lat="43.32826" lon="3.03161">
        <ele>30.3</ele>
        <time>2015-08-03T14:02:24.959Z</time>
      </trkpt>
      <trkpt lat="43.32832" lon="3.03157">
        <ele>31.1</ele>
        <time>2015-08-03T14:02:27.000Z</time>
      </trkpt>
      <trkpt lat="43.32835" lon="3.03156">
        <ele>31</ele>
        <time>2015-08-03T14:02:27.981Z</time>
      </trkpt>
      <trkpt lat="43.32843" lon="3.03152">
        <ele>31</ele>
        <time>2015-08-03T14:02:30.050Z</time>
      </trkpt>
      <trkpt lat="43.32846" lon="3.0315">
        <ele>30.6</ele>
        <time>2015-08-03T14:02:30.962Z</time>
      </trkpt>
      <trkpt lat="43.32853" lon="3.03145">
        <ele>30.1</ele>
        <time>2015-08-03T14:02:33.003Z</time>
      </trkpt>
      <trkpt lat="43.32857" lon="3.03142">
        <ele>29.9</ele>
        <time>2015-08-03T14:02:33.962Z</time>
      </trkpt>
      <trkpt lat="43.32863" lon="3.03137">
        <ele>29.3</ele>
        <time>2015-08-03T14:02:36.075Z</time>
      </trkpt>
      <trkpt lat="43.32866" lon="3.03134">
        <ele>29.1</ele>
        <time>2015-08-03T14:02:36.962Z</time>
      </trkpt>
      <trkpt lat="43.32872" lon="3.03128">
        <ele>28.5</ele>
        <time>2015-08-03T14:02:39.002Z</time>
      </trkpt>
      <trkpt lat="43.32875" lon="3.03126">
        <ele>28.3</ele>
        <time>2015-08-03T14:02:39.963Z</time>
      </trkpt>
      <trkpt lat="43.32881" lon="3.0312">
        <ele>28.2</ele>
        <time>2015-08-03T14:02:42.013Z</time>
      </trkpt>
      <trkpt lat="43.32884" lon="3.03117">
        <ele>28.5</ele>
        <time>2015-08-03T14:02:42.972Z</time>
      </trkpt>
      <trkpt lat="43.32891" lon="3.03111">
        <ele>28.8</ele>
        <time>2015-08-03T14:02:45.001Z</time>
      </trkpt>
      <trkpt lat="43.32894" lon="3.03108">
        <ele>28.6</ele>
        <time>2015-08-03T14:02:45.961Z</time>
      </trkpt>
      <trkpt lat="43.329" lon="3.03101">
        <ele>27.6</ele>
        <time>2015-08-03T14:02:48.018Z</time>
      </trkpt>
      <trkpt lat="43.32903" lon="3.03097">
        <ele>28</ele>
        <time>2015-08-03T14:02:48.961Z</time>
      </trkpt>
      <trkpt lat="43.32909" lon="3.03091">
        <ele>28.2</ele>
        <time>2015-08-03T14:02:51.024Z</time>
      </trkpt>
      <trkpt lat="43.32911" lon="3.03088">
        <ele>28.4</ele>
        <time>2015-08-03T14:02:51.964Z</time>
      </trkpt>
      <trkpt lat="43.32916" lon="3.03081">
        <ele>28.6</ele>
        <time>2015-08-03T14:02:54.019Z</time>
      </trkpt>
      <trkpt lat="43.32918" lon="3.03077">
        <ele>28.9</ele>
        <time>2015-08-03T14:02:54.963Z</time>
      </trkpt>
      <trkpt lat="43.32923" lon="3.03069">
        <ele>29.6</ele>
        <time>2015-08-03T14:02:57.999Z</time>
      </trkpt>
      <trkpt lat="43.32925" lon="3.03066">
        <ele>29.7</ele>
        <time>2015-08-03T14:02:58.959Z</time>
      </trkpt>
      <trkpt lat="43.32929" lon="3.03057">
        <ele>30.1</ele>
        <time>2015-08-03T14:03:02.056Z</time>
      </trkpt>
      <trkpt lat="43.32931" lon="3.03054">
        <ele>30.3</ele>
        <time>2015-08-03T14:03:02.969Z</time>
      </trkpt>
      <trkpt lat="43.32935" lon="3.03048">
        <ele>30.6</ele>
        <time>2015-08-03T14:03:05.020Z</time>
      </trkpt>
      <trkpt lat="43.32937" lon="3.03045">
        <ele>30.6</ele>
        <time>2015-08-03T14:03:05.970Z</time>
      </trkpt>
      <trkpt lat="43.32942" lon="3.03034">
        <ele>31.3</ele>
        <time>2015-08-03T14:03:09.002Z</time>
      </trkpt>
      <trkpt lat="43.32943" lon="3.03031">
        <ele>31.2</ele>
        <time>2015-08-03T14:03:09.961Z</time>
      </trkpt>
      <trkpt lat="43.32948" lon="3.03021">
        <ele>30.8</ele>
        <time>2015-08-03T14:03:13.001Z</time>
      </trkpt>
      <trkpt lat="43.32949" lon="3.03018">
        <ele>30.5</ele>
        <time>2015-08-03T14:03:13.962Z</time>
      </trkpt>
      <trkpt lat="43.32953" lon="3.0301">
        <ele>30.2</ele>
        <time>2015-08-03T14:03:16.012Z</time>
      </trkpt>
      <trkpt lat="43.32955" lon="3.03005">
        <ele>28.8</ele>
        <time>2015-08-03T14:03:16.960Z</time>
      </trkpt>
      <trkpt lat="43.32958" lon="3.02997">
        <ele>27.7</ele>
        <time>2015-08-03T14:03:19.008Z</time>
      </trkpt>
      <trkpt lat="43.3296" lon="3.02993">
        <ele>26.6</ele>
        <time>2015-08-03T14:03:19.964Z</time>
      </trkpt>
      <trkpt lat="43.32963" lon="3.02985">
        <ele>25.4</ele>
        <time>2015-08-03T14:03:22.025Z</time>
      </trkpt>
      <trkpt lat="43.32965" lon="3.02982">
        <ele>25.2</ele>
        <time>2015-08-03T14:03:22.959Z</time>
      </trkpt>
      <trkpt lat="43.32969" lon="3.02974">
        <ele>25.1</ele>
        <time>2015-08-03T14:03:25.025Z</time>
      </trkpt>
      <trkpt lat="43.32971" lon="3.02971">
        <ele>24.9</ele>
        <time>2015-08-03T14:03:25.971Z</time>
      </trkpt>
      <trkpt lat="43.32975" lon="3.02962">
        <ele>25.3</ele>
        <time>2015-08-03T14:03:29.019Z</time>
      </trkpt>
      <trkpt lat="43.32976" lon="3.02959">
        <ele>25.4</ele>
        <time>2015-08-03T14:03:29.960Z</time>
      </trkpt>
      <trkpt lat="43.32981" lon="3.0295">
        <ele>25.9</ele>
        <time>2015-08-03T14:03:34.009Z</time>
      </trkpt>
      <trkpt lat="43.32982" lon="3.02948">
        <ele>25.9</ele>
        <time>2015-08-03T14:03:34.958Z</time>
      </trkpt>
      <trkpt lat="43.32987" lon="3.0294">
        <ele>26.5</ele>
        <time>2015-08-03T14:03:39.035Z</time>
      </trkpt>
      <trkpt lat="43.32988" lon="3.02938">
        <ele>26.6</ele>
        <time>2015-08-03T14:03:39.970Z</time>
      </trkpt>
      <trkpt lat="43.32993" lon="3.02931">
        <ele>26.9</ele>
        <time>2015-08-03T14:03:43.009Z</time>
      </trkpt>
      <trkpt lat="43.32994" lon="3.02928">
        <ele>26.6</ele>
        <time>2015-08-03T14:03:43.965Z</time>
      </trkpt>
      <trkpt lat="43.33" lon="3.02921">
        <ele>26.7</ele>
        <time>2015-08-03T14:03:47.009Z</time>
      </trkpt>
      <trkpt lat="43.33001" lon="3.02919">
        <ele>26.8</ele>
        <time>2015-08-03T14:03:47.983Z</time>
      </trkpt>
      <trkpt lat="43.33007" lon="3.02911">
        <ele>26.7</ele>
        <time>2015-08-03T14:03:50.996Z</time>
      </trkpt>
      <trkpt lat="43.33009" lon="3.02909">
        <ele>26.5</ele>
        <time>2015-08-03T14:03:51.960Z</time>
      </trkpt>
      <trkpt lat="43.33015" lon="3.02901">
        <ele>26.4</ele>
        <time>2015-08-03T14:03:54.993Z</time>
      </trkpt>
      <trkpt lat="43.33017" lon="3.02899">
        <ele>26.6</ele>
        <time>2015-08-03T14:03:55.956Z</time>
      </trkpt>
      <trkpt lat="43.33023" lon="3.02892">
        <ele>27.5</ele>
        <time>2015-08-03T14:03:59.036Z</time>
      </trkpt>
      <trkpt lat="43.33025" lon="3.0289">
        <ele>27.7</ele>
        <time>2015-08-03T14:03:59.982Z</time>
      </trkpt>
      <trkpt lat="43.33029" lon="3.02885">
        <ele>27.7</ele>
        <time>2015-08-03T14:04:02.002Z</time>
      </trkpt>
      <trkpt lat="43.33032" lon="3.02882">
        <ele>27.7</ele>
        <time>2015-08-03T14:04:02.956Z</time>
      </trkpt>
      <trkpt lat="43.33037" lon="3.02877">
        <ele>27.6</ele>
        <time>2015-08-03T14:04:05.045Z</time>
      </trkpt>
      <trkpt lat="43.3304" lon="3.02874">
        <ele>27.6</ele>
        <time>2015-08-03T14:04:05.962Z</time>
      </trkpt>
      <trkpt lat="43.33046" lon="3.02867">
        <ele>27.5</ele>
        <time>2015-08-03T14:04:09.004Z</time>
      </trkpt>
      <trkpt lat="43.33048" lon="3.02866">
        <ele>27.7</ele>
        <time>2015-08-03T14:04:09.958Z</time>
      </trkpt>
      <trkpt lat="43.33053" lon="3.02859">
        <ele>28.4</ele>
        <time>2015-08-03T14:04:14.029Z</time>
      </trkpt>
      <trkpt lat="43.33055" lon="3.02857">
        <ele>28.3</ele>
        <time>2015-08-03T14:04:14.959Z</time>
      </trkpt>
      <trkpt lat="43.33063" lon="3.02852">
        <ele>29</ele>
        <time>2015-08-03T14:04:19.002Z</time>
      </trkpt>
      <trkpt lat="43.33066" lon="3.0285">
        <ele>29</ele>
        <time>2015-08-03T14:04:19.992Z</time>
      </trkpt>
      <trkpt lat="43.33074" lon="3.02848">
        <ele>28.8</ele>
        <time>2015-08-03T14:04:23.001Z</time>
      </trkpt>
      <trkpt lat="43.33078" lon="3.02846">
        <ele>28</ele>
        <time>2015-08-03T14:04:23.960Z</time>
      </trkpt>
      <trkpt lat="43.33085" lon="3.02841">
        <ele>26.5</ele>
        <time>2015-08-03T14:04:27.040Z</time>
      </trkpt>
      <trkpt lat="43.33088" lon="3.0284">
        <ele>26.3</ele>
        <time>2015-08-03T14:04:27.964Z</time>
      </trkpt>
      <trkpt lat="43.33095" lon="3.02838">
        <ele>26.6</ele>
        <time>2015-08-03T14:04:30.007Z</time>
      </trkpt>
      <trkpt lat="43.33098" lon="3.02837">
        <ele>26.5</ele>
        <time>2015-08-03T14:04:30.978Z</time>
      </trkpt>
      <trkpt lat="43.33105" lon="3.02837">
        <ele>25.8</ele>
        <time>2015-08-03T14:04:32.999Z</time>
      </trkpt>
      <trkpt lat="43.3311" lon="3.02838">
        <ele>25.4</ele>
        <time>2015-08-03T14:04:33.982Z</time>
      </trkpt>
      <trkpt lat="43.33118" lon="3.02841">
        <ele>24.8</ele>
        <time>2015-08-03T14:04:35.998Z</time>
      </trkpt>
      <trkpt lat="43.33122" lon="3.02842">
        <ele>24.8</ele>
        <time>2015-08-03T14:04:36.961Z</time>
      </trkpt>
      <trkpt lat="43.3313" lon="3.02847">
        <ele>25.1</ele>
        <time>2015-08-03T14:04:39.005Z</time>
      </trkpt>
      <trkpt lat="43.33133" lon="3.02849">
        <ele>25</ele>
        <time>2015-08-03T14:04:39.962Z</time>
      </trkpt>
      <trkpt lat="43.3314" lon="3.02853">
        <ele>25.4</ele>
        <time>2015-08-03T14:04:42.010Z</time>
      </trkpt>
      <trkpt lat="43.33143" lon="3.02855">
        <ele>25.4</ele>
        <time>2015-08-03T14:04:42.958Z</time>
      </trkpt>
      <trkpt lat="43.3315" lon="3.02859">
        <ele>25.3</ele>
        <time>2015-08-03T14:04:44.999Z</time>
      </trkpt>
      <trkpt lat="43.33153" lon="3.02862">
        <ele>25.3</ele>
        <time>2015-08-03T14:04:45.969Z</time>
      </trkpt>
      <trkpt lat="43.33158" lon="3.02867">
        <ele>25.4</ele>
        <time>2015-08-03T14:04:48.010Z</time>
      </trkpt>
      <trkpt lat="43.33161" lon="3.02871">
        <ele>25.6</ele>
        <time>2015-08-03T14:04:48.962Z</time>
      </trkpt>
      <trkpt lat="43.33167" lon="3.02877">
        <ele>26.8</ele>
        <time>2015-08-03T14:04:51.001Z</time>
      </trkpt>
      <trkpt lat="43.33169" lon="3.0288">
        <ele>27.6</ele>
        <time>2015-08-03T14:04:51.960Z</time>
      </trkpt>
      <trkpt lat="43.33175" lon="3.02888">
        <ele>27.9</ele>
        <time>2015-08-03T14:04:54.101Z</time>
      </trkpt>
      <trkpt lat="43.33177" lon="3.02892">
        <ele>27.8</ele>
        <time>2015-08-03T14:04:54.966Z</time>
      </trkpt>
      <trkpt lat="43.33182" lon="3.029">
        <ele>28.4</ele>
        <time>2015-08-03T14:04:56.999Z</time>
      </trkpt>
      <trkpt lat="43.33184" lon="3.02903">
        <ele>29</ele>
        <time>2015-08-03T14:04:57.965Z</time>
      </trkpt>
      <trkpt lat="43.33187" lon="3.0291">
        <ele>29.1</ele>
        <time>2015-08-03T14:05:00.122Z</time>
      </trkpt>
      <trkpt lat="43.33188" lon="3.02915">
        <ele>29.5</ele>
        <time>2015-08-03T14:05:00.959Z</time>
      </trkpt>
      <trkpt lat="43.3319" lon="3.02924">
        <ele>29.8</ele>
        <time>2015-08-03T14:05:03.000Z</time>
      </trkpt>
      <trkpt lat="43.3319" lon="3.02929">
        <ele>30</ele>
        <time>2015-08-03T14:05:03.956Z</time>
      </trkpt>
      <trkpt lat="43.3319" lon="3.02938">
        <ele>30.3</ele>
        <time>2015-08-03T14:05:06.359Z</time>
      </trkpt>
      <trkpt lat="43.3319" lon="3.02943">
        <ele>30</ele>
        <time>2015-08-03T14:05:06.961Z</time>
      </trkpt>
      <trkpt lat="43.3319" lon="3.02952">
        <ele>29.7</ele>
        <time>2015-08-03T14:05:09.007Z</time>
      </trkpt>
      <trkpt lat="43.3319" lon="3.02957">
        <ele>29.6</ele>
        <time>2015-08-03T14:05:09.965Z</time>
      </trkpt>
      <trkpt lat="43.3319" lon="3.02968">
        <ele>29</ele>
        <time>2015-08-03T14:05:12.009Z</time>
      </trkpt>
      <trkpt lat="43.33189" lon="3.02973">
        <ele>28.9</ele>
        <time>2015-08-03T14:05:13.254Z</time>
      </trkpt>
      <trkpt lat="43.33188" lon="3.02985">
        <ele>28.7</ele>
        <time>2015-08-03T14:05:15.001Z</time>
      </trkpt>
      <trkpt lat="43.33188" lon="3.0299">
        <ele>28.8</ele>
        <time>2015-08-03T14:05:15.965Z</time>
      </trkpt>
      <trkpt lat="43.33187" lon="3.03001">
        <ele>28.6</ele>
        <time>2015-08-03T14:05:18.001Z</time>
      </trkpt>
      <trkpt lat="43.33186" lon="3.03007">
        <ele>28.4</ele>
        <time>2015-08-03T14:05:18.961Z</time>
      </trkpt>
      <trkpt lat="43.33184" lon="3.03019">
        <ele>28.1</ele>
        <time>2015-08-03T14:05:21.004Z</time>
      </trkpt>
      <trkpt lat="43.33183" lon="3.03025">
        <ele>28.2</ele>
        <time>2015-08-03T14:05:21.959Z</time>
      </trkpt>
      <trkpt lat="43.33181" lon="3.03035">
        <ele>28.4</ele>
        <time>2015-08-03T14:05:24.014Z</time>
      </trkpt>
      <trkpt lat="43.3318" lon="3.0304">
        <ele>28.5</ele>
        <time>2015-08-03T14:05:24.959Z</time>
      </trkpt>
      <trkpt lat="43.33179" lon="3.0305">
        <ele>28.4</ele>
        <time>2015-08-03T14:05:26.997Z</time>
      </trkpt>
      <trkpt lat="43.33178" lon="3.03056">
        <ele>28.5</ele>
        <time>2015-08-03T14:05:27.965Z</time>
      </trkpt>
      <trkpt lat="43.33176" lon="3.03067">
        <ele>28.8</ele>
        <time>2015-08-03T14:05:30.044Z</time>
      </trkpt>
      <trkpt lat="43.33175" lon="3.03073">
        <ele>28.7</ele>
        <time>2015-08-03T14:05:30.971Z</time>
      </trkpt>
      <trkpt lat="43.33173" lon="3.03084">
        <ele>28.6</ele>
        <time>2015-08-03T14:05:32.998Z</time>
      </trkpt>
      <trkpt lat="43.33173" lon="3.0309">
        <ele>28.4</ele>
        <time>2015-08-03T14:05:33.967Z</time>
      </trkpt>
      <trkpt lat="43.33171" lon="3.031">
        <ele>28.3</ele>
        <time>2015-08-03T14:05:36.008Z</time>
      </trkpt>
      <trkpt lat="43.3317" lon="3.03105">
        <ele>28.2</ele>
        <time>2015-08-03T14:05:36.965Z</time>
      </trkpt>
      <trkpt lat="43.33169" lon="3.03115">
        <ele>28.2</ele>
        <time>2015-08-03T14:05:39.026Z</time>
      </trkpt>
      <trkpt lat="43.33169" lon="3.0312">
        <ele>28.1</ele>
        <time>2015-08-03T14:05:39.981Z</time>
      </trkpt>
      <trkpt lat="43.33167" lon="3.0313">
        <ele>28.7</ele>
        <time>2015-08-03T14:05:42.016Z</time>
      </trkpt>
      <trkpt lat="43.33166" lon="3.03134">
        <ele>28.5</ele>
        <time>2015-08-03T14:05:42.962Z</time>
      </trkpt>
      <trkpt lat="43.33164" lon="3.03142">
        <ele>28.8</ele>
        <time>2015-08-03T14:05:44.997Z</time>
      </trkpt>
      <trkpt lat="43.33163" lon="3.03147">
        <ele>28.8</ele>
        <time>2015-08-03T14:05:45.962Z</time>
      </trkpt>
      <trkpt lat="43.3316" lon="3.03156">
        <ele>28.9</ele>
        <time>2015-08-03T14:05:48.034Z</time>
      </trkpt>
      <trkpt lat="43.3316" lon="3.03161">
        <ele>28.9</ele>
        <time>2015-08-03T14:05:48.972Z</time>
      </trkpt>
      <trkpt lat="43.33158" lon="3.03171">
        <ele>28.8</ele>
        <time>2015-08-03T14:05:50.997Z</time>
      </trkpt>
      <trkpt lat="43.33158" lon="3.03176">
        <ele>28.9</ele>
        <time>2015-08-03T14:05:51.962Z</time>
      </trkpt>
      <trkpt lat="43.33156" lon="3.03186">
        <ele>28.9</ele>
        <time>2015-08-03T14:05:54.012Z</time>
      </trkpt>
      <trkpt lat="43.33155" lon="3.03191">
        <ele>29.1</ele>
        <time>2015-08-03T14:05:54.960Z</time>
      </trkpt>
      <trkpt lat="43.33154" lon="3.03201">
        <ele>29</ele>
        <time>2015-08-03T14:05:57.020Z</time>
      </trkpt>
      <trkpt lat="43.33154" lon="3.03206">
        <ele>28.8</ele>
        <time>2015-08-03T14:05:57.983Z</time>
      </trkpt>
      <trkpt lat="43.33152" lon="3.03215">
        <ele>29.3</ele>
        <time>2015-08-03T14:06:00.011Z</time>
      </trkpt>
      <trkpt lat="43.33152" lon="3.0322">
        <ele>29.2</ele>
        <time>2015-08-03T14:06:00.978Z</time>
      </trkpt>
      <trkpt lat="43.3315" lon="3.0323">
        <ele>29.8</ele>
        <time>2015-08-03T14:06:02.997Z</time>
      </trkpt>
      <trkpt lat="43.3315" lon="3.03236">
        <ele>30</ele>
        <time>2015-08-03T14:06:03.967Z</time>
      </trkpt>
      <trkpt lat="43.33148" lon="3.03246">
        <ele>29.7</ele>
        <time>2015-08-03T14:06:06.045Z</time>
      </trkpt>
      <trkpt lat="43.33148" lon="3.03251">
        <ele>30.1</ele>
        <time>2015-08-03T14:06:06.972Z</time>
      </trkpt>
      <trkpt lat="43.33146" lon="3.03261">
        <ele>29.6</ele>
        <time>2015-08-03T14:06:09.009Z</time>
      </trkpt>
      <trkpt lat="43.33145" lon="3.03266">
        <ele>29.7</ele>
        <time>2015-08-03T14:06:09.963Z</time>
      </trkpt>
      <trkpt lat="43.33143" lon="3.03276">
        <ele>29.8</ele>
        <time>2015-08-03T14:06:12.027Z</time>
      </trkpt>
      <trkpt lat="43.33143" lon="3.03281">
        <ele>29.8</ele>
        <time>2015-08-03T14:06:12.960Z</time>
      </trkpt>
      <trkpt lat="43.3314" lon="3.0329">
        <ele>30.2</ele>
        <time>2015-08-03T14:06:15.013Z</time>
      </trkpt>
      <trkpt lat="43.33139" lon="3.03295">
        <ele>30.5</ele>
        <time>2015-08-03T14:06:15.957Z</time>
      </trkpt>
      <trkpt lat="43.33137" lon="3.03305">
        <ele>30.8</ele>
        <time>2015-08-03T14:06:18.007Z</time>
      </trkpt>
      <trkpt lat="43.33136" lon="3.0331">
        <ele>31.1</ele>
        <time>2015-08-03T14:06:18.962Z</time>
      </trkpt>
      <trkpt lat="43.33133" lon="3.0332">
        <ele>31.5</ele>
        <time>2015-08-03T14:06:20.999Z</time>
      </trkpt>
      <trkpt lat="43.33132" lon="3.03325">
        <ele>31.7</ele>
        <time>2015-08-03T14:06:21.965Z</time>
      </trkpt>
      <trkpt lat="43.3313" lon="3.03334">
        <ele>31.6</ele>
        <time>2015-08-03T14:06:24.006Z</time>
      </trkpt>
      <trkpt lat="43.33128" lon="3.03339">
        <ele>31.8</ele>
        <time>2015-08-03T14:06:24.963Z</time>
      </trkpt>
      <trkpt lat="43.33127" lon="3.03348">
        <ele>32</ele>
        <time>2015-08-03T14:06:27.248Z</time>
      </trkpt>
      <trkpt lat="43.33125" lon="3.03353">
        <ele>31.9</ele>
        <time>2015-08-03T14:06:27.967Z</time>
      </trkpt>
      <trkpt lat="43.33123" lon="3.03363">
        <ele>32.3</ele>
        <time>2015-08-03T14:06:30.027Z</time>
      </trkpt>
      <trkpt lat="43.33122" lon="3.03368">
        <ele>32.1</ele>
        <time>2015-08-03T14:06:30.978Z</time>
      </trkpt>
      <trkpt lat="43.33119" lon="3.03378">
        <ele>31.5</ele>
        <time>2015-08-03T14:06:33.000Z</time>
      </trkpt>
      <trkpt lat="43.33118" lon="3.03383">
        <ele>31.3</ele>
        <time>2015-08-03T14:06:34.320Z</time>
      </trkpt>
      <trkpt lat="43.33116" lon="3.03393">
        <ele>31.2</ele>
        <time>2015-08-03T14:06:36.008Z</time>
      </trkpt>
      <trkpt lat="43.33114" lon="3.03397">
        <ele>31.3</ele>
        <time>2015-08-03T14:06:36.971Z</time>
      </trkpt>
      <trkpt lat="43.33112" lon="3.03407">
        <ele>30.9</ele>
        <time>2015-08-03T14:06:39.033Z</time>
      </trkpt>
      <trkpt lat="43.3311" lon="3.03412">
        <ele>30.8</ele>
        <time>2015-08-03T14:06:39.963Z</time>
      </trkpt>
      <trkpt lat="43.33108" lon="3.03422">
        <ele>31</ele>
        <time>2015-08-03T14:06:42.001Z</time>
      </trkpt>
      <trkpt lat="43.33107" lon="3.03427">
        <ele>31.3</ele>
        <time>2015-08-03T14:06:42.960Z</time>
      </trkpt>
      <trkpt lat="43.33105" lon="3.03437">
        <ele>31.1</ele>
        <time>2015-08-03T14:06:45.023Z</time>
      </trkpt>
      <trkpt lat="43.33104" lon="3.03442">
        <ele>31.1</ele>
        <time>2015-08-03T14:06:46.043Z</time>
      </trkpt>
      <trkpt lat="43.33102" lon="3.03453">
        <ele>31.1</ele>
        <time>2015-08-03T14:06:48.033Z</time>
      </trkpt>
      <trkpt lat="43.33101" lon="3.03458">
        <ele>30.9</ele>
        <time>2015-08-03T14:06:48.963Z</time>
      </trkpt>
      <trkpt lat="43.331" lon="3.03469">
        <ele>30.7</ele>
        <time>2015-08-03T14:06:51.000Z</time>
      </trkpt>
      <trkpt lat="43.331" lon="3.03473">
        <ele>30.6</ele>
        <time>2015-08-03T14:06:51.967Z</time>
      </trkpt>
      <trkpt lat="43.33099" lon="3.03484">
        <ele>29.8</ele>
        <time>2015-08-03T14:06:54.012Z</time>
      </trkpt>
      <trkpt lat="43.33098" lon="3.03489">
        <ele>29.7</ele>
        <time>2015-08-03T14:06:54.961Z</time>
      </trkpt>
      <trkpt lat="43.33098" lon="3.03499">
        <ele>29.6</ele>
        <time>2015-08-03T14:06:57.017Z</time>
      </trkpt>
      <trkpt lat="43.33098" lon="3.03505">
        <ele>29.3</ele>
        <time>2015-08-03T14:06:57.959Z</time>
      </trkpt>
      <trkpt lat="43.33098" lon="3.03515">
        <ele>29.2</ele>
        <time>2015-08-03T14:07:00.081Z</time>
      </trkpt>
      <trkpt lat="43.33098" lon="3.0352">
        <ele>29</ele>
        <time>2015-08-03T14:07:00.972Z</time>
      </trkpt>
      <trkpt lat="43.33098" lon="3.0353">
        <ele>29.1</ele>
        <time>2015-08-03T14:07:03.001Z</time>
      </trkpt>
      <trkpt lat="43.33098" lon="3.03535">
        <ele>28.8</ele>
        <time>2015-08-03T14:07:03.961Z</time>
      </trkpt>
      <trkpt lat="43.33098" lon="3.03545">
        <ele>28.4</ele>
        <time>2015-08-03T14:07:06.007Z</time>
      </trkpt>
      <trkpt lat="43.33098" lon="3.03551">
        <ele>27.9</ele>
        <time>2015-08-03T14:07:06.964Z</time>
      </trkpt>
      <trkpt lat="43.33098" lon="3.03561">
        <ele>28.2</ele>
        <time>2015-08-03T14:07:09.033Z</time>
      </trkpt>
      <trkpt lat="43.33098" lon="3.03566">
        <ele>28</ele>
        <time>2015-08-03T14:07:09.966Z</time>
      </trkpt>
      <trkpt lat="43.33097" lon="3.03576">
        <ele>27.8</ele>
        <time>2015-08-03T14:07:12.009Z</time>
      </trkpt>
      <trkpt lat="43.33096" lon="3.03581">
        <ele>27.7</ele>
        <time>2015-08-03T14:07:12.963Z</time>
      </trkpt>
      <trkpt lat="43.33095" lon="3.0359">
        <ele>28</ele>
        <time>2015-08-03T14:07:15.024Z</time>
      </trkpt>
      <trkpt lat="43.33095" lon="3.03594">
        <ele>28.1</ele>
        <time>2015-08-03T14:07:15.959Z</time>
      </trkpt>
      <trkpt lat="43.33093" lon="3.03603">
        <ele>28.5</ele>
        <time>2015-08-03T14:07:18.009Z</time>
      </trkpt>
      <trkpt lat="43.33092" lon="3.03608">
        <ele>28.5</ele>
        <time>2015-08-03T14:07:18.959Z</time>
      </trkpt>
      <trkpt lat="43.33091" lon="3.03617">
        <ele>28.7</ele>
        <time>2015-08-03T14:07:21.022Z</time>
      </trkpt>
      <trkpt lat="43.3309" lon="3.03622">
        <ele>28.8</ele>
        <time>2015-08-03T14:07:21.971Z</time>
      </trkpt>
      <trkpt lat="43.33089" lon="3.03632">
        <ele>29.2</ele>
        <time>2015-08-03T14:07:24.011Z</time>
      </trkpt>
      <trkpt lat="43.33088" lon="3.03636">
        <ele>28.9</ele>
        <time>2015-08-03T14:07:24.959Z</time>
      </trkpt>
      <trkpt lat="43.33086" lon="3.03646">
        <ele>29.1</ele>
        <time>2015-08-03T14:07:27.350Z</time>
      </trkpt>
      <trkpt lat="43.33085" lon="3.03651">
        <ele>29.2</ele>
        <time>2015-08-03T14:07:27.957Z</time>
      </trkpt>
      <trkpt lat="43.33083" lon="3.0366">
        <ele>29.8</ele>
        <time>2015-08-03T14:07:30.049Z</time>
      </trkpt>
      <trkpt lat="43.33082" lon="3.03664">
        <ele>29.8</ele>
        <time>2015-08-03T14:07:30.971Z</time>
      </trkpt>
      <trkpt lat="43.3308" lon="3.03672">
        <ele>29.7</ele>
        <time>2015-08-03T14:07:32.998Z</time>
      </trkpt>
      <trkpt lat="43.3308" lon="3.03677">
        <ele>29.7</ele>
        <time>2015-08-03T14:07:33.963Z</time>
      </trkpt>
      <trkpt lat="43.33078" lon="3.03685">
        <ele>29.5</ele>
        <time>2015-08-03T14:07:36.006Z</time>
      </trkpt>
      <trkpt lat="43.33077" lon="3.0369">
        <ele>29.5</ele>
        <time>2015-08-03T14:07:36.963Z</time>
      </trkpt>
      <trkpt lat="43.33076" lon="3.03698">
        <ele>29.7</ele>
        <time>2015-08-03T14:07:39.040Z</time>
      </trkpt>
      <trkpt lat="43.33075" lon="3.03702">
        <ele>29.7</ele>
        <time>2015-08-03T14:07:39.969Z</time>
      </trkpt>
      <trkpt lat="43.33074" lon="3.03711">
        <ele>29.6</ele>
        <time>2015-08-03T14:07:42.002Z</time>
      </trkpt>
      <trkpt lat="43.33074" lon="3.03716">
        <ele>29.5</ele>
        <time>2015-08-03T14:07:42.959Z</time>
      </trkpt>
      <trkpt lat="43.33073" lon="3.03726">
        <ele>29.3</ele>
        <time>2015-08-03T14:07:45.001Z</time>
      </trkpt>
      <trkpt lat="43.33072" lon="3.03731">
        <ele>29.4</ele>
        <time>2015-08-03T14:07:45.959Z</time>
      </trkpt>
      <trkpt lat="43.33071" lon="3.03741">
        <ele>29.8</ele>
        <time>2015-08-03T14:07:48.009Z</time>
      </trkpt>
      <trkpt lat="43.33071" lon="3.03746">
        <ele>29.5</ele>
        <time>2015-08-03T14:07:48.961Z</time>
      </trkpt>
      <trkpt lat="43.33071" lon="3.03755">
        <ele>29.6</ele>
        <time>2015-08-03T14:07:51.009Z</time>
      </trkpt>
      <trkpt lat="43.33071" lon="3.0376">
        <ele>29.4</ele>
        <time>2015-08-03T14:07:51.969Z</time>
      </trkpt>
      <trkpt lat="43.33071" lon="3.03769">
        <ele>29.2</ele>
        <time>2015-08-03T14:07:54.014Z</time>
      </trkpt>
      <trkpt lat="43.33072" lon="3.03774">
        <ele>29.2</ele>
        <time>2015-08-03T14:07:54.961Z</time>
      </trkpt>
      <trkpt lat="43.33073" lon="3.03782">
        <ele>28.9</ele>
        <time>2015-08-03T14:07:57.002Z</time>
      </trkpt>
      <trkpt lat="43.33073" lon="3.03787">
        <ele>29</ele>
        <time>2015-08-03T14:07:57.965Z</time>
      </trkpt>
      <trkpt lat="43.33074" lon="3.03797">
        <ele>28.9</ele>
        <time>2015-08-03T14:08:00.003Z</time>
      </trkpt>
      <trkpt lat="43.33074" lon="3.03801">
        <ele>28.9</ele>
        <time>2015-08-03T14:08:00.958Z</time>
      </trkpt>
      <trkpt lat="43.33074" lon="3.03811">
        <ele>29.1</ele>
        <time>2015-08-03T14:08:03.003Z</time>
      </trkpt>
      <trkpt lat="43.33073" lon="3.03816">
        <ele>29.3</ele>
        <time>2015-08-03T14:08:03.957Z</time>
      </trkpt>
      <trkpt lat="43.33072" lon="3.03825">
        <ele>29.8</ele>
        <time>2015-08-03T14:08:05.998Z</time>
      </trkpt>
      <trkpt lat="43.33071" lon="3.03829">
        <ele>29.7</ele>
        <time>2015-08-03T14:08:06.958Z</time>
      </trkpt>
      <trkpt lat="43.33068" lon="3.03837">
        <ele>30.1</ele>
        <time>2015-08-03T14:08:09.007Z</time>
      </trkpt>
      <trkpt lat="43.33066" lon="3.03842">
        <ele>30</ele>
        <time>2015-08-03T14:08:09.959Z</time>
      </trkpt>
      <trkpt lat="43.33062" lon="3.03852">
        <ele>29.7</ele>
        <time>2015-08-03T14:08:12.016Z</time>
      </trkpt>
      <trkpt lat="43.3306" lon="3.03856">
        <ele>29.7</ele>
        <time>2015-08-03T14:08:12.962Z</time>
      </trkpt>
      <trkpt lat="43.33056" lon="3.03864">
        <ele>29.4</ele>
        <time>2015-08-03T14:08:15.024Z</time>
      </trkpt>
      <trkpt lat="43.33054" lon="3.03868">
        <ele>29.3</ele>
        <time>2015-08-03T14:08:15.969Z</time>
      </trkpt>
      <trkpt lat="43.33051" lon="3.03875">
        <ele>29.2</ele>
        <time>2015-08-03T14:08:17.998Z</time>
      </trkpt>
      <trkpt lat="43.33049" lon="3.03879">
        <ele>29.1</ele>
        <time>2015-08-03T14:08:18.958Z</time>
      </trkpt>
      <trkpt lat="43.33045" lon="3.03888">
        <ele>29.1</ele>
        <time>2015-08-03T14:08:20.991Z</time>
      </trkpt>
      <trkpt lat="43.33043" lon="3.03892">
        <ele>29</ele>
        <time>2015-08-03T14:08:21.959Z</time>
      </trkpt>
      <trkpt lat="43.3304" lon="3.03901">
        <ele>29.4</ele>
        <time>2015-08-03T14:08:24.059Z</time>
      </trkpt>
      <trkpt lat="43.33038" lon="3.03905">
        <ele>29.3</ele>
        <time>2015-08-03T14:08:24.972Z</time>
      </trkpt>
      <trkpt lat="43.33036" lon="3.03914">
        <ele>29.3</ele>
        <time>2015-08-03T14:08:26.998Z</time>
      </trkpt>
      <trkpt lat="43.33035" lon="3.03919">
        <ele>29.3</ele>
        <time>2015-08-03T14:08:27.964Z</time>
      </trkpt>
      <trkpt lat="43.33033" lon="3.03929">
        <ele>29.2</ele>
        <time>2015-08-03T14:08:30.007Z</time>
      </trkpt>
      <trkpt lat="43.33032" lon="3.03935">
        <ele>29.1</ele>
        <time>2015-08-03T14:08:30.970Z</time>
      </trkpt>
      <trkpt lat="43.3303" lon="3.03945">
        <ele>29</ele>
        <time>2015-08-03T14:08:33.002Z</time>
      </trkpt>
      <trkpt lat="43.33029" lon="3.03951">
        <ele>29</ele>
        <time>2015-08-03T14:08:33.959Z</time>
      </trkpt>
      <trkpt lat="43.33028" lon="3.03962">
        <ele>28.7</ele>
        <time>2015-08-03T14:08:36.000Z</time>
      </trkpt>
      <trkpt lat="43.33027" lon="3.03967">
        <ele>28.7</ele>
        <time>2015-08-03T14:08:36.971Z</time>
      </trkpt>
      <trkpt lat="43.33026" lon="3.03978">
        <ele>28.6</ele>
        <time>2015-08-03T14:08:39.007Z</time>
      </trkpt>
      <trkpt lat="43.33026" lon="3.03982">
        <ele>28.6</ele>
        <time>2015-08-03T14:08:39.964Z</time>
      </trkpt>
      <trkpt lat="43.33026" lon="3.03992">
        <ele>28.9</ele>
        <time>2015-08-03T14:08:42.005Z</time>
      </trkpt>
      <trkpt lat="43.33026" lon="3.03997">
        <ele>28.8</ele>
        <time>2015-08-03T14:08:42.959Z</time>
      </trkpt>
      <trkpt lat="43.33026" lon="3.04007">
        <ele>28.9</ele>
        <time>2015-08-03T14:08:45.022Z</time>
      </trkpt>
      <trkpt lat="43.33027" lon="3.04011">
        <ele>28.9</ele>
        <time>2015-08-03T14:08:45.976Z</time>
      </trkpt>
      <trkpt lat="43.33028" lon="3.04021">
        <ele>29</ele>
        <time>2015-08-03T14:08:47.994Z</time>
      </trkpt>
      <trkpt lat="43.33028" lon="3.04026">
        <ele>29</ele>
        <time>2015-08-03T14:08:48.960Z</time>
      </trkpt>
      <trkpt lat="43.33029" lon="3.04036">
        <ele>29.1</ele>
        <time>2015-08-03T14:08:50.991Z</time>
      </trkpt>
      <trkpt lat="43.3303" lon="3.04041">
        <ele>28.9</ele>
        <time>2015-08-03T14:08:51.958Z</time>
      </trkpt>
      <trkpt lat="43.33032" lon="3.0405">
        <ele>29</ele>
        <time>2015-08-03T14:08:54.096Z</time>
      </trkpt>
      <trkpt lat="43.33033" lon="3.04055">
        <ele>28.9</ele>
        <time>2015-08-03T14:08:54.971Z</time>
      </trkpt>
      <trkpt lat="43.33035" lon="3.04064">
        <ele>29.2</ele>
        <time>2015-08-03T14:08:57.034Z</time>
      </trkpt>
      <trkpt lat="43.33036" lon="3.04068">
        <ele>29.3</ele>
        <time>2015-08-03T14:08:57.965Z</time>
      </trkpt>
      <trkpt lat="43.33037" lon="3.04076">
        <ele>28.9</ele>
        <time>2015-08-03T14:09:00.008Z</time>
      </trkpt>
      <trkpt lat="43.33038" lon="3.0408">
        <ele>28.6</ele>
        <time>2015-08-03T14:09:00.962Z</time>
      </trkpt>
      <trkpt lat="43.33039" lon="3.04089">
        <ele>28.7</ele>
        <time>2015-08-03T14:09:03.029Z</time>
      </trkpt>
      <trkpt lat="43.3304" lon="3.04093">
        <ele>28.7</ele>
        <time>2015-08-03T14:09:03.970Z</time>
      </trkpt>
      <trkpt lat="43.33042" lon="3.04102">
        <ele>28.7</ele>
        <time>2015-08-03T14:09:06.006Z</time>
      </trkpt>
      <trkpt lat="43.33043" lon="3.04107">
        <ele>28.6</ele>
        <time>2015-08-03T14:09:06.963Z</time>
      </trkpt>
      <trkpt lat="43.33046" lon="3.04116">
        <ele>28.5</ele>
        <time>2015-08-03T14:09:09.050Z</time>
      </trkpt>
      <trkpt lat="43.33046" lon="3.04121">
        <ele>28.4</ele>
        <time>2015-08-03T14:09:09.958Z</time>
      </trkpt>
      <trkpt lat="43.3305" lon="3.04129">
        <ele>28.5</ele>
        <time>2015-08-03T14:09:12.027Z</time>
      </trkpt>
      <trkpt lat="43.33051" lon="3.04133">
        <ele>28.4</ele>
        <time>2015-08-03T14:09:12.962Z</time>
      </trkpt>
      <trkpt lat="43.33054" lon="3.04142">
        <ele>27.9</ele>
        <time>2015-08-03T14:09:15.008Z</time>
      </trkpt>
      <trkpt lat="43.33055" lon="3.04147">
        <ele>27.6</ele>
        <time>2015-08-03T14:09:15.968Z</time>
      </trkpt>
      <trkpt lat="43.33059" lon="3.04156">
        <ele>27.1</ele>
        <time>2015-08-03T14:09:18.004Z</time>
      </trkpt>
      <trkpt lat="43.33061" lon="3.04161">
        <ele>26.9</ele>
        <time>2015-08-03T14:09:18.960Z</time>
      </trkpt>
      <trkpt lat="43.33063" lon="3.0417">
        <ele>26.9</ele>
        <time>2015-08-03T14:09:21.001Z</time>
      </trkpt>
      <trkpt lat="43.33064" lon="3.04174">
        <ele>27</ele>
        <time>2015-08-03T14:09:21.959Z</time>
      </trkpt>
      <trkpt lat="43.33065" lon="3.04185">
        <ele>28.1</ele>
        <time>2015-08-03T14:09:26.006Z</time>
      </trkpt>
      <trkpt lat="43.33065" lon="3.04186">
        <ele>28.3</ele>
        <time>2015-08-03T14:09:26.958Z</time>
      </trkpt>
      <trkpt lat="43.33066" lon="3.04187">
        <ele>28.5</ele>
        <time>2015-08-03T14:09:36.004Z</time>
      </trkpt>
      <trkpt lat="43.33067" lon="3.0419">
        <ele>28.2</ele>
        <time>2015-08-03T14:09:36.962Z</time>
      </trkpt>
      <trkpt lat="43.33066" lon="3.04191">
        <ele>28</ele>
        <time>2015-08-03T14:09:43.012Z</time>
      </trkpt>
      <trkpt lat="43.33067" lon="3.04194">
        <ele>27.9</ele>
        <time>2015-08-03T14:09:43.962Z</time>
      </trkpt>
      <trkpt lat="43.33072" lon="3.04202">
        <ele>28.3</ele>
        <time>2015-08-03T14:09:49.012Z</time>
      </trkpt>
      <trkpt lat="43.33073" lon="3.04203">
        <ele>28.4</ele>
        <time>2015-08-03T14:09:49.959Z</time>
      </trkpt>
      <trkpt lat="43.33073" lon="3.04203">
        <ele>28.5</ele>
        <time>2015-08-03T14:10:05.005Z</time>
      </trkpt>
      <trkpt lat="43.33075" lon="3.04207">
        <ele>27.3</ele>
        <time>2015-08-03T14:10:05.964Z</time>
      </trkpt>
      <trkpt lat="43.33076" lon="3.04208">
        <ele>27.3</ele>
        <time>2015-08-03T14:10:07.013Z</time>
      </trkpt>
      <trkpt lat="43.33076" lon="3.04208">
        <ele>27.4</ele>
        <time>2015-08-03T14:10:07.958Z</time>
      </trkpt>
      <trkpt lat="43.33077" lon="3.04207">
        <ele>27.8</ele>
        <time>2015-08-03T14:10:23.039Z</time>
      </trkpt>
      <trkpt lat="43.33078" lon="3.04209">
        <ele>29.1</ele>
        <time>2015-08-03T14:10:23.982Z</time>
      </trkpt>
      <trkpt lat="43.33082" lon="3.04218">
        <ele>28.7</ele>
        <time>2015-08-03T14:10:29.019Z</time>
      </trkpt>
      <trkpt lat="43.33083" lon="3.04219">
        <ele>28.5</ele>
        <time>2015-08-03T14:10:29.959Z</time>
      </trkpt>
      <trkpt lat="43.33089" lon="3.04228">
        <ele>28.6</ele>
        <time>2015-08-03T14:10:34.014Z</time>
      </trkpt>
      <trkpt lat="43.3309" lon="3.04231">
        <ele>28.4</ele>
        <time>2015-08-03T14:10:34.958Z</time>
      </trkpt>
      <trkpt lat="43.33095" lon="3.04239">
        <ele>28.3</ele>
        <time>2015-08-03T14:10:38.015Z</time>
      </trkpt>
      <trkpt lat="43.33097" lon="3.04241">
        <ele>28.5</ele>
        <time>2015-08-03T14:10:38.960Z</time>
      </trkpt>
      <trkpt lat="43.33101" lon="3.0425">
        <ele>27.9</ele>
        <time>2015-08-03T14:10:42.011Z</time>
      </trkpt>
      <trkpt lat="43.33103" lon="3.04253">
        <ele>28</ele>
        <time>2015-08-03T14:10:42.960Z</time>
      </trkpt>
      <trkpt lat="43.33107" lon="3.0426">
        <ele>27.8</ele>
        <time>2015-08-03T14:10:45.008Z</time>
      </trkpt>
      <trkpt lat="43.33109" lon="3.04263">
        <ele>27.8</ele>
        <time>2015-08-03T14:10:45.966Z</time>
      </trkpt>
      <trkpt lat="43.33112" lon="3.04271">
        <ele>27.7</ele>
        <time>2015-08-03T14:10:48.105Z</time>
      </trkpt>
      <trkpt lat="43.33114" lon="3.04275">
        <ele>27.5</ele>
        <time>2015-08-03T14:10:48.970Z</time>
      </trkpt>
      <trkpt lat="43.33118" lon="3.04283">
        <ele>27.3</ele>
        <time>2015-08-03T14:10:51.344Z</time>
      </trkpt>
      <trkpt lat="43.3312" lon="3.04286">
        <ele>26.5</ele>
        <time>2015-08-03T14:10:51.961Z</time>
      </trkpt>
      <trkpt lat="43.33124" lon="3.04294">
        <ele>26.2</ele>
        <time>2015-08-03T14:10:54.014Z</time>
      </trkpt>
      <trkpt lat="43.33125" lon="3.04298">
        <ele>26.2</ele>
        <time>2015-08-03T14:10:54.962Z</time>
      </trkpt>
      <trkpt lat="43.33128" lon="3.04306">
        <ele>26.5</ele>
        <time>2015-08-03T14:10:57.011Z</time>
      </trkpt>
      <trkpt lat="43.3313" lon="3.04309">
        <ele>26.6</ele>
        <time>2015-08-03T14:10:57.960Z</time>
      </trkpt>
      <trkpt lat="43.33135" lon="3.0432">
        <ele>26.6</ele>
        <time>2015-08-03T14:11:01.009Z</time>
      </trkpt>
      <trkpt lat="43.33136" lon="3.04324">
        <ele>26.5</ele>
        <time>2015-08-03T14:11:01.969Z</time>
      </trkpt>
      <trkpt lat="43.33138" lon="3.04332">
        <ele>26.5</ele>
        <time>2015-08-03T14:11:04.108Z</time>
      </trkpt>
      <trkpt lat="43.3314" lon="3.04336">
        <ele>26.5</ele>
        <time>2015-08-03T14:11:04.957Z</time>
      </trkpt>
      <trkpt lat="43.33142" lon="3.04344">
        <ele>26.6</ele>
        <time>2015-08-03T14:11:07.009Z</time>
      </trkpt>
      <trkpt lat="43.33143" lon="3.04348">
        <ele>26.4</ele>
        <time>2015-08-03T14:11:07.960Z</time>
      </trkpt>
      <trkpt lat="43.33146" lon="3.0436">
        <ele>26.8</ele>
        <time>2015-08-03T14:11:11.031Z</time>
      </trkpt>
      <trkpt lat="43.33147" lon="3.04364">
        <ele>26.8</ele>
        <time>2015-08-03T14:11:11.957Z</time>
      </trkpt>
      <trkpt lat="43.33149" lon="3.04372">
        <ele>26.6</ele>
        <time>2015-08-03T14:11:14.014Z</time>
      </trkpt>
      <trkpt lat="43.3315" lon="3.04377">
        <ele>26.2</ele>
        <time>2015-08-03T14:11:14.956Z</time>
      </trkpt>
      <trkpt lat="43.33152" lon="3.04386">
        <ele>25.9</ele>
        <time>2015-08-03T14:11:17.022Z</time>
      </trkpt>
      <trkpt lat="43.33153" lon="3.0439">
        <ele>26</ele>
        <time>2015-08-03T14:11:17.958Z</time>
      </trkpt>
      <trkpt lat="43.33154" lon="3.04398">
        <ele>26.1</ele>
        <time>2015-08-03T14:11:20.016Z</time>
      </trkpt>
      <trkpt lat="43.33154" lon="3.04402">
        <ele>26.6</ele>
        <time>2015-08-03T14:11:20.960Z</time>
      </trkpt>
      <trkpt lat="43.33154" lon="3.04415">
        <ele>26.6</ele>
        <time>2015-08-03T14:11:24.354Z</time>
      </trkpt>
      <trkpt lat="43.33154" lon="3.04419">
        <ele>27</ele>
        <time>2015-08-03T14:11:24.961Z</time>
      </trkpt>
      <trkpt lat="43.33154" lon="3.04427">
        <ele>28.4</ele>
        <time>2015-08-03T14:11:27.009Z</time>
      </trkpt>
      <trkpt lat="43.33154" lon="3.04431">
        <ele>29</ele>
        <time>2015-08-03T14:11:27.961Z</time>
      </trkpt>
      <trkpt lat="43.33151" lon="3.04441">
        <ele>29</ele>
        <time>2015-08-03T14:11:31.015Z</time>
      </trkpt>
      <trkpt lat="43.3315" lon="3.04444">
        <ele>29</ele>
        <time>2015-08-03T14:11:31.958Z</time>
      </trkpt>
      <trkpt lat="43.33146" lon="3.04454">
        <ele>28.9</ele>
        <time>2015-08-03T14:11:36.059Z</time>
      </trkpt>
      <trkpt lat="43.33146" lon="3.04456">
        <ele>28.8</ele>
        <time>2015-08-03T14:11:36.971Z</time>
      </trkpt>
      <trkpt lat="43.33142" lon="3.04466">
        <ele>28.5</ele>
        <time>2015-08-03T14:11:42.011Z</time>
      </trkpt>
      <trkpt lat="43.33141" lon="3.04469">
        <ele>28.5</ele>
        <time>2015-08-03T14:11:42.961Z</time>
      </trkpt>
      <trkpt lat="43.33137" lon="3.04478">
        <ele>28.7</ele>
        <time>2015-08-03T14:11:46.009Z</time>
      </trkpt>
      <trkpt lat="43.33136" lon="3.04482">
        <ele>28.8</ele>
        <time>2015-08-03T14:11:46.961Z</time>
      </trkpt>
      <trkpt lat="43.33132" lon="3.04492">
        <ele>28.7</ele>
        <time>2015-08-03T14:11:49.997Z</time>
      </trkpt>
      <trkpt lat="43.33131" lon="3.04495">
        <ele>28.7</ele>
        <time>2015-08-03T14:11:51.295Z</time>
      </trkpt>
      <trkpt lat="43.33128" lon="3.04505">
        <ele>28.6</ele>
        <time>2015-08-03T14:11:54.003Z</time>
      </trkpt>
      <trkpt lat="43.33127" lon="3.04508">
        <ele>28.8</ele>
        <time>2015-08-03T14:11:54.957Z</time>
      </trkpt>
      <trkpt lat="43.33123" lon="3.04519">
        <ele>28.7</ele>
        <time>2015-08-03T14:11:58.008Z</time>
      </trkpt>
      <trkpt lat="43.33121" lon="3.04523">
        <ele>28.7</ele>
        <time>2015-08-03T14:11:58.959Z</time>
      </trkpt>
      <trkpt lat="43.33119" lon="3.04532">
        <ele>28.7</ele>
        <time>2015-08-03T14:12:01.234Z</time>
      </trkpt>
      <trkpt lat="43.33117" lon="3.04536">
        <ele>28.7</ele>
        <time>2015-08-03T14:12:01.960Z</time>
      </trkpt>
      <trkpt lat="43.33114" lon="3.04544">
        <ele>29.2</ele>
        <time>2015-08-03T14:12:04.336Z</time>
      </trkpt>
      <trkpt lat="43.33113" lon="3.04548">
        <ele>29.6</ele>
        <time>2015-08-03T14:12:04.960Z</time>
      </trkpt>
      <trkpt lat="43.3311" lon="3.04555">
        <ele>29.7</ele>
        <time>2015-08-03T14:12:07.031Z</time>
      </trkpt>
      <trkpt lat="43.33109" lon="3.04559">
        <ele>29.8</ele>
        <time>2015-08-03T14:12:08.016Z</time>
      </trkpt>
      <trkpt lat="43.33106" lon="3.04568">
        <ele>29.9</ele>
        <time>2015-08-03T14:12:10.015Z</time>
      </trkpt>
      <trkpt lat="43.33104" lon="3.04572">
        <ele>29.8</ele>
        <time>2015-08-03T14:12:10.959Z</time>
      </trkpt>
      <trkpt lat="43.331" lon="3.04582">
        <ele>29.7</ele>
        <time>2015-08-03T14:12:14.069Z</time>
      </trkpt>
      <trkpt lat="43.33099" lon="3.04586">
        <ele>29.8</ele>
        <time>2015-08-03T14:12:14.969Z</time>
      </trkpt>
      <trkpt lat="43.33095" lon="3.04597">
        <ele>29.8</ele>
        <time>2015-08-03T14:12:18.004Z</time>
      </trkpt>
      <trkpt lat="43.33093" lon="3.046">
        <ele>29.9</ele>
        <time>2015-08-03T14:12:19.302Z</time>
      </trkpt>
      <trkpt lat="43.33088" lon="3.04606">
        <ele>29.9</ele>
        <time>2015-08-03T14:12:21.012Z</time>
      </trkpt>
      <trkpt lat="43.33086" lon="3.04609">
        <ele>30.1</ele>
        <time>2015-08-03T14:12:21.981Z</time>
      </trkpt>
      <trkpt lat="43.33082" lon="3.04617">
        <ele>30.3</ele>
        <time>2015-08-03T14:12:24.077Z</time>
      </trkpt>
      <trkpt lat="43.3308" lon="3.04621">
        <ele>30.3</ele>
        <time>2015-08-03T14:12:24.961Z</time>
      </trkpt>
      <trkpt lat="43.33077" lon="3.0463">
        <ele>29.6</ele>
        <time>2015-08-03T14:12:27.008Z</time>
      </trkpt>
      <trkpt lat="43.33075" lon="3.04635">
        <ele>29.8</ele>
        <time>2015-08-03T14:12:27.961Z</time>
      </trkpt>
      <trkpt lat="43.33073" lon="3.04644">
        <ele>29.9</ele>
        <time>2015-08-03T14:12:30.013Z</time>
      </trkpt>
      <trkpt lat="43.33071" lon="3.04649">
        <ele>30</ele>
        <time>2015-08-03T14:12:30.964Z</time>
      </trkpt>
      <trkpt lat="43.33068" lon="3.04659">
        <ele>30</ele>
        <time>2015-08-03T14:12:33.007Z</time>
      </trkpt>
      <trkpt lat="43.33067" lon="3.04664">
        <ele>29.9</ele>
        <time>2015-08-03T14:12:33.958Z</time>
      </trkpt>
      <trkpt lat="43.33064" lon="3.04674">
        <ele>30</ele>
        <time>2015-08-03T14:12:36.024Z</time>
      </trkpt>
      <trkpt lat="43.33063" lon="3.04679">
        <ele>30.1</ele>
        <time>2015-08-03T14:12:36.970Z</time>
      </trkpt>
      <trkpt lat="43.33061" lon="3.04689">
        <ele>30.1</ele>
        <time>2015-08-03T14:12:39.023Z</time>
      </trkpt>
      <trkpt lat="43.33059" lon="3.04694">
        <ele>30.1</ele>
        <time>2015-08-03T14:12:39.968Z</time>
      </trkpt>
      <trkpt lat="43.33057" lon="3.04704">
        <ele>30</ele>
        <time>2015-08-03T14:12:42.015Z</time>
      </trkpt>
      <trkpt lat="43.33056" lon="3.04709">
        <ele>30</ele>
        <time>2015-08-03T14:12:42.959Z</time>
      </trkpt>
      <trkpt lat="43.33053" lon="3.0472">
        <ele>30</ele>
        <time>2015-08-03T14:12:45.042Z</time>
      </trkpt>
      <trkpt lat="43.33052" lon="3.04726">
        <ele>30</ele>
        <time>2015-08-03T14:12:45.965Z</time>
      </trkpt>
      <trkpt lat="43.33049" lon="3.04736">
        <ele>29.8</ele>
        <time>2015-08-03T14:12:48.008Z</time>
      </trkpt>
      <trkpt lat="43.33048" lon="3.04741">
        <ele>29.8</ele>
        <time>2015-08-03T14:12:48.966Z</time>
      </trkpt>
      <trkpt lat="43.33046" lon="3.04751">
        <ele>29.8</ele>
        <time>2015-08-03T14:12:51.322Z</time>
      </trkpt>
      <trkpt lat="43.33045" lon="3.04756">
        <ele>29.9</ele>
        <time>2015-08-03T14:12:51.958Z</time>
      </trkpt>
      <trkpt lat="43.33043" lon="3.04766">
        <ele>29.9</ele>
        <time>2015-08-03T14:12:54.009Z</time>
      </trkpt>
      <trkpt lat="43.33042" lon="3.04771">
        <ele>29.8</ele>
        <time>2015-08-03T14:12:54.958Z</time>
      </trkpt>
      <trkpt lat="43.3304" lon="3.0478">
        <ele>29.8</ele>
        <time>2015-08-03T14:12:57.349Z</time>
      </trkpt>
      <trkpt lat="43.33038" lon="3.04786">
        <ele>29.7</ele>
        <time>2015-08-03T14:12:57.960Z</time>
      </trkpt>
      <trkpt lat="43.33037" lon="3.04796">
        <ele>29.6</ele>
        <time>2015-08-03T14:13:00.013Z</time>
      </trkpt>
      <trkpt lat="43.33035" lon="3.04801">
        <ele>29.6</ele>
        <time>2015-08-03T14:13:00.962Z</time>
      </trkpt>
      <trkpt lat="43.33034" lon="3.04812">
        <ele>29.5</ele>
        <time>2015-08-03T14:13:03.009Z</time>
      </trkpt>
      <trkpt lat="43.33033" lon="3.04816">
        <ele>29.7</ele>
        <time>2015-08-03T14:13:03.965Z</time>
      </trkpt>
      <trkpt lat="43.33032" lon="3.04826">
        <ele>29.8</ele>
        <time>2015-08-03T14:13:06.010Z</time>
      </trkpt>
      <trkpt lat="43.33032" lon="3.04831">
        <ele>29.9</ele>
        <time>2015-08-03T14:13:06.970Z</time>
      </trkpt>
      <trkpt lat="43.33031" lon="3.04841">
        <ele>29.8</ele>
        <time>2015-08-03T14:13:09.100Z</time>
      </trkpt>
      <trkpt lat="43.3303" lon="3.04846">
        <ele>29.8</ele>
        <time>2015-08-03T14:13:09.968Z</time>
      </trkpt>
      <trkpt lat="43.3303" lon="3.04854">
        <ele>29.9</ele>
        <time>2015-08-03T14:13:12.022Z</time>
      </trkpt>
      <trkpt lat="43.33029" lon="3.04858">
        <ele>29.8</ele>
        <time>2015-08-03T14:13:12.960Z</time>
      </trkpt>
      <trkpt lat="43.33029" lon="3.0487">
        <ele>29.9</ele>
        <time>2015-08-03T14:13:16.032Z</time>
      </trkpt>
      <trkpt lat="43.33029" lon="3.04874">
        <ele>29.9</ele>
        <time>2015-08-03T14:13:16.968Z</time>
      </trkpt>
      <trkpt lat="43.33028" lon="3.04886">
        <ele>29.9</ele>
        <time>2015-08-03T14:13:20.015Z</time>
      </trkpt>
      <trkpt lat="43.33027" lon="3.04889">
        <ele>29.9</ele>
        <time>2015-08-03T14:13:20.957Z</time>
      </trkpt>
      <trkpt lat="43.33026" lon="3.049">
        <ele>29.6</ele>
        <time>2015-08-03T14:13:24.416Z</time>
      </trkpt>
      <trkpt lat="43.33026" lon="3.04903">
        <ele>29.5</ele>
        <time>2015-08-03T14:13:24.961Z</time>
      </trkpt>
      <trkpt lat="43.33026" lon="3.04906">
        <ele>29.3</ele>
        <time>2015-08-03T14:13:26.013Z</time>
      </trkpt>
      <trkpt lat="43.33026" lon="3.04907">
        <ele>29.2</ele>
        <time>2015-08-03T14:13:26.959Z</time>
      </trkpt>
      <trkpt lat="43.33026" lon="3.04906">
        <ele>28.8</ele>
        <time>2015-08-03T14:13:45.005Z</time>
      </trkpt>
      <trkpt lat="43.33026" lon="3.04909">
        <ele>27.7</ele>
        <time>2015-08-03T14:13:45.958Z</time>
      </trkpt>
      <trkpt lat="43.33023" lon="3.04917">
        <ele>27.6</ele>
        <time>2015-08-03T14:13:49.017Z</time>
      </trkpt>
      <trkpt lat="43.33023" lon="3.04921">
        <ele>27.4</ele>
        <time>2015-08-03T14:13:49.962Z</time>
      </trkpt>
      <trkpt lat="43.33023" lon="3.0493">
        <ele>27.3</ele>
        <time>2015-08-03T14:13:52.022Z</time>
      </trkpt>
      <trkpt lat="43.33023" lon="3.04934">
        <ele>27.3</ele>
        <time>2015-08-03T14:13:52.967Z</time>
      </trkpt>
      <trkpt lat="43.33022" lon="3.04945">
        <ele>27.2</ele>
        <time>2015-08-03T14:13:55.024Z</time>
      </trkpt>
      <trkpt lat="43.33021" lon="3.04951">
        <ele>27.2</ele>
        <time>2015-08-03T14:13:55.960Z</time>
      </trkpt>
      <trkpt lat="43.33021" lon="3.04963">
        <ele>27</ele>
        <time>2015-08-03T14:13:58.016Z</time>
      </trkpt>
      <trkpt lat="43.33022" lon="3.04969">
        <ele>27</ele>
        <time>2015-08-03T14:13:58.958Z</time>
      </trkpt>
      <trkpt lat="43.33024" lon="3.04978">
        <ele>27.4</ele>
        <time>2015-08-03T14:14:01.025Z</time>
      </trkpt>
      <trkpt lat="43.33023" lon="3.04982">
        <ele>27.6</ele>
        <time>2015-08-03T14:14:01.979Z</time>
      </trkpt>
      <trkpt lat="43.33024" lon="3.04994">
        <ele>28</ele>
        <time>2015-08-03T14:14:05.008Z</time>
      </trkpt>
      <trkpt lat="43.33024" lon="3.04997">
        <ele>27.8</ele>
        <time>2015-08-03T14:14:05.958Z</time>
      </trkpt>
      <trkpt lat="43.33023" lon="3.05008">
        <ele>26.6</ele>
        <time>2015-08-03T14:14:09.028Z</time>
      </trkpt>
      <trkpt lat="43.33022" lon="3.05012">
        <ele>26.4</ele>
        <time>2015-08-03T14:14:09.955Z</time>
      </trkpt>
      <trkpt lat="43.33022" lon="3.05023">
        <ele>26</ele>
        <time>2015-08-03T14:14:12.232Z</time>
      </trkpt>
      <trkpt lat="43.33022" lon="3.05029">
        <ele>25.9</ele>
        <time>2015-08-03T14:14:12.958Z</time>
      </trkpt>
      <trkpt lat="43.33022" lon="3.05035">
        <ele>25.8</ele>
        <time>2015-08-03T14:14:14.016Z</time>
      </trkpt>
      <trkpt lat="43.33021" lon="3.05042">
        <ele>25.6</ele>
        <time>2015-08-03T14:14:14.959Z</time>
      </trkpt>
      <trkpt lat="43.33021" lon="3.05048">
        <ele>25.3</ele>
        <time>2015-08-03T14:14:16.024Z</time>
      </trkpt>
      <trkpt lat="43.33021" lon="3.05054">
        <ele>25.1</ele>
        <time>2015-08-03T14:14:16.957Z</time>
      </trkpt>
      <trkpt lat="43.3302" lon="3.05066">
        <ele>24.7</ele>
        <time>2015-08-03T14:14:19.045Z</time>
      </trkpt>
      <trkpt lat="43.3302" lon="3.05072">
        <ele>24.7</ele>
        <time>2015-08-03T14:14:19.980Z</time>
      </trkpt>
      <trkpt lat="43.3302" lon="3.05083">
        <ele>24.9</ele>
        <time>2015-08-03T14:14:22.014Z</time>
      </trkpt>
      <trkpt lat="43.3302" lon="3.05089">
        <ele>25</ele>
        <time>2015-08-03T14:14:22.960Z</time>
      </trkpt>
      <trkpt lat="43.3302" lon="3.051">
        <ele>25.1</ele>
        <time>2015-08-03T14:14:25.010Z</time>
      </trkpt>
      <trkpt lat="43.3302" lon="3.05106">
        <ele>25.1</ele>
        <time>2015-08-03T14:14:25.962Z</time>
      </trkpt>
      <trkpt lat="43.3302" lon="3.05117">
        <ele>25.3</ele>
        <time>2015-08-03T14:14:28.023Z</time>
      </trkpt>
      <trkpt lat="43.3302" lon="3.05123">
        <ele>25.4</ele>
        <time>2015-08-03T14:14:28.977Z</time>
      </trkpt>
      <trkpt lat="43.33021" lon="3.05135">
        <ele>25.6</ele>
        <time>2015-08-03T14:14:31.009Z</time>
      </trkpt>
      <trkpt lat="43.33021" lon="3.0514">
        <ele>25.5</ele>
        <time>2015-08-03T14:14:31.958Z</time>
      </trkpt>
      <trkpt lat="43.33021" lon="3.05151">
        <ele>25.3</ele>
        <time>2015-08-03T14:14:34.014Z</time>
      </trkpt>
      <trkpt lat="43.33021" lon="3.05157">
        <ele>25.3</ele>
        <time>2015-08-03T14:14:34.961Z</time>
      </trkpt>
      <trkpt lat="43.33022" lon="3.05167">
        <ele>24.9</ele>
        <time>2015-08-03T14:14:37.377Z</time>
      </trkpt>
      <trkpt lat="43.33023" lon="3.05172">
        <ele>25.3</ele>
        <time>2015-08-03T14:14:37.961Z</time>
      </trkpt>
      <trkpt lat="43.33024" lon="3.05183">
        <ele>25.2</ele>
        <time>2015-08-03T14:14:40.012Z</time>
      </trkpt>
      <trkpt lat="43.33025" lon="3.05188">
        <ele>25.2</ele>
        <time>2015-08-03T14:14:40.961Z</time>
      </trkpt>
      <trkpt lat="43.33026" lon="3.05199">
        <ele>25.2</ele>
        <time>2015-08-03T14:14:43.013Z</time>
      </trkpt>
      <trkpt lat="43.33027" lon="3.05203">
        <ele>25.4</ele>
        <time>2015-08-03T14:14:43.960Z</time>
      </trkpt>
      <trkpt lat="43.33029" lon="3.05215">
        <ele>26.1</ele>
        <time>2015-08-03T14:14:47.021Z</time>
      </trkpt>
      <trkpt lat="43.3303" lon="3.05219">
        <ele>26.4</ele>
        <time>2015-08-03T14:14:47.979Z</time>
      </trkpt>
      <trkpt lat="43.33032" lon="3.0523">
        <ele>26.1</ele>
        <time>2015-08-03T14:14:51.007Z</time>
      </trkpt>
      <trkpt lat="43.33033" lon="3.05234">
        <ele>26.1</ele>
        <time>2015-08-03T14:14:51.960Z</time>
      </trkpt>
      <trkpt lat="43.33035" lon="3.05243">
        <ele>25.6</ele>
        <time>2015-08-03T14:14:54.005Z</time>
      </trkpt>
      <trkpt lat="43.33035" lon="3.05247">
        <ele>25.5</ele>
        <time>2015-08-03T14:14:54.970Z</time>
      </trkpt>
      <trkpt lat="43.33038" lon="3.05256">
        <ele>25.5</ele>
        <time>2015-08-03T14:14:57.007Z</time>
      </trkpt>
      <trkpt lat="43.33038" lon="3.0526">
        <ele>25.3</ele>
        <time>2015-08-03T14:14:57.960Z</time>
      </trkpt>
      <trkpt lat="43.3304" lon="3.05268">
        <ele>25.1</ele>
        <time>2015-08-03T14:15:00.015Z</time>
      </trkpt>
      <trkpt lat="43.33041" lon="3.05272">
        <ele>24.9</ele>
        <time>2015-08-03T14:15:00.961Z</time>
      </trkpt>
      <trkpt lat="43.33042" lon="3.05282">
        <ele>24.8</ele>
        <time>2015-08-03T14:15:04.062Z</time>
      </trkpt>
      <trkpt lat="43.33042" lon="3.05285">
        <ele>24.9</ele>
        <time>2015-08-03T14:15:04.971Z</time>
      </trkpt>
      <trkpt lat="43.33044" lon="3.05294">
        <ele>24.9</ele>
        <time>2015-08-03T14:15:08.346Z</time>
      </trkpt>
      <trkpt lat="43.33045" lon="3.05298">
        <ele>25</ele>
        <time>2015-08-03T14:15:08.961Z</time>
      </trkpt>
      <trkpt lat="43.33047" lon="3.05306">
        <ele>24.9</ele>
        <time>2015-08-03T14:15:11.009Z</time>
      </trkpt>
      <trkpt lat="43.33048" lon="3.0531">
        <ele>25</ele>
        <time>2015-08-03T14:15:11.961Z</time>
      </trkpt>
      <trkpt lat="43.33051" lon="3.0532">
        <ele>25.3</ele>
        <time>2015-08-03T14:15:15.023Z</time>
      </trkpt>
      <trkpt lat="43.33052" lon="3.05324">
        <ele>25.4</ele>
        <time>2015-08-03T14:15:15.979Z</time>
      </trkpt>
      <trkpt lat="43.33054" lon="3.05334">
        <ele>25.4</ele>
        <time>2015-08-03T14:15:19.016Z</time>
      </trkpt>
      <trkpt lat="43.33055" lon="3.05338">
        <ele>25.3</ele>
        <time>2015-08-03T14:15:19.962Z</time>
      </trkpt>
      <trkpt lat="43.33056" lon="3.05348">
        <ele>25.3</ele>
        <time>2015-08-03T14:15:23.022Z</time>
      </trkpt>
      <trkpt lat="43.33057" lon="3.05351">
        <ele>25.4</ele>
        <time>2015-08-03T14:15:23.981Z</time>
      </trkpt>
      <trkpt lat="43.3306" lon="3.05362">
        <ele>25.1</ele>
        <time>2015-08-03T14:15:27.000Z</time>
      </trkpt>
      <trkpt lat="43.33061" lon="3.05365">
        <ele>25.1</ele>
        <time>2015-08-03T14:15:27.955Z</time>
      </trkpt>
      <trkpt lat="43.33064" lon="3.05374">
        <ele>25.5</ele>
        <time>2015-08-03T14:15:31.024Z</time>
      </trkpt>
      <trkpt lat="43.33065" lon="3.05377">
        <ele>25.4</ele>
        <time>2015-08-03T14:15:31.981Z</time>
      </trkpt>
      <trkpt lat="43.33068" lon="3.05387">
        <ele>25.6</ele>
        <time>2015-08-03T14:15:35.004Z</time>
      </trkpt>
      <trkpt lat="43.3307" lon="3.05391">
        <ele>25.7</ele>
        <time>2015-08-03T14:15:35.960Z</time>
      </trkpt>
      <trkpt lat="43.33073" lon="3.05401">
        <ele>26</ele>
        <time>2015-08-03T14:15:39.048Z</time>
      </trkpt>
      <trkpt lat="43.33074" lon="3.05405">
        <ele>26</ele>
        <time>2015-08-03T14:15:39.981Z</time>
      </trkpt>
      <trkpt lat="43.33077" lon="3.05413">
        <ele>26</ele>
        <time>2015-08-03T14:15:42.018Z</time>
      </trkpt>
      <trkpt lat="43.33078" lon="3.05417">
        <ele>26.1</ele>
        <time>2015-08-03T14:15:42.959Z</time>
      </trkpt>
      <trkpt lat="43.33081" lon="3.05427">
        <ele>26.5</ele>
        <time>2015-08-03T14:15:46.352Z</time>
      </trkpt>
      <trkpt lat="43.33082" lon="3.05431">
        <ele>26.5</ele>
        <time>2015-08-03T14:15:46.959Z</time>
      </trkpt>
      <trkpt lat="43.33085" lon="3.05441">
        <ele>26.1</ele>
        <time>2015-08-03T14:15:50.054Z</time>
      </trkpt>
      <trkpt lat="43.33086" lon="3.05445">
        <ele>25.9</ele>
        <time>2015-08-03T14:15:50.968Z</time>
      </trkpt>
      <trkpt lat="43.33089" lon="3.05456">
        <ele>26.3</ele>
        <time>2015-08-03T14:15:54.011Z</time>
      </trkpt>
      <trkpt lat="43.33091" lon="3.05461">
        <ele>26.3</ele>
        <time>2015-08-03T14:15:54.959Z</time>
      </trkpt>
      <trkpt lat="43.33093" lon="3.05472">
        <ele>26.5</ele>
        <time>2015-08-03T14:15:57.998Z</time>
      </trkpt>
      <trkpt lat="43.33095" lon="3.05476">
        <ele>26.6</ele>
        <time>2015-08-03T14:15:58.958Z</time>
      </trkpt>
      <trkpt lat="43.33097" lon="3.05484">
        <ele>27</ele>
        <time>2015-08-03T14:16:01.030Z</time>
      </trkpt>
      <trkpt lat="43.33098" lon="3.05488">
        <ele>27.1</ele>
        <time>2015-08-03T14:16:01.969Z</time>
      </trkpt>
      <trkpt lat="43.331" lon="3.05496">
        <ele>27.2</ele>
        <time>2015-08-03T14:16:04.015Z</time>
      </trkpt>
      <trkpt lat="43.33101" lon="3.055">
        <ele>27.3</ele>
        <time>2015-08-03T14:16:04.958Z</time>
      </trkpt>
      <trkpt lat="43.33103" lon="3.05511">
        <ele>27.3</ele>
        <time>2015-08-03T14:16:08.008Z</time>
      </trkpt>
      <trkpt lat="43.33104" lon="3.05515">
        <ele>27.1</ele>
        <time>2015-08-03T14:16:08.955Z</time>
      </trkpt>
      <trkpt lat="43.33106" lon="3.05525">
        <ele>26.8</ele>
        <time>2015-08-03T14:16:12.224Z</time>
      </trkpt>
      <trkpt lat="43.33107" lon="3.05529">
        <ele>26.8</ele>
        <time>2015-08-03T14:16:13.202Z</time>
      </trkpt>
      <trkpt lat="43.33108" lon="3.05539">
        <ele>26.8</ele>
        <time>2015-08-03T14:16:16.010Z</time>
      </trkpt>
      <trkpt lat="43.33109" lon="3.05543">
        <ele>27</ele>
        <time>2015-08-03T14:16:16.958Z</time>
      </trkpt>
      <trkpt lat="43.33111" lon="3.05555">
        <ele>27</ele>
        <time>2015-08-03T14:16:20.320Z</time>
      </trkpt>
      <trkpt lat="43.33111" lon="3.05559">
        <ele>27</ele>
        <time>2015-08-03T14:16:20.958Z</time>
      </trkpt>
      <trkpt lat="43.33113" lon="3.0557">
        <ele>26.6</ele>
        <time>2015-08-03T14:16:24.041Z</time>
      </trkpt>
      <trkpt lat="43.33113" lon="3.05573">
        <ele>26.4</ele>
        <time>2015-08-03T14:16:24.961Z</time>
      </trkpt>
      <trkpt lat="43.33113" lon="3.05584">
        <ele>25.9</ele>
        <time>2015-08-03T14:16:28.016Z</time>
      </trkpt>
      <trkpt lat="43.33114" lon="3.05587">
        <ele>25.9</ele>
        <time>2015-08-03T14:16:28.961Z</time>
      </trkpt>
      <trkpt lat="43.33115" lon="3.05598">
        <ele>25.6</ele>
        <time>2015-08-03T14:16:32.035Z</time>
      </trkpt>
      <trkpt lat="43.33115" lon="3.05602">
        <ele>25.5</ele>
        <time>2015-08-03T14:16:32.959Z</time>
      </trkpt>
      <trkpt lat="43.33116" lon="3.05613">
        <ele>25.4</ele>
        <time>2015-08-03T14:16:36.011Z</time>
      </trkpt>
      <trkpt lat="43.33116" lon="3.05617">
        <ele>25.4</ele>
        <time>2015-08-03T14:16:36.961Z</time>
      </trkpt>
      <trkpt lat="43.33117" lon="3.05628">
        <ele>25.2</ele>
        <time>2015-08-03T14:16:40.017Z</time>
      </trkpt>
      <trkpt lat="43.33117" lon="3.05632">
        <ele>25.2</ele>
        <time>2015-08-03T14:16:40.961Z</time>
      </trkpt>
      <trkpt lat="43.33118" lon="3.0564">
        <ele>25.1</ele>
        <time>2015-08-03T14:16:43.018Z</time>
      </trkpt>
      <trkpt lat="43.33119" lon="3.05644">
        <ele>25.1</ele>
        <time>2015-08-03T14:16:43.960Z</time>
      </trkpt>
      <trkpt lat="43.33119" lon="3.05656">
        <ele>25.2</ele>
        <time>2015-08-03T14:16:47.007Z</time>
      </trkpt>
      <trkpt lat="43.33119" lon="3.0566">
        <ele>25.2</ele>
        <time>2015-08-03T14:16:47.958Z</time>
      </trkpt>
      <trkpt lat="43.33121" lon="3.05671">
        <ele>25.2</ele>
        <time>2015-08-03T14:16:51.007Z</time>
      </trkpt>
      <trkpt lat="43.33121" lon="3.05674">
        <ele>25.3</ele>
        <time>2015-08-03T14:16:51.981Z</time>
      </trkpt>
      <trkpt lat="43.33121" lon="3.05685">
        <ele>25.8</ele>
        <time>2015-08-03T14:16:55.005Z</time>
      </trkpt>
      <trkpt lat="43.33122" lon="3.05688">
        <ele>25.7</ele>
        <time>2015-08-03T14:16:55.961Z</time>
      </trkpt>
      <trkpt lat="43.33122" lon="3.05699">
        <ele>25.9</ele>
        <time>2015-08-03T14:17:00.004Z</time>
      </trkpt>
      <trkpt lat="43.33122" lon="3.05702">
        <ele>26</ele>
        <time>2015-08-03T14:17:00.971Z</time>
      </trkpt>
      <trkpt lat="43.33124" lon="3.05711">
        <ele>26.5</ele>
        <time>2015-08-03T14:17:04.006Z</time>
      </trkpt>
      <trkpt lat="43.33124" lon="3.05714">
        <ele>26.8</ele>
        <time>2015-08-03T14:17:04.957Z</time>
      </trkpt>
      <trkpt lat="43.33124" lon="3.05726">
        <ele>26.9</ele>
        <time>2015-08-03T14:17:09.019Z</time>
      </trkpt>
      <trkpt lat="43.33124" lon="3.0573">
        <ele>26.9</ele>
        <time>2015-08-03T14:17:09.958Z</time>
      </trkpt>
      <trkpt lat="43.33125" lon="3.05742">
        <ele>26.7</ele>
        <time>2015-08-03T14:17:14.001Z</time>
      </trkpt>
      <trkpt lat="43.33125" lon="3.05745">
        <ele>26.6</ele>
        <time>2015-08-03T14:17:14.957Z</time>
      </trkpt>
      <trkpt lat="43.33127" lon="3.05756">
        <ele>26.4</ele>
        <time>2015-08-03T14:17:18.006Z</time>
      </trkpt>
      <trkpt lat="43.33127" lon="3.05759">
        <ele>26.4</ele>
        <time>2015-08-03T14:17:18.964Z</time>
      </trkpt>
      <trkpt lat="43.33127" lon="3.05769">
        <ele>26</ele>
        <time>2015-08-03T14:17:21.996Z</time>
      </trkpt>
      <trkpt lat="43.33128" lon="3.05773">
        <ele>26.2</ele>
        <time>2015-08-03T14:17:22.958Z</time>
      </trkpt>
      <trkpt lat="43.33128" lon="3.05784">
        <ele>25.9</ele>
        <time>2015-08-03T14:17:26.998Z</time>
      </trkpt>
      <trkpt lat="43.33128" lon="3.05787">
        <ele>25.9</ele>
        <time>2015-08-03T14:17:27.963Z</time>
      </trkpt>
      <trkpt lat="43.3313" lon="3.05799">
        <ele>26</ele>
        <time>2015-08-03T14:17:33.000Z</time>
      </trkpt>
      <trkpt lat="43.3313" lon="3.05802">
        <ele>26.1</ele>
        <time>2015-08-03T14:17:33.964Z</time>
      </trkpt>
      <trkpt lat="43.33131" lon="3.05811">
        <ele>26.1</ele>
        <time>2015-08-03T14:17:37.015Z</time>
      </trkpt>
      <trkpt lat="43.33131" lon="3.05814">
        <ele>26.1</ele>
        <time>2015-08-03T14:17:37.981Z</time>
      </trkpt>
      <trkpt lat="43.33132" lon="3.05823">
        <ele>26.1</ele>
        <time>2015-08-03T14:17:40.042Z</time>
      </trkpt>
      <trkpt lat="43.33133" lon="3.05828">
        <ele>26.2</ele>
        <time>2015-08-03T14:17:40.957Z</time>
      </trkpt>
      <trkpt lat="43.33134" lon="3.05837">
        <ele>26.3</ele>
        <time>2015-08-03T14:17:43.004Z</time>
      </trkpt>
      <trkpt lat="43.33134" lon="3.05842">
        <ele>26.5</ele>
        <time>2015-08-03T14:17:43.961Z</time>
      </trkpt>
      <trkpt lat="43.33134" lon="3.05851">
        <ele>26.7</ele>
        <time>2015-08-03T14:17:46.023Z</time>
      </trkpt>
      <trkpt lat="43.33135" lon="3.05856">
        <ele>26.8</ele>
        <time>2015-08-03T14:17:46.956Z</time>
      </trkpt>
      <trkpt lat="43.33136" lon="3.05866">
        <ele>26.7</ele>
        <time>2015-08-03T14:17:49.009Z</time>
      </trkpt>
      <trkpt lat="43.33136" lon="3.0587">
        <ele>26.7</ele>
        <time>2015-08-03T14:17:49.963Z</time>
      </trkpt>
      <trkpt lat="43.33136" lon="3.05879">
        <ele>26.7</ele>
        <time>2015-08-03T14:17:52.032Z</time>
      </trkpt>
      <trkpt lat="43.33137" lon="3.05883">
        <ele>26.8</ele>
        <time>2015-08-03T14:17:52.955Z</time>
      </trkpt>
      <trkpt lat="43.33137" lon="3.05892">
        <ele>26.9</ele>
        <time>2015-08-03T14:17:55.002Z</time>
      </trkpt>
      <trkpt lat="43.33138" lon="3.05896">
        <ele>27</ele>
        <time>2015-08-03T14:17:55.962Z</time>
      </trkpt>
      <trkpt lat="43.33138" lon="3.05905">
        <ele>27.2</ele>
        <time>2015-08-03T14:17:57.999Z</time>
      </trkpt>
      <trkpt lat="43.33139" lon="3.0591">
        <ele>27.2</ele>
        <time>2015-08-03T14:17:58.971Z</time>
      </trkpt>
      <trkpt lat="43.33139" lon="3.05918">
        <ele>27.3</ele>
        <time>2015-08-03T14:18:01.000Z</time>
      </trkpt>
      <trkpt lat="43.33139" lon="3.05923">
        <ele>27.4</ele>
        <time>2015-08-03T14:18:01.959Z</time>
      </trkpt>
      <trkpt lat="43.33139" lon="3.05932">
        <ele>27.4</ele>
        <time>2015-08-03T14:18:04.008Z</time>
      </trkpt>
      <trkpt lat="43.33139" lon="3.05936">
        <ele>27.4</ele>
        <time>2015-08-03T14:18:04.959Z</time>
      </trkpt>
      <trkpt lat="43.33139" lon="3.05945">
        <ele>27.6</ele>
        <time>2015-08-03T14:18:07.049Z</time>
      </trkpt>
      <trkpt lat="43.33139" lon="3.0595">
        <ele>27.6</ele>
        <time>2015-08-03T14:18:07.995Z</time>
      </trkpt>
      <trkpt lat="43.33139" lon="3.05958">
        <ele>27.9</ele>
        <time>2015-08-03T14:18:10.006Z</time>
      </trkpt>
      <trkpt lat="43.33138" lon="3.05963">
        <ele>27.9</ele>
        <time>2015-08-03T14:18:10.957Z</time>
      </trkpt>
      <trkpt lat="43.33138" lon="3.05971">
        <ele>28.1</ele>
        <time>2015-08-03T14:18:13.003Z</time>
      </trkpt>
      <trkpt lat="43.33138" lon="3.05975">
        <ele>28.2</ele>
        <time>2015-08-03T14:18:13.963Z</time>
      </trkpt>
      <trkpt lat="43.33138" lon="3.05984">
        <ele>28.2</ele>
        <time>2015-08-03T14:18:16.033Z</time>
      </trkpt>
      <trkpt lat="43.33138" lon="3.05989">
        <ele>28.3</ele>
        <time>2015-08-03T14:18:16.969Z</time>
      </trkpt>
      <trkpt lat="43.33139" lon="3.05997">
        <ele>28.5</ele>
        <time>2015-08-03T14:18:19.015Z</time>
      </trkpt>
      <trkpt lat="43.33139" lon="3.06001">
        <ele>28.5</ele>
        <time>2015-08-03T14:18:19.961Z</time>
      </trkpt>
      <trkpt lat="43.33139" lon="3.06013">
        <ele>28.5</ele>
        <time>2015-08-03T14:18:23.027Z</time>
      </trkpt>
      <trkpt lat="43.33139" lon="3.06017">
        <ele>28.6</ele>
        <time>2015-08-03T14:18:23.981Z</time>
      </trkpt>
      <trkpt lat="43.33139" lon="3.06025">
        <ele>29</ele>
        <time>2015-08-03T14:18:26.005Z</time>
      </trkpt>
      <trkpt lat="43.33139" lon="3.0603">
        <ele>29</ele>
        <time>2015-08-03T14:18:26.959Z</time>
      </trkpt>
      <trkpt lat="43.33137" lon="3.06041">
        <ele>29.1</ele>
        <time>2015-08-03T14:18:30.001Z</time>
      </trkpt>
      <trkpt lat="43.33137" lon="3.06045">
        <ele>29.1</ele>
        <time>2015-08-03T14:18:31.339Z</time>
      </trkpt>
      <trkpt lat="43.33137" lon="3.06056">
        <ele>28.7</ele>
        <time>2015-08-03T14:18:34.025Z</time>
      </trkpt>
      <trkpt lat="43.33137" lon="3.0606">
        <ele>28.6</ele>
        <time>2015-08-03T14:18:34.959Z</time>
      </trkpt>
      <trkpt lat="43.33135" lon="3.06072">
        <ele>28.1</ele>
        <time>2015-08-03T14:18:38.395Z</time>
      </trkpt>
      <trkpt lat="43.33136" lon="3.06075">
        <ele>28</ele>
        <time>2015-08-03T14:18:38.959Z</time>
      </trkpt>
      <trkpt lat="43.33135" lon="3.06084">
        <ele>27.4</ele>
        <time>2015-08-03T14:18:41.000Z</time>
      </trkpt>
      <trkpt lat="43.33135" lon="3.06088">
        <ele>27.3</ele>
        <time>2015-08-03T14:18:41.963Z</time>
      </trkpt>
      <trkpt lat="43.33134" lon="3.06097">
        <ele>27.2</ele>
        <time>2015-08-03T14:18:44.339Z</time>
      </trkpt>
      <trkpt lat="43.33135" lon="3.06102">
        <ele>27.2</ele>
        <time>2015-08-03T14:18:44.958Z</time>
      </trkpt>
      <trkpt lat="43.33135" lon="3.06111">
        <ele>27.1</ele>
        <time>2015-08-03T14:18:47.025Z</time>
      </trkpt>
      <trkpt lat="43.33135" lon="3.06116">
        <ele>26.9</ele>
        <time>2015-08-03T14:18:47.981Z</time>
      </trkpt>
      <trkpt lat="43.33134" lon="3.06125">
        <ele>26.6</ele>
        <time>2015-08-03T14:18:49.998Z</time>
      </trkpt>
      <trkpt lat="43.33134" lon="3.0613">
        <ele>26.4</ele>
        <time>2015-08-03T14:18:50.957Z</time>
      </trkpt>
      <trkpt lat="43.33134" lon="3.06139">
        <ele>26</ele>
        <time>2015-08-03T14:18:53.054Z</time>
      </trkpt>
      <trkpt lat="43.33134" lon="3.06144">
        <ele>25.7</ele>
        <time>2015-08-03T14:18:53.961Z</time>
      </trkpt>
      <trkpt lat="43.33134" lon="3.06152">
        <ele>25.7</ele>
        <time>2015-08-03T14:18:55.999Z</time>
      </trkpt>
      <trkpt lat="43.33134" lon="3.06157">
        <ele>25.6</ele>
        <time>2015-08-03T14:18:56.961Z</time>
      </trkpt>
      <trkpt lat="43.33133" lon="3.06166">
        <ele>25.6</ele>
        <time>2015-08-03T14:18:59.007Z</time>
      </trkpt>
      <trkpt lat="43.33133" lon="3.0617">
        <ele>25.5</ele>
        <time>2015-08-03T14:18:59.957Z</time>
      </trkpt>
      <trkpt lat="43.33134" lon="3.06182">
        <ele>25.5</ele>
        <time>2015-08-03T14:19:02.999Z</time>
      </trkpt>
      <trkpt lat="43.33134" lon="3.06186">
        <ele>25.6</ele>
        <time>2015-08-03T14:19:03.961Z</time>
      </trkpt>
      <trkpt lat="43.33133" lon="3.06198">
        <ele>25.5</ele>
        <time>2015-08-03T14:19:07.004Z</time>
      </trkpt>
      <trkpt lat="43.33133" lon="3.06202">
        <ele>25.4</ele>
        <time>2015-08-03T14:19:07.958Z</time>
      </trkpt>
      <trkpt lat="43.33133" lon="3.06211">
        <ele>25.4</ele>
        <time>2015-08-03T14:19:10.002Z</time>
      </trkpt>
      <trkpt lat="43.33133" lon="3.06215">
        <ele>25.4</ele>
        <time>2015-08-03T14:19:10.958Z</time>
      </trkpt>
      <trkpt lat="43.33132" lon="3.06227">
        <ele>25.6</ele>
        <time>2015-08-03T14:19:14.061Z</time>
      </trkpt>
      <trkpt lat="43.33132" lon="3.06231">
        <ele>25.7</ele>
        <time>2015-08-03T14:19:14.960Z</time>
      </trkpt>
      <trkpt lat="43.33132" lon="3.06239">
        <ele>25.7</ele>
        <time>2015-08-03T14:19:16.998Z</time>
      </trkpt>
      <trkpt lat="43.33133" lon="3.06243">
        <ele>25.8</ele>
        <time>2015-08-03T14:19:17.960Z</time>
      </trkpt>
      <trkpt lat="43.33133" lon="3.06252">
        <ele>25.7</ele>
        <time>2015-08-03T14:19:20.014Z</time>
      </trkpt>
      <trkpt lat="43.33133" lon="3.06257">
        <ele>25.7</ele>
        <time>2015-08-03T14:19:20.985Z</time>
      </trkpt>
      <trkpt lat="43.33132" lon="3.06266">
        <ele>25.8</ele>
        <time>2015-08-03T14:19:23.000Z</time>
      </trkpt>
      <trkpt lat="43.33132" lon="3.0627">
        <ele>25.9</ele>
        <time>2015-08-03T14:19:23.958Z</time>
      </trkpt>
      <trkpt lat="43.33132" lon="3.0628">
        <ele>25.9</ele>
        <time>2015-08-03T14:19:25.998Z</time>
      </trkpt>
      <trkpt lat="43.33132" lon="3.06284">
        <ele>25.9</ele>
        <time>2015-08-03T14:19:26.958Z</time>
      </trkpt>
      <trkpt lat="43.33131" lon="3.06294">
        <ele>25.9</ele>
        <time>2015-08-03T14:19:28.994Z</time>
      </trkpt>
      <trkpt lat="43.33132" lon="3.06298">
        <ele>25.8</ele>
        <time>2015-08-03T14:19:29.958Z</time>
      </trkpt>
      <trkpt lat="43.33132" lon="3.06307">
        <ele>25.8</ele>
        <time>2015-08-03T14:19:32.008Z</time>
      </trkpt>
      <trkpt lat="43.33133" lon="3.06312">
        <ele>25.9</ele>
        <time>2015-08-03T14:19:32.962Z</time>
      </trkpt>
      <trkpt lat="43.33133" lon="3.06322">
        <ele>25.6</ele>
        <time>2015-08-03T14:19:35.000Z</time>
      </trkpt>
      <trkpt lat="43.33133" lon="3.06327">
        <ele>25.5</ele>
        <time>2015-08-03T14:19:35.961Z</time>
      </trkpt>
      <trkpt lat="43.33133" lon="3.06337">
        <ele>25.2</ele>
        <time>2015-08-03T14:19:38.277Z</time>
      </trkpt>
      <trkpt lat="43.33133" lon="3.06342">
        <ele>25.2</ele>
        <time>2015-08-03T14:19:38.962Z</time>
      </trkpt>
      <trkpt lat="43.33133" lon="3.06351">
        <ele>25.2</ele>
        <time>2015-08-03T14:19:40.999Z</time>
      </trkpt>
      <trkpt lat="43.33133" lon="3.06356">
        <ele>25.1</ele>
        <time>2015-08-03T14:19:41.963Z</time>
      </trkpt>
      <trkpt lat="43.33132" lon="3.06366">
        <ele>25</ele>
        <time>2015-08-03T14:19:44.072Z</time>
      </trkpt>
      <trkpt lat="43.33132" lon="3.06371">
        <ele>25</ele>
        <time>2015-08-03T14:19:44.968Z</time>
      </trkpt>
      <trkpt lat="43.33132" lon="3.06381">
        <ele>25</ele>
        <time>2015-08-03T14:19:46.997Z</time>
      </trkpt>
      <trkpt lat="43.33132" lon="3.06386">
        <ele>25.1</ele>
        <time>2015-08-03T14:19:47.961Z</time>
      </trkpt>
      <trkpt lat="43.33131" lon="3.06396">
        <ele>25.3</ele>
        <time>2015-08-03T14:19:50.008Z</time>
      </trkpt>
      <trkpt lat="43.33131" lon="3.06401">
        <ele>25.4</ele>
        <time>2015-08-03T14:19:50.968Z</time>
      </trkpt>
      <trkpt lat="43.3313" lon="3.06411">
        <ele>25.5</ele>
        <time>2015-08-03T14:19:52.998Z</time>
      </trkpt>
      <trkpt lat="43.3313" lon="3.06416">
        <ele>25.5</ele>
        <time>2015-08-03T14:19:53.956Z</time>
      </trkpt>
      <trkpt lat="43.33131" lon="3.06426">
        <ele>25.8</ele>
        <time>2015-08-03T14:19:56.003Z</time>
      </trkpt>
      <trkpt lat="43.33131" lon="3.06431">
        <ele>25.8</ele>
        <time>2015-08-03T14:19:56.969Z</time>
      </trkpt>
      <trkpt lat="43.3313" lon="3.06441">
        <ele>25.8</ele>
        <time>2015-08-03T14:19:59.002Z</time>
      </trkpt>
      <trkpt lat="43.3313" lon="3.06446">
        <ele>25.9</ele>
        <time>2015-08-03T14:19:59.959Z</time>
      </trkpt>
      <trkpt lat="43.3313" lon="3.06456">
        <ele>25.9</ele>
        <time>2015-08-03T14:20:01.998Z</time>
      </trkpt>
      <trkpt lat="43.33129" lon="3.06462">
        <ele>25.8</ele>
        <time>2015-08-03T14:20:02.958Z</time>
      </trkpt>
      <trkpt lat="43.33128" lon="3.06473">
        <ele>25.7</ele>
        <time>2015-08-03T14:20:04.993Z</time>
      </trkpt>
      <trkpt lat="43.33128" lon="3.06478">
        <ele>25.8</ele>
        <time>2015-08-03T14:20:05.958Z</time>
      </trkpt>
      <trkpt lat="43.33126" lon="3.06489">
        <ele>26</ele>
        <time>2015-08-03T14:20:08.050Z</time>
      </trkpt>
      <trkpt lat="43.33126" lon="3.06495">
        <ele>26</ele>
        <time>2015-08-03T14:20:08.968Z</time>
      </trkpt>
      <trkpt lat="43.33125" lon="3.06505">
        <ele>26.4</ele>
        <time>2015-08-03T14:20:10.997Z</time>
      </trkpt>
      <trkpt lat="43.33125" lon="3.0651">
        <ele>26.6</ele>
        <time>2015-08-03T14:20:11.962Z</time>
      </trkpt>
      <trkpt lat="43.33123" lon="3.06521">
        <ele>27</ele>
        <time>2015-08-03T14:20:14.011Z</time>
      </trkpt>
      <trkpt lat="43.33122" lon="3.06526">
        <ele>27.2</ele>
        <time>2015-08-03T14:20:14.989Z</time>
      </trkpt>
      <trkpt lat="43.3312" lon="3.06537">
        <ele>27.3</ele>
        <time>2015-08-03T14:20:17.000Z</time>
      </trkpt>
      <trkpt lat="43.33119" lon="3.06542">
        <ele>27.4</ele>
        <time>2015-08-03T14:20:17.962Z</time>
      </trkpt>
      <trkpt lat="43.33115" lon="3.06553">
        <ele>27.3</ele>
        <time>2015-08-03T14:20:20.003Z</time>
      </trkpt>
      <trkpt lat="43.33113" lon="3.06558">
        <ele>27.3</ele>
        <time>2015-08-03T14:20:20.962Z</time>
      </trkpt>
      <trkpt lat="43.33111" lon="3.06568">
        <ele>27.4</ele>
        <time>2015-08-03T14:20:23.002Z</time>
      </trkpt>
      <trkpt lat="43.3311" lon="3.06573">
        <ele>27.4</ele>
        <time>2015-08-03T14:20:23.963Z</time>
      </trkpt>
      <trkpt lat="43.33107" lon="3.06584">
        <ele>27.7</ele>
        <time>2015-08-03T14:20:26.036Z</time>
      </trkpt>
      <trkpt lat="43.33106" lon="3.06588">
        <ele>27.7</ele>
        <time>2015-08-03T14:20:26.962Z</time>
      </trkpt>
      <trkpt lat="43.33102" lon="3.06598">
        <ele>27.6</ele>
        <time>2015-08-03T14:20:29.001Z</time>
      </trkpt>
      <trkpt lat="43.33101" lon="3.06603">
        <ele>27.6</ele>
        <time>2015-08-03T14:20:30.196Z</time>
      </trkpt>
      <trkpt lat="43.33097" lon="3.06612">
        <ele>27.9</ele>
        <time>2015-08-03T14:20:32.000Z</time>
      </trkpt>
      <trkpt lat="43.33095" lon="3.06616">
        <ele>27.9</ele>
        <time>2015-08-03T14:20:32.968Z</time>
      </trkpt>
      <trkpt lat="43.33091" lon="3.06625">
        <ele>27.9</ele>
        <time>2015-08-03T14:20:34.999Z</time>
      </trkpt>
      <trkpt lat="43.33089" lon="3.06629">
        <ele>28</ele>
        <time>2015-08-03T14:20:35.961Z</time>
      </trkpt>
      <trkpt lat="43.33084" lon="3.06637">
        <ele>28</ele>
        <time>2015-08-03T14:20:38.013Z</time>
      </trkpt>
      <trkpt lat="43.33081" lon="3.06641">
        <ele>28.1</ele>
        <time>2015-08-03T14:20:38.959Z</time>
      </trkpt>
      <trkpt lat="43.33075" lon="3.06649">
        <ele>28.3</ele>
        <time>2015-08-03T14:20:41.025Z</time>
      </trkpt>
      <trkpt lat="43.33073" lon="3.06652">
        <ele>28.4</ele>
        <time>2015-08-03T14:20:41.982Z</time>
      </trkpt>
      <trkpt lat="43.33068" lon="3.06659">
        <ele>28.6</ele>
        <time>2015-08-03T14:20:44.006Z</time>
      </trkpt>
      <trkpt lat="43.33065" lon="3.06662">
        <ele>28.6</ele>
        <time>2015-08-03T14:20:44.959Z</time>
      </trkpt>
      <trkpt lat="43.3306" lon="3.06667">
        <ele>29</ele>
        <time>2015-08-03T14:20:47.000Z</time>
      </trkpt>
      <trkpt lat="43.33057" lon="3.0667">
        <ele>29.1</ele>
        <time>2015-08-03T14:20:47.962Z</time>
      </trkpt>
      <trkpt lat="43.33052" lon="3.06676">
        <ele>29.1</ele>
        <time>2015-08-03T14:20:50.047Z</time>
      </trkpt>
      <trkpt lat="43.33049" lon="3.06679">
        <ele>29.2</ele>
        <time>2015-08-03T14:20:50.969Z</time>
      </trkpt>
      <trkpt lat="43.33043" lon="3.06685">
        <ele>29.1</ele>
        <time>2015-08-03T14:20:52.999Z</time>
      </trkpt>
      <trkpt lat="43.3304" lon="3.06687">
        <ele>29.1</ele>
        <time>2015-08-03T14:20:53.956Z</time>
      </trkpt>
      <trkpt lat="43.33035" lon="3.06693">
        <ele>28.9</ele>
        <time>2015-08-03T14:20:56.006Z</time>
      </trkpt>
      <trkpt lat="43.33031" lon="3.06695">
        <ele>28.7</ele>
        <time>2015-08-03T14:20:56.962Z</time>
      </trkpt>
      <trkpt lat="43.33026" lon="3.06699">
        <ele>28.6</ele>
        <time>2015-08-03T14:20:58.996Z</time>
      </trkpt>
      <trkpt lat="43.33023" lon="3.06701">
        <ele>28.6</ele>
        <time>2015-08-03T14:20:59.964Z</time>
      </trkpt>
      <trkpt lat="43.33016" lon="3.06705">
        <ele>28.6</ele>
        <time>2015-08-03T14:21:03.025Z</time>
      </trkpt>
      <trkpt lat="43.33013" lon="3.06707">
        <ele>28.4</ele>
        <time>2015-08-03T14:21:03.981Z</time>
      </trkpt>
      <trkpt lat="43.33007" lon="3.06709">
        <ele>28.3</ele>
        <time>2015-08-03T14:21:06.001Z</time>
      </trkpt>
      <trkpt lat="43.33004" lon="3.06711">
        <ele>28.4</ele>
        <time>2015-08-03T14:21:06.960Z</time>
      </trkpt>
      <trkpt lat="43.32996" lon="3.06716">
        <ele>28.7</ele>
        <time>2015-08-03T14:21:10.007Z</time>
      </trkpt>
      <trkpt lat="43.32993" lon="3.06716">
        <ele>28.9</ele>
        <time>2015-08-03T14:21:10.969Z</time>
      </trkpt>
      <trkpt lat="43.32986" lon="3.06719">
        <ele>29.6</ele>
        <time>2015-08-03T14:21:14.008Z</time>
      </trkpt>
      <trkpt lat="43.32983" lon="3.0672">
        <ele>29.9</ele>
        <time>2015-08-03T14:21:14.961Z</time>
      </trkpt>
      <trkpt lat="43.32975" lon="3.06721">
        <ele>30.2</ele>
        <time>2015-08-03T14:21:18.050Z</time>
      </trkpt>
      <trkpt lat="43.32973" lon="3.06721">
        <ele>30.3</ele>
        <time>2015-08-03T14:21:18.971Z</time>
      </trkpt>
      <trkpt lat="43.32965" lon="3.06722">
        <ele>30.5</ele>
        <time>2015-08-03T14:21:22.005Z</time>
      </trkpt>
      <trkpt lat="43.32963" lon="3.06722">
        <ele>30.4</ele>
        <time>2015-08-03T14:21:22.956Z</time>
      </trkpt>
      <trkpt lat="43.32955" lon="3.06723">
        <ele>30</ele>
        <time>2015-08-03T14:21:26.023Z</time>
      </trkpt>
      <trkpt lat="43.32952" lon="3.06723">
        <ele>30</ele>
        <time>2015-08-03T14:21:26.969Z</time>
      </trkpt>
      <trkpt lat="43.32944" lon="3.06724">
        <ele>29.9</ele>
        <time>2015-08-03T14:21:30.003Z</time>
      </trkpt>
      <trkpt lat="43.32941" lon="3.06724">
        <ele>29.9</ele>
        <time>2015-08-03T14:21:30.960Z</time>
      </trkpt>
      <trkpt lat="43.32934" lon="3.06725">
        <ele>28.6</ele>
        <time>2015-08-03T14:21:34.084Z</time>
      </trkpt>
      <trkpt lat="43.32932" lon="3.06726">
        <ele>28.1</ele>
        <time>2015-08-03T14:21:34.969Z</time>
      </trkpt>
      <trkpt lat="43.32925" lon="3.06728">
        <ele>26.7</ele>
        <time>2015-08-03T14:21:38.014Z</time>
      </trkpt>
      <trkpt lat="43.32922" lon="3.06728">
        <ele>26.3</ele>
        <time>2015-08-03T14:21:38.972Z</time>
      </trkpt>
      <trkpt lat="43.32915" lon="3.06729">
        <ele>25.5</ele>
        <time>2015-08-03T14:21:42.002Z</time>
      </trkpt>
      <trkpt lat="43.32912" lon="3.0673">
        <ele>25.4</ele>
        <time>2015-08-03T14:21:42.960Z</time>
      </trkpt>
      <trkpt lat="43.32904" lon="3.06733">
        <ele>24.6</ele>
        <time>2015-08-03T14:21:46.044Z</time>
      </trkpt>
      <trkpt lat="43.32901" lon="3.06734">
        <ele>24.3</ele>
        <time>2015-08-03T14:21:46.960Z</time>
      </trkpt>
      <trkpt lat="43.32894" lon="3.06736">
        <ele>24.1</ele>
        <time>2015-08-03T14:21:50.014Z</time>
      </trkpt>
      <trkpt lat="43.32892" lon="3.06737">
        <ele>24.2</ele>
        <time>2015-08-03T14:21:50.958Z</time>
      </trkpt>
      <trkpt lat="43.32884" lon="3.06741">
        <ele>24.6</ele>
        <time>2015-08-03T14:21:53.999Z</time>
      </trkpt>
      <trkpt lat="43.32882" lon="3.06742">
        <ele>24.7</ele>
        <time>2015-08-03T14:21:54.959Z</time>
      </trkpt>
      <trkpt lat="43.32875" lon="3.06748">
        <ele>24.7</ele>
        <time>2015-08-03T14:21:58.344Z</time>
      </trkpt>
      <trkpt lat="43.32873" lon="3.0675">
        <ele>24.6</ele>
        <time>2015-08-03T14:21:58.959Z</time>
      </trkpt>
      <trkpt lat="43.32867" lon="3.06756">
        <ele>25</ele>
        <time>2015-08-03T14:22:02.006Z</time>
      </trkpt>
      <trkpt lat="43.32865" lon="3.06758">
        <ele>25</ele>
        <time>2015-08-03T14:22:02.959Z</time>
      </trkpt>
      <trkpt lat="43.32859" lon="3.06764">
        <ele>25.1</ele>
        <time>2015-08-03T14:22:06.999Z</time>
      </trkpt>
      <trkpt lat="43.32858" lon="3.06765">
        <ele>25.1</ele>
        <time>2015-08-03T14:22:07.963Z</time>
      </trkpt>
      <trkpt lat="43.32852" lon="3.06772">
        <ele>25.1</ele>
        <time>2015-08-03T14:22:12.001Z</time>
      </trkpt>
      <trkpt lat="43.3285" lon="3.06774">
        <ele>25.3</ele>
        <time>2015-08-03T14:22:12.959Z</time>
      </trkpt>
      <trkpt lat="43.32844" lon="3.06781">
        <ele>26</ele>
        <time>2015-08-03T14:22:16.040Z</time>
      </trkpt>
      <trkpt lat="43.32842" lon="3.06783">
        <ele>25.8</ele>
        <time>2015-08-03T14:22:16.969Z</time>
      </trkpt>
      <trkpt lat="43.32837" lon="3.06791">
        <ele>25.8</ele>
        <time>2015-08-03T14:22:20.009Z</time>
      </trkpt>
      <trkpt lat="43.32835" lon="3.06794">
        <ele>25.8</ele>
        <time>2015-08-03T14:22:20.958Z</time>
      </trkpt>
      <trkpt lat="43.3283" lon="3.06803">
        <ele>25.8</ele>
        <time>2015-08-03T14:22:24.029Z</time>
      </trkpt>
      <trkpt lat="43.32828" lon="3.06805">
        <ele>25.7</ele>
        <time>2015-08-03T14:22:24.971Z</time>
      </trkpt>
      <trkpt lat="43.32823" lon="3.06815">
        <ele>25.7</ele>
        <time>2015-08-03T14:22:28.013Z</time>
      </trkpt>
      <trkpt lat="43.32822" lon="3.06818">
        <ele>25.7</ele>
        <time>2015-08-03T14:22:28.957Z</time>
      </trkpt>
      <trkpt lat="43.32816" lon="3.06826">
        <ele>26</ele>
        <time>2015-08-03T14:22:32.009Z</time>
      </trkpt>
      <trkpt lat="43.32815" lon="3.0683">
        <ele>26.1</ele>
        <time>2015-08-03T14:22:32.961Z</time>
      </trkpt>
      <trkpt lat="43.32811" lon="3.06837">
        <ele>26.2</ele>
        <time>2015-08-03T14:22:35.013Z</time>
      </trkpt>
      <trkpt lat="43.3281" lon="3.0684">
        <ele>26.3</ele>
        <time>2015-08-03T14:22:35.965Z</time>
      </trkpt>
      <trkpt lat="43.32806" lon="3.06849">
        <ele>26.9</ele>
        <time>2015-08-03T14:22:39.000Z</time>
      </trkpt>
      <trkpt lat="43.32804" lon="3.06852">
        <ele>27</ele>
        <time>2015-08-03T14:22:39.960Z</time>
      </trkpt>
      <trkpt lat="43.32799" lon="3.06862">
        <ele>27.5</ele>
        <time>2015-08-03T14:22:44.998Z</time>
      </trkpt>
      <trkpt lat="43.32798" lon="3.06865">
        <ele>27.6</ele>
        <time>2015-08-03T14:22:45.963Z</time>
      </trkpt>
      <trkpt lat="43.32794" lon="3.06874">
        <ele>28.3</ele>
        <time>2015-08-03T14:22:49.999Z</time>
      </trkpt>
      <trkpt lat="43.32793" lon="3.06876">
        <ele>28.6</ele>
        <time>2015-08-03T14:22:50.963Z</time>
      </trkpt>
      <trkpt lat="43.32788" lon="3.06885">
        <ele>29.5</ele>
        <time>2015-08-03T14:22:55.375Z</time>
      </trkpt>
      <trkpt lat="43.32787" lon="3.06888">
        <ele>29.5</ele>
        <time>2015-08-03T14:22:55.962Z</time>
      </trkpt>
      <trkpt lat="43.32783" lon="3.06896">
        <ele>29.8</ele>
        <time>2015-08-03T14:22:59.009Z</time>
      </trkpt>
      <trkpt lat="43.32781" lon="3.06898">
        <ele>30</ele>
        <time>2015-08-03T14:22:59.963Z</time>
      </trkpt>
      <trkpt lat="43.32777" lon="3.06906">
        <ele>31.1</ele>
        <time>2015-08-03T14:23:03.578Z</time>
      </trkpt>
      <trkpt lat="43.32775" lon="3.06908">
        <ele>31.2</ele>
        <time>2015-08-03T14:23:03.973Z</time>
      </trkpt>
      <trkpt lat="43.32771" lon="3.06916">
        <ele>31.1</ele>
        <time>2015-08-03T14:23:05.998Z</time>
      </trkpt>
      <trkpt lat="43.32769" lon="3.0692">
        <ele>30.9</ele>
        <time>2015-08-03T14:23:06.961Z</time>
      </trkpt>
      <trkpt lat="43.32765" lon="3.06928">
        <ele>30.8</ele>
        <time>2015-08-03T14:23:09.393Z</time>
      </trkpt>
      <trkpt lat="43.32763" lon="3.06931">
        <ele>31</ele>
        <time>2015-08-03T14:23:09.962Z</time>
      </trkpt>
      <trkpt lat="43.32757" lon="3.0694">
        <ele>31.1</ele>
        <time>2015-08-03T14:23:13.001Z</time>
      </trkpt>
      <trkpt lat="43.32756" lon="3.06942">
        <ele>31</ele>
        <time>2015-08-03T14:23:13.960Z</time>
      </trkpt>
      <trkpt lat="43.3275" lon="3.06952">
        <ele>31.2</ele>
        <time>2015-08-03T14:23:17.023Z</time>
      </trkpt>
      <trkpt lat="43.32748" lon="3.06955">
        <ele>31.3</ele>
        <time>2015-08-03T14:23:17.970Z</time>
      </trkpt>
      <trkpt lat="43.32744" lon="3.06964">
        <ele>31.4</ele>
        <time>2015-08-03T14:23:21.048Z</time>
      </trkpt>
      <trkpt lat="43.32742" lon="3.06967">
        <ele>31.5</ele>
        <time>2015-08-03T14:23:21.960Z</time>
      </trkpt>
      <trkpt lat="43.32736" lon="3.06975">
        <ele>31.8</ele>
        <time>2015-08-03T14:23:25.000Z</time>
      </trkpt>
      <trkpt lat="43.32735" lon="3.06977">
        <ele>31.8</ele>
        <time>2015-08-03T14:23:25.981Z</time>
      </trkpt>
      <trkpt lat="43.32729" lon="3.06986">
        <ele>32.3</ele>
        <time>2015-08-03T14:23:29.000Z</time>
      </trkpt>
      <trkpt lat="43.32727" lon="3.0699">
        <ele>32.4</ele>
        <time>2015-08-03T14:23:29.967Z</time>
      </trkpt>
      <trkpt lat="43.32722" lon="3.06998">
        <ele>32.3</ele>
        <time>2015-08-03T14:23:31.994Z</time>
      </trkpt>
      <trkpt lat="43.3272" lon="3.07002">
        <ele>32</ele>
        <time>2015-08-03T14:23:32.955Z</time>
      </trkpt>
      <trkpt lat="43.32715" lon="3.07012">
        <ele>31.7</ele>
        <time>2015-08-03T14:23:35.999Z</time>
      </trkpt>
      <trkpt lat="43.32713" lon="3.07015">
        <ele>31.4</ele>
        <time>2015-08-03T14:23:36.961Z</time>
      </trkpt>
      <trkpt lat="43.32709" lon="3.07022">
        <ele>30.7</ele>
        <time>2015-08-03T14:23:40.007Z</time>
      </trkpt>
      <trkpt lat="43.32707" lon="3.07024">
        <ele>30.8</ele>
        <time>2015-08-03T14:23:40.958Z</time>
      </trkpt>
      <trkpt lat="43.32702" lon="3.07033">
        <ele>30.5</ele>
        <time>2015-08-03T14:23:44.008Z</time>
      </trkpt>
      <trkpt lat="43.327" lon="3.07035">
        <ele>30.4</ele>
        <time>2015-08-03T14:23:44.968Z</time>
      </trkpt>
      <trkpt lat="43.32697" lon="3.07044">
        <ele>29.9</ele>
        <time>2015-08-03T14:23:48.013Z</time>
      </trkpt>
      <trkpt lat="43.32695" lon="3.07046">
        <ele>29.7</ele>
        <time>2015-08-03T14:23:49.250Z</time>
      </trkpt>
      <trkpt lat="43.32692" lon="3.07055">
        <ele>29.1</ele>
        <time>2015-08-03T14:23:53.230Z</time>
      </trkpt>
      <trkpt lat="43.3269" lon="3.07057">
        <ele>29.2</ele>
        <time>2015-08-03T14:23:53.964Z</time>
      </trkpt>
      <trkpt lat="43.32686" lon="3.07064">
        <ele>29.6</ele>
        <time>2015-08-03T14:23:57.083Z</time>
      </trkpt>
      <trkpt lat="43.32685" lon="3.07068">
        <ele>29.4</ele>
        <time>2015-08-03T14:23:57.961Z</time>
      </trkpt>
      <trkpt lat="43.3268" lon="3.07075">
        <ele>29.7</ele>
        <time>2015-08-03T14:24:01.391Z</time>
      </trkpt>
      <trkpt lat="43.32679" lon="3.07078">
        <ele>29.7</ele>
        <time>2015-08-03T14:24:01.962Z</time>
      </trkpt>
      <trkpt lat="43.32675" lon="3.07086">
        <ele>29.6</ele>
        <time>2015-08-03T14:24:04.999Z</time>
      </trkpt>
      <trkpt lat="43.32673" lon="3.07089">
        <ele>29.7</ele>
        <time>2015-08-03T14:24:05.962Z</time>
      </trkpt>
      <trkpt lat="43.32669" lon="3.07099">
        <ele>29.7</ele>
        <time>2015-08-03T14:24:08.993Z</time>
      </trkpt>
      <trkpt lat="43.32667" lon="3.07102">
        <ele>29.8</ele>
        <time>2015-08-03T14:24:09.955Z</time>
      </trkpt>
      <trkpt lat="43.32662" lon="3.07111">
        <ele>29.9</ele>
        <time>2015-08-03T14:24:12.991Z</time>
      </trkpt>
      <trkpt lat="43.32661" lon="3.07115">
        <ele>29.8</ele>
        <time>2015-08-03T14:24:13.955Z</time>
      </trkpt>
      <trkpt lat="43.32658" lon="3.07124">
        <ele>29.4</ele>
        <time>2015-08-03T14:24:17.002Z</time>
      </trkpt>
      <trkpt lat="43.32656" lon="3.07127">
        <ele>29.3</ele>
        <time>2015-08-03T14:24:17.960Z</time>
      </trkpt>
      <trkpt lat="43.32652" lon="3.07136">
        <ele>29.6</ele>
        <time>2015-08-03T14:24:20.999Z</time>
      </trkpt>
      <trkpt lat="43.32651" lon="3.0714">
        <ele>29.5</ele>
        <time>2015-08-03T14:24:21.962Z</time>
      </trkpt>
      <trkpt lat="43.32648" lon="3.07149">
        <ele>29.5</ele>
        <time>2015-08-03T14:24:24.178Z</time>
      </trkpt>
      <trkpt lat="43.32647" lon="3.07153">
        <ele>29.8</ele>
        <time>2015-08-03T14:24:24.962Z</time>
      </trkpt>
      <trkpt lat="43.32644" lon="3.07161">
        <ele>30.1</ele>
        <time>2015-08-03T14:24:27.023Z</time>
      </trkpt>
      <trkpt lat="43.32643" lon="3.07165">
        <ele>30.1</ele>
        <time>2015-08-03T14:24:27.963Z</time>
      </trkpt>
      <trkpt lat="43.3264" lon="3.07174">
        <ele>30.1</ele>
        <time>2015-08-03T14:24:30.002Z</time>
      </trkpt>
      <trkpt lat="43.32638" lon="3.07178">
        <ele>30.4</ele>
        <time>2015-08-03T14:24:30.961Z</time>
      </trkpt>
      <trkpt lat="43.32636" lon="3.07186">
        <ele>30.9</ele>
        <time>2015-08-03T14:24:33.001Z</time>
      </trkpt>
      <trkpt lat="43.32634" lon="3.07189">
        <ele>30.9</ele>
        <time>2015-08-03T14:24:34.221Z</time>
      </trkpt>
      <trkpt lat="43.3263" lon="3.072">
        <ele>31.2</ele>
        <time>2015-08-03T14:24:37.003Z</time>
      </trkpt>
      <trkpt lat="43.32629" lon="3.07205">
        <ele>31.5</ele>
        <time>2015-08-03T14:24:37.961Z</time>
      </trkpt>
      <trkpt lat="43.32626" lon="3.07213">
        <ele>32</ele>
        <time>2015-08-03T14:24:40.021Z</time>
      </trkpt>
      <trkpt lat="43.32625" lon="3.07217">
        <ele>32.4</ele>
        <time>2015-08-03T14:24:40.984Z</time>
      </trkpt>
      <trkpt lat="43.32621" lon="3.07227">
        <ele>32.9</ele>
        <time>2015-08-03T14:24:43.190Z</time>
      </trkpt>
      <trkpt lat="43.32619" lon="3.07232">
        <ele>33.2</ele>
        <time>2015-08-03T14:24:43.962Z</time>
      </trkpt>
      <trkpt lat="43.32616" lon="3.07242">
        <ele>33.6</ele>
        <time>2015-08-03T14:24:46.012Z</time>
      </trkpt>
      <trkpt lat="43.32614" lon="3.07247">
        <ele>33.6</ele>
        <time>2015-08-03T14:24:46.964Z</time>
      </trkpt>
      <trkpt lat="43.3261" lon="3.07257">
        <ele>34.1</ele>
        <time>2015-08-03T14:24:49.002Z</time>
      </trkpt>
      <trkpt lat="43.32608" lon="3.07262">
        <ele>34.5</ele>
        <time>2015-08-03T14:24:49.981Z</time>
      </trkpt>
      <trkpt lat="43.32604" lon="3.0727">
        <ele>34.9</ele>
        <time>2015-08-03T14:24:52.007Z</time>
      </trkpt>
      <trkpt lat="43.32602" lon="3.07274">
        <ele>34.9</ele>
        <time>2015-08-03T14:24:52.961Z</time>
      </trkpt>
      <trkpt lat="43.32597" lon="3.07284">
        <ele>35.1</ele>
        <time>2015-08-03T14:24:55.002Z</time>
      </trkpt>
      <trkpt lat="43.32595" lon="3.07288">
        <ele>35.2</ele>
        <time>2015-08-03T14:24:55.964Z</time>
      </trkpt>
      <trkpt lat="43.32591" lon="3.07296">
        <ele>35.4</ele>
        <time>2015-08-03T14:24:58.030Z</time>
      </trkpt>
      <trkpt lat="43.32589" lon="3.07299">
        <ele>35.5</ele>
        <time>2015-08-03T14:24:58.961Z</time>
      </trkpt>
      <trkpt lat="43.32585" lon="3.07309">
        <ele>35.6</ele>
        <time>2015-08-03T14:25:01.002Z</time>
      </trkpt>
      <trkpt lat="43.32583" lon="3.07313">
        <ele>35.5</ele>
        <time>2015-08-03T14:25:01.958Z</time>
      </trkpt>
      <trkpt lat="43.32578" lon="3.0732">
        <ele>35.3</ele>
        <time>2015-08-03T14:25:03.999Z</time>
      </trkpt>
      <trkpt lat="43.32575" lon="3.07324">
        <ele>34.8</ele>
        <time>2015-08-03T14:25:04.957Z</time>
      </trkpt>
      <trkpt lat="43.32571" lon="3.07333">
        <ele>34.7</ele>
        <time>2015-08-03T14:25:06.992Z</time>
      </trkpt>
      <trkpt lat="43.32568" lon="3.07337">
        <ele>34.6</ele>
        <time>2015-08-03T14:25:07.958Z</time>
      </trkpt>
      <trkpt lat="43.32563" lon="3.07345">
        <ele>34.3</ele>
        <time>2015-08-03T14:25:10.001Z</time>
      </trkpt>
      <trkpt lat="43.32561" lon="3.07349">
        <ele>34.3</ele>
        <time>2015-08-03T14:25:10.956Z</time>
      </trkpt>
      <trkpt lat="43.32556" lon="3.07356">
        <ele>34</ele>
        <time>2015-08-03T14:25:13.006Z</time>
      </trkpt>
      <trkpt lat="43.32554" lon="3.0736">
        <ele>33.9</ele>
        <time>2015-08-03T14:25:13.962Z</time>
      </trkpt>
      <trkpt lat="43.32549" lon="3.07368">
        <ele>33.7</ele>
        <time>2015-08-03T14:25:16.094Z</time>
      </trkpt>
      <trkpt lat="43.32547" lon="3.07372">
        <ele>33.6</ele>
        <time>2015-08-03T14:25:16.959Z</time>
      </trkpt>
      <trkpt lat="43.32542" lon="3.07379">
        <ele>33.4</ele>
        <time>2015-08-03T14:25:19.003Z</time>
      </trkpt>
      <trkpt lat="43.32539" lon="3.07382">
        <ele>33.2</ele>
        <time>2015-08-03T14:25:19.961Z</time>
      </trkpt>
      <trkpt lat="43.32534" lon="3.07388">
        <ele>33.1</ele>
        <time>2015-08-03T14:25:21.996Z</time>
      </trkpt>
      <trkpt lat="43.32532" lon="3.07392">
        <ele>33</ele>
        <time>2015-08-03T14:25:22.955Z</time>
      </trkpt>
      <trkpt lat="43.32528" lon="3.07399">
        <ele>33.2</ele>
        <time>2015-08-03T14:25:25.003Z</time>
      </trkpt>
      <trkpt lat="43.32526" lon="3.07402">
        <ele>33.3</ele>
        <time>2015-08-03T14:25:25.964Z</time>
      </trkpt>
      <trkpt lat="43.32521" lon="3.07409">
        <ele>33.9</ele>
        <time>2015-08-03T14:25:28.012Z</time>
      </trkpt>
      <trkpt lat="43.32519" lon="3.07413">
        <ele>34</ele>
        <time>2015-08-03T14:25:28.959Z</time>
      </trkpt>
      <trkpt lat="43.32515" lon="3.0742">
        <ele>34</ele>
        <time>2015-08-03T14:25:31.001Z</time>
      </trkpt>
      <trkpt lat="43.32512" lon="3.07424">
        <ele>34.2</ele>
        <time>2015-08-03T14:25:31.981Z</time>
      </trkpt>
      <trkpt lat="43.32508" lon="3.07431">
        <ele>34.1</ele>
        <time>2015-08-03T14:25:34.010Z</time>
      </trkpt>
      <trkpt lat="43.32505" lon="3.07434">
        <ele>34.5</ele>
        <time>2015-08-03T14:25:34.959Z</time>
      </trkpt>
      <trkpt lat="43.325" lon="3.07442">
        <ele>34.4</ele>
        <time>2015-08-03T14:25:37.001Z</time>
      </trkpt>
      <trkpt lat="43.32498" lon="3.07446">
        <ele>34.7</ele>
        <time>2015-08-03T14:25:37.964Z</time>
      </trkpt>
      <trkpt lat="43.32494" lon="3.07453">
        <ele>34.8</ele>
        <time>2015-08-03T14:25:40.011Z</time>
      </trkpt>
      <trkpt lat="43.32491" lon="3.07457">
        <ele>34.8</ele>
        <time>2015-08-03T14:25:40.958Z</time>
      </trkpt>
      <trkpt lat="43.32486" lon="3.07464">
        <ele>34</ele>
        <time>2015-08-03T14:25:43.335Z</time>
      </trkpt>
      <trkpt lat="43.32483" lon="3.07468">
        <ele>33.6</ele>
        <time>2015-08-03T14:25:43.962Z</time>
      </trkpt>
      <trkpt lat="43.32478" lon="3.07474">
        <ele>33.5</ele>
        <time>2015-08-03T14:25:46.039Z</time>
      </trkpt>
      <trkpt lat="43.32476" lon="3.07477">
        <ele>34</ele>
        <time>2015-08-03T14:25:46.973Z</time>
      </trkpt>
      <trkpt lat="43.32472" lon="3.07484">
        <ele>34.6</ele>
        <time>2015-08-03T14:25:49.022Z</time>
      </trkpt>
      <trkpt lat="43.32469" lon="3.07487">
        <ele>34.8</ele>
        <time>2015-08-03T14:25:49.961Z</time>
      </trkpt>
      <trkpt lat="43.32464" lon="3.07493">
        <ele>34.5</ele>
        <time>2015-08-03T14:25:52.004Z</time>
      </trkpt>
      <trkpt lat="43.32461" lon="3.07497">
        <ele>34.6</ele>
        <time>2015-08-03T14:25:52.959Z</time>
      </trkpt>
      <trkpt lat="43.32455" lon="3.07503">
        <ele>34</ele>
        <time>2015-08-03T14:25:55.404Z</time>
      </trkpt>
      <trkpt lat="43.32452" lon="3.07506">
        <ele>33.9</ele>
        <time>2015-08-03T14:25:55.959Z</time>
      </trkpt>
      <trkpt lat="43.32446" lon="3.07512">
        <ele>33.5</ele>
        <time>2015-08-03T14:25:58.013Z</time>
      </trkpt>
      <trkpt lat="43.32444" lon="3.07515">
        <ele>33</ele>
        <time>2015-08-03T14:25:58.959Z</time>
      </trkpt>
      <trkpt lat="43.32439" lon="3.07519">
        <ele>32.5</ele>
        <time>2015-08-03T14:26:01.002Z</time>
      </trkpt>
      <trkpt lat="43.32436" lon="3.07522">
        <ele>32.5</ele>
        <time>2015-08-03T14:26:02.000Z</time>
      </trkpt>
      <trkpt lat="43.3243" lon="3.07527">
        <ele>32.5</ele>
        <time>2015-08-03T14:26:04.009Z</time>
      </trkpt>
      <trkpt lat="43.32427" lon="3.07529">
        <ele>32.2</ele>
        <time>2015-08-03T14:26:04.963Z</time>
      </trkpt>
      <trkpt lat="43.32422" lon="3.07533">
        <ele>32</ele>
        <time>2015-08-03T14:26:07.004Z</time>
      </trkpt>
      <trkpt lat="43.32419" lon="3.07535">
        <ele>32.4</ele>
        <time>2015-08-03T14:26:07.956Z</time>
      </trkpt>
      <trkpt lat="43.32413" lon="3.0754">
        <ele>31.6</ele>
        <time>2015-08-03T14:26:10.327Z</time>
      </trkpt>
      <trkpt lat="43.3241" lon="3.07542">
        <ele>31.1</ele>
        <time>2015-08-03T14:26:10.962Z</time>
      </trkpt>
      <trkpt lat="43.32404" lon="3.07547">
        <ele>30.6</ele>
        <time>2015-08-03T14:26:13.002Z</time>
      </trkpt>
      <trkpt lat="43.32401" lon="3.07548">
        <ele>30.6</ele>
        <time>2015-08-03T14:26:13.977Z</time>
      </trkpt>
      <trkpt lat="43.32395" lon="3.07551">
        <ele>30.5</ele>
        <time>2015-08-03T14:26:15.999Z</time>
      </trkpt>
      <trkpt lat="43.32392" lon="3.07554">
        <ele>30.1</ele>
        <time>2015-08-03T14:26:16.955Z</time>
      </trkpt>
      <trkpt lat="43.32386" lon="3.07557">
        <ele>29.8</ele>
        <time>2015-08-03T14:26:18.998Z</time>
      </trkpt>
      <trkpt lat="43.32383" lon="3.07558">
        <ele>29.4</ele>
        <time>2015-08-03T14:26:19.961Z</time>
      </trkpt>
      <trkpt lat="43.32375" lon="3.0756">
        <ele>29.3</ele>
        <time>2015-08-03T14:26:22.992Z</time>
      </trkpt>
      <trkpt lat="43.32372" lon="3.07561">
        <ele>29.4</ele>
        <time>2015-08-03T14:26:23.959Z</time>
      </trkpt>
      <trkpt lat="43.32366" lon="3.07563">
        <ele>29.2</ele>
        <time>2015-08-03T14:26:25.999Z</time>
      </trkpt>
      <trkpt lat="43.32363" lon="3.07563">
        <ele>29.1</ele>
        <time>2015-08-03T14:26:26.959Z</time>
      </trkpt>
      <trkpt lat="43.32357" lon="3.07565">
        <ele>28.3</ele>
        <time>2015-08-03T14:26:29.035Z</time>
      </trkpt>
      <trkpt lat="43.32354" lon="3.07566">
        <ele>27.7</ele>
        <time>2015-08-03T14:26:29.980Z</time>
      </trkpt>
      <trkpt lat="43.32347" lon="3.07569">
        <ele>26.7</ele>
        <time>2015-08-03T14:26:32.002Z</time>
      </trkpt>
      <trkpt lat="43.32344" lon="3.0757">
        <ele>26.2</ele>
        <time>2015-08-03T14:26:32.956Z</time>
      </trkpt>
      <trkpt lat="43.32338" lon="3.0757">
        <ele>26</ele>
        <time>2015-08-03T14:26:34.992Z</time>
      </trkpt>
      <trkpt lat="43.32335" lon="3.07571">
        <ele>25.5</ele>
        <time>2015-08-03T14:26:35.958Z</time>
      </trkpt>
      <trkpt lat="43.32328" lon="3.07569">
        <ele>24.8</ele>
        <time>2015-08-03T14:26:38.004Z</time>
      </trkpt>
      <trkpt lat="43.32325" lon="3.07569">
        <ele>24.6</ele>
        <time>2015-08-03T14:26:38.956Z</time>
      </trkpt>
      <trkpt lat="43.32318" lon="3.07566">
        <ele>23.4</ele>
        <time>2015-08-03T14:26:41.392Z</time>
      </trkpt>
      <trkpt lat="43.32316" lon="3.07566">
        <ele>22.6</ele>
        <time>2015-08-03T14:26:41.972Z</time>
      </trkpt>
      <trkpt lat="43.32308" lon="3.07563">
        <ele>21.4</ele>
        <time>2015-08-03T14:26:46.005Z</time>
      </trkpt>
      <trkpt lat="43.32307" lon="3.07563">
        <ele>21.4</ele>
        <time>2015-08-03T14:26:46.959Z</time>
      </trkpt>
      <trkpt lat="43.32298" lon="3.07563">
        <ele>21.3</ele>
        <time>2015-08-03T14:26:51.039Z</time>
      </trkpt>
      <trkpt lat="43.32295" lon="3.07563">
        <ele>21.2</ele>
        <time>2015-08-03T14:26:51.963Z</time>
      </trkpt>
      <trkpt lat="43.32288" lon="3.07562">
        <ele>21</ele>
        <time>2015-08-03T14:26:53.996Z</time>
      </trkpt>
      <trkpt lat="43.32284" lon="3.07562">
        <ele>20.8</ele>
        <time>2015-08-03T14:26:54.962Z</time>
      </trkpt>
      <trkpt lat="43.32277" lon="3.07561">
        <ele>20.5</ele>
        <time>2015-08-03T14:26:56.993Z</time>
      </trkpt>
      <trkpt lat="43.32274" lon="3.07561">
        <ele>20.5</ele>
        <time>2015-08-03T14:26:57.963Z</time>
      </trkpt>
      <trkpt lat="43.32267" lon="3.07559">
        <ele>20.2</ele>
        <time>2015-08-03T14:27:01.003Z</time>
      </trkpt>
      <trkpt lat="43.32264" lon="3.07559">
        <ele>20.2</ele>
        <time>2015-08-03T14:27:01.982Z</time>
      </trkpt>
      <trkpt lat="43.32258" lon="3.0756">
        <ele>20.1</ele>
        <time>2015-08-03T14:27:04.354Z</time>
      </trkpt>
      <trkpt lat="43.32255" lon="3.0756">
        <ele>19.9</ele>
        <time>2015-08-03T14:27:04.962Z</time>
      </trkpt>
      <trkpt lat="43.32249" lon="3.07558">
        <ele>19.4</ele>
        <time>2015-08-03T14:27:07.002Z</time>
      </trkpt>
      <trkpt lat="43.32246" lon="3.07557">
        <ele>19.2</ele>
        <time>2015-08-03T14:27:07.958Z</time>
      </trkpt>
      <trkpt lat="43.32237" lon="3.07554">
        <ele>18.7</ele>
        <time>2015-08-03T14:27:10.999Z</time>
      </trkpt>
      <trkpt lat="43.32234" lon="3.07552">
        <ele>18.6</ele>
        <time>2015-08-03T14:27:11.962Z</time>
      </trkpt>
      <trkpt lat="43.32227" lon="3.0755">
        <ele>18.5</ele>
        <time>2015-08-03T14:27:14.998Z</time>
      </trkpt>
      <trkpt lat="43.32224" lon="3.07549">
        <ele>18.6</ele>
        <time>2015-08-03T14:27:15.965Z</time>
      </trkpt>
      <trkpt lat="43.32216" lon="3.07547">
        <ele>18.3</ele>
        <time>2015-08-03T14:27:20.013Z</time>
      </trkpt>
      <trkpt lat="43.32214" lon="3.07547">
        <ele>18.1</ele>
        <time>2015-08-03T14:27:20.980Z</time>
      </trkpt>
      <trkpt lat="43.32207" lon="3.07546">
        <ele>18</ele>
        <time>2015-08-03T14:27:23.993Z</time>
      </trkpt>
      <trkpt lat="43.32204" lon="3.07546">
        <ele>17.8</ele>
        <time>2015-08-03T14:27:24.960Z</time>
      </trkpt>
      <trkpt lat="43.32197" lon="3.07546">
        <ele>17.3</ele>
        <time>2015-08-03T14:27:28.042Z</time>
      </trkpt>
      <trkpt lat="43.32195" lon="3.07546">
        <ele>17.2</ele>
        <time>2015-08-03T14:27:28.981Z</time>
      </trkpt>
      <trkpt lat="43.32187" lon="3.07546">
        <ele>17.7</ele>
        <time>2015-08-03T14:27:33.001Z</time>
      </trkpt>
      <trkpt lat="43.32185" lon="3.07545">
        <ele>17.7</ele>
        <time>2015-08-03T14:27:33.960Z</time>
      </trkpt>
      <trkpt lat="43.32178" lon="3.07545">
        <ele>18</ele>
        <time>2015-08-03T14:27:37.001Z</time>
      </trkpt>
      <trkpt lat="43.32175" lon="3.07546">
        <ele>18.1</ele>
        <time>2015-08-03T14:27:37.968Z</time>
      </trkpt>
      <trkpt lat="43.32169" lon="3.07546">
        <ele>18.5</ele>
        <time>2015-08-03T14:27:40.035Z</time>
      </trkpt>
      <trkpt lat="43.32166" lon="3.07546">
        <ele>18.8</ele>
        <time>2015-08-03T14:27:40.962Z</time>
      </trkpt>
      <trkpt lat="43.32159" lon="3.07546">
        <ele>18.9</ele>
        <time>2015-08-03T14:27:43.004Z</time>
      </trkpt>
      <trkpt lat="43.32156" lon="3.07546">
        <ele>19.1</ele>
        <time>2015-08-03T14:27:44.215Z</time>
      </trkpt>
      <trkpt lat="43.3215" lon="3.07545">
        <ele>19.4</ele>
        <time>2015-08-03T14:27:46.007Z</time>
      </trkpt>
      <trkpt lat="43.32147" lon="3.07545">
        <ele>19.7</ele>
        <time>2015-08-03T14:27:46.969Z</time>
      </trkpt>
      <trkpt lat="43.3214" lon="3.07544">
        <ele>20.1</ele>
        <time>2015-08-03T14:27:48.993Z</time>
      </trkpt>
      <trkpt lat="43.32136" lon="3.07543">
        <ele>20.2</ele>
        <time>2015-08-03T14:27:49.956Z</time>
      </trkpt>
      <trkpt lat="43.32129" lon="3.07543">
        <ele>20.6</ele>
        <time>2015-08-03T14:27:51.995Z</time>
      </trkpt>
      <trkpt lat="43.32126" lon="3.07542">
        <ele>20.9</ele>
        <time>2015-08-03T14:27:52.961Z</time>
      </trkpt>
      <trkpt lat="43.32117" lon="3.0754">
        <ele>21.8</ele>
        <time>2015-08-03T14:27:56.354Z</time>
      </trkpt>
      <trkpt lat="43.32115" lon="3.0754">
        <ele>21.9</ele>
        <time>2015-08-03T14:27:56.960Z</time>
      </trkpt>
      <trkpt lat="43.32106" lon="3.07537">
        <ele>22.7</ele>
        <time>2015-08-03T14:28:01.032Z</time>
      </trkpt>
      <trkpt lat="43.32104" lon="3.07538">
        <ele>22.8</ele>
        <time>2015-08-03T14:28:01.981Z</time>
      </trkpt>
      <trkpt lat="43.32099" lon="3.07536">
        <ele>22.9</ele>
        <time>2015-08-03T14:28:05.000Z</time>
      </trkpt>
      <trkpt lat="43.32098" lon="3.07536">
        <ele>22.9</ele>
        <time>2015-08-03T14:28:05.958Z</time>
      </trkpt>
      <trkpt lat="43.32098" lon="3.07537">
        <ele>23</ele>
        <time>2015-08-03T14:28:16.999Z</time>
      </trkpt>
      <trkpt lat="43.32095" lon="3.0755">
        <ele>26.9</ele>
        <time>2015-08-03T14:28:17.960Z</time>
      </trkpt>
      <trkpt lat="43.32095" lon="3.0755">
        <ele>26.9</ele>
        <time>2015-08-03T14:28:18.037Z</time>
      </trkpt>
      <trkpt lat="43.32094" lon="3.0755">
        <ele>27.5</ele>
        <time>2015-08-03T14:28:23.997Z</time>
      </trkpt>
      <trkpt lat="43.32092" lon="3.07548">
        <ele>27.9</ele>
        <time>2015-08-03T14:28:24.961Z</time>
      </trkpt>
      <trkpt lat="43.32085" lon="3.07543">
        <ele>27.8</ele>
        <time>2015-08-03T14:28:29.003Z</time>
      </trkpt>
      <trkpt lat="43.32083" lon="3.07542">
        <ele>27.8</ele>
        <time>2015-08-03T14:28:29.969Z</time>
      </trkpt>
      <trkpt lat="43.32076" lon="3.07536">
        <ele>27.7</ele>
        <time>2015-08-03T14:28:33.014Z</time>
      </trkpt>
      <trkpt lat="43.32073" lon="3.07534">
        <ele>27.6</ele>
        <time>2015-08-03T14:28:33.962Z</time>
      </trkpt>
      <trkpt lat="43.32068" lon="3.0753">
        <ele>27.4</ele>
        <time>2015-08-03T14:28:35.998Z</time>
      </trkpt>
      <trkpt lat="43.32065" lon="3.07528">
        <ele>27.2</ele>
        <time>2015-08-03T14:28:36.961Z</time>
      </trkpt>
      <trkpt lat="43.32059" lon="3.07522">
        <ele>27.1</ele>
        <time>2015-08-03T14:28:39.025Z</time>
      </trkpt>
      <trkpt lat="43.32057" lon="3.07521">
        <ele>27</ele>
        <time>2015-08-03T14:28:39.969Z</time>
      </trkpt>
      <trkpt lat="43.32051" lon="3.07517">
        <ele>26.7</ele>
        <time>2015-08-03T14:28:42.015Z</time>
      </trkpt>
      <trkpt lat="43.32048" lon="3.07515">
        <ele>26.6</ele>
        <time>2015-08-03T14:28:42.962Z</time>
      </trkpt>
      <trkpt lat="43.32042" lon="3.0751">
        <ele>26.4</ele>
        <time>2015-08-03T14:28:45.009Z</time>
      </trkpt>
      <trkpt lat="43.32039" lon="3.07507">
        <ele>26.4</ele>
        <time>2015-08-03T14:28:45.961Z</time>
      </trkpt>
      <trkpt lat="43.32034" lon="3.07502">
        <ele>26.2</ele>
        <time>2015-08-03T14:28:48.001Z</time>
      </trkpt>
      <trkpt lat="43.32031" lon="3.07501">
        <ele>26.4</ele>
        <time>2015-08-03T14:28:48.959Z</time>
      </trkpt>
      <trkpt lat="43.32025" lon="3.07497">
        <ele>26.2</ele>
        <time>2015-08-03T14:28:50.994Z</time>
      </trkpt>
      <trkpt lat="43.32022" lon="3.07495">
        <ele>26.2</ele>
        <time>2015-08-03T14:28:51.956Z</time>
      </trkpt>
      <trkpt lat="43.32016" lon="3.07491">
        <ele>26.3</ele>
        <time>2015-08-03T14:28:54.054Z</time>
      </trkpt>
      <trkpt lat="43.32012" lon="3.07489">
        <ele>26.1</ele>
        <time>2015-08-03T14:28:54.971Z</time>
      </trkpt>
      <trkpt lat="43.32006" lon="3.07484">
        <ele>25.8</ele>
        <time>2015-08-03T14:28:57.008Z</time>
      </trkpt>
      <trkpt lat="43.32003" lon="3.07482">
        <ele>25.7</ele>
        <time>2015-08-03T14:28:57.961Z</time>
      </trkpt>
      <trkpt lat="43.31998" lon="3.07478">
        <ele>25.4</ele>
        <time>2015-08-03T14:28:59.997Z</time>
      </trkpt>
      <trkpt lat="43.31995" lon="3.07475">
        <ele>25.2</ele>
        <time>2015-08-03T14:29:00.967Z</time>
      </trkpt>
      <trkpt lat="43.31989" lon="3.0747">
        <ele>24.9</ele>
        <time>2015-08-03T14:29:03.163Z</time>
      </trkpt>
      <trkpt lat="43.31987" lon="3.07468">
        <ele>24.7</ele>
        <time>2015-08-03T14:29:03.957Z</time>
      </trkpt>
      <trkpt lat="43.31979" lon="3.07462">
        <ele>24.3</ele>
        <time>2015-08-03T14:29:07.007Z</time>
      </trkpt>
      <trkpt lat="43.31977" lon="3.0746">
        <ele>24</ele>
        <time>2015-08-03T14:29:07.961Z</time>
      </trkpt>
      <trkpt lat="43.31972" lon="3.07454">
        <ele>23.7</ele>
        <time>2015-08-03T14:29:09.990Z</time>
      </trkpt>
      <trkpt lat="43.31969" lon="3.07453">
        <ele>23.5</ele>
        <time>2015-08-03T14:29:10.958Z</time>
      </trkpt>
      <trkpt lat="43.31962" lon="3.07446">
        <ele>23.2</ele>
        <time>2015-08-03T14:29:14.338Z</time>
      </trkpt>
      <trkpt lat="43.3196" lon="3.07443">
        <ele>23.2</ele>
        <time>2015-08-03T14:29:14.966Z</time>
      </trkpt>
      <trkpt lat="43.31954" lon="3.07437">
        <ele>23</ele>
        <time>2015-08-03T14:29:17.003Z</time>
      </trkpt>
      <trkpt lat="43.31951" lon="3.07435">
        <ele>22.9</ele>
        <time>2015-08-03T14:29:17.959Z</time>
      </trkpt>
      <trkpt lat="43.31946" lon="3.07429">
        <ele>22.8</ele>
        <time>2015-08-03T14:29:19.997Z</time>
      </trkpt>
      <trkpt lat="43.31943" lon="3.07427">
        <ele>22.8</ele>
        <time>2015-08-03T14:29:20.981Z</time>
      </trkpt>
      <trkpt lat="43.31938" lon="3.07422">
        <ele>22.5</ele>
        <time>2015-08-03T14:29:23.016Z</time>
      </trkpt>
      <trkpt lat="43.31935" lon="3.07419">
        <ele>22.2</ele>
        <time>2015-08-03T14:29:23.961Z</time>
      </trkpt>
      <trkpt lat="43.31929" lon="3.07414">
        <ele>21.7</ele>
        <time>2015-08-03T14:29:25.999Z</time>
      </trkpt>
      <trkpt lat="43.31927" lon="3.07412">
        <ele>21.4</ele>
        <time>2015-08-03T14:29:26.981Z</time>
      </trkpt>
      <trkpt lat="43.31921" lon="3.07404">
        <ele>20.9</ele>
        <time>2015-08-03T14:29:29.002Z</time>
      </trkpt>
      <trkpt lat="43.31919" lon="3.07401">
        <ele>20.7</ele>
        <time>2015-08-03T14:29:29.959Z</time>
      </trkpt>
      <trkpt lat="43.31915" lon="3.07393">
        <ele>20.1</ele>
        <time>2015-08-03T14:29:31.995Z</time>
      </trkpt>
      <trkpt lat="43.31912" lon="3.07389">
        <ele>19.8</ele>
        <time>2015-08-03T14:29:32.965Z</time>
      </trkpt>
      <trkpt lat="43.31907" lon="3.07382">
        <ele>19.6</ele>
        <time>2015-08-03T14:29:35.043Z</time>
      </trkpt>
      <trkpt lat="43.31905" lon="3.07378">
        <ele>19.7</ele>
        <time>2015-08-03T14:29:35.969Z</time>
      </trkpt>
      <trkpt lat="43.319" lon="3.07371">
        <ele>19.5</ele>
        <time>2015-08-03T14:29:38.007Z</time>
      </trkpt>
      <trkpt lat="43.31899" lon="3.07368">
        <ele>19.5</ele>
        <time>2015-08-03T14:29:38.958Z</time>
      </trkpt>
      <trkpt lat="43.31894" lon="3.07359">
        <ele>19.5</ele>
        <time>2015-08-03T14:29:41.999Z</time>
      </trkpt>
      <trkpt lat="43.31891" lon="3.07356">
        <ele>19.5</ele>
        <time>2015-08-03T14:29:42.962Z</time>
      </trkpt>
      <trkpt lat="43.31886" lon="3.0735">
        <ele>19.3</ele>
        <time>2015-08-03T14:29:46.000Z</time>
      </trkpt>
      <trkpt lat="43.31885" lon="3.07347">
        <ele>19.4</ele>
        <time>2015-08-03T14:29:46.961Z</time>
      </trkpt>
      <trkpt lat="43.31881" lon="3.07338">
        <ele>19.4</ele>
        <time>2015-08-03T14:29:49.999Z</time>
      </trkpt>
      <trkpt lat="43.31879" lon="3.07334">
        <ele>19.5</ele>
        <time>2015-08-03T14:29:50.957Z</time>
      </trkpt>
      <trkpt lat="43.31877" lon="3.07325">
        <ele>20.2</ele>
        <time>2015-08-03T14:29:54.024Z</time>
      </trkpt>
      <trkpt lat="43.31876" lon="3.07321">
        <ele>20.4</ele>
        <time>2015-08-03T14:29:54.966Z</time>
      </trkpt>
      <trkpt lat="43.31873" lon="3.07312">
        <ele>21</ele>
        <time>2015-08-03T14:29:58.008Z</time>
      </trkpt>
      <trkpt lat="43.31872" lon="3.07309">
        <ele>21</ele>
        <time>2015-08-03T14:29:58.982Z</time>
      </trkpt>
      <trkpt lat="43.31869" lon="3.07299">
        <ele>21</ele>
        <time>2015-08-03T14:30:02.004Z</time>
      </trkpt>
      <trkpt lat="43.31868" lon="3.07297">
        <ele>21.1</ele>
        <time>2015-08-03T14:30:02.958Z</time>
      </trkpt>
      <trkpt lat="43.31866" lon="3.07289">
        <ele>21.2</ele>
        <time>2015-08-03T14:30:05.999Z</time>
      </trkpt>
      <trkpt lat="43.31864" lon="3.07285">
        <ele>21.5</ele>
        <time>2015-08-03T14:30:06.965Z</time>
      </trkpt>
      <trkpt lat="43.31862" lon="3.07275">
        <ele>22.5</ele>
        <time>2015-08-03T14:30:11.036Z</time>
      </trkpt>
      <trkpt lat="43.31861" lon="3.07273">
        <ele>22.6</ele>
        <time>2015-08-03T14:30:11.985Z</time>
      </trkpt>
      <trkpt lat="43.31859" lon="3.07262">
        <ele>22.6</ele>
        <time>2015-08-03T14:30:16.013Z</time>
      </trkpt>
      <trkpt lat="43.31859" lon="3.0726">
        <ele>22.6</ele>
        <time>2015-08-03T14:30:16.958Z</time>
      </trkpt>
      <trkpt lat="43.31856" lon="3.07249">
        <ele>22.3</ele>
        <time>2015-08-03T14:30:19.998Z</time>
      </trkpt>
      <trkpt lat="43.31856" lon="3.07247">
        <ele>22.2</ele>
        <time>2015-08-03T14:30:20.961Z</time>
      </trkpt>
      <trkpt lat="43.31854" lon="3.07237">
        <ele>21.8</ele>
        <time>2015-08-03T14:30:24.010Z</time>
      </trkpt>
      <trkpt lat="43.31853" lon="3.07235">
        <ele>21.7</ele>
        <time>2015-08-03T14:30:24.960Z</time>
      </trkpt>
      <trkpt lat="43.31851" lon="3.07223">
        <ele>21.3</ele>
        <time>2015-08-03T14:30:28.337Z</time>
      </trkpt>
      <trkpt lat="43.3185" lon="3.0722">
        <ele>21.3</ele>
        <time>2015-08-03T14:30:28.965Z</time>
      </trkpt>
      <trkpt lat="43.31848" lon="3.07212">
        <ele>21.2</ele>
        <time>2015-08-03T14:30:31.004Z</time>
      </trkpt>
      <trkpt lat="43.31845" lon="3.07207">
        <ele>21.5</ele>
        <time>2015-08-03T14:30:31.969Z</time>
      </trkpt>
      <trkpt lat="43.31843" lon="3.07198">
        <ele>21.6</ele>
        <time>2015-08-03T14:30:34.379Z</time>
      </trkpt>
      <trkpt lat="43.31844" lon="3.07193">
        <ele>21.7</ele>
        <time>2015-08-03T14:30:34.963Z</time>
      </trkpt>
      <trkpt lat="43.31847" lon="3.07183">
        <ele>21.9</ele>
        <time>2015-08-03T14:30:38.059Z</time>
      </trkpt>
      <trkpt lat="43.31847" lon="3.07179">
        <ele>21.8</ele>
        <time>2015-08-03T14:30:38.970Z</time>
      </trkpt>
      <trkpt lat="43.31844" lon="3.07171">
        <ele>21.4</ele>
        <time>2015-08-03T14:30:43.010Z</time>
      </trkpt>
      <trkpt lat="43.31842" lon="3.07168">
        <ele>21.2</ele>
        <time>2015-08-03T14:30:43.961Z</time>
      </trkpt>
      <trkpt lat="43.31836" lon="3.07159">
        <ele>20.8</ele>
        <time>2015-08-03T14:30:47.054Z</time>
      </trkpt>
      <trkpt lat="43.31835" lon="3.07155">
        <ele>20.8</ele>
        <time>2015-08-03T14:30:47.969Z</time>
      </trkpt>
      <trkpt lat="43.3183" lon="3.07147">
        <ele>20.8</ele>
        <time>2015-08-03T14:30:50.000Z</time>
      </trkpt>
      <trkpt lat="43.31828" lon="3.07143">
        <ele>20.7</ele>
        <time>2015-08-03T14:30:50.961Z</time>
      </trkpt>
      <trkpt lat="43.3182" lon="3.07137">
        <ele>19.9</ele>
        <time>2015-08-03T14:30:53.999Z</time>
      </trkpt>
      <trkpt lat="43.31818" lon="3.07135">
        <ele>19.8</ele>
        <time>2015-08-03T14:30:55.020Z</time>
      </trkpt>
      <trkpt lat="43.31811" lon="3.07132">
        <ele>19.5</ele>
        <time>2015-08-03T14:30:58.006Z</time>
      </trkpt>
      <trkpt lat="43.31808" lon="3.07133">
        <ele>19.4</ele>
        <time>2015-08-03T14:30:58.968Z</time>
      </trkpt>
      <trkpt lat="43.318" lon="3.0713">
        <ele>19.3</ele>
        <time>2015-08-03T14:31:02.024Z</time>
      </trkpt>
      <trkpt lat="43.31799" lon="3.07129">
        <ele>19.2</ele>
        <time>2015-08-03T14:31:02.995Z</time>
      </trkpt>
      <trkpt lat="43.3179" lon="3.07126">
        <ele>19.4</ele>
        <time>2015-08-03T14:31:07.004Z</time>
      </trkpt>
      <trkpt lat="43.31789" lon="3.07126">
        <ele>19.4</ele>
        <time>2015-08-03T14:31:07.958Z</time>
      </trkpt>
      <trkpt lat="43.31781" lon="3.07124">
        <ele>19.3</ele>
        <time>2015-08-03T14:31:13.000Z</time>
      </trkpt>
      <trkpt lat="43.3178" lon="3.07123">
        <ele>19.2</ele>
        <time>2015-08-03T14:31:13.958Z</time>
      </trkpt>
      <trkpt lat="43.31772" lon="3.07123">
        <ele>18.3</ele>
        <time>2015-08-03T14:31:19.343Z</time>
      </trkpt>
      <trkpt lat="43.3177" lon="3.07123">
        <ele>18.2</ele>
        <time>2015-08-03T14:31:19.958Z</time>
      </trkpt>
      <trkpt lat="43.31761" lon="3.07123">
        <ele>17.2</ele>
        <time>2015-08-03T14:31:24.996Z</time>
      </trkpt>
      <trkpt lat="43.3176" lon="3.07123">
        <ele>17</ele>
        <time>2015-08-03T14:31:25.959Z</time>
      </trkpt>
      <trkpt lat="43.31751" lon="3.07121">
        <ele>15.7</ele>
        <time>2015-08-03T14:31:30.015Z</time>
      </trkpt>
      <trkpt lat="43.31749" lon="3.07121">
        <ele>15.5</ele>
        <time>2015-08-03T14:31:31.089Z</time>
      </trkpt>
      <trkpt lat="43.31741" lon="3.07119">
        <ele>14.5</ele>
        <time>2015-08-03T14:31:34.996Z</time>
      </trkpt>
      <trkpt lat="43.31739" lon="3.07118">
        <ele>14.2</ele>
        <time>2015-08-03T14:31:35.958Z</time>
      </trkpt>
      <trkpt lat="43.31731" lon="3.07115">
        <ele>13.6</ele>
        <time>2015-08-03T14:31:38.994Z</time>
      </trkpt>
      <trkpt lat="43.31728" lon="3.07114">
        <ele>13.4</ele>
        <time>2015-08-03T14:31:39.962Z</time>
      </trkpt>
      <trkpt lat="43.31722" lon="3.07107">
        <ele>12.4</ele>
        <time>2015-08-03T14:31:43.014Z</time>
      </trkpt>
      <trkpt lat="43.3172" lon="3.07104">
        <ele>12.1</ele>
        <time>2015-08-03T14:31:43.962Z</time>
      </trkpt>
      <trkpt lat="43.31715" lon="3.07097">
        <ele>11.5</ele>
        <time>2015-08-03T14:31:45.995Z</time>
      </trkpt>
      <trkpt lat="43.31713" lon="3.07094">
        <ele>11.2</ele>
        <time>2015-08-03T14:31:46.958Z</time>
      </trkpt>
      <trkpt lat="43.31707" lon="3.07087">
        <ele>10.4</ele>
        <time>2015-08-03T14:31:49.997Z</time>
      </trkpt>
      <trkpt lat="43.31705" lon="3.07083">
        <ele>10.1</ele>
        <time>2015-08-03T14:31:50.959Z</time>
      </trkpt>
      <trkpt lat="43.31701" lon="3.07077">
        <ele>9.5</ele>
        <time>2015-08-03T14:31:53.010Z</time>
      </trkpt>
      <trkpt lat="43.31699" lon="3.07074">
        <ele>9.2</ele>
        <time>2015-08-03T14:31:53.963Z</time>
      </trkpt>
      <trkpt lat="43.31695" lon="3.07068">
        <ele>8.6</ele>
        <time>2015-08-03T14:31:55.995Z</time>
      </trkpt>
      <trkpt lat="43.31692" lon="3.07065">
        <ele>8.4</ele>
        <time>2015-08-03T14:31:56.962Z</time>
      </trkpt>
      <trkpt lat="43.31687" lon="3.07058">
        <ele>7.9</ele>
        <time>2015-08-03T14:31:59.000Z</time>
      </trkpt>
      <trkpt lat="43.31685" lon="3.07055">
        <ele>7.6</ele>
        <time>2015-08-03T14:31:59.960Z</time>
      </trkpt>
      <trkpt lat="43.31681" lon="3.07048">
        <ele>7</ele>
        <time>2015-08-03T14:32:02.002Z</time>
      </trkpt>
      <trkpt lat="43.31678" lon="3.07044">
        <ele>6.8</ele>
        <time>2015-08-03T14:32:02.962Z</time>
      </trkpt>
      <trkpt lat="43.31673" lon="3.07035">
        <ele>6.2</ele>
        <time>2015-08-03T14:32:06.330Z</time>
      </trkpt>
      <trkpt lat="43.31671" lon="3.07032">
        <ele>6</ele>
        <time>2015-08-03T14:32:06.967Z</time>
      </trkpt>
      <trkpt lat="43.31665" lon="3.07023">
        <ele>5.3</ele>
        <time>2015-08-03T14:32:10.001Z</time>
      </trkpt>
      <trkpt lat="43.31663" lon="3.0702">
        <ele>5.1</ele>
        <time>2015-08-03T14:32:10.982Z</time>
      </trkpt>
      <trkpt lat="43.31659" lon="3.07012">
        <ele>4.8</ele>
        <time>2015-08-03T14:32:13.009Z</time>
      </trkpt>
      <trkpt lat="43.31656" lon="3.07008">
        <ele>4.6</ele>
        <time>2015-08-03T14:32:13.960Z</time>
      </trkpt>
      <trkpt lat="43.31651" lon="3.07">
        <ele>4.2</ele>
        <time>2015-08-03T14:32:16.000Z</time>
      </trkpt>
      <trkpt lat="43.3165" lon="3.06997">
        <ele>4</ele>
        <time>2015-08-03T14:32:16.966Z</time>
      </trkpt>
      <trkpt lat="43.31646" lon="3.06989">
        <ele>3.9</ele>
        <time>2015-08-03T14:32:19.015Z</time>
      </trkpt>
      <trkpt lat="43.31644" lon="3.06985">
        <ele>3.7</ele>
        <time>2015-08-03T14:32:19.962Z</time>
      </trkpt>
      <trkpt lat="43.31639" lon="3.06976">
        <ele>3.4</ele>
        <time>2015-08-03T14:32:22.007Z</time>
      </trkpt>
      <trkpt lat="43.31637" lon="3.06971">
        <ele>3.3</ele>
        <time>2015-08-03T14:32:22.960Z</time>
      </trkpt>
      <trkpt lat="43.31633" lon="3.06963">
        <ele>3.1</ele>
        <time>2015-08-03T14:32:25.042Z</time>
      </trkpt>
      <trkpt lat="43.31631" lon="3.06959">
        <ele>3</ele>
        <time>2015-08-03T14:32:25.968Z</time>
      </trkpt>
      <trkpt lat="43.31627" lon="3.06949">
        <ele>2.8</ele>
        <time>2015-08-03T14:32:28.288Z</time>
      </trkpt>
      <trkpt lat="43.31625" lon="3.06943">
        <ele>2.9</ele>
        <time>2015-08-03T14:32:28.958Z</time>
      </trkpt>
      <trkpt lat="43.31621" lon="3.06933">
        <ele>2.8</ele>
        <time>2015-08-03T14:32:31.019Z</time>
      </trkpt>
      <trkpt lat="43.3162" lon="3.06927">
        <ele>2.7</ele>
        <time>2015-08-03T14:32:31.960Z</time>
      </trkpt>
      <trkpt lat="43.31615" lon="3.06917">
        <ele>2.5</ele>
        <time>2015-08-03T14:32:34.006Z</time>
      </trkpt>
      <trkpt lat="43.31612" lon="3.06911">
        <ele>2.5</ele>
        <time>2015-08-03T14:32:34.980Z</time>
      </trkpt>
      <trkpt lat="43.31607" lon="3.06901">
        <ele>2.5</ele>
        <time>2015-08-03T14:32:37.014Z</time>
      </trkpt>
      <trkpt lat="43.31605" lon="3.06896">
        <ele>2.5</ele>
        <time>2015-08-03T14:32:37.960Z</time>
      </trkpt>
      <trkpt lat="43.31599" lon="3.06886">
        <ele>2.8</ele>
        <time>2015-08-03T14:32:40.004Z</time>
      </trkpt>
      <trkpt lat="43.31596" lon="3.06883">
        <ele>3.1</ele>
        <time>2015-08-03T14:32:40.958Z</time>
      </trkpt>
      <trkpt lat="43.3159" lon="3.06875">
        <ele>3.6</ele>
        <time>2015-08-03T14:32:43.033Z</time>
      </trkpt>
      <trkpt lat="43.31586" lon="3.06872">
        <ele>3.6</ele>
        <time>2015-08-03T14:32:43.969Z</time>
      </trkpt>
      <trkpt lat="43.3158" lon="3.06867">
        <ele>4</ele>
        <time>2015-08-03T14:32:46.007Z</time>
      </trkpt>
      <trkpt lat="43.31577" lon="3.06865">
        <ele>4.1</ele>
        <time>2015-08-03T14:32:46.960Z</time>
      </trkpt>
      <trkpt lat="43.3157" lon="3.06862">
        <ele>4.2</ele>
        <time>2015-08-03T14:32:49.018Z</time>
      </trkpt>
      <trkpt lat="43.31567" lon="3.06861">
        <ele>4.1</ele>
        <time>2015-08-03T14:32:49.970Z</time>
      </trkpt>
      <trkpt lat="43.31558" lon="3.06858">
        <ele>5.3</ele>
        <time>2015-08-03T14:32:52.009Z</time>
      </trkpt>
      <trkpt lat="43.31554" lon="3.06858">
        <ele>5.8</ele>
        <time>2015-08-03T14:32:52.963Z</time>
      </trkpt>
      <trkpt lat="43.31545" lon="3.06856">
        <ele>7.5</ele>
        <time>2015-08-03T14:32:55.010Z</time>
      </trkpt>
      <trkpt lat="43.31541" lon="3.06856">
        <ele>8.1</ele>
        <time>2015-08-03T14:32:55.958Z</time>
      </trkpt>
      <trkpt lat="43.31534" lon="3.06858">
        <ele>8.4</ele>
        <time>2015-08-03T14:32:58.025Z</time>
      </trkpt>
      <trkpt lat="43.3153" lon="3.06859">
        <ele>8.5</ele>
        <time>2015-08-03T14:32:58.958Z</time>
      </trkpt>
      <trkpt lat="43.31523" lon="3.06861">
        <ele>8.8</ele>
        <time>2015-08-03T14:33:01.019Z</time>
      </trkpt>
      <trkpt lat="43.31519" lon="3.06862">
        <ele>9.4</ele>
        <time>2015-08-03T14:33:01.959Z</time>
      </trkpt>
      <trkpt lat="43.31512" lon="3.06864">
        <ele>10.9</ele>
        <time>2015-08-03T14:33:04.056Z</time>
      </trkpt>
      <trkpt lat="43.31508" lon="3.06866">
        <ele>11.2</ele>
        <time>2015-08-03T14:33:04.982Z</time>
      </trkpt>
      <trkpt lat="43.31501" lon="3.06869">
        <ele>12</ele>
        <time>2015-08-03T14:33:07.031Z</time>
      </trkpt>
      <trkpt lat="43.31497" lon="3.06871">
        <ele>12.7</ele>
        <time>2015-08-03T14:33:07.959Z</time>
      </trkpt>
      <trkpt lat="43.3149" lon="3.06874">
        <ele>13.3</ele>
        <time>2015-08-03T14:33:10.010Z</time>
      </trkpt>
      <trkpt lat="43.31486" lon="3.06876">
        <ele>13.6</ele>
        <time>2015-08-03T14:33:10.969Z</time>
      </trkpt>
      <trkpt lat="43.31479" lon="3.0688">
        <ele>14.4</ele>
        <time>2015-08-03T14:33:13.042Z</time>
      </trkpt>
      <trkpt lat="43.31476" lon="3.06883">
        <ele>14.5</ele>
        <time>2015-08-03T14:33:13.970Z</time>
      </trkpt>
      <trkpt lat="43.31469" lon="3.06887">
        <ele>15.1</ele>
        <time>2015-08-03T14:33:16.009Z</time>
      </trkpt>
      <trkpt lat="43.31466" lon="3.0689">
        <ele>15.5</ele>
        <time>2015-08-03T14:33:16.966Z</time>
      </trkpt>
      <trkpt lat="43.31461" lon="3.06896">
        <ele>16</ele>
        <time>2015-08-03T14:33:19.026Z</time>
      </trkpt>
      <trkpt lat="43.31459" lon="3.06898">
        <ele>16.4</ele>
        <time>2015-08-03T14:33:19.957Z</time>
      </trkpt>
      <trkpt lat="43.31453" lon="3.06905">
        <ele>16.8</ele>
        <time>2015-08-03T14:33:22.023Z</time>
      </trkpt>
      <trkpt lat="43.3145" lon="3.06909">
        <ele>16.9</ele>
        <time>2015-08-03T14:33:22.959Z</time>
      </trkpt>
      <trkpt lat="43.31445" lon="3.06916">
        <ele>17.3</ele>
        <time>2015-08-03T14:33:25.005Z</time>
      </trkpt>
      <trkpt lat="43.31443" lon="3.06919">
        <ele>17.6</ele>
        <time>2015-08-03T14:33:25.955Z</time>
      </trkpt>
      <trkpt lat="43.31438" lon="3.06926">
        <ele>18.5</ele>
        <time>2015-08-03T14:33:28.004Z</time>
      </trkpt>
      <trkpt lat="43.31436" lon="3.06929">
        <ele>18.9</ele>
        <time>2015-08-03T14:33:28.982Z</time>
      </trkpt>
      <trkpt lat="43.31431" lon="3.06937">
        <ele>20.2</ele>
        <time>2015-08-03T14:33:32.009Z</time>
      </trkpt>
      <trkpt lat="43.31429" lon="3.0694">
        <ele>20.4</ele>
        <time>2015-08-03T14:33:32.966Z</time>
      </trkpt>
      <trkpt lat="43.31425" lon="3.06947">
        <ele>20.4</ele>
        <time>2015-08-03T14:33:35.032Z</time>
      </trkpt>
      <trkpt lat="43.31423" lon="3.0695">
        <ele>20.7</ele>
        <time>2015-08-03T14:33:35.968Z</time>
      </trkpt>
      <trkpt lat="43.31419" lon="3.06958">
        <ele>20.8</ele>
        <time>2015-08-03T14:33:38.272Z</time>
      </trkpt>
      <trkpt lat="43.31417" lon="3.06961">
        <ele>21</ele>
        <time>2015-08-03T14:33:38.958Z</time>
      </trkpt>
      <trkpt lat="43.31412" lon="3.06969">
        <ele>21.7</ele>
        <time>2015-08-03T14:33:41.010Z</time>
      </trkpt>
      <trkpt lat="43.3141" lon="3.06972">
        <ele>22</ele>
        <time>2015-08-03T14:33:41.962Z</time>
      </trkpt>
      <trkpt lat="43.31405" lon="3.0698">
        <ele>22.7</ele>
        <time>2015-08-03T14:33:44.006Z</time>
      </trkpt>
      <trkpt lat="43.31403" lon="3.06984">
        <ele>23</ele>
        <time>2015-08-03T14:33:44.969Z</time>
      </trkpt>
      <trkpt lat="43.31398" lon="3.06992">
        <ele>23</ele>
        <time>2015-08-03T14:33:46.987Z</time>
      </trkpt>
      <trkpt lat="43.31396" lon="3.06995">
        <ele>23.2</ele>
        <time>2015-08-03T14:33:47.961Z</time>
      </trkpt>
      <trkpt lat="43.31392" lon="3.07002">
        <ele>23.5</ele>
        <time>2015-08-03T14:33:49.999Z</time>
      </trkpt>
      <trkpt lat="43.3139" lon="3.07006">
        <ele>23.5</ele>
        <time>2015-08-03T14:33:50.967Z</time>
      </trkpt>
      <trkpt lat="43.31384" lon="3.07012">
        <ele>23.7</ele>
        <time>2015-08-03T14:33:53.013Z</time>
      </trkpt>
      <trkpt lat="43.31382" lon="3.07017">
        <ele>23.9</ele>
        <time>2015-08-03T14:33:53.968Z</time>
      </trkpt>
      <trkpt lat="43.31378" lon="3.07024">
        <ele>24.3</ele>
        <time>2015-08-03T14:33:56.011Z</time>
      </trkpt>
      <trkpt lat="43.31375" lon="3.07028">
        <ele>24.5</ele>
        <time>2015-08-03T14:33:56.962Z</time>
      </trkpt>
      <trkpt lat="43.31371" lon="3.07034">
        <ele>25.1</ele>
        <time>2015-08-03T14:33:59.014Z</time>
      </trkpt>
      <trkpt lat="43.31369" lon="3.07038">
        <ele>25.5</ele>
        <time>2015-08-03T14:33:59.961Z</time>
      </trkpt>
      <trkpt lat="43.31366" lon="3.07045">
        <ele>25.9</ele>
        <time>2015-08-03T14:34:02.009Z</time>
      </trkpt>
      <trkpt lat="43.31364" lon="3.07048">
        <ele>26.1</ele>
        <time>2015-08-03T14:34:02.962Z</time>
      </trkpt>
      <trkpt lat="43.31361" lon="3.07058">
        <ele>26.4</ele>
        <time>2015-08-03T14:34:06.054Z</time>
      </trkpt>
      <trkpt lat="43.31359" lon="3.07061">
        <ele>26.6</ele>
        <time>2015-08-03T14:34:06.984Z</time>
      </trkpt>
      <trkpt lat="43.31357" lon="3.07073">
        <ele>26.5</ele>
        <time>2015-08-03T14:34:10.008Z</time>
      </trkpt>
      <trkpt lat="43.31357" lon="3.07077">
        <ele>26.6</ele>
        <time>2015-08-03T14:34:10.988Z</time>
      </trkpt>
      <trkpt lat="43.31356" lon="3.07087">
        <ele>26.3</ele>
        <time>2015-08-03T14:34:14.055Z</time>
      </trkpt>
      <trkpt lat="43.31355" lon="3.07091">
        <ele>26.6</ele>
        <time>2015-08-03T14:34:14.963Z</time>
      </trkpt>
      <trkpt lat="43.31354" lon="3.07103">
        <ele>27.2</ele>
        <time>2015-08-03T14:34:18.018Z</time>
      </trkpt>
      <trkpt lat="43.31354" lon="3.07107">
        <ele>27.4</ele>
        <time>2015-08-03T14:34:18.961Z</time>
      </trkpt>
      <trkpt lat="43.31352" lon="3.07119">
        <ele>27.9</ele>
        <time>2015-08-03T14:34:22.057Z</time>
      </trkpt>
      <trkpt lat="43.31352" lon="3.07123">
        <ele>28</ele>
        <time>2015-08-03T14:34:22.969Z</time>
      </trkpt>
      <trkpt lat="43.3135" lon="3.07134">
        <ele>28.2</ele>
        <time>2015-08-03T14:34:25.999Z</time>
      </trkpt>
      <trkpt lat="43.31349" lon="3.07137">
        <ele>28.2</ele>
        <time>2015-08-03T14:34:26.956Z</time>
      </trkpt>
      <trkpt lat="43.31346" lon="3.07146">
        <ele>28.4</ele>
        <time>2015-08-03T14:34:30.021Z</time>
      </trkpt>
      <trkpt lat="43.31344" lon="3.07149">
        <ele>28.7</ele>
        <time>2015-08-03T14:34:30.962Z</time>
      </trkpt>
      <trkpt lat="43.3134" lon="3.0716">
        <ele>29.3</ele>
        <time>2015-08-03T14:34:33.999Z</time>
      </trkpt>
      <trkpt lat="43.31339" lon="3.07163">
        <ele>29.7</ele>
        <time>2015-08-03T14:34:34.961Z</time>
      </trkpt>
      <trkpt lat="43.31337" lon="3.07173">
        <ele>30.5</ele>
        <time>2015-08-03T14:34:38.013Z</time>
      </trkpt>
      <trkpt lat="43.31336" lon="3.07175">
        <ele>30.7</ele>
        <time>2015-08-03T14:34:38.965Z</time>
      </trkpt>
      <trkpt lat="43.31333" lon="3.07185">
        <ele>31.6</ele>
        <time>2015-08-03T14:34:42.006Z</time>
      </trkpt>
      <trkpt lat="43.31331" lon="3.07189">
        <ele>31.3</ele>
        <time>2015-08-03T14:34:42.960Z</time>
      </trkpt>
      <trkpt lat="43.31328" lon="3.07199">
        <ele>31.8</ele>
        <time>2015-08-03T14:34:46.002Z</time>
      </trkpt>
      <trkpt lat="43.31327" lon="3.07202">
        <ele>32</ele>
        <time>2015-08-03T14:34:46.959Z</time>
      </trkpt>
      <trkpt lat="43.31324" lon="3.07212">
        <ele>32.1</ele>
        <time>2015-08-03T14:34:50.008Z</time>
      </trkpt>
      <trkpt lat="43.31322" lon="3.07215">
        <ele>32.1</ele>
        <time>2015-08-03T14:34:50.965Z</time>
      </trkpt>
      <trkpt lat="43.31319" lon="3.07223">
        <ele>32</ele>
        <time>2015-08-03T14:34:53.026Z</time>
      </trkpt>
      <trkpt lat="43.31317" lon="3.07228">
        <ele>31.7</ele>
        <time>2015-08-03T14:34:53.959Z</time>
      </trkpt>
      <trkpt lat="43.31312" lon="3.07237">
        <ele>31.9</ele>
        <time>2015-08-03T14:34:57.015Z</time>
      </trkpt>
      <trkpt lat="43.31311" lon="3.07241">
        <ele>31.5</ele>
        <time>2015-08-03T14:34:57.969Z</time>
      </trkpt>
      <trkpt lat="43.31307" lon="3.07251">
        <ele>31.5</ele>
        <time>2015-08-03T14:35:01.017Z</time>
      </trkpt>
      <trkpt lat="43.31305" lon="3.07254">
        <ele>31.4</ele>
        <time>2015-08-03T14:35:01.958Z</time>
      </trkpt>
      <trkpt lat="43.31301" lon="3.0726">
        <ele>31.3</ele>
        <time>2015-08-03T14:35:04.496Z</time>
      </trkpt>
      <trkpt lat="43.31299" lon="3.07265">
        <ele>30.7</ele>
        <time>2015-08-03T14:35:04.958Z</time>
      </trkpt>
      <trkpt lat="43.31295" lon="3.07271">
        <ele>30.9</ele>
        <time>2015-08-03T14:35:07.021Z</time>
      </trkpt>
      <trkpt lat="43.31293" lon="3.07275">
        <ele>31.1</ele>
        <time>2015-08-03T14:35:07.956Z</time>
      </trkpt>
      <trkpt lat="43.3129" lon="3.07282">
        <ele>31.1</ele>
        <time>2015-08-03T14:35:10.012Z</time>
      </trkpt>
      <trkpt lat="43.31288" lon="3.07286">
        <ele>31.1</ele>
        <time>2015-08-03T14:35:10.981Z</time>
      </trkpt>
      <trkpt lat="43.31284" lon="3.07294">
        <ele>30.6</ele>
        <time>2015-08-03T14:35:13.015Z</time>
      </trkpt>
      <trkpt lat="43.31282" lon="3.07297">
        <ele>30.7</ele>
        <time>2015-08-03T14:35:13.960Z</time>
      </trkpt>
      <trkpt lat="43.31279" lon="3.07305">
        <ele>30.4</ele>
        <time>2015-08-03T14:35:16.006Z</time>
      </trkpt>
      <trkpt lat="43.31277" lon="3.07309">
        <ele>30.2</ele>
        <time>2015-08-03T14:35:16.962Z</time>
      </trkpt>
      <trkpt lat="43.31274" lon="3.07316">
        <ele>30</ele>
        <time>2015-08-03T14:35:19.016Z</time>
      </trkpt>
      <trkpt lat="43.31272" lon="3.0732">
        <ele>29.7</ele>
        <time>2015-08-03T14:35:19.959Z</time>
      </trkpt>
      <trkpt lat="43.31268" lon="3.0733">
        <ele>30.3</ele>
        <time>2015-08-03T14:35:23.059Z</time>
      </trkpt>
      <trkpt lat="43.31268" lon="3.07334">
        <ele>30.3</ele>
        <time>2015-08-03T14:35:23.959Z</time>
      </trkpt>
      <trkpt lat="43.31264" lon="3.07342">
        <ele>31</ele>
        <time>2015-08-03T14:35:27.010Z</time>
      </trkpt>
      <trkpt lat="43.31262" lon="3.07345">
        <ele>30.9</ele>
        <time>2015-08-03T14:35:27.970Z</time>
      </trkpt>
      <trkpt lat="43.31259" lon="3.07356">
        <ele>31.1</ele>
        <time>2015-08-03T14:35:31.226Z</time>
      </trkpt>
      <trkpt lat="43.31257" lon="3.07359">
        <ele>31.5</ele>
        <time>2015-08-03T14:35:31.959Z</time>
      </trkpt>
      <trkpt lat="43.31254" lon="3.07368">
        <ele>31.9</ele>
        <time>2015-08-03T14:35:35.028Z</time>
      </trkpt>
      <trkpt lat="43.31252" lon="3.07372">
        <ele>31.9</ele>
        <time>2015-08-03T14:35:35.959Z</time>
      </trkpt>
      <trkpt lat="43.31247" lon="3.07382">
        <ele>32.6</ele>
        <time>2015-08-03T14:35:39.017Z</time>
      </trkpt>
      <trkpt lat="43.31246" lon="3.07386">
        <ele>32.7</ele>
        <time>2015-08-03T14:35:39.963Z</time>
      </trkpt>
      <trkpt lat="43.31241" lon="3.07396">
        <ele>33.3</ele>
        <time>2015-08-03T14:35:43.016Z</time>
      </trkpt>
      <trkpt lat="43.3124" lon="3.074">
        <ele>33.5</ele>
        <time>2015-08-03T14:35:43.960Z</time>
      </trkpt>
      <trkpt lat="43.31237" lon="3.07408">
        <ele>33.8</ele>
        <time>2015-08-03T14:35:46.055Z</time>
      </trkpt>
      <trkpt lat="43.31235" lon="3.07413">
        <ele>33.9</ele>
        <time>2015-08-03T14:35:46.959Z</time>
      </trkpt>
      <trkpt lat="43.31233" lon="3.07419">
        <ele>33.9</ele>
        <time>2015-08-03T14:35:48.017Z</time>
      </trkpt>
      <trkpt lat="43.31231" lon="3.07424">
        <ele>34</ele>
        <time>2015-08-03T14:35:48.960Z</time>
      </trkpt>
      <trkpt lat="43.31229" lon="3.07434">
        <ele>34.5</ele>
        <time>2015-08-03T14:35:51.005Z</time>
      </trkpt>
      <trkpt lat="43.31227" lon="3.07438">
        <ele>34.9</ele>
        <time>2015-08-03T14:35:51.959Z</time>
      </trkpt>
      <trkpt lat="43.31223" lon="3.07446">
        <ele>35.4</ele>
        <time>2015-08-03T14:35:54.007Z</time>
      </trkpt>
      <trkpt lat="43.31221" lon="3.07449">
        <ele>35.6</ele>
        <time>2015-08-03T14:35:54.960Z</time>
      </trkpt>
      <trkpt lat="43.31218" lon="3.07457">
        <ele>36.5</ele>
        <time>2015-08-03T14:35:57.013Z</time>
      </trkpt>
      <trkpt lat="43.31216" lon="3.07461">
        <ele>37</ele>
        <time>2015-08-03T14:35:57.959Z</time>
      </trkpt>
      <trkpt lat="43.31213" lon="3.07471">
        <ele>37.3</ele>
        <time>2015-08-03T14:36:00.009Z</time>
      </trkpt>
      <trkpt lat="43.31211" lon="3.07475">
        <ele>37.8</ele>
        <time>2015-08-03T14:36:00.970Z</time>
      </trkpt>
      <trkpt lat="43.31207" lon="3.07482">
        <ele>38.3</ele>
        <time>2015-08-03T14:36:03.008Z</time>
      </trkpt>
      <trkpt lat="43.31206" lon="3.07487">
        <ele>38.6</ele>
        <time>2015-08-03T14:36:03.959Z</time>
      </trkpt>
      <trkpt lat="43.31201" lon="3.07497">
        <ele>39.5</ele>
        <time>2015-08-03T14:36:07.013Z</time>
      </trkpt>
      <trkpt lat="43.312" lon="3.075">
        <ele>39.8</ele>
        <time>2015-08-03T14:36:07.959Z</time>
      </trkpt>
      <trkpt lat="43.31195" lon="3.07509">
        <ele>41</ele>
        <time>2015-08-03T14:36:11.008Z</time>
      </trkpt>
      <trkpt lat="43.31192" lon="3.07511">
        <ele>41.2</ele>
        <time>2015-08-03T14:36:11.958Z</time>
      </trkpt>
      <trkpt lat="43.31186" lon="3.0752">
        <ele>42</ele>
        <time>2015-08-03T14:36:15.010Z</time>
      </trkpt>
      <trkpt lat="43.31184" lon="3.07523">
        <ele>41.9</ele>
        <time>2015-08-03T14:36:15.959Z</time>
      </trkpt>
      <trkpt lat="43.31179" lon="3.07527">
        <ele>42.5</ele>
        <time>2015-08-03T14:36:18.016Z</time>
      </trkpt>
      <trkpt lat="43.31176" lon="3.0753">
        <ele>42.7</ele>
        <time>2015-08-03T14:36:18.963Z</time>
      </trkpt>
      <trkpt lat="43.31169" lon="3.07537">
        <ele>43.3</ele>
        <time>2015-08-03T14:36:22.011Z</time>
      </trkpt>
      <trkpt lat="43.31167" lon="3.07539">
        <ele>43.7</ele>
        <time>2015-08-03T14:36:22.976Z</time>
      </trkpt>
      <trkpt lat="43.31162" lon="3.07544">
        <ele>43.9</ele>
        <time>2015-08-03T14:36:25.005Z</time>
      </trkpt>
      <trkpt lat="43.31159" lon="3.07546">
        <ele>44.2</ele>
        <time>2015-08-03T14:36:25.958Z</time>
      </trkpt>
      <trkpt lat="43.31153" lon="3.07551">
        <ele>44.9</ele>
        <time>2015-08-03T14:36:29.003Z</time>
      </trkpt>
      <trkpt lat="43.31151" lon="3.07553">
        <ele>45.1</ele>
        <time>2015-08-03T14:36:29.959Z</time>
      </trkpt>
      <trkpt lat="43.31144" lon="3.0756">
        <ele>45.2</ele>
        <time>2015-08-03T14:36:33.003Z</time>
      </trkpt>
      <trkpt lat="43.31142" lon="3.07562">
        <ele>45.4</ele>
        <time>2015-08-03T14:36:33.958Z</time>
      </trkpt>
      <trkpt lat="43.31137" lon="3.07565">
        <ele>45.4</ele>
        <time>2015-08-03T14:36:36.001Z</time>
      </trkpt>
      <trkpt lat="43.31134" lon="3.07569">
        <ele>44.9</ele>
        <time>2015-08-03T14:36:36.959Z</time>
      </trkpt>
      <trkpt lat="43.31126" lon="3.07572">
        <ele>45</ele>
        <time>2015-08-03T14:36:40.009Z</time>
      </trkpt>
      <trkpt lat="43.31123" lon="3.07574">
        <ele>45.2</ele>
        <time>2015-08-03T14:36:41.316Z</time>
      </trkpt>
      <trkpt lat="43.31115" lon="3.0758">
        <ele>44.8</ele>
        <time>2015-08-03T14:36:44.076Z</time>
      </trkpt>
      <trkpt lat="43.31113" lon="3.07581">
        <ele>44.9</ele>
        <time>2015-08-03T14:36:44.967Z</time>
      </trkpt>
      <trkpt lat="43.31105" lon="3.07585">
        <ele>44.7</ele>
        <time>2015-08-03T14:36:48.021Z</time>
      </trkpt>
      <trkpt lat="43.31102" lon="3.07587">
        <ele>44.3</ele>
        <time>2015-08-03T14:36:48.966Z</time>
      </trkpt>
      <trkpt lat="43.31094" lon="3.07591">
        <ele>44.3</ele>
        <time>2015-08-03T14:36:52.025Z</time>
      </trkpt>
      <trkpt lat="43.31091" lon="3.07593">
        <ele>44.1</ele>
        <time>2015-08-03T14:36:52.969Z</time>
      </trkpt>
      <trkpt lat="43.31083" lon="3.07597">
        <ele>44.3</ele>
        <time>2015-08-03T14:36:56.011Z</time>
      </trkpt>
      <trkpt lat="43.3108" lon="3.07599">
        <ele>43.6</ele>
        <time>2015-08-03T14:36:56.959Z</time>
      </trkpt>
      <trkpt lat="43.31075" lon="3.07604">
        <ele>43</ele>
        <time>2015-08-03T14:36:59.003Z</time>
      </trkpt>
      <trkpt lat="43.31071" lon="3.07607">
        <ele>42.6</ele>
        <time>2015-08-03T14:36:59.956Z</time>
      </trkpt>
      <trkpt lat="43.31065" lon="3.0761">
        <ele>42.2</ele>
        <time>2015-08-03T14:37:02.000Z</time>
      </trkpt>
      <trkpt lat="43.31062" lon="3.07612">
        <ele>41.5</ele>
        <time>2015-08-03T14:37:02.963Z</time>
      </trkpt>
      <trkpt lat="43.31054" lon="3.07616">
        <ele>40.1</ele>
        <time>2015-08-03T14:37:06.004Z</time>
      </trkpt>
      <trkpt lat="43.31052" lon="3.07617">
        <ele>40.1</ele>
        <time>2015-08-03T14:37:06.959Z</time>
      </trkpt>
      <trkpt lat="43.31045" lon="3.07623">
        <ele>38.6</ele>
        <time>2015-08-03T14:37:10.000Z</time>
      </trkpt>
      <trkpt lat="43.31043" lon="3.07625">
        <ele>37.7</ele>
        <time>2015-08-03T14:37:10.961Z</time>
      </trkpt>
      <trkpt lat="43.31035" lon="3.07631">
        <ele>36.5</ele>
        <time>2015-08-03T14:37:14.017Z</time>
      </trkpt>
      <trkpt lat="43.31033" lon="3.07633">
        <ele>36</ele>
        <time>2015-08-03T14:37:14.960Z</time>
      </trkpt>
      <trkpt lat="43.31028" lon="3.07638">
        <ele>35.3</ele>
        <time>2015-08-03T14:37:17.034Z</time>
      </trkpt>
      <trkpt lat="43.31025" lon="3.07641">
        <ele>35.4</ele>
        <time>2015-08-03T14:37:17.984Z</time>
      </trkpt>
      <trkpt lat="43.3102" lon="3.07646">
        <ele>34.7</ele>
        <time>2015-08-03T14:37:20.354Z</time>
      </trkpt>
      <trkpt lat="43.31018" lon="3.0765">
        <ele>34.7</ele>
        <time>2015-08-03T14:37:20.962Z</time>
      </trkpt>
      <trkpt lat="43.31013" lon="3.0766">
        <ele>33.2</ele>
        <time>2015-08-03T14:37:24.003Z</time>
      </trkpt>
      <trkpt lat="43.31011" lon="3.07663">
        <ele>33.3</ele>
        <time>2015-08-03T14:37:24.962Z</time>
      </trkpt>
      <trkpt lat="43.31006" lon="3.07673">
        <ele>33.4</ele>
        <time>2015-08-03T14:37:28.020Z</time>
      </trkpt>
      <trkpt lat="43.31005" lon="3.07676">
        <ele>33.1</ele>
        <time>2015-08-03T14:37:28.965Z</time>
      </trkpt>
      <trkpt lat="43.31001" lon="3.07686">
        <ele>33.4</ele>
        <time>2015-08-03T14:37:32.008Z</time>
      </trkpt>
      <trkpt lat="43.30999" lon="3.07691">
        <ele>33.4</ele>
        <time>2015-08-03T14:37:32.959Z</time>
      </trkpt>
      <trkpt lat="43.30998" lon="3.077">
        <ele>33.3</ele>
        <time>2015-08-03T14:37:35.022Z</time>
      </trkpt>
      <trkpt lat="43.30997" lon="3.07705">
        <ele>33.2</ele>
        <time>2015-08-03T14:37:35.960Z</time>
      </trkpt>
      <trkpt lat="43.30995" lon="3.07716">
        <ele>32</ele>
        <time>2015-08-03T14:37:38.008Z</time>
      </trkpt>
      <trkpt lat="43.30995" lon="3.07721">
        <ele>32.2</ele>
        <time>2015-08-03T14:37:38.962Z</time>
      </trkpt>
      <trkpt lat="43.30995" lon="3.07731">
        <ele>31.3</ele>
        <time>2015-08-03T14:37:40.998Z</time>
      </trkpt>
      <trkpt lat="43.30995" lon="3.07736">
        <ele>30.8</ele>
        <time>2015-08-03T14:37:41.957Z</time>
      </trkpt>
      <trkpt lat="43.30997" lon="3.07744">
        <ele>30.6</ele>
        <time>2015-08-03T14:37:44.008Z</time>
      </trkpt>
      <trkpt lat="43.30997" lon="3.07748">
        <ele>30.4</ele>
        <time>2015-08-03T14:37:44.965Z</time>
      </trkpt>
      <trkpt lat="43.30998" lon="3.07759">
        <ele>30</ele>
        <time>2015-08-03T14:37:48.017Z</time>
      </trkpt>
      <trkpt lat="43.30998" lon="3.07762">
        <ele>29.6</ele>
        <time>2015-08-03T14:37:48.963Z</time>
      </trkpt>
      <trkpt lat="43.31001" lon="3.07774">
        <ele>29.3</ele>
        <time>2015-08-03T14:37:53.039Z</time>
      </trkpt>
      <trkpt lat="43.31001" lon="3.07776">
        <ele>29.3</ele>
        <time>2015-08-03T14:37:53.968Z</time>
      </trkpt>
      <trkpt lat="43.31003" lon="3.07788">
        <ele>29.4</ele>
        <time>2015-08-03T14:37:58.018Z</time>
      </trkpt>
      <trkpt lat="43.31003" lon="3.07791">
        <ele>29</ele>
        <time>2015-08-03T14:37:58.959Z</time>
      </trkpt>
      <trkpt lat="43.31004" lon="3.07803">
        <ele>29</ele>
        <time>2015-08-03T14:38:02.021Z</time>
      </trkpt>
      <trkpt lat="43.31004" lon="3.07807">
        <ele>29.5</ele>
        <time>2015-08-03T14:38:02.968Z</time>
      </trkpt>
      <trkpt lat="43.31001" lon="3.07818">
        <ele>30</ele>
        <time>2015-08-03T14:38:06.011Z</time>
      </trkpt>
      <trkpt lat="43.31" lon="3.07821">
        <ele>30.2</ele>
        <time>2015-08-03T14:38:06.962Z</time>
      </trkpt>
      <trkpt lat="43.30996" lon="3.07829">
        <ele>31</ele>
        <time>2015-08-03T14:38:10.032Z</time>
      </trkpt>
      <trkpt lat="43.30993" lon="3.07831">
        <ele>31</ele>
        <time>2015-08-03T14:38:10.981Z</time>
      </trkpt>
      <trkpt lat="43.30987" lon="3.07839">
        <ele>31.9</ele>
        <time>2015-08-03T14:38:15.058Z</time>
      </trkpt>
      <trkpt lat="43.30985" lon="3.0784">
        <ele>32.3</ele>
        <time>2015-08-03T14:38:15.958Z</time>
      </trkpt>
      <trkpt lat="43.30978" lon="3.07846">
        <ele>32.7</ele>
        <time>2015-08-03T14:38:20.008Z</time>
      </trkpt>
      <trkpt lat="43.30975" lon="3.07847">
        <ele>33</ele>
        <time>2015-08-03T14:38:20.959Z</time>
      </trkpt>
      <trkpt lat="43.3097" lon="3.07851">
        <ele>32.9</ele>
        <time>2015-08-03T14:38:23.252Z</time>
      </trkpt>
      <trkpt lat="43.30967" lon="3.07852">
        <ele>32.9</ele>
        <time>2015-08-03T14:38:23.957Z</time>
      </trkpt>
      <trkpt lat="43.30959" lon="3.07857">
        <ele>32.1</ele>
        <time>2015-08-03T14:38:28.014Z</time>
      </trkpt>
      <trkpt lat="43.30957" lon="3.07858">
        <ele>31.9</ele>
        <time>2015-08-03T14:38:28.981Z</time>
      </trkpt>
      <trkpt lat="43.3095" lon="3.07861">
        <ele>31</ele>
        <time>2015-08-03T14:38:32.006Z</time>
      </trkpt>
      <trkpt lat="43.30948" lon="3.07862">
        <ele>30.7</ele>
        <time>2015-08-03T14:38:32.961Z</time>
      </trkpt>
      <trkpt lat="43.30939" lon="3.07865">
        <ele>29.5</ele>
        <time>2015-08-03T14:38:36.130Z</time>
      </trkpt>
      <trkpt lat="43.30937" lon="3.07866">
        <ele>29.3</ele>
        <time>2015-08-03T14:38:36.982Z</time>
      </trkpt>
      <trkpt lat="43.3093" lon="3.07868">
        <ele>28.2</ele>
        <time>2015-08-03T14:38:40.006Z</time>
      </trkpt>
      <trkpt lat="43.30929" lon="3.07869">
        <ele>28</ele>
        <time>2015-08-03T14:38:40.959Z</time>
      </trkpt>
      <trkpt lat="43.30921" lon="3.07871">
        <ele>28.3</ele>
        <time>2015-08-03T14:38:45.038Z</time>
      </trkpt>
      <trkpt lat="43.30919" lon="3.07871">
        <ele>28.2</ele>
        <time>2015-08-03T14:38:45.968Z</time>
      </trkpt>
      <trkpt lat="43.30911" lon="3.07872">
        <ele>28.3</ele>
        <time>2015-08-03T14:38:50.008Z</time>
      </trkpt>
      <trkpt lat="43.30909" lon="3.07872">
        <ele>28.4</ele>
        <time>2015-08-03T14:38:50.962Z</time>
      </trkpt>
      <trkpt lat="43.309" lon="3.07874">
        <ele>29.5</ele>
        <time>2015-08-03T14:38:55.033Z</time>
      </trkpt>
      <trkpt lat="43.30898" lon="3.07875">
        <ele>29.3</ele>
        <time>2015-08-03T14:38:55.968Z</time>
      </trkpt>
      <trkpt lat="43.3089" lon="3.07877">
        <ele>29.6</ele>
        <time>2015-08-03T14:39:00.080Z</time>
      </trkpt>
      <trkpt lat="43.30888" lon="3.07877">
        <ele>29.7</ele>
        <time>2015-08-03T14:39:00.961Z</time>
      </trkpt>
      <trkpt lat="43.3088" lon="3.0788">
        <ele>29.1</ele>
        <time>2015-08-03T14:39:04.006Z</time>
      </trkpt>
      <trkpt lat="43.30878" lon="3.0788">
        <ele>29.2</ele>
        <time>2015-08-03T14:39:04.957Z</time>
      </trkpt>
      <trkpt lat="43.3087" lon="3.0788">
        <ele>28.8</ele>
        <time>2015-08-03T14:39:08.017Z</time>
      </trkpt>
      <trkpt lat="43.30867" lon="3.0788">
        <ele>28.7</ele>
        <time>2015-08-03T14:39:08.958Z</time>
      </trkpt>
      <trkpt lat="43.30859" lon="3.07881">
        <ele>28.6</ele>
        <time>2015-08-03T14:39:13.056Z</time>
      </trkpt>
      <trkpt lat="43.30855" lon="3.07881">
        <ele>28.7</ele>
        <time>2015-08-03T14:39:13.969Z</time>
      </trkpt>
      <trkpt lat="43.30847" lon="3.07881">
        <ele>28</ele>
        <time>2015-08-03T14:39:17.007Z</time>
      </trkpt>
      <trkpt lat="43.30844" lon="3.07881">
        <ele>27.8</ele>
        <time>2015-08-03T14:39:17.957Z</time>
      </trkpt>
      <trkpt lat="43.30837" lon="3.07878">
        <ele>27.2</ele>
        <time>2015-08-03T14:39:21.396Z</time>
      </trkpt>
      <trkpt lat="43.30834" lon="3.07879">
        <ele>26.7</ele>
        <time>2015-08-03T14:39:21.961Z</time>
      </trkpt>
      <trkpt lat="43.30827" lon="3.07879">
        <ele>25.3</ele>
        <time>2015-08-03T14:39:25.018Z</time>
      </trkpt>
      <trkpt lat="43.30825" lon="3.07879">
        <ele>24.8</ele>
        <time>2015-08-03T14:39:25.959Z</time>
      </trkpt>
      <trkpt lat="43.30817" lon="3.07877">
        <ele>23.8</ele>
        <time>2015-08-03T14:39:29.053Z</time>
      </trkpt>
      <trkpt lat="43.30815" lon="3.07877">
        <ele>23.5</ele>
        <time>2015-08-03T14:39:29.969Z</time>
      </trkpt>
      <trkpt lat="43.30807" lon="3.07872">
        <ele>22.7</ele>
        <time>2015-08-03T14:39:34.017Z</time>
      </trkpt>
      <trkpt lat="43.30805" lon="3.07872">
        <ele>22.5</ele>
        <time>2015-08-03T14:39:34.960Z</time>
      </trkpt>
      <trkpt lat="43.30797" lon="3.07869">
        <ele>22.2</ele>
        <time>2015-08-03T14:39:38.032Z</time>
      </trkpt>
      <trkpt lat="43.30795" lon="3.07868">
        <ele>21.9</ele>
        <time>2015-08-03T14:39:38.983Z</time>
      </trkpt>
      <trkpt lat="43.30789" lon="3.07866">
        <ele>21.4</ele>
        <time>2015-08-03T14:39:41.006Z</time>
      </trkpt>
      <trkpt lat="43.30786" lon="3.07865">
        <ele>21.1</ele>
        <time>2015-08-03T14:39:41.959Z</time>
      </trkpt>
      <trkpt lat="43.30777" lon="3.0786">
        <ele>20.5</ele>
        <time>2015-08-03T14:39:44.007Z</time>
      </trkpt>
      <trkpt lat="43.30774" lon="3.0786">
        <ele>20.3</ele>
        <time>2015-08-03T14:39:44.959Z</time>
      </trkpt>
      <trkpt lat="43.30767" lon="3.07856">
        <ele>19.8</ele>
        <time>2015-08-03T14:39:47.018Z</time>
      </trkpt>
      <trkpt lat="43.30764" lon="3.07855">
        <ele>19.6</ele>
        <time>2015-08-03T14:39:47.959Z</time>
      </trkpt>
      <trkpt lat="43.30757" lon="3.07853">
        <ele>19.6</ele>
        <time>2015-08-03T14:39:50.004Z</time>
      </trkpt>
      <trkpt lat="43.30754" lon="3.07852">
        <ele>19.3</ele>
        <time>2015-08-03T14:39:50.963Z</time>
      </trkpt>
      <trkpt lat="43.30746" lon="3.07847">
        <ele>18.6</ele>
        <time>2015-08-03T14:39:54.056Z</time>
      </trkpt>
      <trkpt lat="43.30743" lon="3.07844">
        <ele>18.6</ele>
        <time>2015-08-03T14:39:55.000Z</time>
      </trkpt>
      <trkpt lat="43.30738" lon="3.07839">
        <ele>18.2</ele>
        <time>2015-08-03T14:39:57.020Z</time>
      </trkpt>
      <trkpt lat="43.30735" lon="3.07837">
        <ele>18.1</ele>
        <time>2015-08-03T14:39:57.959Z</time>
      </trkpt>
      <trkpt lat="43.30729" lon="3.0783">
        <ele>17.5</ele>
        <time>2015-08-03T14:40:01.018Z</time>
      </trkpt>
      <trkpt lat="43.30727" lon="3.07827">
        <ele>17.3</ele>
        <time>2015-08-03T14:40:01.958Z</time>
      </trkpt>
      <trkpt lat="43.3072" lon="3.07821">
        <ele>17.3</ele>
        <time>2015-08-03T14:40:04.104Z</time>
      </trkpt>
      <trkpt lat="43.30718" lon="3.07818">
        <ele>17.4</ele>
        <time>2015-08-03T14:40:04.961Z</time>
      </trkpt>
      <trkpt lat="43.30712" lon="3.0781">
        <ele>17.3</ele>
        <time>2015-08-03T14:40:08.007Z</time>
      </trkpt>
      <trkpt lat="43.30709" lon="3.07808">
        <ele>17.4</ele>
        <time>2015-08-03T14:40:08.962Z</time>
      </trkpt>
      <trkpt lat="43.30703" lon="3.078">
        <ele>17.3</ele>
        <time>2015-08-03T14:40:11.996Z</time>
      </trkpt>
      <trkpt lat="43.307" lon="3.07798">
        <ele>17.3</ele>
        <time>2015-08-03T14:40:12.964Z</time>
      </trkpt>
      <trkpt lat="43.30693" lon="3.07791">
        <ele>17</ele>
        <time>2015-08-03T14:40:17.041Z</time>
      </trkpt>
      <trkpt lat="43.30691" lon="3.0779">
        <ele>17</ele>
        <time>2015-08-03T14:40:17.968Z</time>
      </trkpt>
      <trkpt lat="43.30687" lon="3.07784">
        <ele>16.7</ele>
        <time>2015-08-03T14:40:20.022Z</time>
      </trkpt>
      <trkpt lat="43.30685" lon="3.07781">
        <ele>16.7</ele>
        <time>2015-08-03T14:40:20.980Z</time>
      </trkpt>
      <trkpt lat="43.30679" lon="3.07776">
        <ele>16.7</ele>
        <time>2015-08-03T14:40:22.996Z</time>
      </trkpt>
      <trkpt lat="43.30677" lon="3.07774">
        <ele>17.1</ele>
        <time>2015-08-03T14:40:23.959Z</time>
      </trkpt>
      <trkpt lat="43.30672" lon="3.07768">
        <ele>17.8</ele>
        <time>2015-08-03T14:40:26.025Z</time>
      </trkpt>
      <trkpt lat="43.3067" lon="3.07765">
        <ele>17.8</ele>
        <time>2015-08-03T14:40:26.982Z</time>
      </trkpt>
      <trkpt lat="43.30665" lon="3.07759">
        <ele>17.8</ele>
        <time>2015-08-03T14:40:29.004Z</time>
      </trkpt>
      <trkpt lat="43.30662" lon="3.07756">
        <ele>17.7</ele>
        <time>2015-08-03T14:40:29.961Z</time>
      </trkpt>
      <trkpt lat="43.30657" lon="3.0775">
        <ele>17.6</ele>
        <time>2015-08-03T14:40:32.001Z</time>
      </trkpt>
      <trkpt lat="43.30655" lon="3.07747">
        <ele>17.5</ele>
        <time>2015-08-03T14:40:32.982Z</time>
      </trkpt>
      <trkpt lat="43.3065" lon="3.0774">
        <ele>17.3</ele>
        <time>2015-08-03T14:40:35.006Z</time>
      </trkpt>
      <trkpt lat="43.30647" lon="3.07737">
        <ele>17.2</ele>
        <time>2015-08-03T14:40:35.957Z</time>
      </trkpt>
      <trkpt lat="43.30641" lon="3.07729">
        <ele>17.8</ele>
        <time>2015-08-03T14:40:38.006Z</time>
      </trkpt>
      <trkpt lat="43.30638" lon="3.07725">
        <ele>17.7</ele>
        <time>2015-08-03T14:40:38.963Z</time>
      </trkpt>
      <trkpt lat="43.30635" lon="3.0772">
        <ele>17.7</ele>
        <time>2015-08-03T14:40:40.029Z</time>
      </trkpt>
      <trkpt lat="43.30631" lon="3.07716">
        <ele>17.7</ele>
        <time>2015-08-03T14:40:40.980Z</time>
      </trkpt>
      <trkpt lat="43.30624" lon="3.07711">
        <ele>18.1</ele>
        <time>2015-08-03T14:40:43.002Z</time>
      </trkpt>
      <trkpt lat="43.3062" lon="3.0771">
        <ele>18.2</ele>
        <time>2015-08-03T14:40:43.959Z</time>
      </trkpt>
      <trkpt lat="43.30613" lon="3.07708">
        <ele>19</ele>
        <time>2015-08-03T14:40:45.999Z</time>
      </trkpt>
      <trkpt lat="43.3061" lon="3.07707">
        <ele>19.2</ele>
        <time>2015-08-03T14:40:46.961Z</time>
      </trkpt>
      <trkpt lat="43.30604" lon="3.07706">
        <ele>19.5</ele>
        <time>2015-08-03T14:40:49.036Z</time>
      </trkpt>
      <trkpt lat="43.306" lon="3.07707">
        <ele>20</ele>
        <time>2015-08-03T14:40:49.968Z</time>
      </trkpt>
      <trkpt lat="43.30594" lon="3.07709">
        <ele>20.6</ele>
        <time>2015-08-03T14:40:52.000Z</time>
      </trkpt>
      <trkpt lat="43.3059" lon="3.0771">
        <ele>20.7</ele>
        <time>2015-08-03T14:40:52.960Z</time>
      </trkpt>
      <trkpt lat="43.30599" lon="3.07711">
        <ele>20.8</ele>
        <time>2015-08-03T14:41:06.272Z</time>
      </trkpt>
      <trkpt lat="43.30601" lon="3.0771">
        <ele>21.3</ele>
        <time>2015-08-03T14:41:06.962Z</time>
      </trkpt>
      <trkpt lat="43.30593" lon="3.07705">
        <ele>24.1</ele>
        <time>2015-08-03T14:41:17.038Z</time>
      </trkpt>
      <trkpt lat="43.3059" lon="3.07707">
        <ele>24.3</ele>
        <time>2015-08-03T14:41:17.959Z</time>
      </trkpt>
      <trkpt lat="43.30584" lon="3.07711">
        <ele>24.6</ele>
        <time>2015-08-03T14:41:20.166Z</time>
      </trkpt>
      <trkpt lat="43.3058" lon="3.07714">
        <ele>24.9</ele>
        <time>2015-08-03T14:41:20.957Z</time>
      </trkpt>
      <trkpt lat="43.30574" lon="3.0772">
        <ele>25.5</ele>
        <time>2015-08-03T14:41:23.008Z</time>
      </trkpt>
      <trkpt lat="43.30572" lon="3.07724">
        <ele>25.6</ele>
        <time>2015-08-03T14:41:23.958Z</time>
      </trkpt>
      <trkpt lat="43.30568" lon="3.07732">
        <ele>25.8</ele>
        <time>2015-08-03T14:41:25.993Z</time>
      </trkpt>
      <trkpt lat="43.30567" lon="3.07735">
        <ele>25.9</ele>
        <time>2015-08-03T14:41:26.962Z</time>
      </trkpt>
      <trkpt lat="43.30564" lon="3.07746">
        <ele>25.8</ele>
        <time>2015-08-03T14:41:29.996Z</time>
      </trkpt>
      <trkpt lat="43.30563" lon="3.07749">
        <ele>25.6</ele>
        <time>2015-08-03T14:41:30.982Z</time>
      </trkpt>
      <trkpt lat="43.30561" lon="3.07758">
        <ele>25.9</ele>
        <time>2015-08-03T14:41:33.997Z</time>
      </trkpt>
      <trkpt lat="43.3056" lon="3.07761">
        <ele>25.8</ele>
        <time>2015-08-03T14:41:34.964Z</time>
      </trkpt>
      <trkpt lat="43.30558" lon="3.07768">
        <ele>26.4</ele>
        <time>2015-08-03T14:41:38.001Z</time>
      </trkpt>
      <trkpt lat="43.30557" lon="3.07768">
        <ele>26.3</ele>
        <time>2015-08-03T14:41:38.960Z</time>
      </trkpt>
      <trkpt lat="43.30557" lon="3.07769">
        <ele>25.9</ele>
        <time>2015-08-03T14:42:34.001Z</time>
      </trkpt>
      <trkpt lat="43.30566" lon="3.07763">
        <ele>29.9</ele>
        <time>2015-08-03T14:42:34.959Z</time>
      </trkpt>
      <trkpt lat="43.30566" lon="3.07763">
        <ele>29.9</ele>
        <time>2015-08-03T14:42:35.003Z</time>
      </trkpt>
      <trkpt lat="43.30568" lon="3.07761">
        <ele>29.6</ele>
        <time>2015-08-03T14:42:58.057Z</time>
      </trkpt>
      <trkpt lat="43.3056" lon="3.07767">
        <ele>29.5</ele>
        <time>2015-08-03T14:42:58.955Z</time>
      </trkpt>
      <trkpt lat="43.30559" lon="3.07768">
        <ele>29.2</ele>
        <time>2015-08-03T14:44:04.417Z</time>
      </trkpt>
    </trkseg>
  </trk>
</gpx>